<?xml version='1.0' encoding='UTF-8'?><gpx version="1.1" creator="JPX - https://github.com/jenetics/jpx" xmlns="http://www.topografix.com/GPX/1/1"><trk><trkseg><trkpt lat="44.82614682117128" lon="7.302658741020033"><ele>397.99999999999994</ele><time>2026-04-16T15:56:58.993Z</time></trkpt><trkpt lat="44.82609107888633" lon="7.302724314889465"><ele>398.0</ele><time>2026-04-16T15:57:01.993Z</time></trkpt><trkpt lat="44.82603179370078" lon="7.30269113892375"><ele>398.0</ele><time>2026-04-16T15:57:04.993Z</time></trkpt><trkpt lat="44.82602037458432" lon="7.302598608548475"><ele>398.0</ele><time>2026-04-16T15:57:07.993Z</time></trkpt><trkpt lat="44.8260280474893" lon="7.302505534548837"><ele>398.0</ele><time>2026-04-16T15:57:10.993Z</time></trkpt><trkpt lat="44.825970294248826" lon="7.30243887420178"><ele>397.99999999999994</ele><time>2026-04-16T15:57:16.993Z</time></trkpt><trkpt lat="44.825901052426225" lon="7.302405841677172"><ele>398.0</ele><time>2026-04-16T15:57:18.993Z</time></trkpt><trkpt lat="44.82583779405416" lon="7.302398648854582"><ele>396.49999999999994</ele><time>2026-04-16T15:57:21.992Z</time></trkpt><trkpt lat="44.82577429223849" lon="7.302333785305066"><ele>395.0</ele><time>2026-04-16T15:57:25.994Z</time></trkpt><trkpt lat="44.8256808810561" lon="7.302348231995758"><ele>393.5</ele><time>2026-04-16T15:57:28.995Z</time></trkpt><trkpt lat="44.82558641659926" lon="7.3023616651992045"><ele>392.0</ele><time>2026-04-16T15:57:30.996Z</time></trkpt><trkpt lat="44.825505790260635" lon="7.302363433546119"><ele>390.49999999999994</ele><time>2026-04-16T15:57:32.996Z</time></trkpt><trkpt lat="44.82542944836605" lon="7.302362281529457"><ele>389.0</ele><time>2026-04-16T15:57:34.997Z</time></trkpt><trkpt lat="44.82534812297464" lon="7.302350549654755"><ele>388.99999999999994</ele><time>2026-04-16T15:57:36.997Z</time></trkpt><trkpt lat="44.82527301795159" lon="7.302356727914153"><ele>389.0</ele><time>2026-04-16T15:57:38.997Z</time></trkpt><trkpt lat="44.825195482140224" lon="7.302353633563466"><ele>389.0</ele><time>2026-04-16T15:57:40.998Z</time></trkpt><trkpt lat="44.825122774081734" lon="7.302332519577575"><ele>389.0</ele><time>2026-04-16T15:57:42.998Z</time></trkpt><trkpt lat="44.82504464120987" lon="7.302336097241871"><ele>388.99999999999994</ele><time>2026-04-16T15:57:44.998Z</time></trkpt><trkpt lat="44.82495594243357" lon="7.302333796605108"><ele>389.0</ele><time>2026-04-16T15:57:46.998Z</time></trkpt><trkpt lat="44.82487051316814" lon="7.302337419520422"><ele>389.16666666666663</ele><time>2026-04-16T15:57:48.999Z</time></trkpt><trkpt lat="44.82477516367655" lon="7.302334321802147"><ele>389.3333333333333</ele><time>2026-04-16T15:57:50.999Z</time></trkpt><trkpt lat="44.82465736677023" lon="7.302342439222004"><ele>389.5</ele><time>2026-04-16T15:57:53.999Z</time></trkpt><trkpt lat="44.82459221433838" lon="7.302341454779084"><ele>389.66666666666663</ele><time>2026-04-16T15:57:56.999Z</time></trkpt><trkpt lat="44.82458171189366" lon="7.30222176236709"><ele>389.8333333333333</ele><time>2026-04-16T15:58:01Z</time></trkpt><trkpt lat="44.824569194556275" lon="7.302114663469025"><ele>390.0</ele><time>2026-04-16T15:58:05Z</time></trkpt><trkpt lat="44.824586073521424" lon="7.302025192673738"><ele>390.3333333333333</ele><time>2026-04-16T15:58:37.001Z</time></trkpt><trkpt lat="44.82457072604833" lon="7.301902597158929"><ele>390.66666666666663</ele><time>2026-04-16T15:58:41.001Z</time></trkpt><trkpt lat="44.82457186125283" lon="7.301808041219076"><ele>391.0</ele><time>2026-04-16T15:58:43.001Z</time></trkpt><trkpt lat="44.82457592883069" lon="7.301714391309864"><ele>391.3333333333333</ele><time>2026-04-16T15:58:45.001Z</time></trkpt><trkpt lat="44.82457904922032" lon="7.301621008744685"><ele>391.66666666666663</ele><time>2026-04-16T15:58:47.001Z</time></trkpt><trkpt lat="44.82453531498956" lon="7.301507817809004"><ele>392.0</ele><time>2026-04-16T15:58:50.001Z</time></trkpt><trkpt lat="44.82445676674173" lon="7.301451473471996"><ele>392.16666666666663</ele><time>2026-04-16T15:58:52.001Z</time></trkpt><trkpt lat="44.82438613655211" lon="7.301379431549497"><ele>392.3333333333333</ele><time>2026-04-16T15:58:54.001Z</time></trkpt><trkpt lat="44.82431632265819" lon="7.301306581661859"><ele>392.5</ele><time>2026-04-16T15:58:56.001Z</time></trkpt><trkpt lat="44.82424751002467" lon="7.301224848853122"><ele>392.66666666666663</ele><time>2026-04-16T15:58:58.001Z</time></trkpt><trkpt lat="44.82417430421317" lon="7.301147504656643"><ele>392.8333333333333</ele><time>2026-04-16T15:59:00.001Z</time></trkpt><trkpt lat="44.82410917689569" lon="7.3010746066382115"><ele>393.0</ele><time>2026-04-16T15:59:02.001Z</time></trkpt><trkpt lat="44.8240431539766" lon="7.3010118037368406"><ele>393.0</ele><time>2026-04-16T15:59:04.001Z</time></trkpt><trkpt lat="44.823988528745446" lon="7.3009436858608625"><ele>393.0</ele><time>2026-04-16T15:59:06.001Z</time></trkpt><trkpt lat="44.82394417669258" lon="7.300865826110979"><ele>393.0</ele><time>2026-04-16T15:59:09.001Z</time></trkpt><trkpt lat="44.823898564475414" lon="7.300757504108841"><ele>393.0</ele><time>2026-04-16T15:59:14.001Z</time></trkpt><trkpt lat="44.82385164206572" lon="7.3006917030861365"><ele>393.0</ele><time>2026-04-16T15:59:16.001Z</time></trkpt><trkpt lat="44.82380823616691" lon="7.300604996606299"><ele>393.0</ele><time>2026-04-16T15:59:18.001Z</time></trkpt><trkpt lat="44.82375568495236" lon="7.3005205452675686"><ele>392.8333333333333</ele><time>2026-04-16T15:59:20.001Z</time></trkpt><trkpt lat="44.82369890736648" lon="7.3004349255261705"><ele>392.66666666666663</ele><time>2026-04-16T15:59:22.001Z</time></trkpt><trkpt lat="44.823644241310795" lon="7.300359358088806"><ele>392.5</ele><time>2026-04-16T15:59:24.001Z</time></trkpt><trkpt lat="44.82358896091669" lon="7.300296256911191"><ele>392.3333333333333</ele><time>2026-04-16T15:59:26Z</time></trkpt><trkpt lat="44.82353004029686" lon="7.300237364424261"><ele>392.16666666666663</ele><time>2026-04-16T15:59:28Z</time></trkpt><trkpt lat="44.82347535286522" lon="7.300191401420055"><ele>392.0</ele><time>2026-04-16T15:59:30Z</time></trkpt><trkpt lat="44.82340285776369" lon="7.300130891787337"><ele>391.99999999999994</ele><time>2026-04-16T15:59:33Z</time></trkpt><trkpt lat="44.823337972732475" lon="7.3000854728498155"><ele>392.0</ele><time>2026-04-16T15:59:36Z</time></trkpt><trkpt lat="44.82326874136495" lon="7.300013714685485"><ele>392.0</ele><time>2026-04-16T15:59:40Z</time></trkpt><trkpt lat="44.82318378301481" lon="7.299981983353685"><ele>392.0</ele><time>2026-04-16T15:59:43Z</time></trkpt><trkpt lat="44.82311923246184" lon="7.299969006138292"><ele>391.99999999999994</ele><time>2026-04-16T15:59:45Z</time></trkpt><trkpt lat="44.82304875415108" lon="7.299968477077352"><ele>392.0</ele><time>2026-04-16T15:59:47Z</time></trkpt><trkpt lat="44.822978290618096" lon="7.299939083595323"><ele>391.99999999999994</ele><time>2026-04-16T15:59:49Z</time></trkpt><trkpt lat="44.822909988500236" lon="7.299863679297105"><ele>392.0</ele><time>2026-04-16T15:59:51Z</time></trkpt><trkpt lat="44.82283945790341" lon="7.299793003774051"><ele>392.0</ele><time>2026-04-16T15:59:53Z</time></trkpt><trkpt lat="44.8227688921159" lon="7.299714377485468"><ele>392.0</ele><time>2026-04-16T15:59:55Z</time></trkpt><trkpt lat="44.82269625296348" lon="7.299639355111732"><ele>391.99999999999994</ele><time>2026-04-16T15:59:57Z</time></trkpt><trkpt lat="44.82261534456901" lon="7.299569050594599"><ele>392.0</ele><time>2026-04-16T15:59:59Z</time></trkpt><trkpt lat="44.822532559003726" lon="7.299499502717566"><ele>392.20000000000005</ele><time>2026-04-16T16:00:01Z</time></trkpt><trkpt lat="44.82245805316217" lon="7.299425132080664"><ele>392.4</ele><time>2026-04-16T16:00:03Z</time></trkpt><trkpt lat="44.82238752013192" lon="7.29933747634765"><ele>392.6</ele><time>2026-04-16T16:00:05Z</time></trkpt><trkpt lat="44.82232137349481" lon="7.299246140200278"><ele>392.79999999999995</ele><time>2026-04-16T16:00:07Z</time></trkpt><trkpt lat="44.82225503652187" lon="7.299157232214403"><ele>393.0</ele><time>2026-04-16T16:00:09Z</time></trkpt><trkpt lat="44.822195030324366" lon="7.299056755487575"><ele>393.0</ele><time>2026-04-16T16:00:11Z</time></trkpt><trkpt lat="44.82213821541297" lon="7.298950192122752"><ele>393.0</ele><time>2026-04-16T16:00:13Z</time></trkpt><trkpt lat="44.82208100280511" lon="7.298846720489291"><ele>393.0</ele><time>2026-04-16T16:00:15Z</time></trkpt><trkpt lat="44.822026268403725" lon="7.2987347893351195"><ele>393.0</ele><time>2026-04-16T16:00:17Z</time></trkpt><trkpt lat="44.821972509052266" lon="7.2986281235737005"><ele>393.0</ele><time>2026-04-16T16:00:19Z</time></trkpt><trkpt lat="44.821914713446176" lon="7.298519447438196"><ele>393.6666666666667</ele><time>2026-04-16T16:00:21Z</time></trkpt><trkpt lat="44.821853611923885" lon="7.298410765788287"><ele>394.33333333333337</ele><time>2026-04-16T16:00:23Z</time></trkpt><trkpt lat="44.82178701489218" lon="7.298315907195511"><ele>395.0</ele><time>2026-04-16T16:00:25Z</time></trkpt><trkpt lat="44.821722440574085" lon="7.2982376409973835"><ele>395.6666666666667</ele><time>2026-04-16T16:00:27Z</time></trkpt><trkpt lat="44.82166347048391" lon="7.298167179033805"><ele>396.33333333333337</ele><time>2026-04-16T16:00:29Z</time></trkpt><trkpt lat="44.82159593181088" lon="7.298093129878887"><ele>397.0</ele><time>2026-04-16T16:00:31Z</time></trkpt><trkpt lat="44.82154942124561" lon="7.29799542978965"><ele>397.1666666666667</ele><time>2026-04-16T16:00:33Z</time></trkpt><trkpt lat="44.82150431840085" lon="7.297887861281199"><ele>397.33333333333337</ele><time>2026-04-16T16:00:35Z</time></trkpt><trkpt lat="44.821452983086644" lon="7.297788809495617"><ele>397.5</ele><time>2026-04-16T16:00:37Z</time></trkpt><trkpt lat="44.821408988616064" lon="7.297689554802889"><ele>397.66666666666663</ele><time>2026-04-16T16:00:39Z</time></trkpt><trkpt lat="44.8213649473474" lon="7.297596845758383"><ele>397.8333333333333</ele><time>2026-04-16T16:00:41Z</time></trkpt><trkpt lat="44.82131981160166" lon="7.297506394976141"><ele>398.0</ele><time>2026-04-16T16:00:43Z</time></trkpt><trkpt lat="44.8212709572738" lon="7.297425126862379"><ele>397.99999999999994</ele><time>2026-04-16T16:00:45Z</time></trkpt><trkpt lat="44.82123631517347" lon="7.297348018818244"><ele>398.0</ele><time>2026-04-16T16:00:47Z</time></trkpt><trkpt lat="44.821205955373316" lon="7.297249028326083"><ele>398.0</ele><time>2026-04-16T16:00:49.001Z</time></trkpt><trkpt lat="44.82114356956084" lon="7.297160223789888"><ele>398.0</ele><time>2026-04-16T16:00:51.001Z</time></trkpt><trkpt lat="44.821073908661674" lon="7.297085927574014"><ele>397.99999999999994</ele><time>2026-04-16T16:00:53.001Z</time></trkpt><trkpt lat="44.82101485411125" lon="7.297016776122111"><ele>398.0</ele><time>2026-04-16T16:00:55.001Z</time></trkpt><trkpt lat="44.82096731822583" lon="7.296931497119531"><ele>398.3333333333333</ele><time>2026-04-16T16:00:57.001Z</time></trkpt><trkpt lat="44.82090779583626" lon="7.296847682627698"><ele>398.66666666666663</ele><time>2026-04-16T16:00:59.001Z</time></trkpt><trkpt lat="44.820847417537585" lon="7.29675788256516"><ele>399.0</ele><time>2026-04-16T16:01:01.001Z</time></trkpt><trkpt lat="44.82078478447049" lon="7.296674256305349"><ele>399.33333333333337</ele><time>2026-04-16T16:01:03.001Z</time></trkpt><trkpt lat="44.82072526791735" lon="7.296588194140894"><ele>399.6666666666667</ele><time>2026-04-16T16:01:05.001Z</time></trkpt><trkpt lat="44.82066827511861" lon="7.296502384470622"><ele>400.0</ele><time>2026-04-16T16:01:07.001Z</time></trkpt><trkpt lat="44.820611383163154" lon="7.296424702469745"><ele>400.7142857142857</ele><time>2026-04-16T16:01:09.001Z</time></trkpt><trkpt lat="44.82055656682636" lon="7.296362277929044"><ele>401.42857142857144</ele><time>2026-04-16T16:01:11.001Z</time></trkpt><trkpt lat="44.82050363592561" lon="7.2963086815957015"><ele>402.1428571428571</ele><time>2026-04-16T16:01:13.001Z</time></trkpt><trkpt lat="44.82045093195576" lon="7.296250125981425"><ele>402.8571428571429</ele><time>2026-04-16T16:01:15.001Z</time></trkpt><trkpt lat="44.820408737253125" lon="7.2961592690606984"><ele>403.57142857142856</ele><time>2026-04-16T16:01:17.001Z</time></trkpt><trkpt lat="44.82035988425839" lon="7.296075882740405"><ele>404.2857142857143</ele><time>2026-04-16T16:01:19.001Z</time></trkpt><trkpt lat="44.82030848429517" lon="7.295986499054344"><ele>405.0</ele><time>2026-04-16T16:01:21.001Z</time></trkpt><trkpt lat="44.82025777703655" lon="7.295886358212372"><ele>405.0</ele><time>2026-04-16T16:01:23.001Z</time></trkpt><trkpt lat="44.82021912112999" lon="7.295768866158347"><ele>405.0</ele><time>2026-04-16T16:01:25.001Z</time></trkpt><trkpt lat="44.82018128225938" lon="7.2956589690707165"><ele>405.0</ele><time>2026-04-16T16:01:27.001Z</time></trkpt><trkpt lat="44.82013313529059" lon="7.295569488511068"><ele>405.0</ele><time>2026-04-16T16:01:29.001Z</time></trkpt><trkpt lat="44.82008489689083" lon="7.295492940690483"><ele>405.0</ele><time>2026-04-16T16:01:30.999Z</time></trkpt><trkpt lat="44.82004492709047" lon="7.29541408509315"><ele>405.0</ele><time>2026-04-16T16:01:32.999Z</time></trkpt><trkpt lat="44.82000834735608" lon="7.295337126353793"><ele>405.6666666666667</ele><time>2026-04-16T16:01:34.999Z</time></trkpt><trkpt lat="44.81997065594102" lon="7.2952635565316974"><ele>406.33333333333337</ele><time>2026-04-16T16:01:36.999Z</time></trkpt><trkpt lat="44.81990446641735" lon="7.2951682039836125"><ele>407.0</ele><time>2026-04-16T16:01:39.999Z</time></trkpt><trkpt lat="44.81984416134579" lon="7.295064493271778"><ele>407.6666666666667</ele><time>2026-04-16T16:01:42.999Z</time></trkpt><trkpt lat="44.819785613770826" lon="7.294959554719597"><ele>408.33333333333337</ele><time>2026-04-16T16:01:45.999Z</time></trkpt><trkpt lat="44.8197369448104" lon="7.2948918507699"><ele>409.0</ele><time>2026-04-16T16:01:47.999Z</time></trkpt><trkpt lat="44.81968452045293" lon="7.294822866183721"><ele>409.0</ele><time>2026-04-16T16:01:49.999Z</time></trkpt><trkpt lat="44.81962857966785" lon="7.294754723680215"><ele>409.0</ele><time>2026-04-16T16:01:52Z</time></trkpt><trkpt lat="44.81956739842825" lon="7.294696607536663"><ele>409.0</ele><time>2026-04-16T16:01:54Z</time></trkpt><trkpt lat="44.819505788350085" lon="7.294641007137053"><ele>409.0</ele><time>2026-04-16T16:01:56Z</time></trkpt><trkpt lat="44.81944373441057" lon="7.294590488677118"><ele>409.0</ele><time>2026-04-16T16:01:58Z</time></trkpt><trkpt lat="44.81937672483147" lon="7.294551968191345"><ele>409.0</ele><time>2026-04-16T16:02:00Z</time></trkpt><trkpt lat="44.819309863762264" lon="7.2945111310397"><ele>409.0</ele><time>2026-04-16T16:02:02Z</time></trkpt><trkpt lat="44.819242065942504" lon="7.294487669444845"><ele>409.2857142857143</ele><time>2026-04-16T16:02:04Z</time></trkpt><trkpt lat="44.81917352818275" lon="7.2944729184987"><ele>409.5714285714286</ele><time>2026-04-16T16:02:06Z</time></trkpt><trkpt lat="44.81910583339837" lon="7.29446364015981"><ele>409.8571428571429</ele><time>2026-04-16T16:02:08Z</time></trkpt><trkpt lat="44.81904064695543" lon="7.294460768079849"><ele>410.1428571428571</ele><time>2026-04-16T16:02:10Z</time></trkpt><trkpt lat="44.818977131018706" lon="7.294460474727701"><ele>410.42857142857144</ele><time>2026-04-16T16:02:12Z</time></trkpt><trkpt lat="44.818904707745624" lon="7.294462659002929"><ele>410.7142857142857</ele><time>2026-04-16T16:02:14Z</time></trkpt><trkpt lat="44.81882878016595" lon="7.294458478037871"><ele>411.0</ele><time>2026-04-16T16:02:16Z</time></trkpt><trkpt lat="44.81875672196471" lon="7.2944748027889075"><ele>411.0</ele><time>2026-04-16T16:02:18Z</time></trkpt><trkpt lat="44.818679931810465" lon="7.294507613986182"><ele>411.0</ele><time>2026-04-16T16:02:20Z</time></trkpt><trkpt lat="44.8185987879547" lon="7.294520498487287"><ele>411.0</ele><time>2026-04-16T16:02:22Z</time></trkpt><trkpt lat="44.81851706249312" lon="7.294531123408107"><ele>411.0</ele><time>2026-04-16T16:02:24Z</time></trkpt><trkpt lat="44.818433343707966" lon="7.294549181487977"><ele>411.0</ele><time>2026-04-16T16:02:26Z</time></trkpt><trkpt lat="44.818344990251205" lon="7.294578326196242"><ele>411.0</ele><time>2026-04-16T16:02:28Z</time></trkpt><trkpt lat="44.81825475864375" lon="7.294617318272943"><ele>410.8</ele><time>2026-04-16T16:02:30Z</time></trkpt><trkpt lat="44.818162913188196" lon="7.294654263164782"><ele>410.6</ele><time>2026-04-16T16:02:32Z</time></trkpt><trkpt lat="44.818072044296436" lon="7.2946930681916955"><ele>410.4</ele><time>2026-04-16T16:02:34Z</time></trkpt><trkpt lat="44.81797694514275" lon="7.294726751835338"><ele>410.2</ele><time>2026-04-16T16:02:36Z</time></trkpt><trkpt lat="44.81788218117646" lon="7.294760437341655"><ele>410.0</ele><time>2026-04-16T16:02:38Z</time></trkpt><trkpt lat="44.81778779809564" lon="7.29480204803146"><ele>409.0</ele><time>2026-04-16T16:02:40Z</time></trkpt><trkpt lat="44.817697682080976" lon="7.29485461963051"><ele>408.0</ele><time>2026-04-16T16:02:42Z</time></trkpt><trkpt lat="44.81756704256109" lon="7.294944257776374"><ele>407.0</ele><time>2026-04-16T16:02:45Z</time></trkpt><trkpt lat="44.81748554666205" lon="7.294967578694671"><ele>406.0</ele><time>2026-04-16T16:02:47Z</time></trkpt><trkpt lat="44.81741965848735" lon="7.294895484572822"><ele>405.0</ele><time>2026-04-16T16:02:49Z</time></trkpt><trkpt lat="44.817393185152994" lon="7.294771645749643"><ele>405.8</ele><time>2026-04-16T16:02:51Z</time></trkpt><trkpt lat="44.81737352619539" lon="7.294652139344993"><ele>406.6</ele><time>2026-04-16T16:02:53Z</time></trkpt><trkpt lat="44.81732019555448" lon="7.294482512697404"><ele>407.4</ele><time>2026-04-16T16:02:56Z</time></trkpt><trkpt lat="44.81727943272879" lon="7.294373260785327"><ele>408.2</ele><time>2026-04-16T16:02:58Z</time></trkpt><trkpt lat="44.817229632390266" lon="7.29426967070252"><ele>409.0</ele><time>2026-04-16T16:03:00.001Z</time></trkpt><trkpt lat="44.81718052708004" lon="7.294175310659652"><ele>409.00000000000006</ele><time>2026-04-16T16:03:02.001Z</time></trkpt><trkpt lat="44.81712569525366" lon="7.294092106566799"><ele>409.0</ele><time>2026-04-16T16:03:04.001Z</time></trkpt><trkpt lat="44.81707371437832" lon="7.294006151242878"><ele>409.0</ele><time>2026-04-16T16:03:06.001Z</time></trkpt><trkpt lat="44.81702196105833" lon="7.293921332694223"><ele>409.0</ele><time>2026-04-16T16:03:08.001Z</time></trkpt><trkpt lat="44.81697034588155" lon="7.29384061444637"><ele>409.00000000000006</ele><time>2026-04-16T16:03:10.001Z</time></trkpt><trkpt lat="44.81691769038695" lon="7.293769885410258"><ele>409.0</ele><time>2026-04-16T16:03:12.001Z</time></trkpt><trkpt lat="44.81686708792507" lon="7.293697160997757"><ele>409.7142857142857</ele><time>2026-04-16T16:03:14.001Z</time></trkpt><trkpt lat="44.81681469825749" lon="7.293636339825882"><ele>410.42857142857144</ele><time>2026-04-16T16:03:16.001Z</time></trkpt><trkpt lat="44.81676519664434" lon="7.293568986411118"><ele>411.14285714285717</ele><time>2026-04-16T16:03:18.001Z</time></trkpt><trkpt lat="44.81670193551483" lon="7.293484491156227"><ele>411.8571428571429</ele><time>2026-04-16T16:03:21.001Z</time></trkpt><trkpt lat="44.81665021704032" lon="7.293413548896477"><ele>412.57142857142856</ele><time>2026-04-16T16:03:25.001Z</time></trkpt><trkpt lat="44.816598644089055" lon="7.293344914857064"><ele>413.28571428571433</ele><time>2026-04-16T16:03:41.999Z</time></trkpt><trkpt lat="44.81653923712041" lon="7.293266604287773"><ele>414.0</ele><time>2026-04-16T16:03:44.999Z</time></trkpt><trkpt lat="44.81648586883387" lon="7.293190152529916"><ele>414.00000000000006</ele><time>2026-04-16T16:03:47.999Z</time></trkpt><trkpt lat="44.816437883057404" lon="7.29311593898597"><ele>414.0</ele><time>2026-04-16T16:03:50.999Z</time></trkpt><trkpt lat="44.81638992592275" lon="7.293044321136469"><ele>414.0</ele><time>2026-04-16T16:03:53.999Z</time></trkpt><trkpt lat="44.81634019021032" lon="7.292976457532082"><ele>414.0</ele><time>2026-04-16T16:03:56.999Z</time></trkpt><trkpt lat="44.816291959927774" lon="7.292906590904474"><ele>414.0</ele><time>2026-04-16T16:03:59.999Z</time></trkpt><trkpt lat="44.816243721992116" lon="7.292843312928197"><ele>414.00000000000006</ele><time>2026-04-16T16:04:03Z</time></trkpt><trkpt lat="44.816193267230595" lon="7.2927769156482"><ele>414.0</ele><time>2026-04-16T16:04:06Z</time></trkpt><trkpt lat="44.81614577487255" lon="7.292709136070561"><ele>414.5714285714286</ele><time>2026-04-16T16:04:09Z</time></trkpt><trkpt lat="44.81609422269177" lon="7.292641104194145"><ele>415.14285714285717</ele><time>2026-04-16T16:04:12Z</time></trkpt><trkpt lat="44.81605713837703" lon="7.292550746220992"><ele>415.7142857142857</ele><time>2026-04-16T16:04:15Z</time></trkpt><trkpt lat="44.81608975426617" lon="7.292450170075981"><ele>416.28571428571433</ele><time>2026-04-16T16:04:18Z</time></trkpt><trkpt lat="44.81614130854582" lon="7.292397809387984"><ele>416.85714285714283</ele><time>2026-04-16T16:04:21Z</time></trkpt><trkpt lat="44.81621154193183" lon="7.292330728686734"><ele>417.42857142857144</ele><time>2026-04-16T16:04:25Z</time></trkpt><trkpt lat="44.81625224366661" lon="7.292252782721739"><ele>418.0</ele><time>2026-04-16T16:04:28Z</time></trkpt><trkpt lat="44.816316686436316" lon="7.292176700710131"><ele>419.1428571428571</ele><time>2026-04-16T16:04:32Z</time></trkpt><trkpt lat="44.816365049474854" lon="7.292112835547465"><ele>420.2857142857143</ele><time>2026-04-16T16:04:35Z</time></trkpt><trkpt lat="44.81641710398718" lon="7.292031824760155"><ele>421.42857142857144</ele><time>2026-04-16T16:04:39Z</time></trkpt><trkpt lat="44.81646243938369" lon="7.291937185098125"><ele>422.57142857142856</ele><time>2026-04-16T16:04:43Z</time></trkpt><trkpt lat="44.81646716747123" lon="7.291848350685864"><ele>423.7142857142857</ele><time>2026-04-16T16:04:45Z</time></trkpt><trkpt lat="44.8164282787138" lon="7.29176161114572"><ele>424.85714285714283</ele><time>2026-04-16T16:04:47Z</time></trkpt><trkpt lat="44.81637646284498" lon="7.291694664588978"><ele>426.0</ele><time>2026-04-16T16:04:49Z</time></trkpt><trkpt lat="44.816322207486074" lon="7.291632817559707"><ele>426.0</ele><time>2026-04-16T16:04:51Z</time></trkpt><trkpt lat="44.81627721240435" lon="7.291568853257383"><ele>426.0</ele><time>2026-04-16T16:04:53Z</time></trkpt><trkpt lat="44.816229338992976" lon="7.291506055293902"><ele>426.0</ele><time>2026-04-16T16:04:55Z</time></trkpt><trkpt lat="44.81617730035621" lon="7.291455152080578"><ele>426.0</ele><time>2026-04-16T16:04:57Z</time></trkpt><trkpt lat="44.81610647836421" lon="7.29137628124067"><ele>426.0</ele><time>2026-04-16T16:05:00Z</time></trkpt><trkpt lat="44.81602650996109" lon="7.291309914939217"><ele>426.0</ele><time>2026-04-16T16:05:03Z</time></trkpt><trkpt lat="44.81595200272919" lon="7.291240140614464"><ele>427.3333333333333</ele><time>2026-04-16T16:05:06.001Z</time></trkpt><trkpt lat="44.81588377852467" lon="7.2911724162027465"><ele>428.66666666666663</ele><time>2026-04-16T16:05:09.001Z</time></trkpt><trkpt lat="44.81581534691244" lon="7.291104606456761"><ele>430.0</ele><time>2026-04-16T16:05:12.001Z</time></trkpt><trkpt lat="44.81575376061866" lon="7.291043654110031"><ele>431.3333333333333</ele><time>2026-04-16T16:05:15.001Z</time></trkpt><trkpt lat="44.81569284230169" lon="7.290970218654511"><ele>432.66666666666663</ele><time>2026-04-16T16:05:18.001Z</time></trkpt><trkpt lat="44.81562666305555" lon="7.290898864819571"><ele>434.0</ele><time>2026-04-16T16:05:21.001Z</time></trkpt><trkpt lat="44.81554561199287" lon="7.290851623249622"><ele>433.99999999999994</ele><time>2026-04-16T16:05:24.001Z</time></trkpt><trkpt lat="44.81546434849687" lon="7.290806299450594"><ele>434.0</ele><time>2026-04-16T16:05:27.001Z</time></trkpt><trkpt lat="44.815379552308784" lon="7.290775976751447"><ele>434.0</ele><time>2026-04-16T16:05:30.001Z</time></trkpt><trkpt lat="44.815295939854195" lon="7.2907484411416235"><ele>434.0</ele><time>2026-04-16T16:05:33.001Z</time></trkpt><trkpt lat="44.815207439796424" lon="7.29072039916029"><ele>433.99999999999994</ele><time>2026-04-16T16:05:36.001Z</time></trkpt><trkpt lat="44.81514484106821" lon="7.290704448955118"><ele>434.0</ele><time>2026-04-16T16:05:38.001Z</time></trkpt><trkpt lat="44.815082889416686" lon="7.29068813527678"><ele>432.8333333333333</ele><time>2026-04-16T16:05:40.001Z</time></trkpt><trkpt lat="44.81499206525265" lon="7.2906611727626265"><ele>431.66666666666663</ele><time>2026-04-16T16:05:42.999Z</time></trkpt><trkpt lat="44.814901229911364" lon="7.290640587080695"><ele>430.5</ele><time>2026-04-16T16:05:45.999Z</time></trkpt><trkpt lat="44.81483747638916" lon="7.290611055794582"><ele>429.33333333333337</ele><time>2026-04-16T16:05:47.999Z</time></trkpt><trkpt lat="44.814774402978685" lon="7.29057214891511"><ele>428.1666666666667</ele><time>2026-04-16T16:05:49.999Z</time></trkpt><trkpt lat="44.814714464656944" lon="7.290531666691131"><ele>427.0</ele><time>2026-04-16T16:05:51.999Z</time></trkpt><trkpt lat="44.81465357833703" lon="7.290498049549801"><ele>429.00000000000006</ele><time>2026-04-16T16:05:53.999Z</time></trkpt><trkpt lat="44.81459345391827" lon="7.290468711487163"><ele>431.0</ele><time>2026-04-16T16:05:55.999Z</time></trkpt><trkpt lat="44.814535159650006" lon="7.290435087368108"><ele>433.0</ele><time>2026-04-16T16:05:57.999Z</time></trkpt><trkpt lat="44.814449328933904" lon="7.29038672418641"><ele>435.0</ele><time>2026-04-16T16:06:00.999Z</time></trkpt><trkpt lat="44.814366171051965" lon="7.290341535430594"><ele>437.00000000000006</ele><time>2026-04-16T16:06:04Z</time></trkpt><trkpt lat="44.814288544398295" lon="7.290293299585032"><ele>439.0</ele><time>2026-04-16T16:06:07Z</time></trkpt><trkpt lat="44.81421262379727" lon="7.290254101779566"><ele>439.0</ele><time>2026-04-16T16:06:10Z</time></trkpt><trkpt lat="44.814142513519045" lon="7.290215009643593"><ele>439.0</ele><time>2026-04-16T16:06:13Z</time></trkpt><trkpt lat="44.81406868148243" lon="7.29017426239904"><ele>439.0</ele><time>2026-04-16T16:06:16Z</time></trkpt><trkpt lat="44.81399575807337" lon="7.290128886345382"><ele>439.0</ele><time>2026-04-16T16:06:19Z</time></trkpt><trkpt lat="44.81392399144293" lon="7.2900907551245515"><ele>439.0</ele><time>2026-04-16T16:06:22Z</time></trkpt><trkpt lat="44.81386216400613" lon="7.290049726675737"><ele>439.0</ele><time>2026-04-16T16:06:25Z</time></trkpt><trkpt lat="44.813804679734375" lon="7.290011685116697"><ele>439.0</ele><time>2026-04-16T16:06:28Z</time></trkpt><trkpt lat="44.81373832886619" lon="7.289969935327584"><ele>439.00000000000006</ele><time>2026-04-16T16:06:31Z</time></trkpt><trkpt lat="44.813679092770876" lon="7.289931547009531"><ele>439.0</ele><time>2026-04-16T16:06:33Z</time></trkpt><trkpt lat="44.81361729471642" lon="7.289881138674331"><ele>439.0</ele><time>2026-04-16T16:06:35Z</time></trkpt><trkpt lat="44.81354959052992" lon="7.289831422870289"><ele>439.0</ele><time>2026-04-16T16:06:37Z</time></trkpt><trkpt lat="44.81347806545039" lon="7.289784059311559"><ele>439.00000000000006</ele><time>2026-04-16T16:06:39Z</time></trkpt><trkpt lat="44.81339060611739" lon="7.28977886618095"><ele>439.0</ele><time>2026-04-16T16:06:41Z</time></trkpt><trkpt lat="44.813309415495986" lon="7.289820128868767"><ele>438.6</ele><time>2026-04-16T16:06:43Z</time></trkpt><trkpt lat="44.813231045836375" lon="7.289865035914514"><ele>438.2</ele><time>2026-04-16T16:06:45Z</time></trkpt><trkpt lat="44.813143038855564" lon="7.28989375844434"><ele>437.80000000000007</ele><time>2026-04-16T16:06:47Z</time></trkpt><trkpt lat="44.813041313582836" lon="7.289916782291553"><ele>437.40000000000003</ele><time>2026-04-16T16:06:49Z</time></trkpt><trkpt lat="44.81293186084864" lon="7.289941876073745"><ele>437.0</ele><time>2026-04-16T16:06:51Z</time></trkpt><trkpt lat="44.812809106801616" lon="7.289945476886743"><ele>437.0</ele><time>2026-04-16T16:06:53Z</time></trkpt><trkpt lat="44.81274250405173" lon="7.2899435995452"><ele>437.0</ele><time>2026-04-16T16:06:54Z</time></trkpt><trkpt lat="44.81267378210377" lon="7.289938384994619"><ele>437.0</ele><time>2026-04-16T16:06:55Z</time></trkpt><trkpt lat="44.8126042867602" lon="7.289925132874038"><ele>437.0</ele><time>2026-04-16T16:06:56Z</time></trkpt><trkpt lat="44.81253401436337" lon="7.2898983495676015"><ele>437.0</ele><time>2026-04-16T16:06:57Z</time></trkpt><trkpt lat="44.812464218302225" lon="7.2898590304104305"><ele>437.0</ele><time>2026-04-16T16:06:58Z</time></trkpt><trkpt lat="44.81239773093743" lon="7.289813391139898"><ele>437.0</ele><time>2026-04-16T16:06:59Z</time></trkpt><trkpt lat="44.81232887730671" lon="7.289772470451437"><ele>438.57142857142856</ele><time>2026-04-16T16:07:00Z</time></trkpt><trkpt lat="44.81225883847812" lon="7.289738139184303"><ele>440.14285714285717</ele><time>2026-04-16T16:07:01Z</time></trkpt><trkpt lat="44.81218889302391" lon="7.289704127807126"><ele>441.7142857142857</ele><time>2026-04-16T16:07:02Z</time></trkpt><trkpt lat="44.81211959778448" lon="7.289670241682406"><ele>443.2857142857143</ele><time>2026-04-16T16:07:03.001Z</time></trkpt><trkpt lat="44.81204987176142" lon="7.28963583601415"><ele>444.8571428571429</ele><time>2026-04-16T16:07:04.001Z</time></trkpt><trkpt lat="44.811982635375" lon="7.289593017154845"><ele>446.42857142857144</ele><time>2026-04-16T16:07:05.001Z</time></trkpt><trkpt lat="44.811917390436406" lon="7.289541258691105"><ele>448.0</ele><time>2026-04-16T16:07:06.001Z</time></trkpt><trkpt lat="44.81185705589845" lon="7.289479216273052"><ele>445.50000000000006</ele><time>2026-04-16T16:07:07.001Z</time></trkpt><trkpt lat="44.8118015188873" lon="7.289407033198659"><ele>443.0</ele><time>2026-04-16T16:07:08.001Z</time></trkpt><trkpt lat="44.81175146060463" lon="7.289329458624472"><ele>440.5</ele><time>2026-04-16T16:07:09.001Z</time></trkpt><trkpt lat="44.811700935532805" lon="7.289253106924012"><ele>438.0</ele><time>2026-04-16T16:07:10.001Z</time></trkpt><trkpt lat="44.811651744921825" lon="7.289177732505584"><ele>435.50000000000006</ele><time>2026-04-16T16:07:11.001Z</time></trkpt><trkpt lat="44.81160619200028" lon="7.2890995368071865"><ele>433.0</ele><time>2026-04-16T16:07:12.001Z</time></trkpt><trkpt lat="44.811532330312275" lon="7.288971466393948"><ele>434.83333333333337</ele><time>2026-04-16T16:07:14.001Z</time></trkpt><trkpt lat="44.81147197459708" lon="7.28887392532272"><ele>436.6666666666667</ele><time>2026-04-16T16:07:16.001Z</time></trkpt><trkpt lat="44.811433612415534" lon="7.288779324104896"><ele>438.5</ele><time>2026-04-16T16:07:18.001Z</time></trkpt><trkpt lat="44.81143428052437" lon="7.288650420249157"><ele>440.33333333333337</ele><time>2026-04-16T16:07:20.001Z</time></trkpt><trkpt lat="44.81144145560715" lon="7.288523885234013"><ele>442.1666666666667</ele><time>2026-04-16T16:07:22.001Z</time></trkpt><trkpt lat="44.81144912428752" lon="7.2883969228807155"><ele>444.0</ele><time>2026-04-16T16:07:24.001Z</time></trkpt><trkpt lat="44.81146035383824" lon="7.288284683639885"><ele>444.0</ele><time>2026-04-16T16:07:26.001Z</time></trkpt><trkpt lat="44.8114656235628" lon="7.288171348893009"><ele>444.0</ele><time>2026-04-16T16:07:28.001Z</time></trkpt><trkpt lat="44.8114643664011" lon="7.288057542786246"><ele>444.0</ele><time>2026-04-16T16:07:30.001Z</time></trkpt><trkpt lat="44.8114705022378" lon="7.287949952270182"><ele>444.0</ele><time>2026-04-16T16:07:32.001Z</time></trkpt><trkpt lat="44.81147425776336" lon="7.287833689231764"><ele>444.0</ele><time>2026-04-16T16:07:34.001Z</time></trkpt><trkpt lat="44.81147430359963" lon="7.287714624532925"><ele>444.0</ele><time>2026-04-16T16:07:36.001Z</time></trkpt><trkpt lat="44.81147395987689" lon="7.28759547840132"><ele>443.8333333333333</ele><time>2026-04-16T16:07:38.001Z</time></trkpt><trkpt lat="44.81148656942524" lon="7.287463770798022"><ele>443.66666666666663</ele><time>2026-04-16T16:07:40.001Z</time></trkpt><trkpt lat="44.81152114905304" lon="7.287348027791361"><ele>443.5</ele><time>2026-04-16T16:07:42.001Z</time></trkpt><trkpt lat="44.811556842662995" lon="7.287227629331269"><ele>443.3333333333333</ele><time>2026-04-16T16:07:44.001Z</time></trkpt><trkpt lat="44.81158926226384" lon="7.287109140203403"><ele>443.16666666666663</ele><time>2026-04-16T16:07:46.001Z</time></trkpt><trkpt lat="44.81161836497126" lon="7.287000817590955"><ele>443.0</ele><time>2026-04-16T16:07:48.001Z</time></trkpt><trkpt lat="44.811638696757164" lon="7.2868949363066235"><ele>442.0</ele><time>2026-04-16T16:07:49.999Z</time></trkpt><trkpt lat="44.81165004089922" lon="7.286784917428013"><ele>441.0</ele><time>2026-04-16T16:07:51.999Z</time></trkpt><trkpt lat="44.811651416288264" lon="7.286681733549959"><ele>440.0</ele><time>2026-04-16T16:07:53.999Z</time></trkpt><trkpt lat="44.81165573260492" lon="7.286578939232307"><ele>439.0</ele><time>2026-04-16T16:07:55.999Z</time></trkpt><trkpt lat="44.81166348225788" lon="7.286478501391452"><ele>438.0</ele><time>2026-04-16T16:07:57.999Z</time></trkpt><trkpt lat="44.81166780565294" lon="7.286377465187923"><ele>437.0</ele><time>2026-04-16T16:07:59.999Z</time></trkpt><trkpt lat="44.81167089509874" lon="7.286269607480848"><ele>436.0</ele><time>2026-04-16T16:08:01.999Z</time></trkpt><trkpt lat="44.811674948171" lon="7.286154169289509"><ele>435.83333333333337</ele><time>2026-04-16T16:08:03.999Z</time></trkpt><trkpt lat="44.811683933840044" lon="7.28602931430129"><ele>435.6666666666667</ele><time>2026-04-16T16:08:06Z</time></trkpt><trkpt lat="44.811694800211434" lon="7.285903469700251"><ele>435.5</ele><time>2026-04-16T16:08:08Z</time></trkpt><trkpt lat="44.81170633765275" lon="7.285787750171363"><ele>435.33333333333337</ele><time>2026-04-16T16:08:10Z</time></trkpt><trkpt lat="44.81171873158991" lon="7.285674178671285"><ele>435.1666666666667</ele><time>2026-04-16T16:08:12Z</time></trkpt><trkpt lat="44.81173368590595" lon="7.28557113392861"><ele>435.0</ele><time>2026-04-16T16:08:14Z</time></trkpt><trkpt lat="44.8117493364479" lon="7.2854710720118705"><ele>435.28571428571433</ele><time>2026-04-16T16:08:16Z</time></trkpt><trkpt lat="44.81176458629621" lon="7.285380250626065"><ele>435.57142857142856</ele><time>2026-04-16T16:08:18Z</time></trkpt><trkpt lat="44.811779199264606" lon="7.28529283980988"><ele>435.8571428571429</ele><time>2026-04-16T16:08:20Z</time></trkpt><trkpt lat="44.81182037813363" lon="7.285223621351559"><ele>436.14285714285717</ele><time>2026-04-16T16:08:22Z</time></trkpt><trkpt lat="44.81189408469492" lon="7.285167480905806"><ele>436.42857142857144</ele><time>2026-04-16T16:08:25Z</time></trkpt><trkpt lat="44.81195786799057" lon="7.285144623710356"><ele>436.7142857142857</ele><time>2026-04-16T16:08:28Z</time></trkpt><trkpt lat="44.812018160176756" lon="7.2851067077950615"><ele>437.0</ele><time>2026-04-16T16:08:31Z</time></trkpt><trkpt lat="44.81206814730025" lon="7.285046079807196"><ele>439.3333333333333</ele><time>2026-04-16T16:08:34Z</time></trkpt><trkpt lat="44.8121027094342" lon="7.28496027660907"><ele>441.66666666666663</ele><time>2026-04-16T16:08:37Z</time></trkpt><trkpt lat="44.812130367261126" lon="7.284862979967024"><ele>444.0</ele><time>2026-04-16T16:08:40Z</time></trkpt><trkpt lat="44.812155034781725" lon="7.284772669878868"><ele>446.33333333333337</ele><time>2026-04-16T16:08:43Z</time></trkpt><trkpt lat="44.812184014147824" lon="7.284682136286088"><ele>448.6666666666667</ele><time>2026-04-16T16:08:46Z</time></trkpt><trkpt lat="44.81221487441767" lon="7.284576361782259"><ele>451.0</ele><time>2026-04-16T16:08:49Z</time></trkpt><trkpt lat="44.812241300999965" lon="7.284462253341609"><ele>451.00000000000006</ele><time>2026-04-16T16:08:52Z</time></trkpt><trkpt lat="44.81226893080455" lon="7.284349038831721"><ele>451.0</ele><time>2026-04-16T16:08:55Z</time></trkpt><trkpt lat="44.81228831892793" lon="7.2842604389159575"><ele>451.0</ele><time>2026-04-16T16:08:58Z</time></trkpt><trkpt lat="44.81230088928432" lon="7.2841511422358876"><ele>451.0</ele><time>2026-04-16T16:09:01Z</time></trkpt><trkpt lat="44.81233085191337" lon="7.284033420763449"><ele>451.00000000000006</ele><time>2026-04-16T16:09:04.001Z</time></trkpt><trkpt lat="44.812366168092666" lon="7.2839350131286125"><ele>451.0</ele><time>2026-04-16T16:09:07.001Z</time></trkpt><trkpt lat="44.812404126559976" lon="7.2838332562592685"><ele>450.1428571428571</ele><time>2026-04-16T16:09:10.001Z</time></trkpt><trkpt lat="44.81243277908484" lon="7.2837488072179335"><ele>449.28571428571433</ele><time>2026-04-16T16:09:12.001Z</time></trkpt><trkpt lat="44.81246041942132" lon="7.283661241567665"><ele>448.42857142857144</ele><time>2026-04-16T16:09:14.001Z</time></trkpt><trkpt lat="44.81248298601386" lon="7.283563599693078"><ele>447.57142857142856</ele><time>2026-04-16T16:09:16.001Z</time></trkpt><trkpt lat="44.8125030374966" lon="7.283463705673265"><ele>446.71428571428567</ele><time>2026-04-16T16:09:18.001Z</time></trkpt><trkpt lat="44.812532816567824" lon="7.283377399499546"><ele>445.8571428571429</ele><time>2026-04-16T16:09:20.001Z</time></trkpt><trkpt lat="44.81256501908959" lon="7.283285665081233"><ele>445.0</ele><time>2026-04-16T16:09:22.001Z</time></trkpt><trkpt lat="44.81260149239116" lon="7.283193392103554"><ele>445.00000000000006</ele><time>2026-04-16T16:09:24.001Z</time></trkpt><trkpt lat="44.812636684852684" lon="7.283097968156781"><ele>445.0</ele><time>2026-04-16T16:09:26.001Z</time></trkpt><trkpt lat="44.81268468061725" lon="7.283013052550584"><ele>445.0</ele><time>2026-04-16T16:09:28.001Z</time></trkpt><trkpt lat="44.81273883663428" lon="7.2829274348495"><ele>445.0</ele><time>2026-04-16T16:09:30.001Z</time></trkpt><trkpt lat="44.81279457639806" lon="7.282842941351413"><ele>445.00000000000006</ele><time>2026-04-16T16:09:32.001Z</time></trkpt><trkpt lat="44.81284752646294" lon="7.282753043726751"><ele>445.0</ele><time>2026-04-16T16:09:34.001Z</time></trkpt><trkpt lat="44.81290005634542" lon="7.282664485162719"><ele>445.33333333333337</ele><time>2026-04-16T16:09:36.001Z</time></trkpt><trkpt lat="44.81295315696268" lon="7.2825813320069654"><ele>445.6666666666667</ele><time>2026-04-16T16:09:38.001Z</time></trkpt><trkpt lat="44.8130148989877" lon="7.282505581369172"><ele>446.0</ele><time>2026-04-16T16:09:40.001Z</time></trkpt><trkpt lat="44.81307722059851" lon="7.282434463549368"><ele>446.33333333333337</ele><time>2026-04-16T16:09:42.001Z</time></trkpt><trkpt lat="44.813155087368465" lon="7.282398721999078"><ele>446.6666666666667</ele><time>2026-04-16T16:09:44.001Z</time></trkpt><trkpt lat="44.81323342838852" lon="7.282399911608442"><ele>447.0</ele><time>2026-04-16T16:09:46.001Z</time></trkpt><trkpt lat="44.81330640834281" lon="7.282406074800847"><ele>446.99999999999994</ele><time>2026-04-16T16:09:48.001Z</time></trkpt><trkpt lat="44.81337686357006" lon="7.282382852742103"><ele>447.0</ele><time>2026-04-16T16:09:50.001Z</time></trkpt><trkpt lat="44.81344335118004" lon="7.282334110168669"><ele>447.0</ele><time>2026-04-16T16:09:52.001Z</time></trkpt><trkpt lat="44.81350864361701" lon="7.282288266865478"><ele>447.0</ele><time>2026-04-16T16:09:54Z</time></trkpt><trkpt lat="44.81357371100711" lon="7.282247034134123"><ele>447.0</ele><time>2026-04-16T16:09:56Z</time></trkpt><trkpt lat="44.813628341534354" lon="7.282200732623402"><ele>446.99999999999994</ele><time>2026-04-16T16:09:58Z</time></trkpt><trkpt lat="44.813701238127074" lon="7.282133716620695"><ele>447.0</ele><time>2026-04-16T16:10:01Z</time></trkpt><trkpt lat="44.81376877334225" lon="7.282065587536486"><ele>447.85714285714283</ele><time>2026-04-16T16:10:04Z</time></trkpt><trkpt lat="44.813815154750884" lon="7.2820053127246505"><ele>448.71428571428567</ele><time>2026-04-16T16:10:06Z</time></trkpt><trkpt lat="44.813862405537066" lon="7.281939372304351"><ele>449.57142857142856</ele><time>2026-04-16T16:10:08Z</time></trkpt><trkpt lat="44.81390330047375" lon="7.281868317511946"><ele>450.4285714285714</ele><time>2026-04-16T16:10:10Z</time></trkpt><trkpt lat="44.81394819033026" lon="7.281802923013308"><ele>451.2857142857143</ele><time>2026-04-16T16:10:12Z</time></trkpt><trkpt lat="44.81399214468175" lon="7.2817380230862625"><ele>452.14285714285705</ele><time>2026-04-16T16:10:14Z</time></trkpt><trkpt lat="44.81403848482906" lon="7.2816699753099146"><ele>452.99999999999994</ele><time>2026-04-16T16:10:16Z</time></trkpt><trkpt lat="44.8140946162283" lon="7.281599871437458"><ele>452.99999999999994</ele><time>2026-04-16T16:10:18Z</time></trkpt><trkpt lat="44.814148026903" lon="7.28152214250341"><ele>453.0</ele><time>2026-04-16T16:10:20Z</time></trkpt><trkpt lat="44.814197332762724" lon="7.281441075286473"><ele>452.99999999999994</ele><time>2026-04-16T16:10:22Z</time></trkpt><trkpt lat="44.81425023381266" lon="7.281368813199376"><ele>452.99999999999994</ele><time>2026-04-16T16:10:24Z</time></trkpt><trkpt lat="44.81430182857503" lon="7.281294901585649"><ele>453.0</ele><time>2026-04-16T16:10:26Z</time></trkpt><trkpt lat="44.81435427208128" lon="7.281219134425446"><ele>452.99999999999994</ele><time>2026-04-16T16:10:28Z</time></trkpt><trkpt lat="44.81440311270454" lon="7.2811441749664345"><ele>452.99999999999994</ele><time>2026-04-16T16:10:30Z</time></trkpt><trkpt lat="44.814449298481065" lon="7.281073193330072"><ele>452.8571428571428</ele><time>2026-04-16T16:10:32Z</time></trkpt><trkpt lat="44.81449497417742" lon="7.28100237268888"><ele>452.71428571428567</ele><time>2026-04-16T16:10:34Z</time></trkpt><trkpt lat="44.81454471487528" lon="7.2809365610237595"><ele>452.57142857142856</ele><time>2026-04-16T16:10:36Z</time></trkpt><trkpt lat="44.81459755977519" lon="7.280868680801522"><ele>452.4285714285714</ele><time>2026-04-16T16:10:38Z</time></trkpt><trkpt lat="44.814643442037315" lon="7.280797857679506"><ele>452.2857142857142</ele><time>2026-04-16T16:10:40Z</time></trkpt><trkpt lat="44.81468521337076" lon="7.280727553366904"><ele>452.14285714285717</ele><time>2026-04-16T16:10:42Z</time></trkpt><trkpt lat="44.81473121779795" lon="7.28065557786667"><ele>452.0</ele><time>2026-04-16T16:10:44Z</time></trkpt><trkpt lat="44.814773013601354" lon="7.28057871282114"><ele>452.0</ele><time>2026-04-16T16:10:46Z</time></trkpt><trkpt lat="44.81481660128242" lon="7.280499376219768"><ele>452.0</ele><time>2026-04-16T16:10:48Z</time></trkpt><trkpt lat="44.81486262259522" lon="7.280419604209764"><ele>452.0</ele><time>2026-04-16T16:10:50Z</time></trkpt><trkpt lat="44.81490490160048" lon="7.280329335235672"><ele>452.0</ele><time>2026-04-16T16:10:52Z</time></trkpt><trkpt lat="44.81494643618061" lon="7.280243427734693"><ele>452.0</ele><time>2026-04-16T16:10:54Z</time></trkpt><trkpt lat="44.81498657807272" lon="7.280163160796678"><ele>452.0</ele><time>2026-04-16T16:10:56Z</time></trkpt><trkpt lat="44.81502603021893" lon="7.280084746453082"><ele>452.0</ele><time>2026-04-16T16:10:58Z</time></trkpt><trkpt lat="44.81507318622071" lon="7.280015889107125"><ele>452.0</ele><time>2026-04-16T16:11:00Z</time></trkpt><trkpt lat="44.815121072498606" lon="7.279950965531411"><ele>452.0</ele><time>2026-04-16T16:11:02Z</time></trkpt><trkpt lat="44.815169479207725" lon="7.2798842803017845"><ele>452.0</ele><time>2026-04-16T16:11:04Z</time></trkpt><trkpt lat="44.81521730296436" lon="7.279817014147621"><ele>452.0</ele><time>2026-04-16T16:11:06Z</time></trkpt><trkpt lat="44.81526387311729" lon="7.279750660610388"><ele>452.0</ele><time>2026-04-16T16:11:08.001Z</time></trkpt><trkpt lat="44.815315368264336" lon="7.279691228706448"><ele>452.0</ele><time>2026-04-16T16:11:10.001Z</time></trkpt><trkpt lat="44.81535772227736" lon="7.27961993893116"><ele>452.0</ele><time>2026-04-16T16:11:12.001Z</time></trkpt><trkpt lat="44.8153848233206" lon="7.279525150477752"><ele>452.7142857142857</ele><time>2026-04-16T16:11:14.001Z</time></trkpt><trkpt lat="44.81542404184732" lon="7.279436082100642"><ele>453.42857142857144</ele><time>2026-04-16T16:11:16.001Z</time></trkpt><trkpt lat="44.81546453770393" lon="7.279349918605724"><ele>454.14285714285717</ele><time>2026-04-16T16:11:18.001Z</time></trkpt><trkpt lat="44.81549749176039" lon="7.27926177092193"><ele>454.8571428571429</ele><time>2026-04-16T16:11:20.001Z</time></trkpt><trkpt lat="44.8155326321331" lon="7.2791807300290685"><ele>455.57142857142856</ele><time>2026-04-16T16:11:22.001Z</time></trkpt><trkpt lat="44.815562793032136" lon="7.2790954266886665"><ele>456.28571428571433</ele><time>2026-04-16T16:11:24.001Z</time></trkpt><trkpt lat="44.815597176023104" lon="7.279012755064389"><ele>457.00000000000006</ele><time>2026-04-16T16:11:26.001Z</time></trkpt><trkpt lat="44.815634241472246" lon="7.278926833552078"><ele>457.00000000000006</ele><time>2026-04-16T16:11:28.001Z</time></trkpt><trkpt lat="44.815670389611654" lon="7.278833513460851"><ele>457.0</ele><time>2026-04-16T16:11:30.001Z</time></trkpt><trkpt lat="44.81570190782381" lon="7.278732065279793"><ele>457.0</ele><time>2026-04-16T16:11:32.001Z</time></trkpt><trkpt lat="44.815734794259136" lon="7.278626763770093"><ele>457.0</ele><time>2026-04-16T16:11:34.001Z</time></trkpt><trkpt lat="44.8157654411212" lon="7.278516849104957"><ele>457.00000000000006</ele><time>2026-04-16T16:11:36.001Z</time></trkpt><trkpt lat="44.815796583830675" lon="7.278400997668255"><ele>457.0</ele><time>2026-04-16T16:11:38.001Z</time></trkpt><trkpt lat="44.815828510352965" lon="7.278283184679678"><ele>457.0</ele><time>2026-04-16T16:11:40.001Z</time></trkpt><trkpt lat="44.81585907626628" lon="7.278164778971996"><ele>457.00000000000006</ele><time>2026-04-16T16:11:42.001Z</time></trkpt><trkpt lat="44.815891482228416" lon="7.2780379450176165"><ele>457.00000000000006</ele><time>2026-04-16T16:11:44.001Z</time></trkpt><trkpt lat="44.81591794054218" lon="7.277895020172432"><ele>457.0</ele><time>2026-04-16T16:11:46.001Z</time></trkpt><trkpt lat="44.81591675787746" lon="7.2777288188145794"><ele>457.0</ele><time>2026-04-16T16:11:48.001Z</time></trkpt><trkpt lat="44.81590279275036" lon="7.277556130979974"><ele>456.25</ele><time>2026-04-16T16:11:50.001Z</time></trkpt><trkpt lat="44.815903560824076" lon="7.277382724352981"><ele>455.5</ele><time>2026-04-16T16:11:52.001Z</time></trkpt><trkpt lat="44.81594268174836" lon="7.2772218850116"><ele>454.75</ele><time>2026-04-16T16:11:54.001Z</time></trkpt><trkpt lat="44.815983312708084" lon="7.277068698162741"><ele>454.0</ele><time>2026-04-16T16:11:56.001Z</time></trkpt><trkpt lat="44.81601796230344" lon="7.27691795097745"><ele>455.2</ele><time>2026-04-16T16:11:58.001Z</time></trkpt><trkpt lat="44.81605304087065" lon="7.276773638610455"><ele>456.4</ele><time>2026-04-16T16:12:00Z</time></trkpt><trkpt lat="44.816089439914826" lon="7.276635744055309"><ele>457.6</ele><time>2026-04-16T16:12:02Z</time></trkpt><trkpt lat="44.81611950927586" lon="7.27650002998894"><ele>458.8</ele><time>2026-04-16T16:12:04Z</time></trkpt><trkpt lat="44.816125398536876" lon="7.27635396052313"><ele>460.0</ele><time>2026-04-16T16:12:06Z</time></trkpt><trkpt lat="44.8160841564977" lon="7.2762029614942945"><ele>460.0</ele><time>2026-04-16T16:12:08Z</time></trkpt><trkpt lat="44.81607499052545" lon="7.276033496183199"><ele>460.0</ele><time>2026-04-16T16:12:10Z</time></trkpt><trkpt lat="44.8161175595901" lon="7.275880002491479"><ele>460.0</ele><time>2026-04-16T16:12:12Z</time></trkpt><trkpt lat="44.81615604357254" lon="7.275741905477843"><ele>460.0</ele><time>2026-04-16T16:12:14Z</time></trkpt><trkpt lat="44.816189289375224" lon="7.27560581193519"><ele>460.0</ele><time>2026-04-16T16:12:16Z</time></trkpt><trkpt lat="44.81622028821521" lon="7.275476978923832"><ele>460.00000000000006</ele><time>2026-04-16T16:12:18Z</time></trkpt><trkpt lat="44.816252068893895" lon="7.275351616233704"><ele>460.0</ele><time>2026-04-16T16:12:20Z</time></trkpt><trkpt lat="44.81628441571172" lon="7.275231766823613"><ele>460.0</ele><time>2026-04-16T16:12:22Z</time></trkpt><trkpt lat="44.81631140496711" lon="7.275112544423592"><ele>460.0</ele><time>2026-04-16T16:12:24Z</time></trkpt><trkpt lat="44.816337060338135" lon="7.274996490800743"><ele>460.00000000000006</ele><time>2026-04-16T16:12:26Z</time></trkpt><trkpt lat="44.8163632937551" lon="7.274878278714128"><ele>460.0</ele><time>2026-04-16T16:12:28Z</time></trkpt><trkpt lat="44.81639158117248" lon="7.274763901829511"><ele>459.6666666666667</ele><time>2026-04-16T16:12:30Z</time></trkpt><trkpt lat="44.8164237463709" lon="7.274655553438049"><ele>459.33333333333337</ele><time>2026-04-16T16:12:32Z</time></trkpt><trkpt lat="44.81645851020346" lon="7.274554204284178"><ele>459.0</ele><time>2026-04-16T16:12:34Z</time></trkpt><trkpt lat="44.816495409117515" lon="7.27445307687878"><ele>458.66666666666663</ele><time>2026-04-16T16:12:36Z</time></trkpt><trkpt lat="44.81653598628862" lon="7.274353936986246"><ele>458.3333333333333</ele><time>2026-04-16T16:12:38Z</time></trkpt><trkpt lat="44.81657667376058" lon="7.274253676416908"><ele>458.0</ele><time>2026-04-16T16:12:40Z</time></trkpt><trkpt lat="44.816618273689684" lon="7.27415158790788"><ele>457.99999999999994</ele><time>2026-04-16T16:12:42Z</time></trkpt><trkpt lat="44.816657232255864" lon="7.274054255379854"><ele>458.0</ele><time>2026-04-16T16:12:44Z</time></trkpt><trkpt lat="44.81669584160404" lon="7.273954015225758"><ele>458.0</ele><time>2026-04-16T16:12:46Z</time></trkpt><trkpt lat="44.81673253397867" lon="7.273860076582447"><ele>458.0</ele><time>2026-04-16T16:12:48Z</time></trkpt><trkpt lat="44.81676754600117" lon="7.273771283386"><ele>457.99999999999994</ele><time>2026-04-16T16:12:50Z</time></trkpt><trkpt lat="44.816797059707575" lon="7.273688312139658"><ele>458.0</ele><time>2026-04-16T16:12:52Z</time></trkpt><trkpt lat="44.81683699262589" lon="7.27356242350864"><ele>459.4</ele><time>2026-04-16T16:12:55Z</time></trkpt><trkpt lat="44.816852420278906" lon="7.273460954273019"><ele>460.79999999999995</ele><time>2026-04-16T16:12:57Z</time></trkpt><trkpt lat="44.81685946091251" lon="7.273341173068257"><ele>462.2</ele><time>2026-04-16T16:12:59Z</time></trkpt><trkpt lat="44.816859601655395" lon="7.273208801420595"><ele>463.6</ele><time>2026-04-16T16:13:01Z</time></trkpt><trkpt lat="44.816852996532276" lon="7.273065708362397"><ele>465.0</ele><time>2026-04-16T16:13:03Z</time></trkpt><trkpt lat="44.81683327993148" lon="7.2729150332895705"><ele>465.0</ele><time>2026-04-16T16:13:05Z</time></trkpt><trkpt lat="44.81681587241194" lon="7.272757165493214"><ele>465.0</ele><time>2026-04-16T16:13:07Z</time></trkpt><trkpt lat="44.816808555629386" lon="7.27258151714476"><ele>465.0</ele><time>2026-04-16T16:13:09Z</time></trkpt><trkpt lat="44.816816680432204" lon="7.272486352521412"><ele>465.0</ele><time>2026-04-16T16:13:10.001Z</time></trkpt><trkpt lat="44.816837058659445" lon="7.2723947497113235"><ele>465.0</ele><time>2026-04-16T16:13:11.001Z</time></trkpt><trkpt lat="44.81686465183705" lon="7.272308545111691"><ele>465.0</ele><time>2026-04-16T16:13:12.001Z</time></trkpt><trkpt lat="44.816889828548014" lon="7.272220591642068"><ele>464.2</ele><time>2026-04-16T16:13:13.001Z</time></trkpt><trkpt lat="44.81691702163224" lon="7.272137272123376"><ele>463.4</ele><time>2026-04-16T16:13:14.001Z</time></trkpt><trkpt lat="44.81694362064114" lon="7.2720553081355055"><ele>462.6</ele><time>2026-04-16T16:13:15.001Z</time></trkpt><trkpt lat="44.8169954896575" lon="7.271897726071684"><ele>461.8</ele><time>2026-04-16T16:13:17.001Z</time></trkpt><trkpt lat="44.81704359747761" lon="7.271743427262947"><ele>461.0</ele><time>2026-04-16T16:13:19.001Z</time></trkpt><trkpt lat="44.817091627166015" lon="7.271600801854146"><ele>461.0</ele><time>2026-04-16T16:13:21.001Z</time></trkpt><trkpt lat="44.817135909925916" lon="7.271462807814276"><ele>461.0</ele><time>2026-04-16T16:13:23.001Z</time></trkpt><trkpt lat="44.81718355718881" lon="7.271328645708562"><ele>461.0</ele><time>2026-04-16T16:13:25.001Z</time></trkpt><trkpt lat="44.81722706373626" lon="7.2712019670097"><ele>461.0</ele><time>2026-04-16T16:13:27.001Z</time></trkpt><trkpt lat="44.81727141027462" lon="7.271078831172375"><ele>461.0</ele><time>2026-04-16T16:13:29.001Z</time></trkpt><trkpt lat="44.81731489732719" lon="7.270954234283271"><ele>460.0</ele><time>2026-04-16T16:13:31.001Z</time></trkpt><trkpt lat="44.817357141223106" lon="7.270834826911024"><ele>459.0</ele><time>2026-04-16T16:13:33.001Z</time></trkpt><trkpt lat="44.817401791517" lon="7.270717195837175"><ele>458.0</ele><time>2026-04-16T16:13:35.001Z</time></trkpt><trkpt lat="44.8174428244903" lon="7.270601015611025"><ele>457.0</ele><time>2026-04-16T16:13:37.001Z</time></trkpt><trkpt lat="44.817483386005435" lon="7.270483573631264"><ele>456.0</ele><time>2026-04-16T16:13:39.001Z</time></trkpt><trkpt lat="44.81751979815583" lon="7.27036269095837"><ele>455.8333333333333</ele><time>2026-04-16T16:13:41.001Z</time></trkpt><trkpt lat="44.8175528894485" lon="7.270247688882925"><ele>455.66666666666663</ele><time>2026-04-16T16:13:43.001Z</time></trkpt><trkpt lat="44.81758640458118" lon="7.27013285850017"><ele>455.5</ele><time>2026-04-16T16:13:45.001Z</time></trkpt><trkpt lat="44.81761820755661" lon="7.270025313268927"><ele>455.3333333333333</ele><time>2026-04-16T16:13:47.001Z</time></trkpt><trkpt lat="44.817646343503775" lon="7.269921293111174"><ele>455.16666666666663</ele><time>2026-04-16T16:13:49.001Z</time></trkpt><trkpt lat="44.817675458707555" lon="7.269814041109303"><ele>455.0</ele><time>2026-04-16T16:13:51.001Z</time></trkpt><trkpt lat="44.81770798931841" lon="7.269705349288761"><ele>456.8333333333333</ele><time>2026-04-16T16:13:53.001Z</time></trkpt><trkpt lat="44.81773617923462" lon="7.269591861364748"><ele>458.66666666666663</ele><time>2026-04-16T16:13:55.001Z</time></trkpt><trkpt lat="44.817769943778906" lon="7.269479454362406"><ele>460.5</ele><time>2026-04-16T16:13:57.001Z</time></trkpt><trkpt lat="44.81779892755507" lon="7.26936663547765"><ele>462.33333333333337</ele><time>2026-04-16T16:13:59.001Z</time></trkpt><trkpt lat="44.81782776020257" lon="7.269254473745541"><ele>464.1666666666667</ele><time>2026-04-16T16:14:01.001Z</time></trkpt><trkpt lat="44.817852622445514" lon="7.269141886717299"><ele>466.0</ele><time>2026-04-16T16:14:03.001Z</time></trkpt><trkpt lat="44.81788418668378" lon="7.269033680529864"><ele>465.6666666666667</ele><time>2026-04-16T16:14:05.001Z</time></trkpt><trkpt lat="44.81790906233593" lon="7.268929749403202"><ele>465.33333333333337</ele><time>2026-04-16T16:14:07Z</time></trkpt><trkpt lat="44.81793492210933" lon="7.268829184924574"><ele>465.0</ele><time>2026-04-16T16:14:09Z</time></trkpt><trkpt lat="44.817960798348366" lon="7.26872715805146"><ele>464.66666666666663</ele><time>2026-04-16T16:14:11Z</time></trkpt><trkpt lat="44.81798762631822" lon="7.268626972393318"><ele>464.3333333333333</ele><time>2026-04-16T16:14:13Z</time></trkpt><trkpt lat="44.818020073447165" lon="7.268534221860286"><ele>464.0</ele><time>2026-04-16T16:14:15Z</time></trkpt><trkpt lat="44.81805447282706" lon="7.2684447847568165"><ele>464.0</ele><time>2026-04-16T16:14:17Z</time></trkpt><trkpt lat="44.81808433778763" lon="7.268352574976095"><ele>464.0</ele><time>2026-04-16T16:14:19Z</time></trkpt><trkpt lat="44.81811172400273" lon="7.268257496624743"><ele>464.0</ele><time>2026-04-16T16:14:21Z</time></trkpt><trkpt lat="44.81813752728788" lon="7.268142283903089"><ele>464.0</ele><time>2026-04-16T16:14:23Z</time></trkpt><trkpt lat="44.818158855307985" lon="7.267997904079502"><ele>464.0</ele><time>2026-04-16T16:14:25Z</time></trkpt><trkpt lat="44.81816490017537" lon="7.267833041412353"><ele>463.7142857142858</ele><time>2026-04-16T16:14:27Z</time></trkpt><trkpt lat="44.81817139485605" lon="7.26774330688917"><ele>463.42857142857144</ele><time>2026-04-16T16:14:28Z</time></trkpt><trkpt lat="44.81818028148931" lon="7.267651350711079"><ele>463.14285714285717</ele><time>2026-04-16T16:14:29Z</time></trkpt><trkpt lat="44.81818962135271" lon="7.267556033845541"><ele>462.8571428571429</ele><time>2026-04-16T16:14:30Z</time></trkpt><trkpt lat="44.818197827634336" lon="7.267456618884413"><ele>462.57142857142856</ele><time>2026-04-16T16:14:31Z</time></trkpt><trkpt lat="44.81820550843516" lon="7.267355689895714"><ele>462.2857142857143</ele><time>2026-04-16T16:14:32Z</time></trkpt><trkpt lat="44.818211912791305" lon="7.267251386255935"><ele>462.0</ele><time>2026-04-16T16:14:33Z</time></trkpt><trkpt lat="44.81821493848225" lon="7.267149620992181"><ele>461.8571428571429</ele><time>2026-04-16T16:14:34Z</time></trkpt><trkpt lat="44.8182010994225" lon="7.267050475824083"><ele>461.7142857142857</ele><time>2026-04-16T16:14:35Z</time></trkpt><trkpt lat="44.81817790300843" lon="7.2669536187622"><ele>461.57142857142856</ele><time>2026-04-16T16:14:36Z</time></trkpt><trkpt lat="44.818144853391125" lon="7.266861644590463"><ele>461.42857142857144</ele><time>2026-04-16T16:14:37Z</time></trkpt><trkpt lat="44.81811357200514" lon="7.2667686848889925"><ele>461.28571428571433</ele><time>2026-04-16T16:14:38Z</time></trkpt><trkpt lat="44.818086934477684" lon="7.266668785383475"><ele>461.14285714285717</ele><time>2026-04-16T16:14:39Z</time></trkpt><trkpt lat="44.81806625799938" lon="7.266566711175318"><ele>461.0</ele><time>2026-04-16T16:14:40Z</time></trkpt><trkpt lat="44.81805134207755" lon="7.266466179971268"><ele>460.42857142857144</ele><time>2026-04-16T16:14:41Z</time></trkpt><trkpt lat="44.81803982506999" lon="7.266364951776478"><ele>459.8571428571429</ele><time>2026-04-16T16:14:42Z</time></trkpt><trkpt lat="44.81803748248627" lon="7.266263774782282"><ele>459.28571428571433</ele><time>2026-04-16T16:14:43Z</time></trkpt><trkpt lat="44.8180372283567" lon="7.2661655547045445"><ele>458.7142857142858</ele><time>2026-04-16T16:14:44Z</time></trkpt><trkpt lat="44.81803018026374" lon="7.266070440950941"><ele>458.14285714285717</ele><time>2026-04-16T16:14:45Z</time></trkpt><trkpt lat="44.81802252461813" lon="7.265980791061199"><ele>457.57142857142867</ele><time>2026-04-16T16:14:46Z</time></trkpt><trkpt lat="44.81801383635102" lon="7.265891893171513"><ele>457.00000000000006</ele><time>2026-04-16T16:14:47Z</time></trkpt><trkpt lat="44.81800182566337" lon="7.265804460760489"><ele>457.0</ele><time>2026-04-16T16:14:48Z</time></trkpt><trkpt lat="44.81797572775268" lon="7.265632920295037"><ele>457.0</ele><time>2026-04-16T16:14:50Z</time></trkpt><trkpt lat="44.81796660704538" lon="7.265457653926395"><ele>457.0</ele><time>2026-04-16T16:14:52Z</time></trkpt><trkpt lat="44.817975771485465" lon="7.265286762068026"><ele>457.0</ele><time>2026-04-16T16:14:54Z</time></trkpt><trkpt lat="44.81799901092957" lon="7.26512242925346"><ele>457.0</ele><time>2026-04-16T16:14:56Z</time></trkpt><trkpt lat="44.81802332914109" lon="7.264958294229988"><ele>457.0</ele><time>2026-04-16T16:14:58Z</time></trkpt><trkpt lat="44.81802915836706" lon="7.264794948369973"><ele>457.0</ele><time>2026-04-16T16:15:00Z</time></trkpt><trkpt lat="44.818020555035865" lon="7.26463481378713"><ele>457.0</ele><time>2026-04-16T16:15:02Z</time></trkpt><trkpt lat="44.81800174304374" lon="7.264477649480113"><ele>457.5</ele><time>2026-04-16T16:15:04Z</time></trkpt><trkpt lat="44.81795816200269" lon="7.264323889205348"><ele>458.0</ele><time>2026-04-16T16:15:06Z</time></trkpt><trkpt lat="44.81791181884451" lon="7.2641749695995355"><ele>458.5</ele><time>2026-04-16T16:15:08Z</time></trkpt><trkpt lat="44.81785783624715" lon="7.264031890834953"><ele>459.0</ele><time>2026-04-16T16:15:10Z</time></trkpt><trkpt lat="44.817794983196286" lon="7.263898302710905"><ele>459.25</ele><time>2026-04-16T16:15:12Z</time></trkpt><trkpt lat="44.81772525825299" lon="7.263779056379608"><ele>459.5</ele><time>2026-04-16T16:15:14Z</time></trkpt><trkpt lat="44.81766826522923" lon="7.263639046680804"><ele>459.75</ele><time>2026-04-16T16:15:16Z</time></trkpt><trkpt lat="44.817641150939465" lon="7.263484577368367"><ele>460.0</ele><time>2026-04-16T16:15:18.001Z</time></trkpt><trkpt lat="44.81760924562011" lon="7.2633257981045904"><ele>459.6</ele><time>2026-04-16T16:15:20.001Z</time></trkpt><trkpt lat="44.8175869897719" lon="7.263170131142796"><ele>459.2</ele><time>2026-04-16T16:15:22.001Z</time></trkpt><trkpt lat="44.81756894896725" lon="7.2630161870480485"><ele>458.79999999999995</ele><time>2026-04-16T16:15:24.001Z</time></trkpt><trkpt lat="44.817551781721356" lon="7.262866529259037"><ele>458.4</ele><time>2026-04-16T16:15:26.001Z</time></trkpt><trkpt lat="44.81755482955066" lon="7.262717466117105"><ele>458.0</ele><time>2026-04-16T16:15:28.001Z</time></trkpt><trkpt lat="44.81757754944306" lon="7.262570095183504"><ele>458.0</ele><time>2026-04-16T16:15:30.001Z</time></trkpt><trkpt lat="44.81760196206138" lon="7.262423603933828"><ele>457.99999999999994</ele><time>2026-04-16T16:15:32.001Z</time></trkpt><trkpt lat="44.81762656904856" lon="7.2622826823315"><ele>457.99999999999994</ele><time>2026-04-16T16:15:34.001Z</time></trkpt><trkpt lat="44.81766068049646" lon="7.262148480005936"><ele>458.0</ele><time>2026-04-16T16:15:36.001Z</time></trkpt><trkpt lat="44.81769534779702" lon="7.262015706162876"><ele>458.0</ele><time>2026-04-16T16:15:38.001Z</time></trkpt><trkpt lat="44.817728625396555" lon="7.261885172188532"><ele>458.59999999999997</ele><time>2026-04-16T16:15:40.001Z</time></trkpt><trkpt lat="44.81775985724923" lon="7.261757352477122"><ele>459.19999999999993</ele><time>2026-04-16T16:15:42.001Z</time></trkpt><trkpt lat="44.817786712331625" lon="7.261633903537674"><ele>459.8</ele><time>2026-04-16T16:15:44.001Z</time></trkpt><trkpt lat="44.81781707325058" lon="7.261516294927739"><ele>460.4</ele><time>2026-04-16T16:15:46.001Z</time></trkpt><trkpt lat="44.81784685079658" lon="7.261400282699998"><ele>461.0</ele><time>2026-04-16T16:15:48.001Z</time></trkpt><trkpt lat="44.81787343615289" lon="7.261276744489495"><ele>460.99999999999994</ele><time>2026-04-16T16:15:50.001Z</time></trkpt><trkpt lat="44.81789973259823" lon="7.261159661960932"><ele>461.0</ele><time>2026-04-16T16:15:52.001Z</time></trkpt><trkpt lat="44.81792469757035" lon="7.261047500730382"><ele>461.0</ele><time>2026-04-16T16:15:54.001Z</time></trkpt><trkpt lat="44.81794913009566" lon="7.2609368223601445"><ele>461.0</ele><time>2026-04-16T16:15:56.001Z</time></trkpt><trkpt lat="44.817974943409325" lon="7.260828997611232"><ele>460.99999999999994</ele><time>2026-04-16T16:15:58.001Z</time></trkpt><trkpt lat="44.81800041421788" lon="7.260719089953646"><ele>461.0</ele><time>2026-04-16T16:16:00.001Z</time></trkpt><trkpt lat="44.8180245306388" lon="7.26061126129339"><ele>461.16666666666663</ele><time>2026-04-16T16:16:02.001Z</time></trkpt><trkpt lat="44.818049120663986" lon="7.260507053547921"><ele>461.3333333333333</ele><time>2026-04-16T16:16:04.001Z</time></trkpt><trkpt lat="44.81807224648158" lon="7.26040236605078"><ele>461.5</ele><time>2026-04-16T16:16:06.001Z</time></trkpt><trkpt lat="44.8180950933614" lon="7.2602976920945235"><ele>461.66666666666663</ele><time>2026-04-16T16:16:08.001Z</time></trkpt><trkpt lat="44.818119758787184" lon="7.260190675919921"><ele>461.8333333333333</ele><time>2026-04-16T16:16:10.001Z</time></trkpt><trkpt lat="44.818144046247056" lon="7.260082870567045"><ele>462.0</ele><time>2026-04-16T16:16:12Z</time></trkpt><trkpt lat="44.818164104596946" lon="7.259973054415523"><ele>462.0</ele><time>2026-04-16T16:16:14Z</time></trkpt><trkpt lat="44.81818679890708" lon="7.2598616267118095"><ele>462.0</ele><time>2026-04-16T16:16:16Z</time></trkpt><trkpt lat="44.81821185347182" lon="7.2597531004362885"><ele>462.0</ele><time>2026-04-16T16:16:18Z</time></trkpt><trkpt lat="44.81823727367934" lon="7.259646160866602"><ele>462.0</ele><time>2026-04-16T16:16:20Z</time></trkpt><trkpt lat="44.818261153794985" lon="7.259536084867089"><ele>462.0</ele><time>2026-04-16T16:16:22Z</time></trkpt><trkpt lat="44.81828726656182" lon="7.259427358650334"><ele>462.0</ele><time>2026-04-16T16:16:24Z</time></trkpt><trkpt lat="44.818310422598095" lon="7.259319772759448"><ele>462.5</ele><time>2026-04-16T16:16:26Z</time></trkpt><trkpt lat="44.81832920504334" lon="7.259208173002737"><ele>463.0</ele><time>2026-04-16T16:16:28Z</time></trkpt><trkpt lat="44.81835204035277" lon="7.259098645892574"><ele>463.5</ele><time>2026-04-16T16:16:30Z</time></trkpt><trkpt lat="44.81837593491468" lon="7.258988551153742"><ele>464.0</ele><time>2026-04-16T16:16:32Z</time></trkpt><trkpt lat="44.818393967551124" lon="7.258882581643071"><ele>464.5</ele><time>2026-04-16T16:16:34Z</time></trkpt><trkpt lat="44.81841095386929" lon="7.258780756682553"><ele>465.0</ele><time>2026-04-16T16:16:36Z</time></trkpt><trkpt lat="44.818441054400964" lon="7.258679278693792"><ele>465.1666666666667</ele><time>2026-04-16T16:16:38Z</time></trkpt><trkpt lat="44.81847114638133" lon="7.258576675030227"><ele>465.33333333333337</ele><time>2026-04-16T16:16:40Z</time></trkpt><trkpt lat="44.81849281445674" lon="7.2584692683713055"><ele>465.5</ele><time>2026-04-16T16:16:42Z</time></trkpt><trkpt lat="44.81850854872705" lon="7.258360955464362"><ele>465.6666666666667</ele><time>2026-04-16T16:16:44Z</time></trkpt><trkpt lat="44.81852401550709" lon="7.258252898733554"><ele>465.83333333333337</ele><time>2026-04-16T16:16:46Z</time></trkpt><trkpt lat="44.81854235732696" lon="7.25814477317682"><ele>466.0</ele><time>2026-04-16T16:16:48Z</time></trkpt><trkpt lat="44.81856585062159" lon="7.258033711025849"><ele>467.33333333333337</ele><time>2026-04-16T16:16:50Z</time></trkpt><trkpt lat="44.818585183320586" lon="7.257924883073704"><ele>468.6666666666667</ele><time>2026-04-16T16:16:52Z</time></trkpt><trkpt lat="44.818606807881146" lon="7.257816892311104"><ele>470.0</ele><time>2026-04-16T16:16:54Z</time></trkpt><trkpt lat="44.818626408682846" lon="7.257712106528903"><ele>471.33333333333337</ele><time>2026-04-16T16:16:56Z</time></trkpt><trkpt lat="44.818641402456045" lon="7.257608072093138"><ele>472.6666666666667</ele><time>2026-04-16T16:16:58Z</time></trkpt><trkpt lat="44.81865301828608" lon="7.257500982818584"><ele>474.0</ele><time>2026-04-16T16:17:00Z</time></trkpt><trkpt lat="44.81865777719639" lon="7.25739909403948"><ele>474.0</ele><time>2026-04-16T16:17:02Z</time></trkpt><trkpt lat="44.818676835770205" lon="7.257303322166344"><ele>474.0</ele><time>2026-04-16T16:17:04Z</time></trkpt><trkpt lat="44.81870182899254" lon="7.257218802918001"><ele>474.0</ele><time>2026-04-16T16:17:06Z</time></trkpt><trkpt lat="44.81874340534291" lon="7.257119334875924"><ele>474.0</ele><time>2026-04-16T16:17:09Z</time></trkpt><trkpt lat="44.81883454223744" lon="7.25710527705413"><ele>474.0</ele><time>2026-04-16T16:17:12Z</time></trkpt><trkpt lat="44.81891577062228" lon="7.257083507655337"><ele>474.0</ele><time>2026-04-16T16:17:15Z</time></trkpt><trkpt lat="44.81899576028629" lon="7.2570564835437565"><ele>473.99999999999994</ele><time>2026-04-16T16:17:18Z</time></trkpt><trkpt lat="44.81907681700158" lon="7.2570354245783095"><ele>474.0</ele><time>2026-04-16T16:17:21.001Z</time></trkpt><trkpt lat="44.8191491524038" lon="7.257017101117173"><ele>473.99999999999994</ele><time>2026-04-16T16:17:24.001Z</time></trkpt><trkpt lat="44.81921786194765" lon="7.257003449229397"><ele>473.99999999999994</ele><time>2026-04-16T16:17:27.001Z</time></trkpt><trkpt lat="44.819281680479556" lon="7.256997714113168"><ele>474.0</ele><time>2026-04-16T16:17:41.001Z</time></trkpt><trkpt lat="44.81935562721782" lon="7.2569932748742705"><ele>473.99999999999994</ele><time>2026-04-16T16:17:44.001Z</time></trkpt><trkpt lat="44.81942335563643" lon="7.256965115516038"><ele>473.99999999999994</ele><time>2026-04-16T16:17:47.001Z</time></trkpt><trkpt lat="44.819491547014444" lon="7.256960633348943"><ele>475.1666666666667</ele><time>2026-04-16T16:17:50.001Z</time></trkpt><trkpt lat="44.81955663566069" lon="7.256932678871298"><ele>476.33333333333337</ele><time>2026-04-16T16:17:53.001Z</time></trkpt><trkpt lat="44.81964861506607" lon="7.256912172573353"><ele>477.5</ele><time>2026-04-16T16:17:57.001Z</time></trkpt><trkpt lat="44.819685521422706" lon="7.256811961777246"><ele>478.6666666666667</ele><time>2026-04-16T16:18:00.001Z</time></trkpt><trkpt lat="44.81972063343688" lon="7.256693932965857"><ele>479.83333333333337</ele><time>2026-04-16T16:18:03.001Z</time></trkpt><trkpt lat="44.81974217770159" lon="7.256598801593548"><ele>481.0</ele><time>2026-04-16T16:18:05.001Z</time></trkpt><trkpt lat="44.81976651861345" lon="7.2564933307384365"><ele>481.1666666666667</ele><time>2026-04-16T16:18:07.001Z</time></trkpt><trkpt lat="44.81980519317999" lon="7.256386977851678"><ele>481.33333333333337</ele><time>2026-04-16T16:18:09.001Z</time></trkpt><trkpt lat="44.81983583115259" lon="7.256279208065535"><ele>481.5</ele><time>2026-04-16T16:18:11.001Z</time></trkpt><trkpt lat="44.81986835001545" lon="7.256170121411114"><ele>481.66666666666663</ele><time>2026-04-16T16:18:13.001Z</time></trkpt><trkpt lat="44.819897673179604" lon="7.256059929988459"><ele>481.8333333333333</ele><time>2026-04-16T16:18:15.001Z</time></trkpt><trkpt lat="44.81992906588127" lon="7.255955875149053"><ele>482.0</ele><time>2026-04-16T16:18:17.001Z</time></trkpt><trkpt lat="44.81996426023327" lon="7.255857159997785"><ele>482.0</ele><time>2026-04-16T16:18:19Z</time></trkpt><trkpt lat="44.81999758250183" lon="7.2557628979352105"><ele>482.00000000000006</ele><time>2026-04-16T16:18:21Z</time></trkpt><trkpt lat="44.82002845429394" lon="7.255672076147294"><ele>482.0</ele><time>2026-04-16T16:18:23Z</time></trkpt><trkpt lat="44.82005733441343" lon="7.255582761987247"><ele>482.0</ele><time>2026-04-16T16:18:25Z</time></trkpt><trkpt lat="44.82008497890832" lon="7.2554955097126745"><ele>482.00000000000006</ele><time>2026-04-16T16:18:27Z</time></trkpt><trkpt lat="44.82010802895118" lon="7.255412622292028"><ele>482.0</ele><time>2026-04-16T16:18:29Z</time></trkpt><trkpt lat="44.82011312259405" lon="7.255285220640331"><ele>482.0</ele><time>2026-04-16T16:18:32Z</time></trkpt><trkpt lat="44.82008887976675" lon="7.255198743020121"><ele>481.99999999999994</ele><time>2026-04-16T16:18:34Z</time></trkpt><trkpt lat="44.82004742546639" lon="7.255124710774006"><ele>482.0</ele><time>2026-04-16T16:18:36Z</time></trkpt><trkpt lat="44.82000645265498" lon="7.255056341210664"><ele>482.0</ele><time>2026-04-16T16:18:38Z</time></trkpt><trkpt lat="44.819944849225315" lon="7.254962154941191"><ele>482.0</ele><time>2026-04-16T16:18:41Z</time></trkpt><trkpt lat="44.81988826215394" lon="7.254865152710751"><ele>481.99999999999994</ele><time>2026-04-16T16:18:44Z</time></trkpt><trkpt lat="44.81985766157071" lon="7.254786545140215"><ele>482.0</ele><time>2026-04-16T16:18:46Z</time></trkpt><trkpt lat="44.819821185919665" lon="7.254666411436172"><ele>482.28571428571433</ele><time>2026-04-16T16:18:49Z</time></trkpt><trkpt lat="44.819799749404204" lon="7.254582035330721"><ele>482.5714285714286</ele><time>2026-04-16T16:18:51Z</time></trkpt><trkpt lat="44.819781093024595" lon="7.254490819920094"><ele>482.8571428571429</ele><time>2026-04-16T16:18:53Z</time></trkpt><trkpt lat="44.81976497909518" lon="7.254394359051459"><ele>483.1428571428571</ele><time>2026-04-16T16:18:55Z</time></trkpt><trkpt lat="44.81975851073896" lon="7.254294805316394"><ele>483.4285714285714</ele><time>2026-04-16T16:18:57Z</time></trkpt><trkpt lat="44.81976729686544" lon="7.254195823748501"><ele>483.71428571428567</ele><time>2026-04-16T16:18:59Z</time></trkpt><trkpt lat="44.819781444469534" lon="7.254098350207771"><ele>484.0</ele><time>2026-04-16T16:19:01Z</time></trkpt><trkpt lat="44.81979938815984" lon="7.254002337630124"><ele>484.0</ele><time>2026-04-16T16:19:03Z</time></trkpt><trkpt lat="44.819817735634516" lon="7.253907945158731"><ele>483.99999999999994</ele><time>2026-04-16T16:19:05Z</time></trkpt><trkpt lat="44.819836637007874" lon="7.253815754134105"><ele>484.0</ele><time>2026-04-16T16:19:07Z</time></trkpt><trkpt lat="44.819852851086715" lon="7.253721914342444"><ele>484.0</ele><time>2026-04-16T16:19:09Z</time></trkpt><trkpt lat="44.8198678242976" lon="7.253629008643042"><ele>483.99999999999994</ele><time>2026-04-16T16:19:11Z</time></trkpt><trkpt lat="44.81988219521734" lon="7.253536442787935"><ele>484.0</ele><time>2026-04-16T16:19:13Z</time></trkpt><trkpt lat="44.81989950254844" lon="7.253445118361335"><ele>484.0</ele><time>2026-04-16T16:19:15Z</time></trkpt><trkpt lat="44.819914208355634" lon="7.253350707884537"><ele>484.0</ele><time>2026-04-16T16:19:17Z</time></trkpt><trkpt lat="44.81993065262577" lon="7.253257185661843"><ele>483.99999999999994</ele><time>2026-04-16T16:19:19Z</time></trkpt><trkpt lat="44.81994590358689" lon="7.253164619761493"><ele>484.0</ele><time>2026-04-16T16:19:21Z</time></trkpt><trkpt lat="44.81996250440469" lon="7.2530707659295715"><ele>484.0</ele><time>2026-04-16T16:19:23Z</time></trkpt><trkpt lat="44.81998163666949" lon="7.252975976653343"><ele>483.99999999999994</ele><time>2026-04-16T16:19:25Z</time></trkpt><trkpt lat="44.820000197785" lon="7.2528834563982985"><ele>484.0</ele><time>2026-04-16T16:19:27Z</time></trkpt><trkpt lat="44.82001696184345" lon="7.25278992823223"><ele>484.0</ele><time>2026-04-16T16:19:29.001Z</time></trkpt><trkpt lat="44.82003364425652" lon="7.2526976094374485"><ele>484.2857142857143</ele><time>2026-04-16T16:19:31.001Z</time></trkpt><trkpt lat="44.820047538315954" lon="7.252607375966288"><ele>484.57142857142856</ele><time>2026-04-16T16:19:33.001Z</time></trkpt><trkpt lat="44.820063564225606" lon="7.25251907947551"><ele>484.85714285714283</ele><time>2026-04-16T16:19:35.001Z</time></trkpt><trkpt lat="44.82008496334225" lon="7.252435179508322"><ele>485.1428571428571</ele><time>2026-04-16T16:19:37.001Z</time></trkpt><trkpt lat="44.82010982868457" lon="7.252346579044824"><ele>485.42857142857144</ele><time>2026-04-16T16:19:39.001Z</time></trkpt><trkpt lat="44.82012696229245" lon="7.252254809452927"><ele>485.71428571428567</ele><time>2026-04-16T16:19:41.001Z</time></trkpt><trkpt lat="44.82013699262157" lon="7.252162568248799"><ele>486.0</ele><time>2026-04-16T16:19:43.001Z</time></trkpt><trkpt lat="44.82015049962042" lon="7.252072516209313"><ele>486.42857142857144</ele><time>2026-04-16T16:19:45.001Z</time></trkpt><trkpt lat="44.82016152830709" lon="7.251974813459123"><ele>486.8571428571429</ele><time>2026-04-16T16:19:47.001Z</time></trkpt><trkpt lat="44.82017065274626" lon="7.25187900846545"><ele>487.28571428571433</ele><time>2026-04-16T16:19:49.001Z</time></trkpt><trkpt lat="44.82018543783578" lon="7.251784137608756"><ele>487.7142857142857</ele><time>2026-04-16T16:19:51.001Z</time></trkpt><trkpt lat="44.820193932696434" lon="7.25169069759376"><ele>488.1428571428572</ele><time>2026-04-16T16:19:53.001Z</time></trkpt><trkpt lat="44.820204925751426" lon="7.251595056646486"><ele>488.5714285714286</ele><time>2026-04-16T16:19:55.001Z</time></trkpt><trkpt lat="44.82021776124139" lon="7.2515029610000505"><ele>489.0</ele><time>2026-04-16T16:19:57.001Z</time></trkpt><trkpt lat="44.82023084694735" lon="7.251411072965141"><ele>489.0</ele><time>2026-04-16T16:19:59.001Z</time></trkpt><trkpt lat="44.820242500616665" lon="7.251314813172312"><ele>489.00000000000006</ele><time>2026-04-16T16:20:01.001Z</time></trkpt><trkpt lat="44.82025609017487" lon="7.2512190809907695"><ele>489.0</ele><time>2026-04-16T16:20:03.001Z</time></trkpt><trkpt lat="44.82026371197439" lon="7.2511214226049105"><ele>489.0</ele><time>2026-04-16T16:20:05.001Z</time></trkpt><trkpt lat="44.82027420405389" lon="7.251026301044044"><ele>489.00000000000006</ele><time>2026-04-16T16:20:07.001Z</time></trkpt><trkpt lat="44.82028633165932" lon="7.250930590559832"><ele>489.0</ele><time>2026-04-16T16:20:09.001Z</time></trkpt><trkpt lat="44.82029709308277" lon="7.250839488889218"><ele>489.0</ele><time>2026-04-16T16:20:11.001Z</time></trkpt><trkpt lat="44.82030536464122" lon="7.2507488452473146"><ele>489.0</ele><time>2026-04-16T16:20:13.001Z</time></trkpt><trkpt lat="44.82031654011647" lon="7.250660615008644"><ele>489.00000000000006</ele><time>2026-04-16T16:20:15.001Z</time></trkpt><trkpt lat="44.820335951505285" lon="7.2505307742004685"><ele>489.0</ele><time>2026-04-16T16:20:18.001Z</time></trkpt><trkpt lat="44.82034769322763" lon="7.250401310354947"><ele>489.0</ele><time>2026-04-16T16:20:21.001Z</time></trkpt><trkpt lat="44.820359507726806" lon="7.250311866354713"><ele>489.00000000000006</ele><time>2026-04-16T16:20:23.001Z</time></trkpt><trkpt lat="44.820366955373856" lon="7.250222877093595"><ele>489.0</ele><time>2026-04-16T16:20:25Z</time></trkpt><trkpt lat="44.8203703447099" lon="7.250133379409506"><ele>489.0</ele><time>2026-04-16T16:20:27Z</time></trkpt><trkpt lat="44.82037835579121" lon="7.250003716769464"><ele>489.14285714285717</ele><time>2026-04-16T16:20:30Z</time></trkpt><trkpt lat="44.82038665398953" lon="7.249873430383046"><ele>489.28571428571433</ele><time>2026-04-16T16:20:33Z</time></trkpt><trkpt lat="44.82038773949993" lon="7.249744490253006"><ele>489.42857142857144</ele><time>2026-04-16T16:20:36Z</time></trkpt><trkpt lat="44.820393070849086" lon="7.249654766092387"><ele>489.57142857142856</ele><time>2026-04-16T16:20:38Z</time></trkpt><trkpt lat="44.82039686303588" lon="7.249565155981429"><ele>489.7142857142857</ele><time>2026-04-16T16:20:40Z</time></trkpt><trkpt lat="44.82039785137572" lon="7.249469213719947"><ele>489.8571428571429</ele><time>2026-04-16T16:20:42Z</time></trkpt><trkpt lat="44.820401178050666" lon="7.249374096585798"><ele>490.0</ele><time>2026-04-16T16:20:44Z</time></trkpt><trkpt lat="44.82040406652638" lon="7.249280604168176"><ele>490.2857142857143</ele><time>2026-04-16T16:20:46Z</time></trkpt><trkpt lat="44.82040751984129" lon="7.249185222885244"><ele>490.57142857142856</ele><time>2026-04-16T16:20:48Z</time></trkpt><trkpt lat="44.820411669095506" lon="7.2490876210692825"><ele>490.8571428571429</ele><time>2026-04-16T16:20:50Z</time></trkpt><trkpt lat="44.820416702186336" lon="7.248992634232106"><ele>491.14285714285717</ele><time>2026-04-16T16:20:52Z</time></trkpt><trkpt lat="44.820416021315516" lon="7.248897210672849"><ele>491.42857142857144</ele><time>2026-04-16T16:20:54Z</time></trkpt><trkpt lat="44.820416979620575" lon="7.248805762609512"><ele>491.7142857142858</ele><time>2026-04-16T16:20:56Z</time></trkpt><trkpt lat="44.82041473565921" lon="7.248714268897518"><ele>492.00000000000006</ele><time>2026-04-16T16:20:58Z</time></trkpt><trkpt lat="44.82041331732461" lon="7.248621320324928"><ele>492.3333333333333</ele><time>2026-04-16T16:21:00Z</time></trkpt><trkpt lat="44.82040889308027" lon="7.248530729814264"><ele>492.66666666666663</ele><time>2026-04-16T16:21:02Z</time></trkpt><trkpt lat="44.82039845464253" lon="7.24843506503177"><ele>493.0</ele><time>2026-04-16T16:21:04Z</time></trkpt><trkpt lat="44.820388412971504" lon="7.2483330009160625"><ele>493.3333333333333</ele><time>2026-04-16T16:21:06Z</time></trkpt><trkpt lat="44.82036758113768" lon="7.248218152004173"><ele>493.66666666666663</ele><time>2026-04-16T16:21:08Z</time></trkpt><trkpt lat="44.82032802637961" lon="7.248090059541767"><ele>494.0</ele><time>2026-04-16T16:21:10Z</time></trkpt><trkpt lat="44.82027821211837" lon="7.247956543904502"><ele>494.0</ele><time>2026-04-16T16:21:12Z</time></trkpt><trkpt lat="44.820224407319174" lon="7.2478160262569435"><ele>494.0</ele><time>2026-04-16T16:21:14Z</time></trkpt><trkpt lat="44.82022100483243" lon="7.247693753526243"><ele>494.0</ele><time>2026-04-16T16:21:17Z</time></trkpt><trkpt lat="44.820173516847476" lon="7.247576245088203"><ele>494.0</ele><time>2026-04-16T16:21:20Z</time></trkpt><trkpt lat="44.82018111710159" lon="7.247464141258876"><ele>494.0</ele><time>2026-04-16T16:21:22Z</time></trkpt><trkpt lat="44.820187026482934" lon="7.247348519044234"><ele>494.66666666666663</ele><time>2026-04-16T16:21:24Z</time></trkpt><trkpt lat="44.82018616002088" lon="7.247236413552616"><ele>495.3333333333333</ele><time>2026-04-16T16:21:26Z</time></trkpt><trkpt lat="44.82018466148366" lon="7.247115898378178"><ele>496.0</ele><time>2026-04-16T16:21:28Z</time></trkpt><trkpt lat="44.82018168242374" lon="7.246997485498681"><ele>496.66666666666663</ele><time>2026-04-16T16:21:30Z</time></trkpt><trkpt lat="44.82019464303039" lon="7.246883280727115"><ele>497.3333333333333</ele><time>2026-04-16T16:21:32Z</time></trkpt><trkpt lat="44.82019267256075" lon="7.246784477582032"><ele>498.0</ele><time>2026-04-16T16:21:34.001Z</time></trkpt><trkpt lat="44.82018510567799" lon="7.246665128835384"><ele>498.0</ele><time>2026-04-16T16:21:37.001Z</time></trkpt><trkpt lat="44.82019132704571" lon="7.246552269784572"><ele>498.0</ele><time>2026-04-16T16:21:40.001Z</time></trkpt><trkpt lat="44.82025601770276" lon="7.246473748290291"><ele>498.0</ele><time>2026-04-16T16:21:43.001Z</time></trkpt><trkpt lat="44.820326784879995" lon="7.246410793483411"><ele>498.0</ele><time>2026-04-16T16:21:46.001Z</time></trkpt><trkpt lat="44.82041224029245" lon="7.24638294822612"><ele>498.0</ele><time>2026-04-16T16:21:49.001Z</time></trkpt><trkpt lat="44.82049758102466" lon="7.246331944408295"><ele>498.0</ele><time>2026-04-16T16:21:52.001Z</time></trkpt><trkpt lat="44.82058281659622" lon="7.2462880994244"><ele>498.5</ele><time>2026-04-16T16:21:55.001Z</time></trkpt><trkpt lat="44.8206647127654" lon="7.246251755832911"><ele>499.0</ele><time>2026-04-16T16:21:58.001Z</time></trkpt><trkpt lat="44.82074718371863" lon="7.246200694519737"><ele>499.5</ele><time>2026-04-16T16:22:01.001Z</time></trkpt><trkpt lat="44.82083143471503" lon="7.246159147295365"><ele>500.0</ele><time>2026-04-16T16:22:04.001Z</time></trkpt><trkpt lat="44.820912826723905" lon="7.246104920628124"><ele>500.5</ele><time>2026-04-16T16:22:07.001Z</time></trkpt><trkpt lat="44.82099720836601" lon="7.246056868473887"><ele>501.0</ele><time>2026-04-16T16:22:10.001Z</time></trkpt><trkpt lat="44.82107029523439" lon="7.24598107596577"><ele>501.3333333333333</ele><time>2026-04-16T16:22:13.001Z</time></trkpt><trkpt lat="44.82114274061984" lon="7.245903345617694"><ele>501.66666666666663</ele><time>2026-04-16T16:22:16.001Z</time></trkpt><trkpt lat="44.821195281814994" lon="7.2458498493946815"><ele>502.0</ele><time>2026-04-16T16:22:18.001Z</time></trkpt><trkpt lat="44.82124582074658" lon="7.245792145888979"><ele>502.3333333333333</ele><time>2026-04-16T16:22:20.001Z</time></trkpt><trkpt lat="44.8212983875147" lon="7.245732979108475"><ele>502.66666666666663</ele><time>2026-04-16T16:22:22.001Z</time></trkpt><trkpt lat="44.82136983534982" lon="7.2456493181428545"><ele>503.0</ele><time>2026-04-16T16:22:25.001Z</time></trkpt><trkpt lat="44.82144209600255" lon="7.245563996702631"><ele>503.4</ele><time>2026-04-16T16:22:28.001Z</time></trkpt><trkpt lat="44.82151261457137" lon="7.245482452162763"><ele>503.79999999999995</ele><time>2026-04-16T16:22:31Z</time></trkpt><trkpt lat="44.821584071041364" lon="7.245399022234174"><ele>504.2</ele><time>2026-04-16T16:22:34Z</time></trkpt><trkpt lat="44.82166025067486" lon="7.245322199767304"><ele>504.6</ele><time>2026-04-16T16:22:37Z</time></trkpt><trkpt lat="44.82173733205758" lon="7.24526035305585"><ele>505.0</ele><time>2026-04-16T16:22:40Z</time></trkpt><trkpt lat="44.82181556150016" lon="7.2452115057997135"><ele>506.00000000000006</ele><time>2026-04-16T16:22:43Z</time></trkpt><trkpt lat="44.82189019958129" lon="7.245163585035854"><ele>507.0</ele><time>2026-04-16T16:22:46Z</time></trkpt><trkpt lat="44.821970535867045" lon="7.2451253601929215"><ele>508.0</ele><time>2026-04-16T16:22:49Z</time></trkpt><trkpt lat="44.82204971329499" lon="7.245072843270975"><ele>509.0</ele><time>2026-04-16T16:22:52Z</time></trkpt><trkpt lat="44.82213576358546" lon="7.245029703300042"><ele>510.00000000000006</ele><time>2026-04-16T16:22:55Z</time></trkpt><trkpt lat="44.82219444627265" lon="7.2449967997264055"><ele>511.0</ele><time>2026-04-16T16:22:57Z</time></trkpt><trkpt lat="44.82227760408501" lon="7.244940898568642"><ele>511.00000000000006</ele><time>2026-04-16T16:23:00Z</time></trkpt><trkpt lat="44.82235458966952" lon="7.2448860248230975"><ele>511.0</ele><time>2026-04-16T16:23:03Z</time></trkpt><trkpt lat="44.82242372263011" lon="7.244801512274809"><ele>511.0</ele><time>2026-04-16T16:23:06Z</time></trkpt><trkpt lat="44.82247074895584" lon="7.244696857368541"><ele>511.0</ele><time>2026-04-16T16:23:09Z</time></trkpt><trkpt lat="44.82248386962644" lon="7.244578012043005"><ele>511.00000000000006</ele><time>2026-04-16T16:23:12Z</time></trkpt><trkpt lat="44.822486012290575" lon="7.2444567735821"><ele>511.0</ele><time>2026-04-16T16:23:15Z</time></trkpt><trkpt lat="44.822468527195" lon="7.244329401648638"><ele>511.0</ele><time>2026-04-16T16:23:18Z</time></trkpt><trkpt lat="44.822456732497" lon="7.244241269434495"><ele>511.0</ele><time>2026-04-16T16:23:20Z</time></trkpt><trkpt lat="44.82243728864035" lon="7.244123504994187"><ele>511.0</ele><time>2026-04-16T16:23:23Z</time></trkpt><trkpt lat="44.82241104763961" lon="7.2440047714706095"><ele>511.0</ele><time>2026-04-16T16:23:26Z</time></trkpt><trkpt lat="44.82238249221601" lon="7.24392214169753"><ele>511.0</ele><time>2026-04-16T16:23:28Z</time></trkpt><trkpt lat="44.82235074511809" lon="7.243831863058565"><ele>511.0</ele><time>2026-04-16T16:23:30Z</time></trkpt><trkpt lat="44.8223252280897" lon="7.24373406282773"><ele>511.0</ele><time>2026-04-16T16:23:32Z</time></trkpt><trkpt lat="44.822296850597965" lon="7.2436227239589766"><ele>511.0</ele><time>2026-04-16T16:23:34Z</time></trkpt><trkpt lat="44.8222666548187" lon="7.243506684550724"><ele>511.0</ele><time>2026-04-16T16:23:36Z</time></trkpt><trkpt lat="44.82223605066547" lon="7.243390798615102"><ele>511.0</ele><time>2026-04-16T16:23:38.001Z</time></trkpt><trkpt lat="44.8222041591316" lon="7.243266991877081"><ele>511.0</ele><time>2026-04-16T16:23:40.001Z</time></trkpt><trkpt lat="44.822171652511244" lon="7.243144446868623"><ele>511.0</ele><time>2026-04-16T16:23:42.001Z</time></trkpt><trkpt lat="44.822138187218435" lon="7.243013967253748"><ele>511.6</ele><time>2026-04-16T16:23:44.001Z</time></trkpt><trkpt lat="44.82210315269287" lon="7.242884309535723"><ele>512.2</ele><time>2026-04-16T16:23:46.001Z</time></trkpt><trkpt lat="44.82205783700554" lon="7.242759396739682"><ele>512.8</ele><time>2026-04-16T16:23:48.001Z</time></trkpt><trkpt lat="44.82201588459733" lon="7.242633062857221"><ele>513.4</ele><time>2026-04-16T16:23:50.001Z</time></trkpt><trkpt lat="44.821978164077244" lon="7.242510197486746"><ele>514.0</ele><time>2026-04-16T16:23:52.001Z</time></trkpt><trkpt lat="44.82194116523901" lon="7.242388488299879"><ele>513.6</ele><time>2026-04-16T16:23:54.001Z</time></trkpt><trkpt lat="44.82189192700762" lon="7.242274437054328"><ele>513.2</ele><time>2026-04-16T16:23:56.001Z</time></trkpt><trkpt lat="44.82185165778518" lon="7.242154642932648"><ele>512.8000000000001</ele><time>2026-04-16T16:23:58.001Z</time></trkpt><trkpt lat="44.82180633754415" lon="7.242042439058589"><ele>512.4</ele><time>2026-04-16T16:24:00.001Z</time></trkpt><trkpt lat="44.821767070012" lon="7.241931909244203"><ele>512.0</ele><time>2026-04-16T16:24:02.001Z</time></trkpt><trkpt lat="44.8217298992059" lon="7.24182567119448"><ele>511.99999999999994</ele><time>2026-04-16T16:24:04.001Z</time></trkpt><trkpt lat="44.821694087268305" lon="7.241727975513999"><ele>512.0</ele><time>2026-04-16T16:24:06.001Z</time></trkpt><trkpt lat="44.82165513191802" lon="7.241616397482313"><ele>512.0</ele><time>2026-04-16T16:24:08.001Z</time></trkpt><trkpt lat="44.821619059208594" lon="7.241501940995027"><ele>512.0</ele><time>2026-04-16T16:24:10.001Z</time></trkpt><trkpt lat="44.821579811968626" lon="7.241392240502902"><ele>511.99999999999994</ele><time>2026-04-16T16:24:12.001Z</time></trkpt><trkpt lat="44.82152839359411" lon="7.24129267479542"><ele>512.0</ele><time>2026-04-16T16:24:14.001Z</time></trkpt><trkpt lat="44.82146896747733" lon="7.241200742342117"><ele>512.3333333333333</ele><time>2026-04-16T16:24:16.001Z</time></trkpt><trkpt lat="44.821406158514826" lon="7.241111829798018"><ele>512.6666666666666</ele><time>2026-04-16T16:24:18.001Z</time></trkpt><trkpt lat="44.82134817213466" lon="7.241016481754311"><ele>513.0</ele><time>2026-04-16T16:24:20.001Z</time></trkpt><trkpt lat="44.82130052939373" lon="7.240912272550877"><ele>513.3333333333334</ele><time>2026-04-16T16:24:22.001Z</time></trkpt><trkpt lat="44.82125651986208" lon="7.240808983666486"><ele>513.6666666666667</ele><time>2026-04-16T16:24:24.001Z</time></trkpt><trkpt lat="44.821222348294995" lon="7.240699507797049"><ele>514.0</ele><time>2026-04-16T16:24:26.001Z</time></trkpt><trkpt lat="44.821186597315794" lon="7.240588156620394"><ele>513.6666666666667</ele><time>2026-04-16T16:24:28.001Z</time></trkpt><trkpt lat="44.82113833013198" lon="7.240485224505689"><ele>513.3333333333334</ele><time>2026-04-16T16:24:30.001Z</time></trkpt><trkpt lat="44.82108935196418" lon="7.240386849816781"><ele>513.0</ele><time>2026-04-16T16:24:32.001Z</time></trkpt><trkpt lat="44.82103903515966" lon="7.2402862926305165"><ele>512.6666666666666</ele><time>2026-04-16T16:24:34.001Z</time></trkpt><trkpt lat="44.82099123174153" lon="7.240184567603659"><ele>512.3333333333333</ele><time>2026-04-16T16:24:36Z</time></trkpt><trkpt lat="44.82094755119267" lon="7.240069744522256"><ele>512.0</ele><time>2026-04-16T16:24:38Z</time></trkpt><trkpt lat="44.820906626413354" lon="7.239956369933779"><ele>512.0</ele><time>2026-04-16T16:24:40Z</time></trkpt><trkpt lat="44.82087369873878" lon="7.2398396758352925"><ele>512.0</ele><time>2026-04-16T16:24:42Z</time></trkpt><trkpt lat="44.82085777747374" lon="7.239716176220793"><ele>512.0</ele><time>2026-04-16T16:24:44Z</time></trkpt><trkpt lat="44.82086156908926" lon="7.239589259070623"><ele>512.0</ele><time>2026-04-16T16:24:46Z</time></trkpt><trkpt lat="44.82088533675192" lon="7.239464440108292"><ele>512.0</ele><time>2026-04-16T16:24:48Z</time></trkpt><trkpt lat="44.820921128338476" lon="7.239336593922353"><ele>512.8000000000001</ele><time>2026-04-16T16:24:50Z</time></trkpt><trkpt lat="44.820947029186286" lon="7.239205630009106"><ele>513.6</ele><time>2026-04-16T16:24:52Z</time></trkpt><trkpt lat="44.82097208456394" lon="7.239073445510065"><ele>514.4000000000001</ele><time>2026-04-16T16:24:54Z</time></trkpt><trkpt lat="44.82099574011012" lon="7.238940992065704"><ele>515.2</ele><time>2026-04-16T16:24:56Z</time></trkpt><trkpt lat="44.82101605165183" lon="7.238816797890174"><ele>516.0</ele><time>2026-04-16T16:24:58Z</time></trkpt><trkpt lat="44.82103442473741" lon="7.238690595070225"><ele>517.5</ele><time>2026-04-16T16:25:00Z</time></trkpt><trkpt lat="44.82105359482301" lon="7.2385737125742935"><ele>519.0</ele><time>2026-04-16T16:25:02Z</time></trkpt><trkpt lat="44.82106991168038" lon="7.2384556682921355"><ele>520.5</ele><time>2026-04-16T16:25:04Z</time></trkpt><trkpt lat="44.821085049251714" lon="7.238344984256282"><ele>522.0</ele><time>2026-04-16T16:25:06Z</time></trkpt><trkpt lat="44.821104464121376" lon="7.238244880566716"><ele>523.5</ele><time>2026-04-16T16:25:08Z</time></trkpt><trkpt lat="44.82112373075808" lon="7.2381480328126795"><ele>525.0</ele><time>2026-04-16T16:25:10Z</time></trkpt><trkpt lat="44.82113938972305" lon="7.2380597433076685"><ele>525.3333333333334</ele><time>2026-04-16T16:25:12Z</time></trkpt><trkpt lat="44.821160309709775" lon="7.237949818462451"><ele>525.6666666666666</ele><time>2026-04-16T16:25:15Z</time></trkpt><trkpt lat="44.82117383204098" lon="7.23784699351689"><ele>526.0</ele><time>2026-04-16T16:25:18Z</time></trkpt><trkpt lat="44.82117576397038" lon="7.2377465634921645"><ele>526.3333333333333</ele><time>2026-04-16T16:25:20Z</time></trkpt><trkpt lat="44.82116429203189" lon="7.237635155181104"><ele>526.6666666666666</ele><time>2026-04-16T16:25:22Z</time></trkpt><trkpt lat="44.821152563578565" lon="7.237525756438132"><ele>527.0</ele><time>2026-04-16T16:25:24Z</time></trkpt><trkpt lat="44.82113986700671" lon="7.237419724392426"><ele>527.0000000000001</ele><time>2026-04-16T16:25:26Z</time></trkpt><trkpt lat="44.82112558073091" lon="7.237315875309078"><ele>527.0</ele><time>2026-04-16T16:25:28Z</time></trkpt><trkpt lat="44.821106343784514" lon="7.237216819852533"><ele>527.0</ele><time>2026-04-16T16:25:30Z</time></trkpt><trkpt lat="44.821088795650056" lon="7.237121531695859"><ele>527.0</ele><time>2026-04-16T16:25:32Z</time></trkpt><trkpt lat="44.82108026994198" lon="7.237022769937915"><ele>527.0</ele><time>2026-04-16T16:25:34Z</time></trkpt><trkpt lat="44.82107187413736" lon="7.236919452004819"><ele>527.0000000000001</ele><time>2026-04-16T16:25:36Z</time></trkpt><trkpt lat="44.82105459399624" lon="7.236818262931765"><ele>527.0</ele><time>2026-04-16T16:25:38Z</time></trkpt><trkpt lat="44.821064264915044" lon="7.236716994684198"><ele>527.4285714285714</ele><time>2026-04-16T16:25:40Z</time></trkpt><trkpt lat="44.821064589837356" lon="7.236615593119646"><ele>527.8571428571429</ele><time>2026-04-16T16:25:42.001Z</time></trkpt><trkpt lat="44.82105914214724" lon="7.236513231443823"><ele>528.2857142857142</ele><time>2026-04-16T16:25:44.001Z</time></trkpt><trkpt lat="44.82106149676457" lon="7.236420377042133"><ele>528.7142857142858</ele><time>2026-04-16T16:25:46.001Z</time></trkpt><trkpt lat="44.82105809378109" lon="7.236326288405554"><ele>529.1428571428571</ele><time>2026-04-16T16:25:48.001Z</time></trkpt><trkpt lat="44.82105561271355" lon="7.236234709517286"><ele>529.5714285714286</ele><time>2026-04-16T16:25:50.001Z</time></trkpt><trkpt lat="44.821056511958545" lon="7.236111760908321"><ele>530.0</ele><time>2026-04-16T16:25:53.001Z</time></trkpt><trkpt lat="44.82104931541634" lon="7.235997566705742"><ele>530.0</ele><time>2026-04-16T16:25:56.001Z</time></trkpt><trkpt lat="44.82101429230075" lon="7.235893682706806"><ele>530.0</ele><time>2026-04-16T16:25:59.001Z</time></trkpt><trkpt lat="44.82100725252879" lon="7.235773560761301"><ele>530.0</ele><time>2026-04-16T16:26:01.001Z</time></trkpt><trkpt lat="44.82100743827689" lon="7.235654368850712"><ele>530.0</ele><time>2026-04-16T16:26:03.001Z</time></trkpt><trkpt lat="44.820989532126816" lon="7.235540722267994"><ele>530.0</ele><time>2026-04-16T16:26:05.001Z</time></trkpt><trkpt lat="44.820972994824224" lon="7.235432277106371"><ele>530.0</ele><time>2026-04-16T16:26:07.001Z</time></trkpt><trkpt lat="44.82095788778261" lon="7.235327206114413"><ele>529.1666666666666</ele><time>2026-04-16T16:26:09.001Z</time></trkpt><trkpt lat="44.82095091256676" lon="7.2352222099511545"><ele>528.3333333333333</ele><time>2026-04-16T16:26:11.001Z</time></trkpt><trkpt lat="44.82094164402204" lon="7.235118298437078"><ele>527.5</ele><time>2026-04-16T16:26:13.001Z</time></trkpt><trkpt lat="44.820945429505926" lon="7.235013411473402"><ele>526.6666666666666</ele><time>2026-04-16T16:26:15.001Z</time></trkpt><trkpt lat="44.82094353429135" lon="7.234904519919952"><ele>525.8333333333334</ele><time>2026-04-16T16:26:17.001Z</time></trkpt><trkpt lat="44.82094418204132" lon="7.234789818313765"><ele>525.0</ele><time>2026-04-16T16:26:19.001Z</time></trkpt><trkpt lat="44.82094355615729" lon="7.234675535149283"><ele>525.0</ele><time>2026-04-16T16:26:21.001Z</time></trkpt><trkpt lat="44.8209562114743" lon="7.23455205398013"><ele>525.0</ele><time>2026-04-16T16:26:23.001Z</time></trkpt><trkpt lat="44.82097984347987" lon="7.234417217918575"><ele>525.0</ele><time>2026-04-16T16:26:25.001Z</time></trkpt><trkpt lat="44.82100784033897" lon="7.234267052415657"><ele>525.0</ele><time>2026-04-16T16:26:27.001Z</time></trkpt><trkpt lat="44.8210275660221" lon="7.234098498878549"><ele>525.0</ele><time>2026-04-16T16:26:29.001Z</time></trkpt><trkpt lat="44.82103644370684" lon="7.234004738034806"><ele>526.1666666666666</ele><time>2026-04-16T16:26:30.001Z</time></trkpt><trkpt lat="44.82104628940523" lon="7.2339032687428"><ele>527.3333333333334</ele><time>2026-04-16T16:26:31.001Z</time></trkpt><trkpt lat="44.82105697105163" lon="7.23379817333587"><ele>528.5</ele><time>2026-04-16T16:26:32.001Z</time></trkpt><trkpt lat="44.821069577262875" lon="7.233683633811506"><ele>529.6666666666667</ele><time>2026-04-16T16:26:33.001Z</time></trkpt><trkpt lat="44.82107780847543" lon="7.233565906733891"><ele>530.8333333333334</ele><time>2026-04-16T16:26:34.001Z</time></trkpt><trkpt lat="44.82108733153024" lon="7.233442568581115"><ele>532.0</ele><time>2026-04-16T16:26:35.001Z</time></trkpt><trkpt lat="44.821100068613994" lon="7.233325827045952"><ele>532.0</ele><time>2026-04-16T16:26:36.001Z</time></trkpt><trkpt lat="44.8211095318605" lon="7.233225769022493"><ele>532.0</ele><time>2026-04-16T16:26:37.001Z</time></trkpt><trkpt lat="44.82111439599616" lon="7.233135162425644"><ele>532.0</ele><time>2026-04-16T16:26:38.001Z</time></trkpt><trkpt lat="44.821122843782675" lon="7.23296689218867"><ele>532.0</ele><time>2026-04-16T16:26:40.001Z</time></trkpt><trkpt lat="44.821106626982804" lon="7.232801179010424"><ele>532.0</ele><time>2026-04-16T16:26:42Z</time></trkpt><trkpt lat="44.82107464220314" lon="7.2326492786416186"><ele>530.8000000000001</ele><time>2026-04-16T16:26:44Z</time></trkpt><trkpt lat="44.82103951556329" lon="7.2325117378144625"><ele>529.6</ele><time>2026-04-16T16:26:46Z</time></trkpt><trkpt lat="44.821003237158585" lon="7.232379725169885"><ele>528.4000000000001</ele><time>2026-04-16T16:26:48Z</time></trkpt><trkpt lat="44.82096759211409" lon="7.232247765424289"><ele>527.2</ele><time>2026-04-16T16:26:50Z</time></trkpt><trkpt lat="44.82093198102748" lon="7.232114248051928"><ele>526.0</ele><time>2026-04-16T16:26:52Z</time></trkpt><trkpt lat="44.82089522484193" lon="7.231981057889415"><ele>525.2</ele><time>2026-04-16T16:26:54Z</time></trkpt><trkpt lat="44.82085707177193" lon="7.2318491255149215"><ele>524.4000000000001</ele><time>2026-04-16T16:26:56Z</time></trkpt><trkpt lat="44.82081492949963" lon="7.231720962421942"><ele>523.6</ele><time>2026-04-16T16:26:58Z</time></trkpt><trkpt lat="44.82077764166169" lon="7.231596907153496"><ele>522.8000000000001</ele><time>2026-04-16T16:27:00Z</time></trkpt><trkpt lat="44.82074934148281" lon="7.231470379395503"><ele>522.0</ele><time>2026-04-16T16:27:02Z</time></trkpt><trkpt lat="44.82072354457011" lon="7.231359702728783"><ele>522.0</ele><time>2026-04-16T16:27:04Z</time></trkpt><trkpt lat="44.82069700557026" lon="7.23125956681502"><ele>522.0</ele><time>2026-04-16T16:27:06Z</time></trkpt><trkpt lat="44.820672479070964" lon="7.231175772055966"><ele>522.0</ele><time>2026-04-16T16:27:08Z</time></trkpt><trkpt lat="44.82064637954002" lon="7.231089186108048"><ele>522.0</ele><time>2026-04-16T16:27:11Z</time></trkpt><trkpt lat="44.820622523349726" lon="7.231177154356199"><ele>522.0</ele><time>2026-04-16T16:27:16Z</time></trkpt><trkpt lat="44.820668264715266" lon="7.231298265254667"><ele>522.0</ele><time>2026-04-16T16:27:19Z</time></trkpt><trkpt lat="44.820696904679195" lon="7.231398708144005"><ele>522.0</ele><time>2026-04-16T16:27:21Z</time></trkpt><trkpt lat="44.82072893099343" lon="7.231517937517821"><ele>521.2</ele><time>2026-04-16T16:27:23Z</time></trkpt><trkpt lat="44.82076807652528" lon="7.231641594229135"><ele>520.4000000000001</ele><time>2026-04-16T16:27:25Z</time></trkpt><trkpt lat="44.82080276438992" lon="7.231771869993158"><ele>519.5999999999999</ele><time>2026-04-16T16:27:27Z</time></trkpt><trkpt lat="44.82085337429904" lon="7.231890835267323"><ele>518.8</ele><time>2026-04-16T16:27:29Z</time></trkpt><trkpt lat="44.820895003844925" lon="7.232015341431464"><ele>518.0</ele><time>2026-04-16T16:27:31Z</time></trkpt><trkpt lat="44.82092753875335" lon="7.232146267263613"><ele>518.0</ele><time>2026-04-16T16:27:33Z</time></trkpt><trkpt lat="44.820953853068275" lon="7.232277558619399"><ele>518.0</ele><time>2026-04-16T16:27:35Z</time></trkpt><trkpt lat="44.82098734193653" lon="7.232414512532526"><ele>518.0</ele><time>2026-04-16T16:27:37.001Z</time></trkpt><trkpt lat="44.82102652321453" lon="7.232555172618958"><ele>518.0</ele><time>2026-04-16T16:27:39.001Z</time></trkpt><trkpt lat="44.82107211434177" lon="7.232697203829263"><ele>518.0</ele><time>2026-04-16T16:27:41.001Z</time></trkpt><trkpt lat="44.82111149655479" lon="7.232843232386746"><ele>519.6</ele><time>2026-04-16T16:27:43.001Z</time></trkpt><trkpt lat="44.82111360779165" lon="7.233000686767514"><ele>521.1999999999999</ele><time>2026-04-16T16:27:45.001Z</time></trkpt><trkpt lat="44.821104376555354" lon="7.233145432724818"><ele>522.8</ele><time>2026-04-16T16:27:47.001Z</time></trkpt><trkpt lat="44.82108995342615" lon="7.2332746072942085"><ele>524.4</ele><time>2026-04-16T16:27:49.001Z</time></trkpt><trkpt lat="44.82107991632413" lon="7.233397057249966"><ele>526.0</ele><time>2026-04-16T16:27:51.001Z</time></trkpt><trkpt lat="44.821067945007975" lon="7.233512039873309"><ele>526.8571428571429</ele><time>2026-04-16T16:27:53.001Z</time></trkpt><trkpt lat="44.82105848733612" lon="7.233618722731037"><ele>527.7142857142857</ele><time>2026-04-16T16:27:55.001Z</time></trkpt><trkpt lat="44.821052156027584" lon="7.233720916933615"><ele>528.5714285714286</ele><time>2026-04-16T16:27:57.001Z</time></trkpt><trkpt lat="44.821042906343905" lon="7.233815310658927"><ele>529.4285714285714</ele><time>2026-04-16T16:27:59.001Z</time></trkpt><trkpt lat="44.821038257468" lon="7.233909734194525"><ele>530.2857142857142</ele><time>2026-04-16T16:28:01.001Z</time></trkpt><trkpt lat="44.821028553961" lon="7.234011129123141"><ele>531.1428571428571</ele><time>2026-04-16T16:28:03.001Z</time></trkpt><trkpt lat="44.82101404946187" lon="7.2341067386781335"><ele>532.0</ele><time>2026-04-16T16:28:05.001Z</time></trkpt><trkpt lat="44.821002065264786" lon="7.234200180191546"><ele>532.2857142857143</ele><time>2026-04-16T16:28:07.001Z</time></trkpt><trkpt lat="44.82098318457773" lon="7.234304447680877"><ele>532.5714285714286</ele><time>2026-04-16T16:28:09.001Z</time></trkpt><trkpt lat="44.82097382652211" lon="7.234401939296873"><ele>532.8571428571429</ele><time>2026-04-16T16:28:11.001Z</time></trkpt><trkpt lat="44.82095939695608" lon="7.234496853431751"><ele>533.1428571428571</ele><time>2026-04-16T16:28:13.001Z</time></trkpt><trkpt lat="44.820945338929455" lon="7.234595183758115"><ele>533.4285714285714</ele><time>2026-04-16T16:28:15.001Z</time></trkpt><trkpt lat="44.82093300251139" lon="7.2346924129781485"><ele>533.7142857142858</ele><time>2026-04-16T16:28:17.001Z</time></trkpt><trkpt lat="44.82092005230175" lon="7.234795473156482"><ele>534.0</ele><time>2026-04-16T16:28:19.001Z</time></trkpt><trkpt lat="44.820918948955764" lon="7.234895690858726"><ele>533.5</ele><time>2026-04-16T16:28:21.001Z</time></trkpt><trkpt lat="44.82091923018649" lon="7.235001446012405"><ele>533.0</ele><time>2026-04-16T16:28:23.001Z</time></trkpt><trkpt lat="44.82092377925659" lon="7.23511723357933"><ele>532.5</ele><time>2026-04-16T16:28:25.001Z</time></trkpt><trkpt lat="44.82093016177841" lon="7.2352405572520295"><ele>532.0</ele><time>2026-04-16T16:28:27.001Z</time></trkpt><trkpt lat="44.82094613030391" lon="7.235366532462755"><ele>531.5</ele><time>2026-04-16T16:28:29.001Z</time></trkpt><trkpt lat="44.82096520485216" lon="7.235497360610612"><ele>531.0</ele><time>2026-04-16T16:28:31.001Z</time></trkpt><trkpt lat="44.82099273154333" lon="7.235635199389847"><ele>530.75</ele><time>2026-04-16T16:28:33.001Z</time></trkpt><trkpt lat="44.821015065462646" lon="7.235783659735859"><ele>530.5</ele><time>2026-04-16T16:28:35.001Z</time></trkpt><trkpt lat="44.82102977271859" lon="7.235938920602841"><ele>530.25</ele><time>2026-04-16T16:28:37.002Z</time></trkpt><trkpt lat="44.821032556648824" lon="7.2361026447312495"><ele>530.0</ele><time>2026-04-16T16:28:39.002Z</time></trkpt><trkpt lat="44.82103751907893" lon="7.236274038295907"><ele>530.0</ele><time>2026-04-16T16:28:41.002Z</time></trkpt><trkpt lat="44.82103867825908" lon="7.236363405084771"><ele>530.0</ele><time>2026-04-16T16:28:42.002Z</time></trkpt><trkpt lat="44.82103818733841" lon="7.236452477761998"><ele>530.0</ele><time>2026-04-16T16:28:43.002Z</time></trkpt><trkpt lat="44.82103816439241" lon="7.236542340136912"><ele>530.0</ele><time>2026-04-16T16:28:44.002Z</time></trkpt><trkpt lat="44.821043545897965" lon="7.236718206198171"><ele>530.0</ele><time>2026-04-16T16:28:46.002Z</time></trkpt><trkpt lat="44.8210477152613" lon="7.236886497369967"><ele>530.0</ele><time>2026-04-16T16:28:48Z</time></trkpt><trkpt lat="44.821057762094355" lon="7.23705120740442"><ele>530.0</ele><time>2026-04-16T16:28:50Z</time></trkpt><trkpt lat="44.821078681516916" lon="7.237204776907577"><ele>530.0</ele><time>2026-04-16T16:28:52Z</time></trkpt><trkpt lat="44.821099711232975" lon="7.237353995710287"><ele>530.0</ele><time>2026-04-16T16:28:54Z</time></trkpt><trkpt lat="44.821116302764615" lon="7.237503986736772"><ele>530.0</ele><time>2026-04-16T16:28:56Z</time></trkpt><trkpt lat="44.82113695549536" lon="7.237652939126501"><ele>530.0</ele><time>2026-04-16T16:28:58Z</time></trkpt><trkpt lat="44.82115476504998" lon="7.237768151455075"><ele>529.4</ele><time>2026-04-16T16:29:00Z</time></trkpt><trkpt lat="44.821147568169984" lon="7.2378950194108835"><ele>528.8</ele><time>2026-04-16T16:29:03Z</time></trkpt><trkpt lat="44.821127666270364" lon="7.238009984640668"><ele>528.2</ele><time>2026-04-16T16:29:05Z</time></trkpt><trkpt lat="44.821111904360066" lon="7.238160407356855"><ele>527.6</ele><time>2026-04-16T16:29:07Z</time></trkpt><trkpt lat="44.821073667549" lon="7.2383313754381104"><ele>527.0</ele><time>2026-04-16T16:29:09Z</time></trkpt><trkpt lat="44.82105498335835" lon="7.238426489486187"><ele>526.7142857142858</ele><time>2026-04-16T16:29:10Z</time></trkpt><trkpt lat="44.82104069024979" lon="7.238522951892112"><ele>526.4285714285714</ele><time>2026-04-16T16:29:11Z</time></trkpt><trkpt lat="44.82102790386816" lon="7.238621101367565"><ele>526.1428571428571</ele><time>2026-04-16T16:29:12Z</time></trkpt><trkpt lat="44.821012953076455" lon="7.238720907702176"><ele>525.8571428571429</ele><time>2026-04-16T16:29:13Z</time></trkpt><trkpt lat="44.8209991125724" lon="7.238820882019159"><ele>525.5714285714286</ele><time>2026-04-16T16:29:14Z</time></trkpt><trkpt lat="44.82098427050578" lon="7.2389231278801045"><ele>525.2857142857143</ele><time>2026-04-16T16:29:15Z</time></trkpt><trkpt lat="44.820967078956215" lon="7.2390238606069675"><ele>525.0</ele><time>2026-04-16T16:29:16Z</time></trkpt><trkpt lat="44.82094795695213" lon="7.23912158235825"><ele>523.7142857142857</ele><time>2026-04-16T16:29:17Z</time></trkpt><trkpt lat="44.82092632791237" lon="7.239217643737843"><ele>522.4285714285714</ele><time>2026-04-16T16:29:18Z</time></trkpt><trkpt lat="44.820904453462575" lon="7.239311726441189"><ele>521.1428571428571</ele><time>2026-04-16T16:29:19Z</time></trkpt><trkpt lat="44.82088391497964" lon="7.239403866406149"><ele>519.8571428571429</ele><time>2026-04-16T16:29:20Z</time></trkpt><trkpt lat="44.82086427772734" lon="7.2394946466725445"><ele>518.5714285714286</ele><time>2026-04-16T16:29:21Z</time></trkpt><trkpt lat="44.82085152674287" lon="7.239581995549277"><ele>517.2857142857142</ele><time>2026-04-16T16:29:22Z</time></trkpt><trkpt lat="44.82084628285261" lon="7.2396707768536235"><ele>516.0</ele><time>2026-04-16T16:29:23Z</time></trkpt><trkpt lat="44.82085688939238" lon="7.23975852032291"><ele>516.1428571428571</ele><time>2026-04-16T16:29:24Z</time></trkpt><trkpt lat="44.8208690320919" lon="7.23984781145515"><ele>516.2857142857142</ele><time>2026-04-16T16:29:25Z</time></trkpt><trkpt lat="44.82088585994093" lon="7.239938117585607"><ele>516.4285714285714</ele><time>2026-04-16T16:29:26Z</time></trkpt><trkpt lat="44.82090784026601" lon="7.240029956034587"><ele>516.5714285714286</ele><time>2026-04-16T16:29:27Z</time></trkpt><trkpt lat="44.82093951193924" lon="7.240115627344329"><ele>516.7142857142858</ele><time>2026-04-16T16:29:28Z</time></trkpt><trkpt lat="44.82097526971362" lon="7.240199675118887"><ele>516.8571428571429</ele><time>2026-04-16T16:29:29Z</time></trkpt><trkpt lat="44.82101221909269" lon="7.240275999909453"><ele>517.0</ele><time>2026-04-16T16:29:30Z</time></trkpt><trkpt lat="44.821049270628365" lon="7.24034934423292"><ele>517.0</ele><time>2026-04-16T16:29:31Z</time></trkpt><trkpt lat="44.821084766734394" lon="7.240423805504495"><ele>517.0</ele><time>2026-04-16T16:29:32Z</time></trkpt><trkpt lat="44.82115860642299" lon="7.240566769048134"><ele>517.0</ele><time>2026-04-16T16:29:34Z</time></trkpt><trkpt lat="44.82120363791213" lon="7.240634487928857"><ele>517.0</ele><time>2026-04-16T16:29:35Z</time></trkpt><trkpt lat="44.82124403592632" lon="7.2407072368351555"><ele>517.0</ele><time>2026-04-16T16:29:36Z</time></trkpt><trkpt lat="44.82129657930945" lon="7.240867357384615"><ele>517.0</ele><time>2026-04-16T16:29:38Z</time></trkpt><trkpt lat="44.821357668369075" lon="7.241017620748276"><ele>516.25</ele><time>2026-04-16T16:29:40Z</time></trkpt><trkpt lat="44.82143015406078" lon="7.2411603718727875"><ele>515.5</ele><time>2026-04-16T16:29:42Z</time></trkpt><trkpt lat="44.82150626641888" lon="7.2412997129306085"><ele>514.75</ele><time>2026-04-16T16:29:44Z</time></trkpt><trkpt lat="44.821566963537286" lon="7.241449381025391"><ele>514.0</ele><time>2026-04-16T16:29:46Z</time></trkpt><trkpt lat="44.82161807917647" lon="7.241606867759313"><ele>513.5</ele><time>2026-04-16T16:29:48Z</time></trkpt><trkpt lat="44.821675229855565" lon="7.241752447944059"><ele>513.0</ele><time>2026-04-16T16:29:50Z</time></trkpt><trkpt lat="44.82172733911075" lon="7.241895848135204"><ele>512.5</ele><time>2026-04-16T16:29:52.001Z</time></trkpt><trkpt lat="44.82178107708057" lon="7.242045124179444"><ele>512.0</ele><time>2026-04-16T16:29:54.001Z</time></trkpt><trkpt lat="44.82183891590646" lon="7.242199183375555"><ele>512.5</ele><time>2026-04-16T16:29:56.001Z</time></trkpt><trkpt lat="44.82189533892081" lon="7.242350664502039"><ele>513.0</ele><time>2026-04-16T16:29:58.001Z</time></trkpt><trkpt lat="44.821946553763574" lon="7.24251007046876"><ele>513.5</ele><time>2026-04-16T16:30:00.001Z</time></trkpt><trkpt lat="44.82199386677541" lon="7.242665724545885"><ele>514.0</ele><time>2026-04-16T16:30:02.001Z</time></trkpt><trkpt lat="44.8220418430543" lon="7.242817950978211"><ele>514.0</ele><time>2026-04-16T16:30:04.001Z</time></trkpt><trkpt lat="44.822088912614085" lon="7.242967707906047"><ele>514.0</ele><time>2026-04-16T16:30:06.001Z</time></trkpt><trkpt lat="44.8221358240893" lon="7.2431093209685145"><ele>514.0</ele><time>2026-04-16T16:30:08.001Z</time></trkpt><trkpt lat="44.8221820628803" lon="7.243248005023366"><ele>514.0</ele><time>2026-04-16T16:30:10.001Z</time></trkpt><trkpt lat="44.82222884636223" lon="7.243382335540795"><ele>514.0</ele><time>2026-04-16T16:30:12.001Z</time></trkpt><trkpt lat="44.82226784751467" lon="7.243516355938616"><ele>513.6</ele><time>2026-04-16T16:30:14.001Z</time></trkpt><trkpt lat="44.82228727830486" lon="7.243658456990918"><ele>513.2</ele><time>2026-04-16T16:30:16.001Z</time></trkpt><trkpt lat="44.822306254638434" lon="7.24379884669303"><ele>512.8000000000001</ele><time>2026-04-16T16:30:18.001Z</time></trkpt><trkpt lat="44.82233791103988" lon="7.243929858984877"><ele>512.4</ele><time>2026-04-16T16:30:20.001Z</time></trkpt><trkpt lat="44.822373199516015" lon="7.244061580654725"><ele>512.0</ele><time>2026-04-16T16:30:22.001Z</time></trkpt><trkpt lat="44.8224112407582" lon="7.244199552807459"><ele>511.99999999999994</ele><time>2026-04-16T16:30:24.001Z</time></trkpt><trkpt lat="44.82244765553747" lon="7.244347328520382"><ele>512.0</ele><time>2026-04-16T16:30:26.001Z</time></trkpt><trkpt lat="44.82247843746603" lon="7.244512193688831"><ele>512.0</ele><time>2026-04-16T16:30:28.001Z</time></trkpt><trkpt lat="44.82248011821358" lon="7.2446072072613905"><ele>512.0</ele><time>2026-04-16T16:30:29.001Z</time></trkpt><trkpt lat="44.822462174897694" lon="7.2447007835888915"><ele>511.99999999999994</ele><time>2026-04-16T16:30:30.001Z</time></trkpt><trkpt lat="44.82242136399571" lon="7.244787614197928"><ele>512.0</ele><time>2026-04-16T16:30:31.001Z</time></trkpt><trkpt lat="44.822363257131286" lon="7.244861343337613"><ele>511.8333333333333</ele><time>2026-04-16T16:30:32.001Z</time></trkpt><trkpt lat="44.82229956321673" lon="7.24492391387308"><ele>511.66666666666663</ele><time>2026-04-16T16:30:33.001Z</time></trkpt><trkpt lat="44.82222869035683" lon="7.244976303335853"><ele>511.5</ele><time>2026-04-16T16:30:34.001Z</time></trkpt><trkpt lat="44.82215109269605" lon="7.245008758479362"><ele>511.33333333333337</ele><time>2026-04-16T16:30:35.001Z</time></trkpt><trkpt lat="44.822075906061215" lon="7.245052327699816"><ele>511.1666666666667</ele><time>2026-04-16T16:30:36.001Z</time></trkpt><trkpt lat="44.82200232708191" lon="7.245095167004758"><ele>511.0</ele><time>2026-04-16T16:30:37.001Z</time></trkpt><trkpt lat="44.821926303651054" lon="7.245134744768792"><ele>511.00000000000006</ele><time>2026-04-16T16:30:38.001Z</time></trkpt><trkpt lat="44.82185150097002" lon="7.245178316922472"><ele>511.0</ele><time>2026-04-16T16:30:39.001Z</time></trkpt><trkpt lat="44.82177915363379" lon="7.245225469674104"><ele>511.0</ele><time>2026-04-16T16:30:40.001Z</time></trkpt><trkpt lat="44.82170536474422" lon="7.245269770256588"><ele>511.0</ele><time>2026-04-16T16:30:41.001Z</time></trkpt><trkpt lat="44.82163804494669" lon="7.245327325837132"><ele>511.00000000000006</ele><time>2026-04-16T16:30:42.001Z</time></trkpt><trkpt lat="44.82157282666749" lon="7.245394398212671"><ele>511.0</ele><time>2026-04-16T16:30:43.001Z</time></trkpt><trkpt lat="44.82151028593228" lon="7.245457391152862"><ele>510.1428571428571</ele><time>2026-04-16T16:30:44.001Z</time></trkpt><trkpt lat="44.821450025359574" lon="7.245525032889801"><ele>509.2857142857143</ele><time>2026-04-16T16:30:45.001Z</time></trkpt><trkpt lat="44.821391409517915" lon="7.245593707681227"><ele>508.42857142857144</ele><time>2026-04-16T16:30:46.001Z</time></trkpt><trkpt lat="44.82133356181043" lon="7.245662060608303"><ele>507.57142857142856</ele><time>2026-04-16T16:30:47.001Z</time></trkpt><trkpt lat="44.821278366694244" lon="7.245728633790683"><ele>506.71428571428567</ele><time>2026-04-16T16:30:48.001Z</time></trkpt><trkpt lat="44.82122527662331" lon="7.245795759314383"><ele>505.85714285714283</ele><time>2026-04-16T16:30:49.001Z</time></trkpt><trkpt lat="44.821173562300515" lon="7.245864191990359"><ele>505.0</ele><time>2026-04-16T16:30:50.001Z</time></trkpt><trkpt lat="44.821121332042274" lon="7.2459233047479215"><ele>504.6</ele><time>2026-04-16T16:30:51.002Z</time></trkpt><trkpt lat="44.82104330756449" lon="7.245997648731148"><ele>504.2</ele><time>2026-04-16T16:30:53.002Z</time></trkpt><trkpt lat="44.8209839227069" lon="7.246061175394408"><ele>503.79999999999995</ele><time>2026-04-16T16:30:55Z</time></trkpt><trkpt lat="44.8209091379133" lon="7.246115743998504"><ele>503.4</ele><time>2026-04-16T16:30:57Z</time></trkpt><trkpt lat="44.82081823616462" lon="7.246168744495937"><ele>503.0</ele><time>2026-04-16T16:30:59Z</time></trkpt><trkpt lat="44.82071582513112" lon="7.246227387580446"><ele>502.66666666666663</ele><time>2026-04-16T16:31:01Z</time></trkpt><trkpt lat="44.820598826774756" lon="7.24627600646377"><ele>502.3333333333333</ele><time>2026-04-16T16:31:03Z</time></trkpt><trkpt lat="44.82053581643054" lon="7.2462910978481885"><ele>502.0</ele><time>2026-04-16T16:31:04Z</time></trkpt><trkpt lat="44.82043102320562" lon="7.246329179216418"><ele>501.66666666666663</ele><time>2026-04-16T16:31:06Z</time></trkpt><trkpt lat="44.82035606860792" lon="7.246360213896803"><ele>501.3333333333333</ele><time>2026-04-16T16:31:08Z</time></trkpt><trkpt lat="44.8202823967668" lon="7.246345074200559"><ele>501.0</ele><time>2026-04-16T16:31:10Z</time></trkpt><trkpt lat="44.82019799599258" lon="7.246328433504477"><ele>500.4</ele><time>2026-04-16T16:31:12Z</time></trkpt><trkpt lat="44.82012198437752" lon="7.246336705367326"><ele>499.8</ele><time>2026-04-16T16:31:14Z</time></trkpt><trkpt lat="44.820091327021615" lon="7.2464496399761185"><ele>499.19999999999993</ele><time>2026-04-16T16:31:16Z</time></trkpt><trkpt lat="44.8201304580818" lon="7.246563799701074"><ele>498.59999999999997</ele><time>2026-04-16T16:31:18Z</time></trkpt><trkpt lat="44.82015910896586" lon="7.246699394855374"><ele>498.0</ele><time>2026-04-16T16:31:20Z</time></trkpt><trkpt lat="44.82017800151079" lon="7.246871262654817"><ele>498.0</ele><time>2026-04-16T16:31:22Z</time></trkpt><trkpt lat="44.82018441643421" lon="7.246962803051318"><ele>497.99999999999994</ele><time>2026-04-16T16:31:23Z</time></trkpt><trkpt lat="44.82018218599107" lon="7.24705649364262"><ele>498.0</ele><time>2026-04-16T16:31:24Z</time></trkpt><trkpt lat="44.8201812789179" lon="7.247151760010293"><ele>498.0</ele><time>2026-04-16T16:31:25Z</time></trkpt><trkpt lat="44.82017634552431" lon="7.247247621897124"><ele>497.99999999999994</ele><time>2026-04-16T16:31:26Z</time></trkpt><trkpt lat="44.82017344118352" lon="7.247344808341987"><ele>498.0</ele><time>2026-04-16T16:31:27Z</time></trkpt><trkpt lat="44.820167986311716" lon="7.247442232975803"><ele>498.0</ele><time>2026-04-16T16:31:28Z</time></trkpt><trkpt lat="44.8201594514274" lon="7.247536835267136"><ele>497.6666666666667</ele><time>2026-04-16T16:31:29Z</time></trkpt><trkpt lat="44.820163251352454" lon="7.24763242809292"><ele>497.33333333333337</ele><time>2026-04-16T16:31:30Z</time></trkpt><trkpt lat="44.820177829137364" lon="7.247725774480656"><ele>497.0</ele><time>2026-04-16T16:31:31Z</time></trkpt><trkpt lat="44.820199293252585" lon="7.247812497039845"><ele>496.6666666666667</ele><time>2026-04-16T16:31:32Z</time></trkpt><trkpt lat="44.82022344773384" lon="7.247900470545501"><ele>496.33333333333337</ele><time>2026-04-16T16:31:33Z</time></trkpt><trkpt lat="44.82024936118338" lon="7.2479855901771515"><ele>496.0</ele><time>2026-04-16T16:31:34Z</time></trkpt><trkpt lat="44.820302605219254" lon="7.248137980242317"><ele>496.0</ele><time>2026-04-16T16:31:36Z</time></trkpt><trkpt lat="44.82034231225428" lon="7.248281739961799"><ele>496.0</ele><time>2026-04-16T16:31:38Z</time></trkpt><trkpt lat="44.82035882025438" lon="7.24842813434913"><ele>496.0</ele><time>2026-04-16T16:31:40Z</time></trkpt><trkpt lat="44.820371573303206" lon="7.248583976181253"><ele>496.0</ele><time>2026-04-16T16:31:42Z</time></trkpt><trkpt lat="44.82038793436427" lon="7.248731791786697"><ele>496.0</ele><time>2026-04-16T16:31:44Z</time></trkpt><trkpt lat="44.820390050821814" lon="7.248890047272517"><ele>495.0</ele><time>2026-04-16T16:31:46Z</time></trkpt><trkpt lat="44.82039261485066" lon="7.249060688490447"><ele>494.0</ele><time>2026-04-16T16:31:48Z</time></trkpt><trkpt lat="44.820385531045616" lon="7.249227363090725"><ele>493.0</ele><time>2026-04-16T16:31:50Z</time></trkpt><trkpt lat="44.82038212041311" lon="7.249396872280123"><ele>492.0</ele><time>2026-04-16T16:31:52Z</time></trkpt><trkpt lat="44.82035835896672" lon="7.249552793169011"><ele>492.00000000000006</ele><time>2026-04-16T16:31:54Z</time></trkpt><trkpt lat="44.82035834869215" lon="7.249642034222586"><ele>492.0</ele><time>2026-04-16T16:31:55Z</time></trkpt><trkpt lat="44.82035671349055" lon="7.249731808159563"><ele>492.00000000000006</ele><time>2026-04-16T16:31:56Z</time></trkpt><trkpt lat="44.820356597726416" lon="7.249823761712856"><ele>492.00000000000006</ele><time>2026-04-16T16:31:57.001Z</time></trkpt><trkpt lat="44.82035570170654" lon="7.249919403529929"><ele>492.0</ele><time>2026-04-16T16:31:58.001Z</time></trkpt><trkpt lat="44.82035350081014" lon="7.25001281657454"><ele>492.00000000000006</ele><time>2026-04-16T16:31:59.001Z</time></trkpt><trkpt lat="44.8203509993255" lon="7.250109712854929"><ele>492.00000000000006</ele><time>2026-04-16T16:32:00.001Z</time></trkpt><trkpt lat="44.82033805845794" lon="7.250203670783655"><ele>491.7142857142858</ele><time>2026-04-16T16:32:01.001Z</time></trkpt><trkpt lat="44.82032672375098" lon="7.250300199744039"><ele>491.42857142857144</ele><time>2026-04-16T16:32:02.001Z</time></trkpt><trkpt lat="44.82031965654827" lon="7.250399218654288"><ele>491.14285714285717</ele><time>2026-04-16T16:32:03.001Z</time></trkpt><trkpt lat="44.8203118253483" lon="7.250499398158877"><ele>490.8571428571429</ele><time>2026-04-16T16:32:04.001Z</time></trkpt><trkpt lat="44.82029964081259" lon="7.250596630792223"><ele>490.57142857142856</ele><time>2026-04-16T16:32:05.001Z</time></trkpt><trkpt lat="44.82028473821169" lon="7.250695801677558"><ele>490.2857142857143</ele><time>2026-04-16T16:32:06.001Z</time></trkpt><trkpt lat="44.820272007040174" lon="7.250797306664703"><ele>490.0</ele><time>2026-04-16T16:32:07.001Z</time></trkpt><trkpt lat="44.820258343744" lon="7.250899934127977"><ele>489.8571428571429</ele><time>2026-04-16T16:32:08.001Z</time></trkpt><trkpt lat="44.82024525950471" lon="7.25100501112344"><ele>489.7142857142857</ele><time>2026-04-16T16:32:09.001Z</time></trkpt><trkpt lat="44.820234758991155" lon="7.2511112444729475"><ele>489.57142857142856</ele><time>2026-04-16T16:32:10.001Z</time></trkpt><trkpt lat="44.820222270273206" lon="7.251216994377562"><ele>489.42857142857144</ele><time>2026-04-16T16:32:11.001Z</time></trkpt><trkpt lat="44.82020801892849" lon="7.251320747474103"><ele>489.28571428571433</ele><time>2026-04-16T16:32:12.001Z</time></trkpt><trkpt lat="44.820198825098046" lon="7.251423207692056"><ele>489.14285714285717</ele><time>2026-04-16T16:32:13.001Z</time></trkpt><trkpt lat="44.82018933698932" lon="7.2515251639683775"><ele>489.0</ele><time>2026-04-16T16:32:14.001Z</time></trkpt><trkpt lat="44.82017657427567" lon="7.251625385409475"><ele>489.0</ele><time>2026-04-16T16:32:15.001Z</time></trkpt><trkpt lat="44.82016361363605" lon="7.2517243559976645"><ele>489.00000000000006</ele><time>2026-04-16T16:32:16.001Z</time></trkpt><trkpt lat="44.82015415411669" lon="7.251823109930787"><ele>489.0</ele><time>2026-04-16T16:32:17.001Z</time></trkpt><trkpt lat="44.82014274720555" lon="7.251920430725797"><ele>489.0</ele><time>2026-04-16T16:32:18.001Z</time></trkpt><trkpt lat="44.820132001137345" lon="7.2520172688194755"><ele>489.00000000000006</ele><time>2026-04-16T16:32:19.001Z</time></trkpt><trkpt lat="44.82011956266807" lon="7.252112962871837"><ele>489.0</ele><time>2026-04-16T16:32:20.001Z</time></trkpt><trkpt lat="44.82010289229549" lon="7.2522069434679794"><ele>489.0</ele><time>2026-04-16T16:32:21.001Z</time></trkpt><trkpt lat="44.82008642565777" lon="7.252298625586155"><ele>488.5714285714286</ele><time>2026-04-16T16:32:22.001Z</time></trkpt><trkpt lat="44.82006789667264" lon="7.2523885309775595"><ele>488.1428571428572</ele><time>2026-04-16T16:32:23.001Z</time></trkpt><trkpt lat="44.820050201816606" lon="7.252480378670106"><ele>487.7142857142857</ele><time>2026-04-16T16:32:24.001Z</time></trkpt><trkpt lat="44.8200326629925" lon="7.252574320901068"><ele>487.28571428571433</ele><time>2026-04-16T16:32:25.001Z</time></trkpt><trkpt lat="44.82001503563646" lon="7.25267109636427"><ele>486.8571428571429</ele><time>2026-04-16T16:32:26.001Z</time></trkpt><trkpt lat="44.8199982612413" lon="7.252771965015011"><ele>486.42857142857144</ele><time>2026-04-16T16:32:27.001Z</time></trkpt><trkpt lat="44.81998194872823" lon="7.252873003724481"><ele>486.0</ele><time>2026-04-16T16:32:28.001Z</time></trkpt><trkpt lat="44.81996622788394" lon="7.252972673419954"><ele>486.0</ele><time>2026-04-16T16:32:29.001Z</time></trkpt><trkpt lat="44.81994832335542" lon="7.253070904567553"><ele>486.0</ele><time>2026-04-16T16:32:30.001Z</time></trkpt><trkpt lat="44.819927595045854" lon="7.253170083260593"><ele>486.0</ele><time>2026-04-16T16:32:31.001Z</time></trkpt><trkpt lat="44.81990921233723" lon="7.253268887130258"><ele>486.0</ele><time>2026-04-16T16:32:32.001Z</time></trkpt><trkpt lat="44.81989008233104" lon="7.253369290895864"><ele>486.0</ele><time>2026-04-16T16:32:33.001Z</time></trkpt><trkpt lat="44.81987250619867" lon="7.253468439425412"><ele>486.0</ele><time>2026-04-16T16:32:34.001Z</time></trkpt><trkpt lat="44.81985422727576" lon="7.253572951949244"><ele>486.0</ele><time>2026-04-16T16:32:35.001Z</time></trkpt><trkpt lat="44.8198359832426" lon="7.2536767091468155"><ele>485.71428571428567</ele><time>2026-04-16T16:32:36.001Z</time></trkpt><trkpt lat="44.819821611745624" lon="7.25378025408907"><ele>485.42857142857144</ele><time>2026-04-16T16:32:37.001Z</time></trkpt><trkpt lat="44.81980066374751" lon="7.253881348062887"><ele>485.1428571428571</ele><time>2026-04-16T16:32:38.001Z</time></trkpt><trkpt lat="44.819781011627114" lon="7.253982293126046"><ele>484.85714285714283</ele><time>2026-04-16T16:32:39.001Z</time></trkpt><trkpt lat="44.81976536097288" lon="7.254083406938758"><ele>484.57142857142856</ele><time>2026-04-16T16:32:40.001Z</time></trkpt><trkpt lat="44.81975209506781" lon="7.254184736637498"><ele>484.2857142857143</ele><time>2026-04-16T16:32:41.001Z</time></trkpt><trkpt lat="44.819742945606706" lon="7.254284774914643"><ele>484.0</ele><time>2026-04-16T16:32:42.001Z</time></trkpt><trkpt lat="44.81974940203659" lon="7.254383775930861"><ele>484.0</ele><time>2026-04-16T16:32:43.001Z</time></trkpt><trkpt lat="44.81975877862851" lon="7.254480769251135"><ele>483.99999999999994</ele><time>2026-04-16T16:32:44.001Z</time></trkpt><trkpt lat="44.81977204861638" lon="7.2545752562435135"><ele>484.0</ele><time>2026-04-16T16:32:45.001Z</time></trkpt><trkpt lat="44.819794024709196" lon="7.254666051490977"><ele>484.0</ele><time>2026-04-16T16:32:46.001Z</time></trkpt><trkpt lat="44.819821941215906" lon="7.254753789265352"><ele>483.99999999999994</ele><time>2026-04-16T16:32:47.001Z</time></trkpt><trkpt lat="44.819860251886666" lon="7.254834997904877"><ele>484.0</ele><time>2026-04-16T16:32:48.001Z</time></trkpt><trkpt lat="44.819899342764614" lon="7.254919470300789"><ele>484.0</ele><time>2026-04-16T16:32:49.001Z</time></trkpt><trkpt lat="44.81995416601472" lon="7.254990043821766"><ele>483.6666666666667</ele><time>2026-04-16T16:32:50.001Z</time></trkpt><trkpt lat="44.820002028131825" lon="7.255071078065084"><ele>483.33333333333337</ele><time>2026-04-16T16:32:51.001Z</time></trkpt><trkpt lat="44.820038782299534" lon="7.2551654156078484"><ele>483.0</ele><time>2026-04-16T16:32:52.001Z</time></trkpt><trkpt lat="44.8200638120418" lon="7.255267069145439"><ele>482.66666666666663</ele><time>2026-04-16T16:32:53.001Z</time></trkpt><trkpt lat="44.82007374616526" lon="7.255374688521064"><ele>482.3333333333333</ele><time>2026-04-16T16:32:54.001Z</time></trkpt><trkpt lat="44.82007877607288" lon="7.255484248749249"><ele>482.0</ele><time>2026-04-16T16:32:55.001Z</time></trkpt><trkpt lat="44.820056588400405" lon="7.2555960838399365"><ele>481.99999999999994</ele><time>2026-04-16T16:32:56.002Z</time></trkpt><trkpt lat="44.820019391519736" lon="7.2556994772164485"><ele>482.0</ele><time>2026-04-16T16:32:57.002Z</time></trkpt><trkpt lat="44.81997843797284" lon="7.255796352628077"><ele>482.0</ele><time>2026-04-16T16:32:58.002Z</time></trkpt><trkpt lat="44.819940850516836" lon="7.255893918576245"><ele>482.0</ele><time>2026-04-16T16:32:59.002Z</time></trkpt><trkpt lat="44.81990760118031" lon="7.255992266209173"><ele>481.99999999999994</ele><time>2026-04-16T16:33:00Z</time></trkpt><trkpt lat="44.81987949007476" lon="7.256091981817022"><ele>482.0</ele><time>2026-04-16T16:33:01Z</time></trkpt><trkpt lat="44.8198506795904" lon="7.256187782785818"><ele>481.99999999999994</ele><time>2026-04-16T16:33:02Z</time></trkpt><trkpt lat="44.81982106904832" lon="7.256278490701817"><ele>482.0</ele><time>2026-04-16T16:33:03Z</time></trkpt><trkpt lat="44.81979290486179" lon="7.256365225172811"><ele>482.0</ele><time>2026-04-16T16:33:04Z</time></trkpt><trkpt lat="44.81976812472523" lon="7.256451227138107"><ele>482.0</ele><time>2026-04-16T16:33:05Z</time></trkpt><trkpt lat="44.819745226580764" lon="7.256534851713561"><ele>481.99999999999994</ele><time>2026-04-16T16:33:06Z</time></trkpt><trkpt lat="44.819690788496544" lon="7.256683903478376"><ele>482.0</ele><time>2026-04-16T16:33:08Z</time></trkpt><trkpt lat="44.81961250880571" lon="7.256797943146971"><ele>481.8</ele><time>2026-04-16T16:33:10Z</time></trkpt><trkpt lat="44.81951303405759" lon="7.2568886280359415"><ele>481.6</ele><time>2026-04-16T16:33:12Z</time></trkpt><trkpt lat="44.81941962604674" lon="7.256950483692359"><ele>481.40000000000003</ele><time>2026-04-16T16:33:14Z</time></trkpt><trkpt lat="44.81930162340066" lon="7.2570092332585014"><ele>481.20000000000005</ele><time>2026-04-16T16:33:16Z</time></trkpt><trkpt lat="44.819228299363175" lon="7.257006343734818"><ele>481.0</ele><time>2026-04-16T16:33:17Z</time></trkpt><trkpt lat="44.81915062417743" lon="7.256983708840979"><ele>479.83333333333337</ele><time>2026-04-16T16:33:18Z</time></trkpt><trkpt lat="44.81906940066646" lon="7.256985470935518"><ele>478.6666666666667</ele><time>2026-04-16T16:33:19Z</time></trkpt><trkpt lat="44.81899333532624" lon="7.256997212513358"><ele>477.5</ele><time>2026-04-16T16:33:20Z</time></trkpt><trkpt lat="44.81888446839647" lon="7.257024180707396"><ele>476.33333333333337</ele><time>2026-04-16T16:33:22Z</time></trkpt><trkpt lat="44.818799484236564" lon="7.257044896332612"><ele>475.1666666666667</ele><time>2026-04-16T16:33:24Z</time></trkpt><trkpt lat="44.81873324503668" lon="7.257042936368982"><ele>474.0</ele><time>2026-04-16T16:33:26Z</time></trkpt><trkpt lat="44.818672264069775" lon="7.257128083098605"><ele>474.0</ele><time>2026-04-16T16:33:28Z</time></trkpt><trkpt lat="44.81866582048378" lon="7.257281981796271"><ele>474.0</ele><time>2026-04-16T16:33:30Z</time></trkpt><trkpt lat="44.8186476837053" lon="7.257442579572707"><ele>474.0</ele><time>2026-04-16T16:33:32Z</time></trkpt><trkpt lat="44.81863046888652" lon="7.257618594430849"><ele>474.0</ele><time>2026-04-16T16:33:34Z</time></trkpt><trkpt lat="44.81861309228685" lon="7.257710870077334"><ele>474.0</ele><time>2026-04-16T16:33:35Z</time></trkpt><trkpt lat="44.81859494955494" lon="7.257807858371829"><ele>474.0</ele><time>2026-04-16T16:33:36Z</time></trkpt><trkpt lat="44.818578540415274" lon="7.257903443959834"><ele>474.0</ele><time>2026-04-16T16:33:37Z</time></trkpt><trkpt lat="44.81856222173654" lon="7.2579988869446534"><ele>474.0</ele><time>2026-04-16T16:33:38Z</time></trkpt><trkpt lat="44.81854266094866" lon="7.258089939383176"><ele>474.0</ele><time>2026-04-16T16:33:39Z</time></trkpt><trkpt lat="44.818522377643426" lon="7.25818144189221"><ele>474.0</ele><time>2026-04-16T16:33:40Z</time></trkpt><trkpt lat="44.8184835000166" lon="7.258355075465997"><ele>474.0</ele><time>2026-04-16T16:33:42Z</time></trkpt><trkpt lat="44.81846156623799" lon="7.25844610327832"><ele>472.8571428571428</ele><time>2026-04-16T16:33:43Z</time></trkpt><trkpt lat="44.8184464274537" lon="7.258534592191345"><ele>471.71428571428567</ele><time>2026-04-16T16:33:44Z</time></trkpt><trkpt lat="44.81842926066861" lon="7.258624251234969"><ele>470.57142857142856</ele><time>2026-04-16T16:33:45Z</time></trkpt><trkpt lat="44.81841336017934" lon="7.258711068941716"><ele>469.4285714285714</ele><time>2026-04-16T16:33:46.001Z</time></trkpt><trkpt lat="44.818393939940606" lon="7.258798889422288"><ele>468.2857142857142</ele><time>2026-04-16T16:33:47Z</time></trkpt><trkpt lat="44.818360131085036" lon="7.258967319329121"><ele>467.14285714285717</ele><time>2026-04-16T16:33:49Z</time></trkpt><trkpt lat="44.81833958855654" lon="7.259051371224167"><ele>466.0</ele><time>2026-04-16T16:33:50Z</time></trkpt><trkpt lat="44.818319952106506" lon="7.2591372814589485"><ele>465.8571428571429</ele><time>2026-04-16T16:33:51Z</time></trkpt><trkpt lat="44.81830345438524" lon="7.259224244444793"><ele>465.71428571428567</ele><time>2026-04-16T16:33:52Z</time></trkpt><trkpt lat="44.81829331920174" lon="7.259314621945389"><ele>465.57142857142856</ele><time>2026-04-16T16:33:53Z</time></trkpt><trkpt lat="44.818285061732105" lon="7.259409827407701"><ele>465.42857142857144</ele><time>2026-04-16T16:33:54Z</time></trkpt><trkpt lat="44.81827237388685" lon="7.259499972748579"><ele>465.28571428571433</ele><time>2026-04-16T16:33:55Z</time></trkpt><trkpt lat="44.818251039787874" lon="7.259591263505785"><ele>465.1428571428571</ele><time>2026-04-16T16:33:56Z</time></trkpt><trkpt lat="44.81822960020042" lon="7.259682451000846"><ele>465.0</ele><time>2026-04-16T16:33:57Z</time></trkpt><trkpt lat="44.818206464374285" lon="7.259772877011412"><ele>464.57142857142856</ele><time>2026-04-16T16:33:58Z</time></trkpt><trkpt lat="44.81818341879621" lon="7.259866635616565"><ele>464.14285714285717</ele><time>2026-04-16T16:33:59Z</time></trkpt><trkpt lat="44.81816149888176" lon="7.259959608574929"><ele>463.7142857142857</ele><time>2026-04-16T16:34:00Z</time></trkpt><trkpt lat="44.81814171091093" lon="7.260055176589424"><ele>463.2857142857143</ele><time>2026-04-16T16:34:01Z</time></trkpt><trkpt lat="44.818121130733005" lon="7.260151234401156"><ele>462.8571428571429</ele><time>2026-04-16T16:34:02Z</time></trkpt><trkpt lat="44.81810361809219" lon="7.260244084731404"><ele>462.42857142857144</ele><time>2026-04-16T16:34:03.001Z</time></trkpt><trkpt lat="44.81808367327885" lon="7.260338707618417"><ele>462.0</ele><time>2026-04-16T16:34:04.001Z</time></trkpt><trkpt lat="44.818069494323396" lon="7.260434178707645"><ele>462.0</ele><time>2026-04-16T16:34:05.001Z</time></trkpt><trkpt lat="44.818049885129" lon="7.260528366171713"><ele>462.0</ele><time>2026-04-16T16:34:06.001Z</time></trkpt><trkpt lat="44.81802413069842" lon="7.2606247792456475"><ele>462.0</ele><time>2026-04-16T16:34:07.001Z</time></trkpt><trkpt lat="44.81799533670582" lon="7.260714856511783"><ele>462.0</ele><time>2026-04-16T16:34:08.001Z</time></trkpt><trkpt lat="44.81796583756187" lon="7.260810824196691"><ele>462.0</ele><time>2026-04-16T16:34:09.001Z</time></trkpt><trkpt lat="44.81794168431611" lon="7.260908805388101"><ele>462.0</ele><time>2026-04-16T16:34:10.001Z</time></trkpt><trkpt lat="44.817920344503314" lon="7.261009538975479"><ele>462.0</ele><time>2026-04-16T16:34:11.001Z</time></trkpt><trkpt lat="44.81789944959363" lon="7.261108293855661"><ele>461.8333333333333</ele><time>2026-04-16T16:34:12.001Z</time></trkpt><trkpt lat="44.81787576045859" lon="7.261209695488984"><ele>461.66666666666663</ele><time>2026-04-16T16:34:13.001Z</time></trkpt><trkpt lat="44.81785157081493" lon="7.26131094060419"><ele>461.5</ele><time>2026-04-16T16:34:14.001Z</time></trkpt><trkpt lat="44.81782445194587" lon="7.261414035910672"><ele>461.3333333333333</ele><time>2026-04-16T16:34:15.001Z</time></trkpt><trkpt lat="44.817794935352076" lon="7.26151706491879"><ele>461.16666666666663</ele><time>2026-04-16T16:34:16.001Z</time></trkpt><trkpt lat="44.81776693444608" lon="7.261616398473258"><ele>461.0</ele><time>2026-04-16T16:34:17.001Z</time></trkpt><trkpt lat="44.81773768324059" lon="7.261720510552441"><ele>461.3333333333333</ele><time>2026-04-16T16:34:18.001Z</time></trkpt><trkpt lat="44.817713560338326" lon="7.2618227217131075"><ele>461.66666666666663</ele><time>2026-04-16T16:34:19.001Z</time></trkpt><trkpt lat="44.817687901405655" lon="7.261923825937101"><ele>462.0</ele><time>2026-04-16T16:34:20.001Z</time></trkpt><trkpt lat="44.8176647144653" lon="7.2620281426178614"><ele>462.33333333333337</ele><time>2026-04-16T16:34:21.001Z</time></trkpt><trkpt lat="44.817638577726235" lon="7.262128959204845"><ele>462.6666666666667</ele><time>2026-04-16T16:34:22.001Z</time></trkpt><trkpt lat="44.81761319630258" lon="7.262232297342927"><ele>463.0</ele><time>2026-04-16T16:34:23.001Z</time></trkpt><trkpt lat="44.817593265139834" lon="7.262339513950528"><ele>462.2857142857143</ele><time>2026-04-16T16:34:24.001Z</time></trkpt><trkpt lat="44.81757069886144" lon="7.2624415068782735"><ele>461.57142857142856</ele><time>2026-04-16T16:34:25.001Z</time></trkpt><trkpt lat="44.817553938163044" lon="7.2625453718764925"><ele>460.85714285714283</ele><time>2026-04-16T16:34:26.001Z</time></trkpt><trkpt lat="44.81753993379778" lon="7.2626479707769285"><ele>460.1428571428571</ele><time>2026-04-16T16:34:27.001Z</time></trkpt><trkpt lat="44.817529088016656" lon="7.262748831344255"><ele>459.42857142857144</ele><time>2026-04-16T16:34:28.001Z</time></trkpt><trkpt lat="44.8175289572321" lon="7.262851657304426"><ele>458.71428571428567</ele><time>2026-04-16T16:34:29.001Z</time></trkpt><trkpt lat="44.8175418498769" lon="7.262960355258902"><ele>458.0</ele><time>2026-04-16T16:34:30.001Z</time></trkpt><trkpt lat="44.81755808369133" lon="7.263064014577375"><ele>457.66666666666663</ele><time>2026-04-16T16:34:31.001Z</time></trkpt><trkpt lat="44.817567162804856" lon="7.263171519444853"><ele>457.3333333333333</ele><time>2026-04-16T16:34:32.001Z</time></trkpt><trkpt lat="44.81758290950089" lon="7.263279555186862"><ele>457.0</ele><time>2026-04-16T16:34:33.001Z</time></trkpt><trkpt lat="44.817597085501426" lon="7.263388199289017"><ele>456.66666666666663</ele><time>2026-04-16T16:34:34.001Z</time></trkpt><trkpt lat="44.81761398718616" lon="7.263493861170089"><ele>456.3333333333333</ele><time>2026-04-16T16:34:35.001Z</time></trkpt><trkpt lat="44.81763260222124" lon="7.263597588672897"><ele>456.0</ele><time>2026-04-16T16:34:36.001Z</time></trkpt><trkpt lat="44.81765945853033" lon="7.263696316579361"><ele>456.4285714285714</ele><time>2026-04-16T16:34:37.001Z</time></trkpt><trkpt lat="44.817703137729836" lon="7.263787925651011"><ele>456.8571428571428</ele><time>2026-04-16T16:34:38.001Z</time></trkpt><trkpt lat="44.81774170074471" lon="7.263866603601604"><ele>457.2857142857143</ele><time>2026-04-16T16:34:39.001Z</time></trkpt><trkpt lat="44.81779260755153" lon="7.263948061902136"><ele>457.71428571428567</ele><time>2026-04-16T16:34:40.001Z</time></trkpt><trkpt lat="44.81783368610121" lon="7.264031660676839"><ele>458.1428571428571</ele><time>2026-04-16T16:34:41.001Z</time></trkpt><trkpt lat="44.81787169941873" lon="7.264121093870444"><ele>458.57142857142856</ele><time>2026-04-16T16:34:42.001Z</time></trkpt><trkpt lat="44.81790172468291" lon="7.264216247624204"><ele>459.0</ele><time>2026-04-16T16:34:43.001Z</time></trkpt><trkpt lat="44.817929604446086" lon="7.264309234608288"><ele>459.0</ele><time>2026-04-16T16:34:44.001Z</time></trkpt><trkpt lat="44.81795317396606" lon="7.264404044527846"><ele>459.0</ele><time>2026-04-16T16:34:45.001Z</time></trkpt><trkpt lat="44.81797388869215" lon="7.264499917496506"><ele>459.0</ele><time>2026-04-16T16:34:46.001Z</time></trkpt><trkpt lat="44.81798424906986" lon="7.264600021263107"><ele>459.0</ele><time>2026-04-16T16:34:47.001Z</time></trkpt><trkpt lat="44.817993336181615" lon="7.264700741607345"><ele>459.0</ele><time>2026-04-16T16:34:48.001Z</time></trkpt><trkpt lat="44.81799925909761" lon="7.264801179917183"><ele>459.0</ele><time>2026-04-16T16:34:49.001Z</time></trkpt><trkpt lat="44.817997939789024" lon="7.264901784075923"><ele>459.0</ele><time>2026-04-16T16:34:50.001Z</time></trkpt><trkpt lat="44.81798356529728" lon="7.2650034572489774"><ele>458.7142857142857</ele><time>2026-04-16T16:34:51.001Z</time></trkpt><trkpt lat="44.81797423363579" lon="7.265101840045108"><ele>458.42857142857144</ele><time>2026-04-16T16:34:52.001Z</time></trkpt><trkpt lat="44.817962927517144" lon="7.265199073802108"><ele>458.14285714285717</ele><time>2026-04-16T16:34:53.001Z</time></trkpt><trkpt lat="44.81795286453781" lon="7.265297240788643"><ele>457.8571428571429</ele><time>2026-04-16T16:34:54.001Z</time></trkpt><trkpt lat="44.817947474074174" lon="7.265391986675051"><ele>457.57142857142856</ele><time>2026-04-16T16:34:55.001Z</time></trkpt><trkpt lat="44.81794766238907" lon="7.265489579862368"><ele>457.28571428571433</ele><time>2026-04-16T16:34:56.001Z</time></trkpt><trkpt lat="44.81795314701973" lon="7.265587636885467"><ele>457.00000000000006</ele><time>2026-04-16T16:34:57.001Z</time></trkpt><trkpt lat="44.81796416598823" lon="7.265684719941476"><ele>457.00000000000006</ele><time>2026-04-16T16:34:58.001Z</time></trkpt><trkpt lat="44.817979354362066" lon="7.265778747425017"><ele>457.0</ele><time>2026-04-16T16:34:59.001Z</time></trkpt><trkpt lat="44.817989649043255" lon="7.265872617397066"><ele>457.00000000000006</ele><time>2026-04-16T16:35:00.001Z</time></trkpt><trkpt lat="44.818001461071084" lon="7.26596799206553"><ele>457.00000000000006</ele><time>2026-04-16T16:35:01.001Z</time></trkpt><trkpt lat="44.818008595990214" lon="7.26606181464831"><ele>457.0</ele><time>2026-04-16T16:35:02.002Z</time></trkpt><trkpt lat="44.81801393898945" lon="7.2661525373934674"><ele>457.00000000000006</ele><time>2026-04-16T16:35:03.002Z</time></trkpt><trkpt lat="44.81801924391396" lon="7.266242648994842"><ele>457.00000000000006</ele><time>2026-04-16T16:35:04.002Z</time></trkpt><trkpt lat="44.81802562242696" lon="7.266332678264977"><ele>457.0</ele><time>2026-04-16T16:35:05.002Z</time></trkpt><trkpt lat="44.81803223421145" lon="7.266422400263315"><ele>457.00000000000006</ele><time>2026-04-16T16:35:06Z</time></trkpt><trkpt lat="44.81806048769099" lon="7.266592728864008"><ele>457.00000000000006</ele><time>2026-04-16T16:35:08Z</time></trkpt><trkpt lat="44.81809598975633" lon="7.266754501815214"><ele>457.0</ele><time>2026-04-16T16:35:10Z</time></trkpt><trkpt lat="44.818139273326835" lon="7.266904746464551"><ele>457.0</ele><time>2026-04-16T16:35:12Z</time></trkpt><trkpt lat="44.818181371952576" lon="7.267055700377742"><ele>457.8</ele><time>2026-04-16T16:35:14Z</time></trkpt><trkpt lat="44.818198684210586" lon="7.267215304513056"><ele>458.6</ele><time>2026-04-16T16:35:16Z</time></trkpt><trkpt lat="44.818195436393516" lon="7.267371807688019"><ele>459.40000000000003</ele><time>2026-04-16T16:35:18Z</time></trkpt><trkpt lat="44.81818366094249" lon="7.267512033628923"><ele>460.20000000000005</ele><time>2026-04-16T16:35:20Z</time></trkpt><trkpt lat="44.818172523186135" lon="7.267643167451467"><ele>461.0</ele><time>2026-04-16T16:35:22Z</time></trkpt><trkpt lat="44.81816608334206" lon="7.267757576655881"><ele>461.14285714285717</ele><time>2026-04-16T16:35:24Z</time></trkpt><trkpt lat="44.818154272825645" lon="7.267863633094079"><ele>461.28571428571433</ele><time>2026-04-16T16:35:26Z</time></trkpt><trkpt lat="44.818140831477265" lon="7.2679641636134855"><ele>461.42857142857144</ele><time>2026-04-16T16:35:28Z</time></trkpt><trkpt lat="44.81813254671921" lon="7.268058383695905"><ele>461.57142857142856</ele><time>2026-04-16T16:35:30Z</time></trkpt><trkpt lat="44.81812108900931" lon="7.268151712527972"><ele>461.7142857142857</ele><time>2026-04-16T16:35:32Z</time></trkpt><trkpt lat="44.81810333072742" lon="7.26823700240991"><ele>461.8571428571429</ele><time>2026-04-16T16:35:34Z</time></trkpt><trkpt lat="44.8180790777114" lon="7.268318937691816"><ele>462.0</ele><time>2026-04-16T16:35:36Z</time></trkpt><trkpt lat="44.81807723966779" lon="7.268407775718678"><ele>462.3333333333333</ele><time>2026-04-16T16:35:38Z</time></trkpt><trkpt lat="44.81809216634189" lon="7.268497575546235"><ele>462.66666666666663</ele><time>2026-04-16T16:35:40Z</time></trkpt><trkpt lat="44.81804693086507" lon="7.268590845845144"><ele>463.0</ele><time>2026-04-16T16:35:43Z</time></trkpt><trkpt lat="44.817972384421296" lon="7.268650869057864"><ele>463.3333333333333</ele><time>2026-04-16T16:35:46Z</time></trkpt><trkpt lat="44.81794951264531" lon="7.268766977522028"><ele>463.66666666666663</ele><time>2026-04-16T16:35:48Z</time></trkpt><trkpt lat="44.81791351871746" lon="7.268890301540964"><ele>464.0</ele><time>2026-04-16T16:35:50Z</time></trkpt><trkpt lat="44.81786992600631" lon="7.26903000737684"><ele>464.5</ele><time>2026-04-16T16:35:52Z</time></trkpt><trkpt lat="44.81783307864137" lon="7.26918309820029"><ele>465.0</ele><time>2026-04-16T16:35:54Z</time></trkpt><trkpt lat="44.81779021772188" lon="7.2693429973081205"><ele>465.5</ele><time>2026-04-16T16:35:56Z</time></trkpt><trkpt lat="44.81774731009382" lon="7.269505547271242"><ele>466.0</ele><time>2026-04-16T16:35:58Z</time></trkpt><trkpt lat="44.81770497702693" lon="7.269664130048207"><ele>466.8</ele><time>2026-04-16T16:36:00Z</time></trkpt><trkpt lat="44.81766141354796" lon="7.269819746311467"><ele>467.6</ele><time>2026-04-16T16:36:02Z</time></trkpt><trkpt lat="44.817619043690286" lon="7.269973805517071"><ele>468.4</ele><time>2026-04-16T16:36:04Z</time></trkpt><trkpt lat="44.81758063696915" lon="7.270134742572032"><ele>469.2</ele><time>2026-04-16T16:36:06Z</time></trkpt><trkpt lat="44.817564292284665" lon="7.270221757348527"><ele>470.0</ele><time>2026-04-16T16:36:07Z</time></trkpt><trkpt lat="44.817540777992065" lon="7.270312290280718"><ele>468.0</ele><time>2026-04-16T16:36:08Z</time></trkpt><trkpt lat="44.81751405290948" lon="7.27039518283097"><ele>465.99999999999994</ele><time>2026-04-16T16:36:09.001Z</time></trkpt><trkpt lat="44.81748394867579" lon="7.270476096158299"><ele>464.0</ele><time>2026-04-16T16:36:10.001Z</time></trkpt><trkpt lat="44.81744891409907" lon="7.270556166991695"><ele>462.0</ele><time>2026-04-16T16:36:11.001Z</time></trkpt><trkpt lat="44.817417623351744" lon="7.270638051239597"><ele>459.99999999999994</ele><time>2026-04-16T16:36:12.001Z</time></trkpt><trkpt lat="44.81739032583463" lon="7.270721896005699"><ele>458.0</ele><time>2026-04-16T16:36:13.001Z</time></trkpt><trkpt lat="44.817360473281106" lon="7.270803066311202"><ele>456.0</ele><time>2026-04-16T16:36:14.001Z</time></trkpt><trkpt lat="44.817330146821405" lon="7.270884773430729"><ele>456.0</ele><time>2026-04-16T16:36:15.001Z</time></trkpt><trkpt lat="44.817300784008836" lon="7.270966413960475"><ele>455.99999999999994</ele><time>2026-04-16T16:36:16.001Z</time></trkpt><trkpt lat="44.817271422441266" lon="7.271048867965789"><ele>456.0</ele><time>2026-04-16T16:36:17.001Z</time></trkpt><trkpt lat="44.81724173096883" lon="7.27113084390592"><ele>456.0</ele><time>2026-04-16T16:36:18.001Z</time></trkpt><trkpt lat="44.81721402161683" lon="7.271212933212927"><ele>455.99999999999994</ele><time>2026-04-16T16:36:19.001Z</time></trkpt><trkpt lat="44.81718593415664" lon="7.271295184861444"><ele>456.0</ele><time>2026-04-16T16:36:20.001Z</time></trkpt><trkpt lat="44.81715736231349" lon="7.271378656894911"><ele>456.0</ele><time>2026-04-16T16:36:21.001Z</time></trkpt><trkpt lat="44.81712588472699" lon="7.271458782815767"><ele>456.71428571428567</ele><time>2026-04-16T16:36:22.001Z</time></trkpt><trkpt lat="44.81709363787005" lon="7.271539628531171"><ele>457.4285714285714</ele><time>2026-04-16T16:36:23.001Z</time></trkpt><trkpt lat="44.817063097436865" lon="7.271622601100894"><ele>458.1428571428571</ele><time>2026-04-16T16:36:24.001Z</time></trkpt><trkpt lat="44.81703598016177" lon="7.271709227104991"><ele>458.8571428571429</ele><time>2026-04-16T16:36:25.001Z</time></trkpt><trkpt lat="44.81700920720091" lon="7.2717952963512955"><ele>459.5714285714286</ele><time>2026-04-16T16:36:26.001Z</time></trkpt><trkpt lat="44.816981402951875" lon="7.2718827453784325"><ele>460.28571428571433</ele><time>2026-04-16T16:36:27.001Z</time></trkpt><trkpt lat="44.81695375510231" lon="7.2719692856368665"><ele>461.0</ele><time>2026-04-16T16:36:28.001Z</time></trkpt><trkpt lat="44.81692907868049" lon="7.272055343385413"><ele>461.0</ele><time>2026-04-16T16:36:29.001Z</time></trkpt><trkpt lat="44.81688048579341" lon="7.272220240466075"><ele>461.0</ele><time>2026-04-16T16:36:31.001Z</time></trkpt><trkpt lat="44.81682838290291" lon="7.272383597738092"><ele>461.0</ele><time>2026-04-16T16:36:33.001Z</time></trkpt><trkpt lat="44.81679840769713" lon="7.272550007698184"><ele>461.0</ele><time>2026-04-16T16:36:35.001Z</time></trkpt><trkpt lat="44.81679457958947" lon="7.272706077979047"><ele>461.66666666666663</ele><time>2026-04-16T16:36:37.001Z</time></trkpt><trkpt lat="44.81680612524757" lon="7.272833280979497"><ele>462.3333333333333</ele><time>2026-04-16T16:36:39.001Z</time></trkpt><trkpt lat="44.81682035051248" lon="7.2729399498515495"><ele>463.0</ele><time>2026-04-16T16:36:44.001Z</time></trkpt><trkpt lat="44.8168366215708" lon="7.273026160209753"><ele>463.66666666666663</ele><time>2026-04-16T16:36:46.001Z</time></trkpt><trkpt lat="44.81684316601433" lon="7.2731342609051115"><ele>464.3333333333333</ele><time>2026-04-16T16:36:48.001Z</time></trkpt><trkpt lat="44.816851606712824" lon="7.273256365575105"><ele>465.0</ele><time>2026-04-16T16:36:50.001Z</time></trkpt><trkpt lat="44.816845337573106" lon="7.273398750538295"><ele>465.6</ele><time>2026-04-16T16:36:52.001Z</time></trkpt><trkpt lat="44.81682509065331" lon="7.27355925429512"><ele>466.2</ele><time>2026-04-16T16:36:54.001Z</time></trkpt><trkpt lat="44.81678356705706" lon="7.27370664881599"><ele>466.79999999999995</ele><time>2026-04-16T16:36:56.001Z</time></trkpt><trkpt lat="44.816716833848524" lon="7.27384777964735"><ele>467.4</ele><time>2026-04-16T16:36:58.001Z</time></trkpt><trkpt lat="44.816684002028424" lon="7.273929201058898"><ele>468.0</ele><time>2026-04-16T16:36:59.001Z</time></trkpt><trkpt lat="44.81665099462089" lon="7.274012719298786"><ele>466.5714285714286</ele><time>2026-04-16T16:37:00.001Z</time></trkpt><trkpt lat="44.81661615004772" lon="7.274099357719729"><ele>465.1428571428572</ele><time>2026-04-16T16:37:01.001Z</time></trkpt><trkpt lat="44.81658047705524" lon="7.274187975279841"><ele>463.7142857142857</ele><time>2026-04-16T16:37:02.001Z</time></trkpt><trkpt lat="44.81654598597716" lon="7.274278629291317"><ele>462.28571428571433</ele><time>2026-04-16T16:37:03.001Z</time></trkpt><trkpt lat="44.81651236019071" lon="7.274372679920582"><ele>460.8571428571429</ele><time>2026-04-16T16:37:04.001Z</time></trkpt><trkpt lat="44.81647967860648" lon="7.274464336916176"><ele>459.42857142857144</ele><time>2026-04-16T16:37:05.001Z</time></trkpt><trkpt lat="44.81644498962831" lon="7.274554436850142"><ele>458.0</ele><time>2026-04-16T16:37:06.001Z</time></trkpt><trkpt lat="44.816413533227895" lon="7.274647526628111"><ele>458.0</ele><time>2026-04-16T16:37:07.001Z</time></trkpt><trkpt lat="44.816385147570536" lon="7.274740919909262"><ele>458.0</ele><time>2026-04-16T16:37:08.002Z</time></trkpt><trkpt lat="44.816359603376995" lon="7.274837227324703"><ele>458.0</ele><time>2026-04-16T16:37:09.002Z</time></trkpt><trkpt lat="44.81633631685044" lon="7.2749355128493285"><ele>458.0</ele><time>2026-04-16T16:37:10.002Z</time></trkpt><trkpt lat="44.816314776945305" lon="7.275034463297942"><ele>458.0</ele><time>2026-04-16T16:37:11.002Z</time></trkpt><trkpt lat="44.81629166690293" lon="7.2751339138671725"><ele>458.0</ele><time>2026-04-16T16:37:12Z</time></trkpt><trkpt lat="44.81626582977654" lon="7.275230423139598"><ele>458.0</ele><time>2026-04-16T16:37:13Z</time></trkpt><trkpt lat="44.81624188734457" lon="7.275328688725207"><ele>458.2857142857143</ele><time>2026-04-16T16:37:14Z</time></trkpt><trkpt lat="44.81621597027368" lon="7.275427979822112"><ele>458.57142857142856</ele><time>2026-04-16T16:37:15Z</time></trkpt><trkpt lat="44.81618945229017" lon="7.2755241020560915"><ele>458.85714285714283</ele><time>2026-04-16T16:37:16Z</time></trkpt><trkpt lat="44.816163187709165" lon="7.275623880904728"><ele>459.1428571428571</ele><time>2026-04-16T16:37:17Z</time></trkpt><trkpt lat="44.81613846984787" lon="7.275720813669508"><ele>459.42857142857144</ele><time>2026-04-16T16:37:18Z</time></trkpt><trkpt lat="44.816114067771" lon="7.2758183675346375"><ele>459.71428571428567</ele><time>2026-04-16T16:37:19Z</time></trkpt><trkpt lat="44.816092244128654" lon="7.275914925573424"><ele>459.99999999999994</ele><time>2026-04-16T16:37:20Z</time></trkpt><trkpt lat="44.81607342282636" lon="7.276011135875499"><ele>459.99999999999994</ele><time>2026-04-16T16:37:21Z</time></trkpt><trkpt lat="44.816072451746926" lon="7.276111866889185"><ele>460.0</ele><time>2026-04-16T16:37:22Z</time></trkpt><trkpt lat="44.81608643368954" lon="7.276212953710346"><ele>459.99999999999994</ele><time>2026-04-16T16:37:23Z</time></trkpt><trkpt lat="44.816107158220696" lon="7.276310331737455"><ele>459.99999999999994</ele><time>2026-04-16T16:37:24Z</time></trkpt><trkpt lat="44.816120569254466" lon="7.276407644891378"><ele>460.0</ele><time>2026-04-16T16:37:25Z</time></trkpt><trkpt lat="44.8161184456752" lon="7.2764992744332355"><ele>459.99999999999994</ele><time>2026-04-16T16:37:26Z</time></trkpt><trkpt lat="44.81610140197119" lon="7.2765857171637185"><ele>459.99999999999994</ele><time>2026-04-16T16:37:27Z</time></trkpt><trkpt lat="44.81607519854467" lon="7.276667183561897"><ele>461.2</ele><time>2026-04-16T16:37:28Z</time></trkpt><trkpt lat="44.81604969312642" lon="7.276748416772848"><ele>462.4</ele><time>2026-04-16T16:37:29Z</time></trkpt><trkpt lat="44.816008760561566" lon="7.276916249798362"><ele>463.6</ele><time>2026-04-16T16:37:31Z</time></trkpt><trkpt lat="44.81598775997354" lon="7.27700075674866"><ele>464.8</ele><time>2026-04-16T16:37:32Z</time></trkpt><trkpt lat="44.81594892927155" lon="7.2771672283672775"><ele>466.0</ele><time>2026-04-16T16:37:34Z</time></trkpt><trkpt lat="44.81590888416633" lon="7.277330555137757"><ele>463.0</ele><time>2026-04-16T16:37:36Z</time></trkpt><trkpt lat="44.8158865010446" lon="7.277497865868248"><ele>460.0</ele><time>2026-04-16T16:37:38Z</time></trkpt><trkpt lat="44.81588796089278" lon="7.2776645393976205"><ele>457.0</ele><time>2026-04-16T16:37:40Z</time></trkpt><trkpt lat="44.81591088391929" lon="7.277825194880469"><ele>454.0</ele><time>2026-04-16T16:37:42Z</time></trkpt><trkpt lat="44.81590474716278" lon="7.277977739272934"><ele>454.6</ele><time>2026-04-16T16:37:44Z</time></trkpt><trkpt lat="44.815871138297595" lon="7.278111077140134"><ele>455.2</ele><time>2026-04-16T16:37:46Z</time></trkpt><trkpt lat="44.81583147575659" lon="7.278234997722204"><ele>455.80000000000007</ele><time>2026-04-16T16:37:48Z</time></trkpt><trkpt lat="44.81579729245505" lon="7.278364828914473"><ele>456.40000000000003</ele><time>2026-04-16T16:37:50Z</time></trkpt><trkpt lat="44.81576096618529" lon="7.278496834819049"><ele>457.0</ele><time>2026-04-16T16:37:52Z</time></trkpt><trkpt lat="44.81572306981053" lon="7.278624631648531"><ele>457.0</ele><time>2026-04-16T16:37:54Z</time></trkpt><trkpt lat="44.815687982141085" lon="7.278755380459953"><ele>457.00000000000006</ele><time>2026-04-16T16:37:56Z</time></trkpt><trkpt lat="44.81564956302397" lon="7.2788832974072815"><ele>457.00000000000006</ele><time>2026-04-16T16:37:58Z</time></trkpt><trkpt lat="44.815602193056904" lon="7.2790054373551785"><ele>457.0</ele><time>2026-04-16T16:38:00Z</time></trkpt><trkpt lat="44.81554926931055" lon="7.279131240532446"><ele>457.0</ele><time>2026-04-16T16:38:02Z</time></trkpt><trkpt lat="44.81549349154993" lon="7.279268540335732"><ele>458.0</ele><time>2026-04-16T16:38:04Z</time></trkpt><trkpt lat="44.81543328538669" lon="7.2794090558182605"><ele>459.00000000000006</ele><time>2026-04-16T16:38:06Z</time></trkpt><trkpt lat="44.81537521764734" lon="7.279556941268222"><ele>460.00000000000006</ele><time>2026-04-16T16:38:08Z</time></trkpt><trkpt lat="44.81530669124186" lon="7.279699818640449"><ele>461.0</ele><time>2026-04-16T16:38:10.001Z</time></trkpt><trkpt lat="44.81526438551139" lon="7.279766459074759"><ele>462.0</ele><time>2026-04-16T16:38:11.001Z</time></trkpt><trkpt lat="44.815213710427464" lon="7.279827117032082"><ele>462.7142857142857</ele><time>2026-04-16T16:38:12.001Z</time></trkpt><trkpt lat="44.81516470693159" lon="7.279887684873908"><ele>463.42857142857144</ele><time>2026-04-16T16:38:13.001Z</time></trkpt><trkpt lat="44.81511466697485" lon="7.279950701057394"><ele>464.1428571428571</ele><time>2026-04-16T16:38:14.001Z</time></trkpt><trkpt lat="44.815066871311664" lon="7.280018600039602"><ele>464.85714285714283</ele><time>2026-04-16T16:38:15.001Z</time></trkpt><trkpt lat="44.81502225740356" lon="7.280092344214796"><ele>465.57142857142856</ele><time>2026-04-16T16:38:16.001Z</time></trkpt><trkpt lat="44.81498213597551" lon="7.280172417274216"><ele>466.2857142857142</ele><time>2026-04-16T16:38:17.001Z</time></trkpt><trkpt lat="44.81494350452225" lon="7.280254900876367"><ele>466.99999999999994</ele><time>2026-04-16T16:38:18.001Z</time></trkpt><trkpt lat="44.81490386919838" lon="7.280335017294983"><ele>465.99999999999994</ele><time>2026-04-16T16:38:19.001Z</time></trkpt><trkpt lat="44.814863056441325" lon="7.280414762751635"><ele>465.0</ele><time>2026-04-16T16:38:20.001Z</time></trkpt><trkpt lat="44.81482165961373" lon="7.280488985914436"><ele>463.99999999999994</ele><time>2026-04-16T16:38:21.001Z</time></trkpt><trkpt lat="44.81477949814227" lon="7.280562262046922"><ele>462.99999999999994</ele><time>2026-04-16T16:38:22.001Z</time></trkpt><trkpt lat="44.814738941839856" lon="7.2806340178673405"><ele>462.0</ele><time>2026-04-16T16:38:23.001Z</time></trkpt><trkpt lat="44.814697069225794" lon="7.280701306130536"><ele>460.99999999999994</ele><time>2026-04-16T16:38:24.001Z</time></trkpt><trkpt lat="44.814654619298125" lon="7.280767865227061"><ele>459.99999999999994</ele><time>2026-04-16T16:38:25.001Z</time></trkpt><trkpt lat="44.814565364173426" lon="7.280909150298392"><ele>460.00000000000006</ele><time>2026-04-16T16:38:27.001Z</time></trkpt><trkpt lat="44.81451419919026" lon="7.280985410289483"><ele>460.0</ele><time>2026-04-16T16:38:28.001Z</time></trkpt><trkpt lat="44.81445992696098" lon="7.281061678975674"><ele>460.0</ele><time>2026-04-16T16:38:29.001Z</time></trkpt><trkpt lat="44.81440599074403" lon="7.281141550179031"><ele>460.0</ele><time>2026-04-16T16:38:30.001Z</time></trkpt><trkpt lat="44.81435083422726" lon="7.281219067928322"><ele>460.00000000000006</ele><time>2026-04-16T16:38:31.001Z</time></trkpt><trkpt lat="44.81429740142877" lon="7.281298365097361"><ele>460.0</ele><time>2026-04-16T16:38:32.001Z</time></trkpt><trkpt lat="44.81424742810568" lon="7.281376120393564"><ele>458.99999999999994</ele><time>2026-04-16T16:38:33.001Z</time></trkpt><trkpt lat="44.81419633373646" lon="7.281450506030344"><ele>458.0</ele><time>2026-04-16T16:38:34.001Z</time></trkpt><trkpt lat="44.8141458263491" lon="7.281522388328419"><ele>456.99999999999994</ele><time>2026-04-16T16:38:35.001Z</time></trkpt><trkpt lat="44.814093968515905" lon="7.281597145972342"><ele>455.99999999999994</ele><time>2026-04-16T16:38:36.001Z</time></trkpt><trkpt lat="44.814045709117266" lon="7.281663323451513"><ele>455.0</ele><time>2026-04-16T16:38:37.001Z</time></trkpt><trkpt lat="44.81399994919379" lon="7.281730326923794"><ele>453.99999999999994</ele><time>2026-04-16T16:38:38.001Z</time></trkpt><trkpt lat="44.81395480086871" lon="7.281795184277552"><ele>452.99999999999994</ele><time>2026-04-16T16:38:39.001Z</time></trkpt><trkpt lat="44.813909419164254" lon="7.281861515016751"><ele>453.0</ele><time>2026-04-16T16:38:40.001Z</time></trkpt><trkpt lat="44.81386381207526" lon="7.28192726904892"><ele>453.0</ele><time>2026-04-16T16:38:41.001Z</time></trkpt><trkpt lat="44.81381957423683" lon="7.28199458238028"><ele>453.0</ele><time>2026-04-16T16:38:42.001Z</time></trkpt><trkpt lat="44.813776013195515" lon="7.282059369392866"><ele>453.0</ele><time>2026-04-16T16:38:43.001Z</time></trkpt><trkpt lat="44.813671219588606" lon="7.282158485444788"><ele>453.0</ele><time>2026-04-16T16:38:45.001Z</time></trkpt><trkpt lat="44.813615641912634" lon="7.282205966485616"><ele>453.0</ele><time>2026-04-16T16:38:46.001Z</time></trkpt><trkpt lat="44.81355603810978" lon="7.282253565445813"><ele>452.14285714285705</ele><time>2026-04-16T16:38:47.001Z</time></trkpt><trkpt lat="44.813494020915165" lon="7.282299932296038"><ele>451.2857142857143</ele><time>2026-04-16T16:38:48.001Z</time></trkpt><trkpt lat="44.81343017707941" lon="7.282342869025378"><ele>450.4285714285714</ele><time>2026-04-16T16:38:49.001Z</time></trkpt><trkpt lat="44.8133629775736" lon="7.282372946809352"><ele>449.57142857142856</ele><time>2026-04-16T16:38:50.001Z</time></trkpt><trkpt lat="44.81329468025389" lon="7.282389304684213"><ele>448.71428571428567</ele><time>2026-04-16T16:38:51.001Z</time></trkpt><trkpt lat="44.81322669911318" lon="7.282386677872837"><ele>447.85714285714283</ele><time>2026-04-16T16:38:52.001Z</time></trkpt><trkpt lat="44.8131615215966" lon="7.282386795385166"><ele>447.0</ele><time>2026-04-16T16:38:53.001Z</time></trkpt><trkpt lat="44.81309838515238" lon="7.282413737726485"><ele>447.0</ele><time>2026-04-16T16:38:54.001Z</time></trkpt><trkpt lat="44.81304412471401" lon="7.282467619929276"><ele>447.0</ele><time>2026-04-16T16:38:55.001Z</time></trkpt><trkpt lat="44.81299419964912" lon="7.2825283184774845"><ele>447.0</ele><time>2026-04-16T16:38:56.001Z</time></trkpt><trkpt lat="44.81294621821353" lon="7.2825902931854"><ele>447.0</ele><time>2026-04-16T16:38:57.001Z</time></trkpt><trkpt lat="44.812903095945266" lon="7.282662362528959"><ele>447.0</ele><time>2026-04-16T16:38:58.001Z</time></trkpt><trkpt lat="44.812861239011134" lon="7.282733513897015"><ele>447.0</ele><time>2026-04-16T16:38:59.001Z</time></trkpt><trkpt lat="44.81277952361902" lon="7.2828669389489775"><ele>447.0</ele><time>2026-04-16T16:39:01.001Z</time></trkpt><trkpt lat="44.812736863969576" lon="7.282932267351021"><ele>447.00000000000006</ele><time>2026-04-16T16:39:02.001Z</time></trkpt><trkpt lat="44.81265849054939" lon="7.283062349378707"><ele>447.00000000000006</ele><time>2026-04-16T16:39:04.001Z</time></trkpt><trkpt lat="44.812599267866666" lon="7.283210457904167"><ele>447.0</ele><time>2026-04-16T16:39:06.001Z</time></trkpt><trkpt lat="44.812542495055474" lon="7.283359805484154"><ele>447.0</ele><time>2026-04-16T16:39:08.001Z</time></trkpt><trkpt lat="44.81249144931746" lon="7.283510524707598"><ele>446.5</ele><time>2026-04-16T16:39:10.002Z</time></trkpt><trkpt lat="44.812451866150575" lon="7.28367138396695"><ele>446.0</ele><time>2026-04-16T16:39:12.002Z</time></trkpt><trkpt lat="44.812404357433174" lon="7.283822031501556"><ele>445.5</ele><time>2026-04-16T16:39:14.002Z</time></trkpt><trkpt lat="44.81234874164145" lon="7.283965868902131"><ele>445.0</ele><time>2026-04-16T16:39:16.002Z</time></trkpt><trkpt lat="44.812307404855986" lon="7.2841095821942305"><ele>446.00000000000006</ele><time>2026-04-16T16:39:18Z</time></trkpt><trkpt lat="44.81228746779919" lon="7.28427422238132"><ele>447.0</ele><time>2026-04-16T16:39:20Z</time></trkpt><trkpt lat="44.812272650318086" lon="7.284364418358032"><ele>448.0</ele><time>2026-04-16T16:39:21Z</time></trkpt><trkpt lat="44.81225173940459" lon="7.2844526943851"><ele>449.0</ele><time>2026-04-16T16:39:22Z</time></trkpt><trkpt lat="44.81222990369473" lon="7.284547100114542"><ele>450.00000000000006</ele><time>2026-04-16T16:39:23Z</time></trkpt><trkpt lat="44.812204836236674" lon="7.284642548224574"><ele>451.0</ele><time>2026-04-16T16:39:24Z</time></trkpt><trkpt lat="44.812176345119695" lon="7.284737371398667"><ele>451.6</ele><time>2026-04-16T16:39:25Z</time></trkpt><trkpt lat="44.81215067837391" lon="7.28483086305583"><ele>452.20000000000005</ele><time>2026-04-16T16:39:26Z</time></trkpt><trkpt lat="44.812126405673325" lon="7.284914764090828"><ele>452.79999999999995</ele><time>2026-04-16T16:39:27Z</time></trkpt><trkpt lat="44.8120756045668" lon="7.285039859285608"><ele>453.4</ele><time>2026-04-16T16:39:29Z</time></trkpt><trkpt lat="44.811979656471195" lon="7.285128512886654"><ele>454.0</ele><time>2026-04-16T16:39:31Z</time></trkpt><trkpt lat="44.81186300595378" lon="7.2851797527745665"><ele>450.6</ele><time>2026-04-16T16:39:33Z</time></trkpt><trkpt lat="44.81180693892643" lon="7.285222330335335"><ele>447.2</ele><time>2026-04-16T16:39:34Z</time></trkpt><trkpt lat="44.811754257762054" lon="7.2853578052548675"><ele>443.80000000000007</ele><time>2026-04-16T16:39:36Z</time></trkpt><trkpt lat="44.81173449858905" lon="7.2855219302992555"><ele>440.40000000000003</ele><time>2026-04-16T16:39:38Z</time></trkpt><trkpt lat="44.81171872987568" lon="7.285685885087822"><ele>437.0</ele><time>2026-04-16T16:39:40Z</time></trkpt><trkpt lat="44.81170807953088" lon="7.285774548852114"><ele>436.66666666666663</ele><time>2026-04-16T16:39:41Z</time></trkpt><trkpt lat="44.81169337213857" lon="7.2859519818574885"><ele>436.3333333333333</ele><time>2026-04-16T16:39:43Z</time></trkpt><trkpt lat="44.811685751816015" lon="7.286043322992346"><ele>436.0</ele><time>2026-04-16T16:39:44Z</time></trkpt><trkpt lat="44.8116781521644" lon="7.286135266356417"><ele>435.66666666666663</ele><time>2026-04-16T16:39:45Z</time></trkpt><trkpt lat="44.81167173991211" lon="7.286226375622327"><ele>435.3333333333333</ele><time>2026-04-16T16:39:46Z</time></trkpt><trkpt lat="44.811663637506506" lon="7.286316617299025"><ele>435.0</ele><time>2026-04-16T16:39:47Z</time></trkpt><trkpt lat="44.81166019197607" lon="7.286408114922871"><ele>435.14285714285717</ele><time>2026-04-16T16:39:48Z</time></trkpt><trkpt lat="44.81165391493075" lon="7.286499021384584"><ele>435.2857142857143</ele><time>2026-04-16T16:39:49Z</time></trkpt><trkpt lat="44.81164775314072" lon="7.28658796468929"><ele>435.42857142857144</ele><time>2026-04-16T16:39:50Z</time></trkpt><trkpt lat="44.81164291019576" lon="7.286678859783058"><ele>435.57142857142856</ele><time>2026-04-16T16:39:51Z</time></trkpt><trkpt lat="44.81163750052179" lon="7.286770747722484"><ele>435.7142857142857</ele><time>2026-04-16T16:39:52Z</time></trkpt><trkpt lat="44.81163081859158" lon="7.286860589563759"><ele>435.8571428571429</ele><time>2026-04-16T16:39:53Z</time></trkpt><trkpt lat="44.81159701180925" lon="7.287029212452214"><ele>436.0</ele><time>2026-04-16T16:39:55Z</time></trkpt><trkpt lat="44.81157244507673" lon="7.287112684620057"><ele>436.0</ele><time>2026-04-16T16:39:56Z</time></trkpt><trkpt lat="44.81154837583299" lon="7.287195423713885"><ele>436.0</ele><time>2026-04-16T16:39:57Z</time></trkpt><trkpt lat="44.81152198497074" lon="7.287282420857649"><ele>436.0</ele><time>2026-04-16T16:39:58Z</time></trkpt><trkpt lat="44.81149630049972" lon="7.287369562259746"><ele>436.0</ele><time>2026-04-16T16:39:59Z</time></trkpt><trkpt lat="44.8114754144634" lon="7.287458795772408"><ele>436.0</ele><time>2026-04-16T16:40:00Z</time></trkpt><trkpt lat="44.81146187793496" lon="7.287548638941059"><ele>436.0</ele><time>2026-04-16T16:40:01Z</time></trkpt><trkpt lat="44.81145711698489" lon="7.287643005898183"><ele>436.0</ele><time>2026-04-16T16:40:02Z</time></trkpt><trkpt lat="44.811455412301086" lon="7.287736651566263"><ele>437.0</ele><time>2026-04-16T16:40:03Z</time></trkpt><trkpt lat="44.811455309963804" lon="7.287832535565747"><ele>438.0</ele><time>2026-04-16T16:40:04Z</time></trkpt><trkpt lat="44.81145999115166" lon="7.287929906261702"><ele>439.0</ele><time>2026-04-16T16:40:05Z</time></trkpt><trkpt lat="44.8114593333294" lon="7.288030177172986"><ele>440.0</ele><time>2026-04-16T16:40:06Z</time></trkpt><trkpt lat="44.81145704023198" lon="7.288136469074197"><ele>441.0</ele><time>2026-04-16T16:40:07Z</time></trkpt><trkpt lat="44.81145234573881" lon="7.288243775179477"><ele>442.0</ele><time>2026-04-16T16:40:08Z</time></trkpt><trkpt lat="44.81144882557558" lon="7.288351559732959"><ele>443.0</ele><time>2026-04-16T16:40:09Z</time></trkpt><trkpt lat="44.81144514518991" lon="7.288463750404392"><ele>443.16666666666663</ele><time>2026-04-16T16:40:10Z</time></trkpt><trkpt lat="44.811434445684924" lon="7.288555614177663"><ele>443.3333333333333</ele><time>2026-04-16T16:40:11Z</time></trkpt><trkpt lat="44.811415825866355" lon="7.288721274633956"><ele>443.5</ele><time>2026-04-16T16:40:13Z</time></trkpt><trkpt lat="44.81142292652421" lon="7.288814900322179"><ele>443.66666666666663</ele><time>2026-04-16T16:40:14Z</time></trkpt><trkpt lat="44.81145987504323" lon="7.288905667209964"><ele>443.8333333333333</ele><time>2026-04-16T16:40:15Z</time></trkpt><trkpt lat="44.81150301481301" lon="7.288984580510012"><ele>444.0</ele><time>2026-04-16T16:40:16Z</time></trkpt><trkpt lat="44.811554216393844" lon="7.289052273873489"><ele>444.79999999999995</ele><time>2026-04-16T16:40:17.001Z</time></trkpt><trkpt lat="44.81160501658777" lon="7.289116214624999"><ele>445.59999999999997</ele><time>2026-04-16T16:40:18.001Z</time></trkpt><trkpt lat="44.811679546859004" lon="7.289252492864515"><ele>446.4</ele><time>2026-04-16T16:40:20.001Z</time></trkpt><trkpt lat="44.81175916006356" lon="7.289375161789211"><ele>447.2</ele><time>2026-04-16T16:40:22.001Z</time></trkpt><trkpt lat="44.81184515753408" lon="7.289487752594053"><ele>448.0</ele><time>2026-04-16T16:40:24.001Z</time></trkpt><trkpt lat="44.81192849629892" lon="7.289581192944292"><ele>448.0</ele><time>2026-04-16T16:40:26.001Z</time></trkpt><trkpt lat="44.812019479676344" lon="7.2896425873334385"><ele>447.99999999999994</ele><time>2026-04-16T16:40:28.001Z</time></trkpt><trkpt lat="44.81211003607634" lon="7.289691366178768"><ele>447.99999999999994</ele><time>2026-04-16T16:40:30.001Z</time></trkpt><trkpt lat="44.81220512053407" lon="7.2897343552224605"><ele>448.0</ele><time>2026-04-16T16:40:32.001Z</time></trkpt><trkpt lat="44.81229727137941" lon="7.289773469846099"><ele>448.0</ele><time>2026-04-16T16:40:34.001Z</time></trkpt><trkpt lat="44.81238875553535" lon="7.289820330713839"><ele>446.1666666666667</ele><time>2026-04-16T16:40:36.001Z</time></trkpt><trkpt lat="44.81247430461459" lon="7.289867882834367"><ele>444.33333333333337</ele><time>2026-04-16T16:40:38.001Z</time></trkpt><trkpt lat="44.81255042692167" lon="7.289921199126536"><ele>442.5</ele><time>2026-04-16T16:40:40.001Z</time></trkpt><trkpt lat="44.81262746557762" lon="7.2899480766186695"><ele>440.66666666666663</ele><time>2026-04-16T16:40:42.001Z</time></trkpt><trkpt lat="44.81271453815977" lon="7.289945331662354"><ele>438.8333333333333</ele><time>2026-04-16T16:40:44.001Z</time></trkpt><trkpt lat="44.81279716249377" lon="7.2899419120395414"><ele>437.0</ele><time>2026-04-16T16:40:46.001Z</time></trkpt><trkpt lat="44.81287796619568" lon="7.289949204640124"><ele>436.99999999999994</ele><time>2026-04-16T16:40:48.001Z</time></trkpt><trkpt lat="44.81296328708005" lon="7.289942604482872"><ele>437.0</ele><time>2026-04-16T16:40:50.001Z</time></trkpt><trkpt lat="44.813042341477185" lon="7.2899311148366195"><ele>437.0</ele><time>2026-04-16T16:40:52.001Z</time></trkpt><trkpt lat="44.81311714105744" lon="7.28989843049081"><ele>437.0</ele><time>2026-04-16T16:40:54.001Z</time></trkpt><trkpt lat="44.8132028852779" lon="7.2898934653138125"><ele>436.99999999999994</ele><time>2026-04-16T16:40:56.001Z</time></trkpt><trkpt lat="44.81328493249704" lon="7.289855592538519"><ele>437.0</ele><time>2026-04-16T16:40:58.001Z</time></trkpt><trkpt lat="44.81336420469414" lon="7.289803389749045"><ele>436.99999999999994</ele><time>2026-04-16T16:41:00.001Z</time></trkpt><trkpt lat="44.813452803304976" lon="7.28978075025313"><ele>437.0</ele><time>2026-04-16T16:41:02.001Z</time></trkpt><trkpt lat="44.81353687246257" lon="7.289843781115897"><ele>437.0</ele><time>2026-04-16T16:41:04.001Z</time></trkpt><trkpt lat="44.81361833947484" lon="7.289901772909598"><ele>437.0</ele><time>2026-04-16T16:41:06.001Z</time></trkpt><trkpt lat="44.81369820442587" lon="7.289964876835963"><ele>436.99999999999994</ele><time>2026-04-16T16:41:08.001Z</time></trkpt><trkpt lat="44.81377231016865" lon="7.290005388919933"><ele>437.0</ele><time>2026-04-16T16:41:10.001Z</time></trkpt><trkpt lat="44.81385283285581" lon="7.29004452345052"><ele>437.3333333333333</ele><time>2026-04-16T16:41:12.001Z</time></trkpt><trkpt lat="44.81395209658603" lon="7.290109078866697"><ele>437.66666666666663</ele><time>2026-04-16T16:41:14.001Z</time></trkpt><trkpt lat="44.81401128465649" lon="7.290142847425825"><ele>438.0</ele><time>2026-04-16T16:41:15.001Z</time></trkpt><trkpt lat="44.81407413274951" lon="7.290187109175633"><ele>438.33333333333337</ele><time>2026-04-16T16:41:16.001Z</time></trkpt><trkpt lat="44.814139238944584" lon="7.290227418811122"><ele>438.6666666666667</ele><time>2026-04-16T16:41:17.002Z</time></trkpt><trkpt lat="44.81420676065459" lon="7.2902681207538444"><ele>439.0</ele><time>2026-04-16T16:41:18.002Z</time></trkpt><trkpt lat="44.814273787757635" lon="7.290308016907974"><ele>439.7142857142857</ele><time>2026-04-16T16:41:19.002Z</time></trkpt><trkpt lat="44.81434309955077" lon="7.290347748637073"><ele>440.42857142857144</ele><time>2026-04-16T16:41:20.002Z</time></trkpt><trkpt lat="44.81441199082885" lon="7.29038855237302"><ele>441.1428571428571</ele><time>2026-04-16T16:41:21.002Z</time></trkpt><trkpt lat="44.81448160422015" lon="7.29042602698516"><ele>441.8571428571429</ele><time>2026-04-16T16:41:22.002Z</time></trkpt><trkpt lat="44.81455111728743" lon="7.2904640463019765"><ele>442.5714285714286</ele><time>2026-04-16T16:41:23.002Z</time></trkpt><trkpt lat="44.814619999733196" lon="7.290505577552627"><ele>443.2857142857143</ele><time>2026-04-16T16:41:24Z</time></trkpt><trkpt lat="44.814689248901715" lon="7.290545148087884"><ele>444.0</ele><time>2026-04-16T16:41:25Z</time></trkpt><trkpt lat="44.81475848767505" lon="7.2905828976772264"><ele>442.57142857142856</ele><time>2026-04-16T16:41:26Z</time></trkpt><trkpt lat="44.81482903376845" lon="7.290612941219369"><ele>441.14285714285717</ele><time>2026-04-16T16:41:27Z</time></trkpt><trkpt lat="44.814897641884464" lon="7.2906427113416745"><ele>439.7142857142857</ele><time>2026-04-16T16:41:28Z</time></trkpt><trkpt lat="44.81496531245637" lon="7.2906715129008095"><ele>438.2857142857143</ele><time>2026-04-16T16:41:29Z</time></trkpt><trkpt lat="44.81503102582479" lon="7.290694508333241"><ele>436.8571428571429</ele><time>2026-04-16T16:41:30Z</time></trkpt><trkpt lat="44.81509893146505" lon="7.290711561945833"><ele>435.42857142857144</ele><time>2026-04-16T16:41:31Z</time></trkpt><trkpt lat="44.815167712478555" lon="7.290725674669051"><ele>434.0</ele><time>2026-04-16T16:41:32Z</time></trkpt><trkpt lat="44.815236189364036" lon="7.290744026201266"><ele>434.0</ele><time>2026-04-16T16:41:33Z</time></trkpt><trkpt lat="44.81530373690572" lon="7.290765600542537"><ele>434.0</ele><time>2026-04-16T16:41:34Z</time></trkpt><trkpt lat="44.81536967154038" lon="7.290783993109962"><ele>434.0</ele><time>2026-04-16T16:41:35Z</time></trkpt><trkpt lat="44.8154342243171" lon="7.290805880469286"><ele>434.0</ele><time>2026-04-16T16:41:36Z</time></trkpt><trkpt lat="44.81550138204254" lon="7.290829648554973"><ele>434.0</ele><time>2026-04-16T16:41:37Z</time></trkpt><trkpt lat="44.81556236547393" lon="7.2908628667367665"><ele>434.0</ele><time>2026-04-16T16:41:38Z</time></trkpt><trkpt lat="44.81562548162135" lon="7.2909040565532734"><ele>434.0</ele><time>2026-04-16T16:41:39Z</time></trkpt><trkpt lat="44.815685730945965" lon="7.290950346551331"><ele>434.0</ele><time>2026-04-16T16:41:40Z</time></trkpt><trkpt lat="44.81574090843997" lon="7.291004164959439"><ele>434.0</ele><time>2026-04-16T16:41:41Z</time></trkpt><trkpt lat="44.81579135236944" lon="7.291070410998956"><ele>434.0</ele><time>2026-04-16T16:41:42Z</time></trkpt><trkpt lat="44.81584122996832" lon="7.291135045795665"><ele>434.0</ele><time>2026-04-16T16:41:43Z</time></trkpt><trkpt lat="44.81590015856025" lon="7.291193398212647"><ele>434.0</ele><time>2026-04-16T16:41:44Z</time></trkpt><trkpt lat="44.8159561757683" lon="7.291253277373305"><ele>434.0</ele><time>2026-04-16T16:41:45Z</time></trkpt><trkpt lat="44.816017058045695" lon="7.291312292929904"><ele>434.0</ele><time>2026-04-16T16:41:46Z</time></trkpt><trkpt lat="44.816081248470674" lon="7.291369168703919"><ele>432.66666666666663</ele><time>2026-04-16T16:41:47Z</time></trkpt><trkpt lat="44.81614418832303" lon="7.291427730086128"><ele>431.3333333333333</ele><time>2026-04-16T16:41:48Z</time></trkpt><trkpt lat="44.81620486158765" lon="7.291493585337369"><ele>430.0</ele><time>2026-04-16T16:41:49Z</time></trkpt><trkpt lat="44.81626478295761" lon="7.291562430635706"><ele>428.66666666666663</ele><time>2026-04-16T16:41:50Z</time></trkpt><trkpt lat="44.81631591558486" lon="7.291628938238534"><ele>427.3333333333333</ele><time>2026-04-16T16:41:51Z</time></trkpt><trkpt lat="44.81639501585807" lon="7.291755206228084"><ele>426.0</ele><time>2026-04-16T16:41:53Z</time></trkpt><trkpt lat="44.81645016602956" lon="7.291868005565091"><ele>426.0</ele><time>2026-04-16T16:41:55Z</time></trkpt><trkpt lat="44.816437340597815" lon="7.292008851248008"><ele>426.0</ele><time>2026-04-16T16:41:57Z</time></trkpt><trkpt lat="44.81635639850658" lon="7.292107087579384"><ele>426.0</ele><time>2026-04-16T16:41:59Z</time></trkpt><trkpt lat="44.81627603446557" lon="7.2922157902310225"><ele>426.0</ele><time>2026-04-16T16:42:01Z</time></trkpt><trkpt lat="44.81619007351341" lon="7.292329566587019"><ele>426.0</ele><time>2026-04-16T16:42:03Z</time></trkpt><trkpt lat="44.81609506942375" lon="7.292433867842466"><ele>424.6666666666667</ele><time>2026-04-16T16:42:05Z</time></trkpt><trkpt lat="44.81606519167652" lon="7.292589448179824"><ele>423.33333333333337</ele><time>2026-04-16T16:42:07Z</time></trkpt><trkpt lat="44.81613291725437" lon="7.2927333106408865"><ele>422.0</ele><time>2026-04-16T16:42:09Z</time></trkpt><trkpt lat="44.816181594422645" lon="7.29279840093203"><ele>420.6666666666667</ele><time>2026-04-16T16:42:10Z</time></trkpt><trkpt lat="44.81622931637906" lon="7.2928666067051235"><ele>419.33333333333337</ele><time>2026-04-16T16:42:11Z</time></trkpt><trkpt lat="44.816280385740946" lon="7.292942710373225"><ele>418.0</ele><time>2026-04-16T16:42:12Z</time></trkpt><trkpt lat="44.81633463423684" lon="7.293017523083479"><ele>417.33333333333337</ele><time>2026-04-16T16:42:13Z</time></trkpt><trkpt lat="44.81639209188575" lon="7.293096629746404"><ele>416.6666666666667</ele><time>2026-04-16T16:42:14Z</time></trkpt><trkpt lat="44.81645122988477" lon="7.2931778172522295"><ele>416.0</ele><time>2026-04-16T16:42:15Z</time></trkpt><trkpt lat="44.81651384358733" lon="7.293261019323071"><ele>415.33333333333337</ele><time>2026-04-16T16:42:16Z</time></trkpt><trkpt lat="44.8165796050941" lon="7.293348603908242"><ele>414.6666666666667</ele><time>2026-04-16T16:42:17Z</time></trkpt><trkpt lat="44.81664496459451" lon="7.293441790709068"><ele>414.0</ele><time>2026-04-16T16:42:18Z</time></trkpt><trkpt lat="44.816712241117905" lon="7.2935361804630405"><ele>414.0</ele><time>2026-04-16T16:42:19Z</time></trkpt><trkpt lat="44.81678396621329" lon="7.293629937491115"><ele>414.0</ele><time>2026-04-16T16:42:20Z</time></trkpt><trkpt lat="44.81685747251555" lon="7.2937276851714525"><ele>414.0</ele><time>2026-04-16T16:42:21Z</time></trkpt><trkpt lat="44.81693009174317" lon="7.293829400693325"><ele>414.0</ele><time>2026-04-16T16:42:22Z</time></trkpt><trkpt lat="44.817000131230344" lon="7.293933114389226"><ele>414.0</ele><time>2026-04-16T16:42:23Z</time></trkpt><trkpt lat="44.81706718253395" lon="7.294037116889892"><ele>413.1666666666667</ele><time>2026-04-16T16:42:24Z</time></trkpt><trkpt lat="44.81713097296988" lon="7.294135995986538"><ele>412.33333333333337</ele><time>2026-04-16T16:42:25Z</time></trkpt><trkpt lat="44.81718701568249" lon="7.294226964538364"><ele>411.5</ele><time>2026-04-16T16:42:26Z</time></trkpt><trkpt lat="44.81723478496992" lon="7.294311230589265"><ele>410.6666666666667</ele><time>2026-04-16T16:42:27.001Z</time></trkpt><trkpt lat="44.81727481986498" lon="7.294390590631406"><ele>409.83333333333337</ele><time>2026-04-16T16:42:28.001Z</time></trkpt><trkpt lat="44.81730866197665" lon="7.294472436591015"><ele>409.0</ele><time>2026-04-16T16:42:29.001Z</time></trkpt><trkpt lat="44.8173384710185" lon="7.294560152082869"><ele>409.0</ele><time>2026-04-16T16:42:30.001Z</time></trkpt><trkpt lat="44.81736226140694" lon="7.294652238166899"><ele>409.0</ele><time>2026-04-16T16:42:31.001Z</time></trkpt><trkpt lat="44.81740379377136" lon="7.2948089520342245"><ele>409.0</ele><time>2026-04-16T16:42:33.001Z</time></trkpt><trkpt lat="44.81744851151652" lon="7.29493599645372"><ele>409.0</ele><time>2026-04-16T16:42:35.001Z</time></trkpt><trkpt lat="44.81754457040032" lon="7.294991385527083"><ele>409.0</ele><time>2026-04-16T16:42:37.001Z</time></trkpt><trkpt lat="44.817652375785464" lon="7.294941191034226"><ele>409.2</ele><time>2026-04-16T16:42:39.001Z</time></trkpt><trkpt lat="44.81771102402556" lon="7.294906269728567"><ele>409.4</ele><time>2026-04-16T16:42:40.001Z</time></trkpt><trkpt lat="44.81781613066571" lon="7.294845832928241"><ele>409.6</ele><time>2026-04-16T16:42:42.001Z</time></trkpt><trkpt lat="44.81792355282649" lon="7.294799923221294"><ele>409.8</ele><time>2026-04-16T16:42:44.001Z</time></trkpt><trkpt lat="44.81803009996464" lon="7.294759733403157"><ele>410.0</ele><time>2026-04-16T16:42:46.001Z</time></trkpt><trkpt lat="44.81813419200825" lon="7.294717962307914"><ele>410.0</ele><time>2026-04-16T16:42:48.001Z</time></trkpt><trkpt lat="44.81823777725554" lon="7.294681015264254"><ele>410.0</ele><time>2026-04-16T16:42:50.001Z</time></trkpt><trkpt lat="44.81834136629238" lon="7.294642686058242"><ele>410.0</ele><time>2026-04-16T16:42:52.001Z</time></trkpt><trkpt lat="44.81844450079779" lon="7.294605830547425"><ele>410.0</ele><time>2026-04-16T16:42:54.001Z</time></trkpt><trkpt lat="44.81854840319604" lon="7.29457800435678"><ele>410.0</ele><time>2026-04-16T16:42:56.001Z</time></trkpt><trkpt lat="44.8186543723948" lon="7.294558579085298"><ele>410.25</ele><time>2026-04-16T16:42:58.001Z</time></trkpt><trkpt lat="44.818763165290115" lon="7.29454082848398"><ele>410.5</ele><time>2026-04-16T16:43:00.001Z</time></trkpt><trkpt lat="44.81887516882967" lon="7.294527238825444"><ele>410.75</ele><time>2026-04-16T16:43:02.001Z</time></trkpt><trkpt lat="44.81899172775844" lon="7.294524243003585"><ele>411.0</ele><time>2026-04-16T16:43:04.001Z</time></trkpt><trkpt lat="44.81911272355402" lon="7.294526137521299"><ele>411.0</ele><time>2026-04-16T16:43:06.001Z</time></trkpt><trkpt lat="44.81923613230007" lon="7.294545881145584"><ele>411.0</ele><time>2026-04-16T16:43:08.001Z</time></trkpt><trkpt lat="44.81929714946557" lon="7.294568278652778"><ele>411.0</ele><time>2026-04-16T16:43:09.001Z</time></trkpt><trkpt lat="44.81935754880739" lon="7.29459739616012"><ele>411.0</ele><time>2026-04-16T16:43:10.001Z</time></trkpt><trkpt lat="44.819417471348295" lon="7.294635382915062"><ele>411.0</ele><time>2026-04-16T16:43:11.001Z</time></trkpt><trkpt lat="44.81947746027708" lon="7.2946763051452645"><ele>411.0</ele><time>2026-04-16T16:43:12.001Z</time></trkpt><trkpt lat="44.81953491871232" lon="7.29472095085076"><ele>411.0</ele><time>2026-04-16T16:43:13.001Z</time></trkpt><trkpt lat="44.81958865693246" lon="7.294773715584823"><ele>410.7142857142857</ele><time>2026-04-16T16:43:14.001Z</time></trkpt><trkpt lat="44.81963998365464" lon="7.294830448268418"><ele>410.42857142857144</ele><time>2026-04-16T16:43:15.001Z</time></trkpt><trkpt lat="44.81969054329884" lon="7.294890209337332"><ele>410.1428571428571</ele><time>2026-04-16T16:43:16.001Z</time></trkpt><trkpt lat="44.81973996563767" lon="7.294955224534303"><ele>409.8571428571429</ele><time>2026-04-16T16:43:17.001Z</time></trkpt><trkpt lat="44.81978697335246" lon="7.295025509699618"><ele>409.5714285714286</ele><time>2026-04-16T16:43:18.001Z</time></trkpt><trkpt lat="44.8198328039384" lon="7.2951000594331905"><ele>409.2857142857143</ele><time>2026-04-16T16:43:19.001Z</time></trkpt><trkpt lat="44.81988037122686" lon="7.295173900749351"><ele>409.0</ele><time>2026-04-16T16:43:20.001Z</time></trkpt><trkpt lat="44.81993077840967" lon="7.295251320809051"><ele>409.00000000000006</ele><time>2026-04-16T16:43:21.001Z</time></trkpt><trkpt lat="44.81998045149994" lon="7.295331963011377"><ele>409.0</ele><time>2026-04-16T16:43:22.001Z</time></trkpt><trkpt lat="44.820026278474366" lon="7.2954179261692085"><ele>409.0</ele><time>2026-04-16T16:43:23.001Z</time></trkpt><trkpt lat="44.82007322373653" lon="7.295507828418143"><ele>409.0</ele><time>2026-04-16T16:43:24.001Z</time></trkpt><trkpt lat="44.82011880845111" lon="7.295599811119415"><ele>409.00000000000006</ele><time>2026-04-16T16:43:25.001Z</time></trkpt><trkpt lat="44.82016532920622" lon="7.2956952107417905"><ele>409.0</ele><time>2026-04-16T16:43:26.002Z</time></trkpt><trkpt lat="44.82020833225074" lon="7.295792525021077"><ele>408.33333333333337</ele><time>2026-04-16T16:43:27.002Z</time></trkpt><trkpt lat="44.82024729894334" lon="7.295894647533325"><ele>407.6666666666667</ele><time>2026-04-16T16:43:28.002Z</time></trkpt><trkpt lat="44.820291961117874" lon="7.295987152882092"><ele>407.0</ele><time>2026-04-16T16:43:29.002Z</time></trkpt><trkpt lat="44.82033466217465" lon="7.296067645053692"><ele>406.33333333333337</ele><time>2026-04-16T16:43:30Z</time></trkpt><trkpt lat="44.82041090186959" lon="7.29618335443075"><ele>405.6666666666667</ele><time>2026-04-16T16:43:32Z</time></trkpt><trkpt lat="44.820456740667794" lon="7.296255273629042"><ele>405.0</ele><time>2026-04-16T16:43:34Z</time></trkpt><trkpt lat="44.82051690993876" lon="7.296322496267234"><ele>405.0</ele><time>2026-04-16T16:43:36Z</time></trkpt><trkpt lat="44.82059659058747" lon="7.2963900068285215"><ele>405.0</ele><time>2026-04-16T16:43:38Z</time></trkpt><trkpt lat="44.82067998571597" lon="7.296483242269418"><ele>405.0</ele><time>2026-04-16T16:43:40Z</time></trkpt><trkpt lat="44.82075369667754" lon="7.296598092122864"><ele>405.0</ele><time>2026-04-16T16:43:42Z</time></trkpt><trkpt lat="44.82082620612189" lon="7.296712926331718"><ele>405.0</ele><time>2026-04-16T16:43:44Z</time></trkpt><trkpt lat="44.820902903529294" lon="7.296829270788239"><ele>404.8</ele><time>2026-04-16T16:43:46Z</time></trkpt><trkpt lat="44.820981470432905" lon="7.296937885619573"><ele>404.6</ele><time>2026-04-16T16:43:48Z</time></trkpt><trkpt lat="44.82105666808825" lon="7.297039392425195"><ele>404.4</ele><time>2026-04-16T16:43:50Z</time></trkpt><trkpt lat="44.82114136146929" lon="7.297140707619989"><ele>404.2</ele><time>2026-04-16T16:43:52Z</time></trkpt><trkpt lat="44.82122161391381" lon="7.297269926996638"><ele>404.0</ele><time>2026-04-16T16:43:54Z</time></trkpt><trkpt lat="44.821274732631686" lon="7.297398294826809"><ele>402.79999999999995</ele><time>2026-04-16T16:43:56Z</time></trkpt><trkpt lat="44.82133629544109" lon="7.297531082884575"><ele>401.59999999999997</ele><time>2026-04-16T16:43:58Z</time></trkpt><trkpt lat="44.821392480918924" lon="7.29766014434399"><ele>400.4</ele><time>2026-04-16T16:44:00Z</time></trkpt><trkpt lat="44.82144603806548" lon="7.29777195763894"><ele>399.2</ele><time>2026-04-16T16:44:02Z</time></trkpt><trkpt lat="44.82150659623537" lon="7.297894046525381"><ele>398.0</ele><time>2026-04-16T16:44:04Z</time></trkpt><trkpt lat="44.821560648009516" lon="7.298010913310142"><ele>397.79999999999995</ele><time>2026-04-16T16:44:06Z</time></trkpt><trkpt lat="44.821618422740855" lon="7.298106888006646"><ele>397.6</ele><time>2026-04-16T16:44:08Z</time></trkpt><trkpt lat="44.82167636604729" lon="7.298196116523495"><ele>397.4</ele><time>2026-04-16T16:44:10Z</time></trkpt><trkpt lat="44.82174673151009" lon="7.298295085042095"><ele>397.20000000000005</ele><time>2026-04-16T16:44:12Z</time></trkpt><trkpt lat="44.82182771987524" lon="7.298394352769399"><ele>397.0</ele><time>2026-04-16T16:44:14Z</time></trkpt><trkpt lat="44.82190500632375" lon="7.2985128280234965"><ele>397.40000000000003</ele><time>2026-04-16T16:44:16Z</time></trkpt><trkpt lat="44.821969754179776" lon="7.29865613815317"><ele>397.8</ele><time>2026-04-16T16:44:18Z</time></trkpt><trkpt lat="44.82203826039266" lon="7.298791790407575"><ele>398.2</ele><time>2026-04-16T16:44:20Z</time></trkpt><trkpt lat="44.82211142931872" lon="7.29893097071297"><ele>398.6</ele><time>2026-04-16T16:44:22Z</time></trkpt><trkpt lat="44.82215116870081" lon="7.299002711858052"><ele>399.0</ele><time>2026-04-16T16:44:23Z</time></trkpt><trkpt lat="44.82219031957012" lon="7.299072593245968"><ele>398.0</ele><time>2026-04-16T16:44:24Z</time></trkpt><trkpt lat="44.82226988604473" lon="7.299208545303331"><ele>397.0</ele><time>2026-04-16T16:44:26Z</time></trkpt><trkpt lat="44.822316981269005" lon="7.299273185145791"><ele>396.0</ele><time>2026-04-16T16:44:27Z</time></trkpt><trkpt lat="44.82241290940839" lon="7.299388378521415"><ele>395.0</ele><time>2026-04-16T16:44:29Z</time></trkpt><trkpt lat="44.82246460850609" lon="7.299446471060448"><ele>394.0</ele><time>2026-04-16T16:44:30Z</time></trkpt><trkpt lat="44.82251692558049" lon="7.299501168487158"><ele>393.0</ele><time>2026-04-16T16:44:31Z</time></trkpt><trkpt lat="44.822569678183676" lon="7.299552587667992"><ele>393.0</ele><time>2026-04-16T16:44:32Z</time></trkpt><trkpt lat="44.8226246012604" lon="7.299598791083436"><ele>393.0</ele><time>2026-04-16T16:44:33Z</time></trkpt><trkpt lat="44.822680421310935" lon="7.299643607188665"><ele>393.0</ele><time>2026-04-16T16:44:34.001Z</time></trkpt><trkpt lat="44.82278665500162" lon="7.299732605655058"><ele>393.0</ele><time>2026-04-16T16:44:36.001Z</time></trkpt><trkpt lat="44.82288294291061" lon="7.299824528256124"><ele>393.0</ele><time>2026-04-16T16:44:38.001Z</time></trkpt><trkpt lat="44.822992597018406" lon="7.299901584023462"><ele>392.8333333333333</ele><time>2026-04-16T16:44:40.001Z</time></trkpt><trkpt lat="44.82310651955621" lon="7.2999498861022145"><ele>392.66666666666663</ele><time>2026-04-16T16:44:42.001Z</time></trkpt><trkpt lat="44.823213073548644" lon="7.299981765048677"><ele>392.5</ele><time>2026-04-16T16:44:44.001Z</time></trkpt><trkpt lat="44.82328900806503" lon="7.300015965247038"><ele>392.3333333333333</ele><time>2026-04-16T16:44:46.001Z</time></trkpt><trkpt lat="44.82335796018233" lon="7.30005806754717"><ele>392.16666666666663</ele><time>2026-04-16T16:44:49.001Z</time></trkpt><trkpt lat="44.823403650053805" lon="7.300121167650622"><ele>392.0</ele><time>2026-04-16T16:44:52.001Z</time></trkpt><trkpt lat="44.82347350509063" lon="7.300165100520388"><ele>392.16666666666663</ele><time>2026-04-16T16:44:54.001Z</time></trkpt><trkpt lat="44.82354150005493" lon="7.3002265914158455"><ele>392.3333333333333</ele><time>2026-04-16T16:44:56.001Z</time></trkpt><trkpt lat="44.82361231455369" lon="7.300299279234511"><ele>392.5</ele><time>2026-04-16T16:44:58.001Z</time></trkpt><trkpt lat="44.823677136471964" lon="7.300382449795656"><ele>392.66666666666663</ele><time>2026-04-16T16:45:00.001Z</time></trkpt><trkpt lat="44.82373955701358" lon="7.3004734795030775"><ele>392.8333333333333</ele><time>2026-04-16T16:45:02.001Z</time></trkpt><trkpt lat="44.82379780152372" lon="7.300566032342432"><ele>393.0</ele><time>2026-04-16T16:45:04.001Z</time></trkpt><trkpt lat="44.823850959369445" lon="7.300654570343371"><ele>393.0</ele><time>2026-04-16T16:45:06.001Z</time></trkpt><trkpt lat="44.82389172255126" lon="7.300742201899376"><ele>393.0</ele><time>2026-04-16T16:45:08.001Z</time></trkpt><trkpt lat="44.8239428781497" lon="7.3008152128716555"><ele>393.0</ele><time>2026-04-16T16:45:10.001Z</time></trkpt><trkpt lat="44.823967777985736" lon="7.300902369718802"><ele>393.0</ele><time>2026-04-16T16:45:14.001Z</time></trkpt><trkpt lat="44.824030609591034" lon="7.3009956749021665"><ele>393.0</ele><time>2026-04-16T16:45:17.001Z</time></trkpt><trkpt lat="44.82409301964467" lon="7.301069535927596"><ele>393.0</ele><time>2026-04-16T16:45:19.001Z</time></trkpt><trkpt lat="44.82416058818383" lon="7.301149416476682"><ele>393.0</ele><time>2026-04-16T16:45:21.001Z</time></trkpt><trkpt lat="44.824242277290985" lon="7.301234707926167"><ele>393.0</ele><time>2026-04-16T16:45:23.001Z</time></trkpt><trkpt lat="44.82432516462704" lon="7.301326555191616"><ele>393.0</ele><time>2026-04-16T16:45:25.001Z</time></trkpt><trkpt lat="44.82441081077485" lon="7.301412328246231"><ele>393.0</ele><time>2026-04-16T16:45:27.001Z</time></trkpt><trkpt lat="44.82449955739634" lon="7.301482747581081"><ele>393.0</ele><time>2026-04-16T16:45:29.001Z</time></trkpt><trkpt lat="44.82457058334101" lon="7.301546746361178"><ele>392.79999999999995</ele><time>2026-04-16T16:45:31.001Z</time></trkpt><trkpt lat="44.82457812116364" lon="7.301685153076319"><ele>392.6</ele><time>2026-04-16T16:45:33.002Z</time></trkpt><trkpt lat="44.8245700760389" lon="7.301850771035619"><ele>392.4</ele><time>2026-04-16T16:45:35Z</time></trkpt><trkpt lat="44.82457329484182" lon="7.301939490046559"><ele>392.20000000000005</ele><time>2026-04-16T16:45:36Z</time></trkpt><trkpt lat="44.82458018533086" lon="7.302102609971105"><ele>392.0</ele><time>2026-04-16T16:45:38Z</time></trkpt><trkpt lat="44.824581454280505" lon="7.30225751738852"><ele>391.6</ele><time>2026-04-16T16:45:40Z</time></trkpt><trkpt lat="44.82457049526944" lon="7.30240625573309"><ele>391.20000000000005</ele><time>2026-04-16T16:45:42Z</time></trkpt><trkpt lat="44.824564514465976" lon="7.302564942688803"><ele>390.8</ele><time>2026-04-16T16:45:44Z</time></trkpt><trkpt lat="44.82456061125584" lon="7.302715519011308"><ele>390.4</ele><time>2026-04-16T16:45:46Z</time></trkpt><trkpt lat="44.82456556535536" lon="7.302871095468691"><ele>390.0</ele><time>2026-04-16T16:45:48Z</time></trkpt><trkpt lat="44.824560559824754" lon="7.303028031734745"><ele>389.8333333333333</ele><time>2026-04-16T16:45:50Z</time></trkpt><trkpt lat="44.82455908000209" lon="7.303162086375712"><ele>389.66666666666663</ele><time>2026-04-16T16:45:52Z</time></trkpt><trkpt lat="44.82456430981492" lon="7.303260663662272"><ele>389.5</ele><time>2026-04-16T16:45:54Z</time></trkpt><trkpt lat="44.824561869296296" lon="7.3033606584885105"><ele>389.3333333333333</ele><time>2026-04-16T16:45:59Z</time></trkpt><trkpt lat="44.82457980474077" lon="7.303485848803383"><ele>389.16666666666663</ele><time>2026-04-16T16:46:02Z</time></trkpt><trkpt lat="44.82458506029578" lon="7.303608740796593"><ele>389.0</ele><time>2026-04-16T16:46:04Z</time></trkpt><trkpt lat="44.824578150366236" lon="7.303741707629202"><ele>389.0</ele><time>2026-04-16T16:46:06Z</time></trkpt><trkpt lat="44.8245847935351" lon="7.30389489117457"><ele>389.0</ele><time>2026-04-16T16:46:08Z</time></trkpt><trkpt lat="44.8245797199454" lon="7.304059090302411"><ele>389.0</ele><time>2026-04-16T16:46:10Z</time></trkpt><trkpt lat="44.82457761776756" lon="7.304148654095066"><ele>389.0</ele><time>2026-04-16T16:46:11Z</time></trkpt><trkpt lat="44.82457927181537" lon="7.304322760346224"><ele>389.0</ele><time>2026-04-16T16:46:13Z</time></trkpt><trkpt lat="44.82457134562454" lon="7.304493588886448"><ele>388.66666666666663</ele><time>2026-04-16T16:46:15Z</time></trkpt><trkpt lat="44.824567008547355" lon="7.304659108732041"><ele>388.3333333333333</ele><time>2026-04-16T16:46:17Z</time></trkpt><trkpt lat="44.82454109486911" lon="7.304765687860018"><ele>388.0</ele><time>2026-04-16T16:46:19Z</time></trkpt><trkpt lat="44.82446719944267" lon="7.304788904872306"><ele>387.66666666666663</ele><time>2026-04-16T16:46:21Z</time></trkpt><trkpt lat="44.824393437733114" lon="7.304718120744213"><ele>387.3333333333333</ele><time>2026-04-16T16:46:23Z</time></trkpt><trkpt lat="44.82434511780378" lon="7.304645904640155"><ele>387.0</ele><time>2026-04-16T16:46:25Z</time></trkpt><trkpt lat="44.82425777126296" lon="7.304647096066634"><ele>386.6</ele><time>2026-04-16T16:46:27Z</time></trkpt><trkpt lat="44.82418938451036" lon="7.304756310197357"><ele>386.20000000000005</ele><time>2026-04-16T16:46:29Z</time></trkpt><trkpt lat="44.82414239989594" lon="7.3048847179117775"><ele>385.8</ele><time>2026-04-16T16:46:31Z</time></trkpt><trkpt lat="44.82408840958289" lon="7.305004492314119"><ele>385.4</ele><time>2026-04-16T16:46:33Z</time></trkpt><trkpt lat="44.82404855525035" lon="7.305116052380356"><ele>385.0</ele><time>2026-04-16T16:46:35Z</time></trkpt><trkpt lat="44.82399338291223" lon="7.305221442606588"><ele>385.0</ele><time>2026-04-16T16:46:37Z</time></trkpt><trkpt lat="44.82392840123909" lon="7.30532911031503"><ele>385.0</ele><time>2026-04-16T16:46:39.001Z</time></trkpt><trkpt lat="44.8238548669457" lon="7.305425187967913"><ele>385.0</ele><time>2026-04-16T16:46:41.001Z</time></trkpt><trkpt lat="44.823783818738036" lon="7.305538371242423"><ele>385.0</ele><time>2026-04-16T16:46:43.001Z</time></trkpt><trkpt lat="44.82371853388599" lon="7.305659167957055"><ele>385.0</ele><time>2026-04-16T16:46:45.001Z</time></trkpt><trkpt lat="44.823648178368764" lon="7.3057614188973"><ele>385.0</ele><time>2026-04-16T16:46:47.001Z</time></trkpt><trkpt lat="44.823581308445696" lon="7.305862798771875"><ele>385.0</ele><time>2026-04-16T16:46:49.001Z</time></trkpt><trkpt lat="44.823512127016194" lon="7.305959651403036"><ele>385.0</ele><time>2026-04-16T16:46:51.001Z</time></trkpt><trkpt lat="44.8234364401766" lon="7.3060583485972455"><ele>385.0</ele><time>2026-04-16T16:46:53.001Z</time></trkpt><trkpt lat="44.82336527420336" lon="7.30616054385065"><ele>385.0</ele><time>2026-04-16T16:46:55.001Z</time></trkpt><trkpt lat="44.82329228533025" lon="7.306257815275814"><ele>385.00000000000006</ele><time>2026-04-16T16:46:57.001Z</time></trkpt><trkpt lat="44.82322240985136" lon="7.306362938553075"><ele>385.0</ele><time>2026-04-16T16:46:59.001Z</time></trkpt><trkpt lat="44.82316440030952" lon="7.3064459215673905"><ele>385.0</ele><time>2026-04-16T16:47:01.001Z</time></trkpt><trkpt lat="44.823113054842395" lon="7.306515624725059"><ele>385.0</ele><time>2026-04-16T16:47:03.001Z</time></trkpt><trkpt lat="44.82304930856357" lon="7.306593832410527"><ele>385.00000000000006</ele><time>2026-04-16T16:47:05.001Z</time></trkpt><trkpt lat="44.82298154729463" lon="7.30668428658746"><ele>385.0</ele><time>2026-04-16T16:47:07.001Z</time></trkpt><trkpt lat="44.8229131393712" lon="7.306780848253926"><ele>384.50000000000006</ele><time>2026-04-16T16:47:09.001Z</time></trkpt><trkpt lat="44.822842634747694" lon="7.3068662150652735"><ele>384.0</ele><time>2026-04-16T16:47:11.001Z</time></trkpt><trkpt lat="44.822790233511995" lon="7.306935483893251"><ele>383.5</ele><time>2026-04-16T16:47:13.001Z</time></trkpt><trkpt lat="44.82278140734634" lon="7.307071932353882"><ele>383.0</ele><time>2026-04-16T16:47:17.001Z</time></trkpt><trkpt lat="44.822815309178495" lon="7.307169397269915"><ele>382.5</ele><time>2026-04-16T16:47:19.001Z</time></trkpt><trkpt lat="44.822776494602664" lon="7.3072589529643"><ele>382.0</ele><time>2026-04-16T16:47:21.001Z</time></trkpt><trkpt lat="44.82268468964459" lon="7.307290311098469"><ele>382.20000000000005</ele><time>2026-04-16T16:47:23.001Z</time></trkpt><trkpt lat="44.82258497247139" lon="7.307307287256715"><ele>382.4</ele><time>2026-04-16T16:47:25.001Z</time></trkpt><trkpt lat="44.82248228776247" lon="7.30735446483102"><ele>382.6</ele><time>2026-04-16T16:47:27.001Z</time></trkpt><trkpt lat="44.822378224822664" lon="7.307401947373875"><ele>382.79999999999995</ele><time>2026-04-16T16:47:29.001Z</time></trkpt><trkpt lat="44.822276252200645" lon="7.307460288251471"><ele>383.0</ele><time>2026-04-16T16:47:31.001Z</time></trkpt><trkpt lat="44.82218115432997" lon="7.307528750622237"><ele>383.0</ele><time>2026-04-16T16:47:33.001Z</time></trkpt><trkpt lat="44.82208491486556" lon="7.307592283083213"><ele>383.0</ele><time>2026-04-16T16:47:35.002Z</time></trkpt><trkpt lat="44.82198965838252" lon="7.307670779183294"><ele>383.0</ele><time>2026-04-16T16:47:37.002Z</time></trkpt><trkpt lat="44.82189088211549" lon="7.307747946309629"><ele>383.0</ele><time>2026-04-16T16:47:39.002Z</time></trkpt><trkpt lat="44.82179024610987" lon="7.307822139636555"><ele>383.0</ele><time>2026-04-16T16:47:41Z</time></trkpt><trkpt lat="44.821691058387515" lon="7.3078969338830975"><ele>383.25</ele><time>2026-04-16T16:47:43Z</time></trkpt><trkpt lat="44.82159043834581" lon="7.307970662690587"><ele>383.5</ele><time>2026-04-16T16:47:45Z</time></trkpt><trkpt lat="44.82149225012353" lon="7.308049370429564"><ele>383.75</ele><time>2026-04-16T16:47:47Z</time></trkpt><trkpt lat="44.821397777982114" lon="7.308126474587137"><ele>384.0</ele><time>2026-04-16T16:47:49Z</time></trkpt><trkpt lat="44.821288111879745" lon="7.308199348460946"><ele>384.0</ele><time>2026-04-16T16:47:51Z</time></trkpt><trkpt lat="44.821197841077264" lon="7.308239291515876"><ele>384.0</ele><time>2026-04-16T16:47:53Z</time></trkpt><trkpt lat="44.821105830566864" lon="7.30832255446318"><ele>384.0</ele><time>2026-04-16T16:47:55Z</time></trkpt><trkpt lat="44.82105006969686" lon="7.308367339572804"><ele>384.0</ele><time>2026-04-16T16:47:56Z</time></trkpt><trkpt lat="44.82098804613526" lon="7.308415869237644"><ele>384.0</ele><time>2026-04-16T16:47:57Z</time></trkpt><trkpt lat="44.8209258866955" lon="7.308461769311575"><ele>384.0</ele><time>2026-04-16T16:47:58Z</time></trkpt><trkpt lat="44.82086531018258" lon="7.308506936917249"><ele>383.85714285714283</ele><time>2026-04-16T16:47:59Z</time></trkpt><trkpt lat="44.82080622480448" lon="7.308550779284324"><ele>383.7142857142857</ele><time>2026-04-16T16:48:00Z</time></trkpt><trkpt lat="44.82074901593459" lon="7.308594400031801"><ele>383.57142857142856</ele><time>2026-04-16T16:48:01Z</time></trkpt><trkpt lat="44.820691924152555" lon="7.308638507364378"><ele>383.42857142857144</ele><time>2026-04-16T16:48:02Z</time></trkpt><trkpt lat="44.82063478177014" lon="7.308681098068986"><ele>383.2857142857143</ele><time>2026-04-16T16:48:03Z</time></trkpt><trkpt lat="44.82057820808826" lon="7.308723889268893"><ele>383.1428571428571</ele><time>2026-04-16T16:48:04Z</time></trkpt><trkpt lat="44.820521817006274" lon="7.308766848352432"><ele>383.0</ele><time>2026-04-16T16:48:05Z</time></trkpt><trkpt lat="44.82041162509385" lon="7.308848181294266"><ele>382.25</ele><time>2026-04-16T16:48:07Z</time></trkpt><trkpt lat="44.82030396150828" lon="7.308924735604281"><ele>381.5</ele><time>2026-04-16T16:48:09Z</time></trkpt><trkpt lat="44.82019900845115" lon="7.3090041387662055"><ele>380.75</ele><time>2026-04-16T16:48:11Z</time></trkpt><trkpt lat="44.82009363711902" lon="7.309082666294174"><ele>380.0</ele><time>2026-04-16T16:48:13Z</time></trkpt><trkpt lat="44.81998941055903" lon="7.309160590748546"><ele>380.0</ele><time>2026-04-16T16:48:15Z</time></trkpt><trkpt lat="44.81988526090864" lon="7.309238763947667"><ele>380.0</ele><time>2026-04-16T16:48:17Z</time></trkpt><trkpt lat="44.819778995415" lon="7.30931687091767"><ele>380.0</ele><time>2026-04-16T16:48:19Z</time></trkpt><trkpt lat="44.81967374178581" lon="7.30940152063475"><ele>380.0</ele><time>2026-04-16T16:48:21Z</time></trkpt><trkpt lat="44.819573865438436" lon="7.309482677888147"><ele>380.0</ele><time>2026-04-16T16:48:23Z</time></trkpt><trkpt lat="44.81947177989247" lon="7.309555038612503"><ele>380.0</ele><time>2026-04-16T16:48:25Z</time></trkpt><trkpt lat="44.81937031327046" lon="7.309628409703557"><ele>380.0</ele><time>2026-04-16T16:48:27Z</time></trkpt><trkpt lat="44.819270082414306" lon="7.3097037594483565"><ele>380.0</ele><time>2026-04-16T16:48:29Z</time></trkpt><trkpt lat="44.81916674047631" lon="7.309782119193"><ele>379.25</ele><time>2026-04-16T16:48:31Z</time></trkpt><trkpt lat="44.819071308303904" lon="7.309862874530571"><ele>378.5</ele><time>2026-04-16T16:48:33Z</time></trkpt><trkpt lat="44.81897365153495" lon="7.309947727329243"><ele>377.75</ele><time>2026-04-16T16:48:35Z</time></trkpt><trkpt lat="44.818871118845884" lon="7.310013362912721"><ele>377.0</ele><time>2026-04-16T16:48:37Z</time></trkpt><trkpt lat="44.818769222633684" lon="7.310080707362789"><ele>377.0</ele><time>2026-04-16T16:48:39Z</time></trkpt><trkpt lat="44.81867010139126" lon="7.310157365844934"><ele>377.0</ele><time>2026-04-16T16:48:41.001Z</time></trkpt><trkpt lat="44.818572308168164" lon="7.310234583521379"><ele>377.0</ele><time>2026-04-16T16:48:43.001Z</time></trkpt><trkpt lat="44.81847627815058" lon="7.3103137637289395"><ele>377.0</ele><time>2026-04-16T16:48:45.001Z</time></trkpt><trkpt lat="44.81837813176166" lon="7.3103848904085265"><ele>377.0</ele><time>2026-04-16T16:48:47.001Z</time></trkpt><trkpt lat="44.81827993145469" lon="7.310454867514711"><ele>377.0</ele><time>2026-04-16T16:48:49.001Z</time></trkpt><trkpt lat="44.81818656090629" lon="7.310537803768152"><ele>377.0</ele><time>2026-04-16T16:48:51.001Z</time></trkpt><trkpt lat="44.818086990941914" lon="7.310605363694099"><ele>377.0</ele><time>2026-04-16T16:48:53.001Z</time></trkpt><trkpt lat="44.817995245835064" lon="7.310678398108733"><ele>377.0</ele><time>2026-04-16T16:48:55.001Z</time></trkpt><trkpt lat="44.81790004881867" lon="7.310746120920845"><ele>377.0</ele><time>2026-04-16T16:48:57.001Z</time></trkpt><trkpt lat="44.81780637394013" lon="7.310816841095264"><ele>377.20000000000005</ele><time>2026-04-16T16:48:59.001Z</time></trkpt><trkpt lat="44.817712464626396" lon="7.310889922870229"><ele>377.4</ele><time>2026-04-16T16:49:01.001Z</time></trkpt><trkpt lat="44.81761973085377" lon="7.310958548023072"><ele>377.6</ele><time>2026-04-16T16:49:03.001Z</time></trkpt><trkpt lat="44.817525398701726" lon="7.311028814066138"><ele>377.79999999999995</ele><time>2026-04-16T16:49:05.001Z</time></trkpt><trkpt lat="44.817433531592386" lon="7.311097774678201"><ele>378.0</ele><time>2026-04-16T16:49:07.001Z</time></trkpt><trkpt lat="44.817340206223065" lon="7.311169851387493"><ele>378.0</ele><time>2026-04-16T16:49:09.001Z</time></trkpt><trkpt lat="44.81724469955573" lon="7.311240996687056"><ele>378.0</ele><time>2026-04-16T16:49:11.001Z</time></trkpt><trkpt lat="44.817150766461936" lon="7.311314424447312"><ele>378.0</ele><time>2026-04-16T16:49:13.001Z</time></trkpt><trkpt lat="44.81705646647326" lon="7.311379731883004"><ele>378.0</ele><time>2026-04-16T16:49:15.001Z</time></trkpt><trkpt lat="44.81695959189936" lon="7.311452633954457"><ele>378.0</ele><time>2026-04-16T16:49:17.001Z</time></trkpt><trkpt lat="44.81686501160583" lon="7.311524083863434"><ele>377.4</ele><time>2026-04-16T16:49:19.001Z</time></trkpt><trkpt lat="44.816768368166194" lon="7.311598559035865"><ele>376.79999999999995</ele><time>2026-04-16T16:49:21.001Z</time></trkpt><trkpt lat="44.816673392207015" lon="7.311669236800069"><ele>376.2</ele><time>2026-04-16T16:49:23.001Z</time></trkpt><trkpt lat="44.81657995507951" lon="7.311744644830685"><ele>375.6</ele><time>2026-04-16T16:49:25.001Z</time></trkpt><trkpt lat="44.81648213105673" lon="7.311817619659369"><ele>375.0</ele><time>2026-04-16T16:49:27.001Z</time></trkpt><trkpt lat="44.81638421049215" lon="7.311890190734137"><ele>375.0</ele><time>2026-04-16T16:49:29.001Z</time></trkpt><trkpt lat="44.81628353970134" lon="7.311965137392516"><ele>375.0</ele><time>2026-04-16T16:49:31.001Z</time></trkpt><trkpt lat="44.81618408869383" lon="7.312041301006072"><ele>375.0</ele><time>2026-04-16T16:49:33.001Z</time></trkpt><trkpt lat="44.81608499840774" lon="7.312120317459539"><ele>375.0</ele><time>2026-04-16T16:49:35.001Z</time></trkpt><trkpt lat="44.81598236475294" lon="7.312199423715333"><ele>375.5</ele><time>2026-04-16T16:49:37.002Z</time></trkpt><trkpt lat="44.815879920192124" lon="7.3122735993320145"><ele>376.0</ele><time>2026-04-16T16:49:39.002Z</time></trkpt><trkpt lat="44.8157790054701" lon="7.312351231132219"><ele>376.5</ele><time>2026-04-16T16:49:41.002Z</time></trkpt><trkpt lat="44.8156784448278" lon="7.312428284630427"><ele>377.0</ele><time>2026-04-16T16:49:43.002Z</time></trkpt><trkpt lat="44.81557708469051" lon="7.312506496977734"><ele>377.0</ele><time>2026-04-16T16:49:45.002Z</time></trkpt><trkpt lat="44.815475837489025" lon="7.31258411513233"><ele>377.0</ele><time>2026-04-16T16:49:47Z</time></trkpt><trkpt lat="44.81537451543155" lon="7.312658294501626"><ele>377.0</ele><time>2026-04-16T16:49:49Z</time></trkpt><trkpt lat="44.81527361082521" lon="7.312739637314302"><ele>377.0</ele><time>2026-04-16T16:49:51Z</time></trkpt><trkpt lat="44.81517112401733" lon="7.312820733028186"><ele>376.8</ele><time>2026-04-16T16:49:53Z</time></trkpt><trkpt lat="44.815069847469424" lon="7.312895265778669"><ele>376.6</ele><time>2026-04-16T16:49:55Z</time></trkpt><trkpt lat="44.81497071074119" lon="7.312975244213119"><ele>376.40000000000003</ele><time>2026-04-16T16:49:57Z</time></trkpt><trkpt lat="44.81486931466313" lon="7.313048515668058"><ele>376.20000000000005</ele><time>2026-04-16T16:49:59Z</time></trkpt><trkpt lat="44.81477395276282" lon="7.313116650210847"><ele>376.0</ele><time>2026-04-16T16:50:01Z</time></trkpt><trkpt lat="44.814672437377176" lon="7.3131852071813706"><ele>376.0</ele><time>2026-04-16T16:50:03Z</time></trkpt><trkpt lat="44.814573151987695" lon="7.313258000587656"><ele>376.0</ele><time>2026-04-16T16:50:05Z</time></trkpt><trkpt lat="44.81447093220379" lon="7.313335874423213"><ele>376.0</ele><time>2026-04-16T16:50:07Z</time></trkpt><trkpt lat="44.814369760291946" lon="7.313399018691881"><ele>376.0</ele><time>2026-04-16T16:50:09Z</time></trkpt><trkpt lat="44.814263374154415" lon="7.313464842547048"><ele>376.0</ele><time>2026-04-16T16:50:11Z</time></trkpt><trkpt lat="44.81415534591535" lon="7.3135164542236355"><ele>376.0</ele><time>2026-04-16T16:50:13Z</time></trkpt><trkpt lat="44.81404621720773" lon="7.3135719528766305"><ele>376.0</ele><time>2026-04-16T16:50:15Z</time></trkpt><trkpt lat="44.8139375365664" lon="7.313619873270874"><ele>376.0</ele><time>2026-04-16T16:50:17Z</time></trkpt><trkpt lat="44.813827209823685" lon="7.313665600138118"><ele>376.0</ele><time>2026-04-16T16:50:19Z</time></trkpt><trkpt lat="44.813713246684244" lon="7.313715683157351"><ele>376.0</ele><time>2026-04-16T16:50:21Z</time></trkpt><trkpt lat="44.81359724567743" lon="7.313752681280794"><ele>376.0</ele><time>2026-04-16T16:50:23Z</time></trkpt><trkpt lat="44.81347787306669" lon="7.313786762254317"><ele>376.0</ele><time>2026-04-16T16:50:25Z</time></trkpt><trkpt lat="44.8133531069288" lon="7.31382080897145"><ele>375.7142857142857</ele><time>2026-04-16T16:50:27Z</time></trkpt><trkpt lat="44.81329111044965" lon="7.31384051192635"><ele>375.42857142857144</ele><time>2026-04-16T16:50:28Z</time></trkpt><trkpt lat="44.81322765872337" lon="7.313860538678165"><ele>375.1428571428571</ele><time>2026-04-16T16:50:29Z</time></trkpt><trkpt lat="44.81316275824139" lon="7.313878597338278"><ele>374.8571428571429</ele><time>2026-04-16T16:50:30Z</time></trkpt><trkpt lat="44.81309628781029" lon="7.313896524669901"><ele>374.5714285714286</ele><time>2026-04-16T16:50:31Z</time></trkpt><trkpt lat="44.81303057306794" lon="7.313916211827696"><ele>374.2857142857143</ele><time>2026-04-16T16:50:32Z</time></trkpt><trkpt lat="44.81296546994404" lon="7.313934880551956"><ele>374.0</ele><time>2026-04-16T16:50:33Z</time></trkpt><trkpt lat="44.81290165259976" lon="7.313954748900552"><ele>374.0</ele><time>2026-04-16T16:50:34Z</time></trkpt><trkpt lat="44.8128386922506" lon="7.313971151920157"><ele>374.0</ele><time>2026-04-16T16:50:35Z</time></trkpt><trkpt lat="44.81271959254192" lon="7.3140077765169025"><ele>374.0</ele><time>2026-04-16T16:50:37Z</time></trkpt><trkpt lat="44.81260868491036" lon="7.3140464756959"><ele>374.0</ele><time>2026-04-16T16:50:39Z</time></trkpt><trkpt lat="44.81249599707265" lon="7.314077670655327"><ele>374.0</ele><time>2026-04-16T16:50:41.001Z</time></trkpt><trkpt lat="44.812381581354394" lon="7.314109986305992"><ele>374.25</ele><time>2026-04-16T16:50:43.001Z</time></trkpt><trkpt lat="44.8122673444087" lon="7.314147080141661"><ele>374.5</ele><time>2026-04-16T16:50:45.001Z</time></trkpt><trkpt lat="44.81215198536594" lon="7.314181468176566"><ele>374.75</ele><time>2026-04-16T16:50:47.001Z</time></trkpt><trkpt lat="44.812038765645426" lon="7.314212998411188"><ele>375.0</ele><time>2026-04-16T16:50:49.001Z</time></trkpt><trkpt lat="44.81192542945645" lon="7.314248430860887"><ele>375.25</ele><time>2026-04-16T16:50:51.001Z</time></trkpt><trkpt lat="44.811811309204586" lon="7.314279108944221"><ele>375.5</ele><time>2026-04-16T16:50:53.001Z</time></trkpt><trkpt lat="44.81170139659335" lon="7.314321250405241"><ele>375.75</ele><time>2026-04-16T16:50:55.001Z</time></trkpt><trkpt lat="44.81158871483605" lon="7.314351841463146"><ele>376.0</ele><time>2026-04-16T16:50:57.001Z</time></trkpt><trkpt lat="44.811475307355686" lon="7.314385857098582"><ele>376.0</ele><time>2026-04-16T16:50:59.001Z</time></trkpt><trkpt lat="44.81136501245826" lon="7.314420886063592"><ele>376.0</ele><time>2026-04-16T16:51:01.001Z</time></trkpt><trkpt lat="44.81125601946928" lon="7.314452599902888"><ele>376.0</ele><time>2026-04-16T16:51:03.001Z</time></trkpt><trkpt lat="44.81114742868511" lon="7.314481015061384"><ele>376.0</ele><time>2026-04-16T16:51:05.001Z</time></trkpt><trkpt lat="44.81104131246526" lon="7.314518604045808"><ele>376.0</ele><time>2026-04-16T16:51:07.001Z</time></trkpt><trkpt lat="44.81093669198478" lon="7.314553770907935"><ele>376.0</ele><time>2026-04-16T16:51:09.001Z</time></trkpt><trkpt lat="44.81083623202582" lon="7.314587449455322"><ele>376.0</ele><time>2026-04-16T16:51:11.001Z</time></trkpt><trkpt lat="44.81073505158573" lon="7.314613963956345"><ele>376.0</ele><time>2026-04-16T16:51:13.001Z</time></trkpt><trkpt lat="44.81062820604634" lon="7.314640654195068"><ele>376.0</ele><time>2026-04-16T16:51:15.001Z</time></trkpt><trkpt lat="44.810519970634516" lon="7.3146750170082"><ele>376.0</ele><time>2026-04-16T16:51:17.001Z</time></trkpt><trkpt lat="44.810407910593604" lon="7.314709917360255"><ele>375.75</ele><time>2026-04-16T16:51:19.001Z</time></trkpt><trkpt lat="44.810295908367955" lon="7.314740240100191"><ele>375.5</ele><time>2026-04-16T16:51:21.001Z</time></trkpt><trkpt lat="44.81018164453636" lon="7.314774008821823"><ele>375.25</ele><time>2026-04-16T16:51:23.001Z</time></trkpt><trkpt lat="44.81006919744571" lon="7.3148051867204735"><ele>375.0</ele><time>2026-04-16T16:51:25.001Z</time></trkpt><trkpt lat="44.80995529057278" lon="7.314841112342451"><ele>376.75</ele><time>2026-04-16T16:51:27.001Z</time></trkpt><trkpt lat="44.80984325069896" lon="7.314876577949858"><ele>378.5</ele><time>2026-04-16T16:51:29.001Z</time></trkpt><trkpt lat="44.80973012964358" lon="7.314911375492026"><ele>380.25</ele><time>2026-04-16T16:51:31.001Z</time></trkpt><trkpt lat="44.80961689073412" lon="7.31494349896083"><ele>382.0</ele><time>2026-04-16T16:51:33.001Z</time></trkpt><trkpt lat="44.809501586031374" lon="7.314977277475906"><ele>382.0</ele><time>2026-04-16T16:51:35.001Z</time></trkpt><trkpt lat="44.80938787027758" lon="7.315012732410565"><ele>382.0</ele><time>2026-04-16T16:51:37.002Z</time></trkpt><trkpt lat="44.80927494786392" lon="7.315049712000273"><ele>382.0</ele><time>2026-04-16T16:51:39.002Z</time></trkpt><trkpt lat="44.80916210243696" lon="7.315084764211128"><ele>382.0</ele><time>2026-04-16T16:51:41.002Z</time></trkpt><trkpt lat="44.809047973268356" lon="7.315116370271815"><ele>381.25</ele><time>2026-04-16T16:51:43.002Z</time></trkpt><trkpt lat="44.808934355733676" lon="7.315151755053257"><ele>380.5</ele><time>2026-04-16T16:51:45.002Z</time></trkpt><trkpt lat="44.80882139804667" lon="7.315188718022999"><ele>379.75</ele><time>2026-04-16T16:51:47.002Z</time></trkpt><trkpt lat="44.80870962467485" lon="7.315223907410998"><ele>379.0</ele><time>2026-04-16T16:51:49.002Z</time></trkpt><trkpt lat="44.808598100779605" lon="7.315257600715758"><ele>379.0</ele><time>2026-04-16T16:51:51.002Z</time></trkpt><trkpt lat="44.808487183628316" lon="7.3152879316691"><ele>379.0</ele><time>2026-04-16T16:51:53Z</time></trkpt><trkpt lat="44.808375186953825" lon="7.315322558767108"><ele>379.0</ele><time>2026-04-16T16:51:55Z</time></trkpt><trkpt lat="44.80826211284389" lon="7.315357613747574"><ele>379.0</ele><time>2026-04-16T16:51:57Z</time></trkpt><trkpt lat="44.80814874683011" lon="7.31538997877081"><ele>379.0</ele><time>2026-04-16T16:51:59Z</time></trkpt><trkpt lat="44.80803541247183" lon="7.315423488712094"><ele>379.0</ele><time>2026-04-16T16:52:01Z</time></trkpt><trkpt lat="44.807922898049455" lon="7.315455970055824"><ele>379.0</ele><time>2026-04-16T16:52:03Z</time></trkpt><trkpt lat="44.80781015862294" lon="7.315489790355529"><ele>379.0</ele><time>2026-04-16T16:52:05Z</time></trkpt><trkpt lat="44.807696956078416" lon="7.315523149182337"><ele>378.79999999999995</ele><time>2026-04-16T16:52:07Z</time></trkpt><trkpt lat="44.80758501805156" lon="7.315556706214263"><ele>378.59999999999997</ele><time>2026-04-16T16:52:09Z</time></trkpt><trkpt lat="44.80747699640241" lon="7.315585794161838"><ele>378.4</ele><time>2026-04-16T16:52:11Z</time></trkpt><trkpt lat="44.80736868831801" lon="7.315616678324415"><ele>378.2</ele><time>2026-04-16T16:52:13Z</time></trkpt><trkpt lat="44.80725963633457" lon="7.315655419418602"><ele>378.0</ele><time>2026-04-16T16:52:15Z</time></trkpt><trkpt lat="44.80714790540918" lon="7.315690405760168"><ele>378.0</ele><time>2026-04-16T16:52:17Z</time></trkpt><trkpt lat="44.807035295976384" lon="7.31572447538362"><ele>378.0</ele><time>2026-04-16T16:52:19Z</time></trkpt><trkpt lat="44.806923150407385" lon="7.315759450288304"><ele>378.0</ele><time>2026-04-16T16:52:21Z</time></trkpt><trkpt lat="44.80680979691778" lon="7.315794612249765"><ele>378.0</ele><time>2026-04-16T16:52:23Z</time></trkpt><trkpt lat="44.80669382857043" lon="7.315831324165959"><ele>378.5</ele><time>2026-04-16T16:52:25Z</time></trkpt><trkpt lat="44.80658056556952" lon="7.315868704977752"><ele>379.0</ele><time>2026-04-16T16:52:27Z</time></trkpt><trkpt lat="44.80646722330716" lon="7.315905433626735"><ele>379.5</ele><time>2026-04-16T16:52:29Z</time></trkpt><trkpt lat="44.806355142938564" lon="7.315938348340298"><ele>380.0</ele><time>2026-04-16T16:52:31Z</time></trkpt><trkpt lat="44.80624398811469" lon="7.315972600688639"><ele>380.0</ele><time>2026-04-16T16:52:33Z</time></trkpt><trkpt lat="44.80613380374111" lon="7.316004093795114"><ele>380.0</ele><time>2026-04-16T16:52:35Z</time></trkpt><trkpt lat="44.80602333799124" lon="7.316037147529284"><ele>380.0</ele><time>2026-04-16T16:52:37Z</time></trkpt><trkpt lat="44.80591030576371" lon="7.316069823756495"><ele>380.0</ele><time>2026-04-16T16:52:39.001Z</time></trkpt><trkpt lat="44.80579533976162" lon="7.3161039840815825"><ele>379.75</ele><time>2026-04-16T16:52:41.001Z</time></trkpt><trkpt lat="44.80568023889685" lon="7.316140510775215"><ele>379.5</ele><time>2026-04-16T16:52:43.001Z</time></trkpt><trkpt lat="44.80556513027386" lon="7.316175713437333"><ele>379.25</ele><time>2026-04-16T16:52:45.001Z</time></trkpt><trkpt lat="44.80545054897925" lon="7.316211262691324"><ele>379.0</ele><time>2026-04-16T16:52:47.001Z</time></trkpt><trkpt lat="44.805336110376174" lon="7.3162445895065575"><ele>379.0</ele><time>2026-04-16T16:52:49.001Z</time></trkpt><trkpt lat="44.80522098879217" lon="7.316277216279164"><ele>379.0</ele><time>2026-04-16T16:52:51.001Z</time></trkpt><trkpt lat="44.805106272524526" lon="7.316310283961453"><ele>379.0</ele><time>2026-04-16T16:52:53.001Z</time></trkpt><trkpt lat="44.804992263317196" lon="7.316344813945172"><ele>379.0</ele><time>2026-04-16T16:52:55.001Z</time></trkpt><trkpt lat="44.80487699594789" lon="7.3163823427934"><ele>378.0</ele><time>2026-04-16T16:52:57.001Z</time></trkpt><trkpt lat="44.8047617695056" lon="7.316415854557774"><ele>377.0</ele><time>2026-04-16T16:52:59.001Z</time></trkpt><trkpt lat="44.804647299756965" lon="7.316458781623376"><ele>376.0</ele><time>2026-04-16T16:53:01.001Z</time></trkpt><trkpt lat="44.80453344969711" lon="7.3165006982502625"><ele>375.0</ele><time>2026-04-16T16:53:03.001Z</time></trkpt><trkpt lat="44.80442003808779" lon="7.31653341164444"><ele>375.25</ele><time>2026-04-16T16:53:05.001Z</time></trkpt><trkpt lat="44.80430723835929" lon="7.316564978469384"><ele>375.5</ele><time>2026-04-16T16:53:07.001Z</time></trkpt><trkpt lat="44.80419531922424" lon="7.316601489830039"><ele>375.75</ele><time>2026-04-16T16:53:09.001Z</time></trkpt><trkpt lat="44.80408421992669" lon="7.31663628392305"><ele>376.0</ele><time>2026-04-16T16:53:11.001Z</time></trkpt><trkpt lat="44.803973947471526" lon="7.316672287974175"><ele>376.0</ele><time>2026-04-16T16:53:13.001Z</time></trkpt><trkpt lat="44.80385895862776" lon="7.316684925553692"><ele>376.0</ele><time>2026-04-16T16:53:15.001Z</time></trkpt><trkpt lat="44.80374486114301" lon="7.316703350097288"><ele>376.0</ele><time>2026-04-16T16:53:17.001Z</time></trkpt><trkpt lat="44.80363087586657" lon="7.316714576119044"><ele>376.0</ele><time>2026-04-16T16:53:19.001Z</time></trkpt><trkpt lat="44.803517970268906" lon="7.316711508956732"><ele>376.0</ele><time>2026-04-16T16:53:21.001Z</time></trkpt><trkpt lat="44.803407990746855" lon="7.316711789590579"><ele>376.0</ele><time>2026-04-16T16:53:23.001Z</time></trkpt><trkpt lat="44.80329798970832" lon="7.316705911540391"><ele>376.0</ele><time>2026-04-16T16:53:25.001Z</time></trkpt><trkpt lat="44.803191545959834" lon="7.316695304872335"><ele>376.0</ele><time>2026-04-16T16:53:27.001Z</time></trkpt><trkpt lat="44.803094000911045" lon="7.316689994190408"><ele>376.0</ele><time>2026-04-16T16:53:29.001Z</time></trkpt><trkpt lat="44.80301031012447" lon="7.316687544920331"><ele>376.0</ele><time>2026-04-16T16:53:31.001Z</time></trkpt><trkpt lat="44.80294404774654" lon="7.316699502768943"><ele>376.0</ele><time>2026-04-16T16:53:33.001Z</time></trkpt><trkpt lat="44.80289324639" lon="7.316795833886008"><ele>376.0</ele><time>2026-04-16T16:53:36.002Z</time></trkpt><trkpt lat="44.802810490800205" lon="7.31672752987722"><ele>376.0</ele><time>2026-04-16T16:53:39.002Z</time></trkpt><trkpt lat="44.80275866685517" lon="7.31666345832921"><ele>376.0</ele><time>2026-04-16T16:53:41.002Z</time></trkpt><trkpt lat="44.8026553957566" lon="7.316664423770556"><ele>376.0</ele><time>2026-04-16T16:53:43.002Z</time></trkpt><trkpt lat="44.80255016628117" lon="7.316632267805941"><ele>376.0</ele><time>2026-04-16T16:53:45.002Z</time></trkpt><trkpt lat="44.802430773373" lon="7.316617683294668"><ele>376.0</ele><time>2026-04-16T16:53:47.002Z</time></trkpt><trkpt lat="44.802309513030494" lon="7.316604272430098"><ele>376.0</ele><time>2026-04-16T16:53:49.002Z</time></trkpt><trkpt lat="44.80218372043406" lon="7.316595617640385"><ele>376.0</ele><time>2026-04-16T16:53:51.002Z</time></trkpt><trkpt lat="44.80212056387506" lon="7.316590324037623"><ele>376.0</ele><time>2026-04-16T16:53:52.002Z</time></trkpt><trkpt lat="44.80199645364642" lon="7.316584052242402"><ele>376.0</ele><time>2026-04-16T16:53:54.002Z</time></trkpt><trkpt lat="44.80187366846842" lon="7.316573630812846"><ele>376.0</ele><time>2026-04-16T16:53:56.002Z</time></trkpt><trkpt lat="44.80175312828544" lon="7.3165671902730836"><ele>376.0</ele><time>2026-04-16T16:53:58.002Z</time></trkpt><trkpt lat="44.80163482917769" lon="7.316563675885608"><ele>376.0</ele><time>2026-04-16T16:54:00Z</time></trkpt><trkpt lat="44.80151384570563" lon="7.316556851460125"><ele>376.0</ele><time>2026-04-16T16:54:02Z</time></trkpt><trkpt lat="44.8013931580361" lon="7.3165532008924945"><ele>376.0</ele><time>2026-04-16T16:54:04Z</time></trkpt><trkpt lat="44.80127277273566" lon="7.316544292927214"><ele>376.0</ele><time>2026-04-16T16:54:06Z</time></trkpt><trkpt lat="44.801153715324745" lon="7.316542981547132"><ele>376.0</ele><time>2026-04-16T16:54:08Z</time></trkpt><trkpt lat="44.80103111286943" lon="7.316534120951951"><ele>375.25</ele><time>2026-04-16T16:54:10Z</time></trkpt><trkpt lat="44.80091030160006" lon="7.316532307336245"><ele>374.5</ele><time>2026-04-16T16:54:12Z</time></trkpt><trkpt lat="44.80079070260989" lon="7.3165299809634305"><ele>373.75</ele><time>2026-04-16T16:54:14Z</time></trkpt><trkpt lat="44.800670218290186" lon="7.316532479204829"><ele>373.0</ele><time>2026-04-16T16:54:16Z</time></trkpt><trkpt lat="44.80054919583231" lon="7.316531452701103"><ele>373.0</ele><time>2026-04-16T16:54:18Z</time></trkpt><trkpt lat="44.80043051162566" lon="7.316529689210641"><ele>373.0</ele><time>2026-04-16T16:54:20Z</time></trkpt><trkpt lat="44.80031447574782" lon="7.316522876173191"><ele>373.0</ele><time>2026-04-16T16:54:22Z</time></trkpt><trkpt lat="44.800195019334275" lon="7.316512963476246"><ele>373.0</ele><time>2026-04-16T16:54:24Z</time></trkpt><trkpt lat="44.80007648872407" lon="7.316503716519514"><ele>373.0</ele><time>2026-04-16T16:54:26Z</time></trkpt><trkpt lat="44.79995806693682" lon="7.316495914211238"><ele>373.0</ele><time>2026-04-16T16:54:28Z</time></trkpt><trkpt lat="44.79983885978223" lon="7.316487763464304"><ele>373.0</ele><time>2026-04-16T16:54:30Z</time></trkpt><trkpt lat="44.79971833307493" lon="7.316475972120238"><ele>373.0</ele><time>2026-04-16T16:54:32Z</time></trkpt><trkpt lat="44.799600605299865" lon="7.316461831782174"><ele>373.0</ele><time>2026-04-16T16:54:34Z</time></trkpt><trkpt lat="44.799481600182794" lon="7.316458125252735"><ele>373.0</ele><time>2026-04-16T16:54:36Z</time></trkpt><trkpt lat="44.79936326998112" lon="7.31644930895717"><ele>373.0</ele><time>2026-04-16T16:54:38Z</time></trkpt><trkpt lat="44.799245757017836" lon="7.316441042798135"><ele>373.0</ele><time>2026-04-16T16:54:40Z</time></trkpt><trkpt lat="44.79912826352009" lon="7.316435050907797"><ele>373.0</ele><time>2026-04-16T16:54:42Z</time></trkpt><trkpt lat="44.79900934532989" lon="7.31642731240818"><ele>373.0</ele><time>2026-04-16T16:54:44.001Z</time></trkpt><trkpt lat="44.79889113662836" lon="7.316420279869461"><ele>373.0</ele><time>2026-04-16T16:54:46.001Z</time></trkpt><trkpt lat="44.79877227896648" lon="7.31640887460062"><ele>373.0</ele><time>2026-04-16T16:54:48.001Z</time></trkpt><trkpt lat="44.79865263046348" lon="7.31640161583072"><ele>373.0</ele><time>2026-04-16T16:54:50.001Z</time></trkpt><trkpt lat="44.798530934105955" lon="7.316391912229134"><ele>373.0</ele><time>2026-04-16T16:54:52.001Z</time></trkpt><trkpt lat="44.798408235359105" lon="7.316385538963879"><ele>373.0</ele><time>2026-04-16T16:54:54.001Z</time></trkpt><trkpt lat="44.79828630565972" lon="7.31638340533049"><ele>373.0</ele><time>2026-04-16T16:54:56.001Z</time></trkpt><trkpt lat="44.79816370538563" lon="7.316378994055978"><ele>372.25</ele><time>2026-04-16T16:54:58.001Z</time></trkpt><trkpt lat="44.798042398704595" lon="7.316370962537865"><ele>371.5</ele><time>2026-04-16T16:55:00.001Z</time></trkpt><trkpt lat="44.79792231839687" lon="7.316358966181818"><ele>370.75</ele><time>2026-04-16T16:55:02.001Z</time></trkpt><trkpt lat="44.79780047935987" lon="7.316352733954955"><ele>370.0</ele><time>2026-04-16T16:55:04.001Z</time></trkpt><trkpt lat="44.797677843028936" lon="7.31634667835513"><ele>370.0</ele><time>2026-04-16T16:55:06.001Z</time></trkpt><trkpt lat="44.79755587500094" lon="7.316333391508874"><ele>370.0</ele><time>2026-04-16T16:55:08.001Z</time></trkpt><trkpt lat="44.79743249038543" lon="7.316319913861128"><ele>370.0</ele><time>2026-04-16T16:55:10.001Z</time></trkpt><trkpt lat="44.79730900124279" lon="7.316314576967226"><ele>370.0</ele><time>2026-04-16T16:55:12.001Z</time></trkpt><trkpt lat="44.79724559802721" lon="7.3163137530554705"><ele>370.0</ele><time>2026-04-16T16:55:13.001Z</time></trkpt><trkpt lat="44.79712197505873" lon="7.316309192654883"><ele>370.0</ele><time>2026-04-16T16:55:15.001Z</time></trkpt><trkpt lat="44.7969984047143" lon="7.316302830127912"><ele>370.0</ele><time>2026-04-16T16:55:17.001Z</time></trkpt><trkpt lat="44.79687554277528" lon="7.316294896035823"><ele>370.0</ele><time>2026-04-16T16:55:19.001Z</time></trkpt><trkpt lat="44.79675151562409" lon="7.316284846068011"><ele>370.0</ele><time>2026-04-16T16:55:21.001Z</time></trkpt><trkpt lat="44.79662676054176" lon="7.316277415255075"><ele>370.8</ele><time>2026-04-16T16:55:23.001Z</time></trkpt><trkpt lat="44.796501839345694" lon="7.316268560635878"><ele>371.6</ele><time>2026-04-16T16:55:25.001Z</time></trkpt><trkpt lat="44.79637886235282" lon="7.316254009310174"><ele>372.4</ele><time>2026-04-16T16:55:27.001Z</time></trkpt><trkpt lat="44.796255552074776" lon="7.316241138919572"><ele>373.2</ele><time>2026-04-16T16:55:29.001Z</time></trkpt><trkpt lat="44.79619249857772" lon="7.316236467534788"><ele>374.0</ele><time>2026-04-16T16:55:30.001Z</time></trkpt><trkpt lat="44.796071304798666" lon="7.31623695717564"><ele>373.4</ele><time>2026-04-16T16:55:32.001Z</time></trkpt><trkpt lat="44.79595041532722" lon="7.31623628109651"><ele>372.79999999999995</ele><time>2026-04-16T16:55:34.001Z</time></trkpt><trkpt lat="44.795885595586164" lon="7.3162337740927725"><ele>372.20000000000005</ele><time>2026-04-16T16:55:35.001Z</time></trkpt><trkpt lat="44.79582267763713" lon="7.316226274559252"><ele>371.6</ele><time>2026-04-16T16:55:36.001Z</time></trkpt><trkpt lat="44.795700078879094" lon="7.316208622075477"><ele>371.0</ele><time>2026-04-16T16:55:38.001Z</time></trkpt><trkpt lat="44.79557594415816" lon="7.316201658072845"><ele>371.0</ele><time>2026-04-16T16:55:40.001Z</time></trkpt><trkpt lat="44.79545176306771" lon="7.316193439256015"><ele>371.0</ele><time>2026-04-16T16:55:42.001Z</time></trkpt><trkpt lat="44.79532724034687" lon="7.316189267128289"><ele>371.0</ele><time>2026-04-16T16:55:44.001Z</time></trkpt><trkpt lat="44.79526273425587" lon="7.316187108844849"><ele>371.0</ele><time>2026-04-16T16:55:45.002Z</time></trkpt><trkpt lat="44.79519961783323" lon="7.31618543846385"><ele>371.0</ele><time>2026-04-16T16:55:46.002Z</time></trkpt><trkpt lat="44.795135512199415" lon="7.316181021629131"><ele>371.0</ele><time>2026-04-16T16:55:47.002Z</time></trkpt><trkpt lat="44.79501097839552" lon="7.316169607948915"><ele>371.0</ele><time>2026-04-16T16:55:49.002Z</time></trkpt><trkpt lat="44.794885082863836" lon="7.31616293139841"><ele>371.0</ele><time>2026-04-16T16:55:51.002Z</time></trkpt><trkpt lat="44.79482100414415" lon="7.3161585610800675"><ele>371.0</ele><time>2026-04-16T16:55:52.002Z</time></trkpt><trkpt lat="44.79469561456524" lon="7.316149740186816"><ele>371.0</ele><time>2026-04-16T16:55:54.002Z</time></trkpt><trkpt lat="44.79463257470013" lon="7.316144790561042"><ele>371.0</ele><time>2026-04-16T16:55:55.002Z</time></trkpt><trkpt lat="44.79456879112955" lon="7.316141782740197"><ele>371.0</ele><time>2026-04-16T16:55:56.002Z</time></trkpt><trkpt lat="44.79450514909162" lon="7.316137063468911"><ele>371.0</ele><time>2026-04-16T16:55:57.002Z</time></trkpt><trkpt lat="44.79444115211318" lon="7.316133948149453"><ele>371.0</ele><time>2026-04-16T16:55:58.002Z</time></trkpt><trkpt lat="44.794377837861" lon="7.316130959937118"><ele>371.0</ele><time>2026-04-16T16:55:59.002Z</time></trkpt><trkpt lat="44.794314006379516" lon="7.316128293151618"><ele>371.0</ele><time>2026-04-16T16:56:00.002Z</time></trkpt><trkpt lat="44.794249174732066" lon="7.3161233250115085"><ele>371.0</ele><time>2026-04-16T16:56:01.002Z</time></trkpt><trkpt lat="44.79418467129443" lon="7.316118295256296"><ele>371.0</ele><time>2026-04-16T16:56:02.002Z</time></trkpt><trkpt lat="44.79412016606679" lon="7.316112646458813"><ele>371.0</ele><time>2026-04-16T16:56:03.002Z</time></trkpt><trkpt lat="44.79405605913899" lon="7.316108312127004"><ele>370.83333333333337</ele><time>2026-04-16T16:56:04.002Z</time></trkpt><trkpt lat="44.79399282206841" lon="7.316105074254746"><ele>370.6666666666667</ele><time>2026-04-16T16:56:05Z</time></trkpt><trkpt lat="44.79392882573361" lon="7.3161012404573835"><ele>370.5</ele><time>2026-04-16T16:56:06Z</time></trkpt><trkpt lat="44.79386501546522" lon="7.316098849181609"><ele>370.3333333333333</ele><time>2026-04-16T16:56:07Z</time></trkpt><trkpt lat="44.79373783523585" lon="7.316094201781076"><ele>370.16666666666663</ele><time>2026-04-16T16:56:09Z</time></trkpt><trkpt lat="44.793612925444826" lon="7.3160820120472865"><ele>370.0</ele><time>2026-04-16T16:56:11Z</time></trkpt><trkpt lat="44.79354872452254" lon="7.316077139462174"><ele>369.6</ele><time>2026-04-16T16:56:12Z</time></trkpt><trkpt lat="44.793485018917394" lon="7.316073511050178"><ele>369.2</ele><time>2026-04-16T16:56:13Z</time></trkpt><trkpt lat="44.79335983911822" lon="7.316064250953837"><ele>368.79999999999995</ele><time>2026-04-16T16:56:15Z</time></trkpt><trkpt lat="44.79323591694423" lon="7.3160563665808"><ele>368.4</ele><time>2026-04-16T16:56:17Z</time></trkpt><trkpt lat="44.79317200273998" lon="7.31605321908486"><ele>368.0</ele><time>2026-04-16T16:56:18Z</time></trkpt><trkpt lat="44.793047817008755" lon="7.316043511179308"><ele>368.0</ele><time>2026-04-16T16:56:20Z</time></trkpt><trkpt lat="44.79292719751171" lon="7.3160360643230495"><ele>368.0</ele><time>2026-04-16T16:56:22Z</time></trkpt><trkpt lat="44.79280697262174" lon="7.316029323743552"><ele>368.0</ele><time>2026-04-16T16:56:24Z</time></trkpt><trkpt lat="44.79268387747615" lon="7.316020946134682"><ele>368.0</ele><time>2026-04-16T16:56:26Z</time></trkpt><trkpt lat="44.79255974792405" lon="7.316018923220794"><ele>367.25</ele><time>2026-04-16T16:56:28Z</time></trkpt><trkpt lat="44.79243670931302" lon="7.3160114930963385"><ele>366.5</ele><time>2026-04-16T16:56:30Z</time></trkpt><trkpt lat="44.79231344272197" lon="7.316001056255251"><ele>365.75</ele><time>2026-04-16T16:56:32Z</time></trkpt><trkpt lat="44.79219157382687" lon="7.315991003310291"><ele>365.0</ele><time>2026-04-16T16:56:34Z</time></trkpt><trkpt lat="44.792070390634464" lon="7.315984195650008"><ele>365.0</ele><time>2026-04-16T16:56:36Z</time></trkpt><trkpt lat="44.79195100910805" lon="7.315976240713676"><ele>365.0</ele><time>2026-04-16T16:56:38Z</time></trkpt><trkpt lat="44.791830869844084" lon="7.315969543828087"><ele>365.0</ele><time>2026-04-16T16:56:40Z</time></trkpt><trkpt lat="44.79171060143992" lon="7.315957633925099"><ele>365.0</ele><time>2026-04-16T16:56:42Z</time></trkpt><trkpt lat="44.79159098108762" lon="7.315950330165064"><ele>365.25</ele><time>2026-04-16T16:56:44Z</time></trkpt><trkpt lat="44.791471000095214" lon="7.315944948990306"><ele>365.5</ele><time>2026-04-16T16:56:46Z</time></trkpt><trkpt lat="44.791355880587226" lon="7.315935833619792"><ele>365.75</ele><time>2026-04-16T16:56:48Z</time></trkpt><trkpt lat="44.791243054765154" lon="7.315942157105513"><ele>366.0</ele><time>2026-04-16T16:56:50.001Z</time></trkpt><trkpt lat="44.791130691905536" lon="7.315940467330722"><ele>366.0</ele><time>2026-04-16T16:56:52.001Z</time></trkpt><trkpt lat="44.79101319226759" lon="7.315934157037965"><ele>366.0</ele><time>2026-04-16T16:56:54.001Z</time></trkpt><trkpt lat="44.79089588040053" lon="7.315925713899656"><ele>366.0</ele><time>2026-04-16T16:56:56.001Z</time></trkpt><trkpt lat="44.79077837243388" lon="7.315914193670511"><ele>366.0</ele><time>2026-04-16T16:56:58.001Z</time></trkpt><trkpt lat="44.79066267317659" lon="7.3159044023601805"><ele>366.0</ele><time>2026-04-16T16:57:00.001Z</time></trkpt><trkpt lat="44.790550177936346" lon="7.315884685017917"><ele>366.0</ele><time>2026-04-16T16:57:02.001Z</time></trkpt><trkpt lat="44.79043868686556" lon="7.3158693585492"><ele>366.0</ele><time>2026-04-16T16:57:04.001Z</time></trkpt><trkpt lat="44.7903287951641" lon="7.31586433806855"><ele>366.0</ele><time>2026-04-16T16:57:06.001Z</time></trkpt><trkpt lat="44.790218094565006" lon="7.315855756999815"><ele>366.0</ele><time>2026-04-16T16:57:08.001Z</time></trkpt><trkpt lat="44.79010943474188" lon="7.315857445211895"><ele>366.0</ele><time>2026-04-16T16:57:10.001Z</time></trkpt><trkpt lat="44.79000149593693" lon="7.315864473783018"><ele>366.0</ele><time>2026-04-16T16:57:12.001Z</time></trkpt><trkpt lat="44.789892756865015" lon="7.315854609113474"><ele>366.0</ele><time>2026-04-16T16:57:14.001Z</time></trkpt><trkpt lat="44.78977669288965" lon="7.315847224845937"><ele>366.0</ele><time>2026-04-16T16:57:16.001Z</time></trkpt><trkpt lat="44.78965642651659" lon="7.3158411236625005"><ele>366.0</ele><time>2026-04-16T16:57:18.001Z</time></trkpt><trkpt lat="44.78953908797778" lon="7.315832769172645"><ele>366.0</ele><time>2026-04-16T16:57:20.001Z</time></trkpt><trkpt lat="44.789419415067194" lon="7.315828695624663"><ele>366.0</ele><time>2026-04-16T16:57:22.001Z</time></trkpt><trkpt lat="44.789301663506386" lon="7.315818214612337"><ele>366.0</ele><time>2026-04-16T16:57:24.001Z</time></trkpt><trkpt lat="44.78918363591858" lon="7.315797467513557"><ele>366.25</ele><time>2026-04-16T16:57:26.001Z</time></trkpt><trkpt lat="44.78906288003291" lon="7.315783424776132"><ele>366.5</ele><time>2026-04-16T16:57:28.001Z</time></trkpt><trkpt lat="44.78894235898626" lon="7.315773045074227"><ele>366.75</ele><time>2026-04-16T16:57:30.001Z</time></trkpt><trkpt lat="44.78882005922553" lon="7.315758932150033"><ele>367.0</ele><time>2026-04-16T16:57:32.001Z</time></trkpt><trkpt lat="44.78869796164728" lon="7.315748112033809"><ele>367.0</ele><time>2026-04-16T16:57:34.001Z</time></trkpt><trkpt lat="44.78857600813708" lon="7.315725637505229"><ele>367.0</ele><time>2026-04-16T16:57:36.001Z</time></trkpt><trkpt lat="44.78851392160173" lon="7.315710555645117"><ele>367.0</ele><time>2026-04-16T16:57:37.001Z</time></trkpt><trkpt lat="44.78839316220201" lon="7.315673831746809"><ele>367.0</ele><time>2026-04-16T16:57:39.001Z</time></trkpt><trkpt lat="44.788270725584596" lon="7.315637673253824"><ele>367.0</ele><time>2026-04-16T16:57:41.001Z</time></trkpt><trkpt lat="44.78814933247023" lon="7.315602261929164"><ele>367.75</ele><time>2026-04-16T16:57:43.001Z</time></trkpt><trkpt lat="44.78803030467953" lon="7.315557032635256"><ele>368.5</ele><time>2026-04-16T16:57:45.001Z</time></trkpt><trkpt lat="44.78791201261874" lon="7.315513297693164"><ele>369.25</ele><time>2026-04-16T16:57:47.001Z</time></trkpt><trkpt lat="44.78779649144799" lon="7.31545527149758"><ele>370.0</ele><time>2026-04-16T16:57:49.001Z</time></trkpt><trkpt lat="44.78768444323578" lon="7.3153939847689236"><ele>369.5</ele><time>2026-04-16T16:57:51.002Z</time></trkpt><trkpt lat="44.78757069048594" lon="7.315335560649064"><ele>369.0</ele><time>2026-04-16T16:57:53.002Z</time></trkpt><trkpt lat="44.78745651188488" lon="7.315276647383846"><ele>368.5</ele><time>2026-04-16T16:57:55.002Z</time></trkpt><trkpt lat="44.78734528117698" lon="7.315210998288726"><ele>368.0</ele><time>2026-04-16T16:57:57.002Z</time></trkpt><trkpt lat="44.7872360710067" lon="7.315135798523545"><ele>368.0</ele><time>2026-04-16T16:57:59.002Z</time></trkpt><trkpt lat="44.787126706959945" lon="7.315062390567888"><ele>368.0</ele><time>2026-04-16T16:58:01.002Z</time></trkpt><trkpt lat="44.78701536557047" lon="7.314990663787377"><ele>368.0</ele><time>2026-04-16T16:58:03.002Z</time></trkpt><trkpt lat="44.78690418887644" lon="7.3149171128488115"><ele>368.0</ele><time>2026-04-16T16:58:05.002Z</time></trkpt><trkpt lat="44.786792479402" lon="7.314845545104136"><ele>367.5</ele><time>2026-04-16T16:58:07.002Z</time></trkpt><trkpt lat="44.78668159980332" lon="7.3147714347110835"><ele>367.0</ele><time>2026-04-16T16:58:09.002Z</time></trkpt><trkpt lat="44.786569239245075" lon="7.314695629919248"><ele>366.5</ele><time>2026-04-16T16:58:11Z</time></trkpt><trkpt lat="44.786457031050446" lon="7.314617484615241"><ele>366.0</ele><time>2026-04-16T16:58:13Z</time></trkpt><trkpt lat="44.78634576836638" lon="7.314540354485629"><ele>366.0</ele><time>2026-04-16T16:58:15Z</time></trkpt><trkpt lat="44.78623414429627" lon="7.314464027483386"><ele>366.0</ele><time>2026-04-16T16:58:17Z</time></trkpt><trkpt lat="44.78612632981749" lon="7.314388594995222"><ele>366.0</ele><time>2026-04-16T16:58:19Z</time></trkpt><trkpt lat="44.78601203199949" lon="7.31431912101545"><ele>366.0</ele><time>2026-04-16T16:58:21Z</time></trkpt><trkpt lat="44.785902360132475" lon="7.314247992938972"><ele>365.5</ele><time>2026-04-16T16:58:23Z</time></trkpt><trkpt lat="44.78579069168041" lon="7.31416914194378"><ele>365.0</ele><time>2026-04-16T16:58:25Z</time></trkpt><trkpt lat="44.78567788114938" lon="7.31409261471196"><ele>364.5</ele><time>2026-04-16T16:58:27Z</time></trkpt><trkpt lat="44.78556579897573" lon="7.314018990906096"><ele>364.0</ele><time>2026-04-16T16:58:29Z</time></trkpt><trkpt lat="44.78545201097553" lon="7.313943495215735"><ele>364.2</ele><time>2026-04-16T16:58:31Z</time></trkpt><trkpt lat="44.78533949891795" lon="7.313870024999097"><ele>364.4</ele><time>2026-04-16T16:58:33Z</time></trkpt><trkpt lat="44.78522545624188" lon="7.313794874357445"><ele>364.6</ele><time>2026-04-16T16:58:35Z</time></trkpt><trkpt lat="44.785112719218596" lon="7.313719715974758"><ele>364.8</ele><time>2026-04-16T16:58:37Z</time></trkpt><trkpt lat="44.785055717098324" lon="7.3136806338847915"><ele>365.0</ele><time>2026-04-16T16:58:38Z</time></trkpt><trkpt lat="44.78499891166519" lon="7.31364049552816"><ele>365.0</ele><time>2026-04-16T16:58:39Z</time></trkpt><trkpt lat="44.784884317002756" lon="7.313564128238145"><ele>365.0</ele><time>2026-04-16T16:58:41Z</time></trkpt><trkpt lat="44.784826996173905" lon="7.313526763844951"><ele>365.0</ele><time>2026-04-16T16:58:42Z</time></trkpt><trkpt lat="44.78476882573216" lon="7.313489116033049"><ele>365.0</ele><time>2026-04-16T16:58:43Z</time></trkpt><trkpt lat="44.78465412030336" lon="7.313415624582536"><ele>365.0</ele><time>2026-04-16T16:58:45Z</time></trkpt><trkpt lat="44.78459583015997" lon="7.31337902264527"><ele>365.0</ele><time>2026-04-16T16:58:46Z</time></trkpt><trkpt lat="44.78453786171755" lon="7.3133413649318"><ele>365.00000000000006</ele><time>2026-04-16T16:58:47Z</time></trkpt><trkpt lat="44.78442733626906" lon="7.313262617813988"><ele>365.0</ele><time>2026-04-16T16:58:49Z</time></trkpt><trkpt lat="44.7843692913431" lon="7.313223940881024"><ele>365.0</ele><time>2026-04-16T16:58:50Z</time></trkpt><trkpt lat="44.78431088836446" lon="7.313186776875532"><ele>365.0</ele><time>2026-04-16T16:58:51Z</time></trkpt><trkpt lat="44.78425345919984" lon="7.313147735188927"><ele>365.0</ele><time>2026-04-16T16:58:52Z</time></trkpt><trkpt lat="44.78419632813004" lon="7.313108214208742"><ele>365.00000000000006</ele><time>2026-04-16T16:58:53Z</time></trkpt><trkpt lat="44.784138317453525" lon="7.313068951862468"><ele>365.0</ele><time>2026-04-16T16:58:54Z</time></trkpt><trkpt lat="44.78408065579073" lon="7.313031915474661"><ele>365.25</ele><time>2026-04-16T16:58:55Z</time></trkpt><trkpt lat="44.78402337809352" lon="7.312994959479191"><ele>365.5</ele><time>2026-04-16T16:58:56Z</time></trkpt><trkpt lat="44.78396570171377" lon="7.312955878941803"><ele>365.75</ele><time>2026-04-16T16:58:57Z</time></trkpt><trkpt lat="44.78390811827179" lon="7.312916034583927"><ele>366.0</ele><time>2026-04-16T16:58:58Z</time></trkpt><trkpt lat="44.78385032343318" lon="7.312877510981196"><ele>366.25</ele><time>2026-04-16T16:58:59Z</time></trkpt><trkpt lat="44.78379282164078" lon="7.312838721619386"><ele>366.5</ele><time>2026-04-16T16:59:00.001Z</time></trkpt><trkpt lat="44.783735435962335" lon="7.31280077021432"><ele>366.75</ele><time>2026-04-16T16:59:01.001Z</time></trkpt><trkpt lat="44.783678626389666" lon="7.312761428370771"><ele>367.0</ele><time>2026-04-16T16:59:02.001Z</time></trkpt><trkpt lat="44.78362110926161" lon="7.312720989446017"><ele>366.40000000000003</ele><time>2026-04-16T16:59:03.001Z</time></trkpt><trkpt lat="44.7835078580343" lon="7.312646832049171"><ele>365.8</ele><time>2026-04-16T16:59:05.001Z</time></trkpt><trkpt lat="44.78339257845564" lon="7.312574725859548"><ele>365.2</ele><time>2026-04-16T16:59:07.001Z</time></trkpt><trkpt lat="44.78333498015769" lon="7.312537853951065"><ele>364.6</ele><time>2026-04-16T16:59:08.001Z</time></trkpt><trkpt lat="44.78322210364372" lon="7.3124604373866475"><ele>364.0</ele><time>2026-04-16T16:59:10.001Z</time></trkpt><trkpt lat="44.78310880167003" lon="7.312388277666614"><ele>364.0</ele><time>2026-04-16T16:59:12.001Z</time></trkpt><trkpt lat="44.782996279694636" lon="7.31231199477961"><ele>364.0</ele><time>2026-04-16T16:59:14.001Z</time></trkpt><trkpt lat="44.782884012175444" lon="7.312238053822329"><ele>364.0</ele><time>2026-04-16T16:59:16.001Z</time></trkpt><trkpt lat="44.782770969759916" lon="7.3121656585326384"><ele>364.0</ele><time>2026-04-16T16:59:18.001Z</time></trkpt><trkpt lat="44.78271355685674" lon="7.312128685004801"><ele>364.0</ele><time>2026-04-16T16:59:19.001Z</time></trkpt><trkpt lat="44.782603324688836" lon="7.312048855732294"><ele>364.0</ele><time>2026-04-16T16:59:21.001Z</time></trkpt><trkpt lat="44.782490727678955" lon="7.311974083740753"><ele>364.0</ele><time>2026-04-16T16:59:23.001Z</time></trkpt><trkpt lat="44.78243313718299" lon="7.311936674038069"><ele>364.0</ele><time>2026-04-16T16:59:24.001Z</time></trkpt><trkpt lat="44.78231978619547" lon="7.311862984235681"><ele>364.0</ele><time>2026-04-16T16:59:26.001Z</time></trkpt><trkpt lat="44.78220774158809" lon="7.311788676250873"><ele>364.0</ele><time>2026-04-16T16:59:28.001Z</time></trkpt><trkpt lat="44.782096910992" lon="7.311716350617822"><ele>364.0</ele><time>2026-04-16T16:59:30.001Z</time></trkpt><trkpt lat="44.78198549932279" lon="7.311643501224953"><ele>364.0</ele><time>2026-04-16T16:59:32.001Z</time></trkpt><trkpt lat="44.78187513447371" lon="7.311573605354447"><ele>364.0</ele><time>2026-04-16T16:59:34.001Z</time></trkpt><trkpt lat="44.78176279239961" lon="7.311499548893447"><ele>364.0</ele><time>2026-04-16T16:59:36.001Z</time></trkpt><trkpt lat="44.78165148268412" lon="7.3114259334560305"><ele>364.0</ele><time>2026-04-16T16:59:38.001Z</time></trkpt><trkpt lat="44.78153866054696" lon="7.311349539389602"><ele>364.0</ele><time>2026-04-16T16:59:40.001Z</time></trkpt><trkpt lat="44.78142556089972" lon="7.311273628321553"><ele>364.0</ele><time>2026-04-16T16:59:42.001Z</time></trkpt><trkpt lat="44.78131207906933" lon="7.311198054548594"><ele>364.0</ele><time>2026-04-16T16:59:44.001Z</time></trkpt><trkpt lat="44.78119861618133" lon="7.3111245784869405"><ele>364.0</ele><time>2026-04-16T16:59:46.001Z</time></trkpt><trkpt lat="44.78108459824968" lon="7.311053029056415"><ele>364.0</ele><time>2026-04-16T16:59:48.001Z</time></trkpt><trkpt lat="44.781027619310755" lon="7.311014674504403"><ele>364.0</ele><time>2026-04-16T16:59:49.001Z</time></trkpt><trkpt lat="44.78097045210266" lon="7.310976234504052"><ele>364.0</ele><time>2026-04-16T16:59:50.001Z</time></trkpt><trkpt lat="44.7808586302243" lon="7.310901408238641"><ele>364.0</ele><time>2026-04-16T16:59:52.001Z</time></trkpt><trkpt lat="44.780746388518736" lon="7.310822632489947"><ele>363.8333333333333</ele><time>2026-04-16T16:59:54.001Z</time></trkpt><trkpt lat="44.7806324048288" lon="7.310749528911071"><ele>363.66666666666663</ele><time>2026-04-16T16:59:56.001Z</time></trkpt><trkpt lat="44.780575220772285" lon="7.310711008962587"><ele>363.5</ele><time>2026-04-16T16:59:57.001Z</time></trkpt><trkpt lat="44.78051802678225" lon="7.310673728527997"><ele>363.3333333333333</ele><time>2026-04-16T16:59:58.001Z</time></trkpt><trkpt lat="44.78040519359197" lon="7.310597166126036"><ele>363.1666666666667</ele><time>2026-04-16T17:00:00.001Z</time></trkpt><trkpt lat="44.78034801872353" lon="7.310558617282146"><ele>363.0</ele><time>2026-04-16T17:00:01.001Z</time></trkpt><trkpt lat="44.78029140657432" lon="7.310519736312503"><ele>362.5</ele><time>2026-04-16T17:00:02.001Z</time></trkpt><trkpt lat="44.78017886223994" lon="7.310444990970831"><ele>362.0</ele><time>2026-04-16T17:00:04.002Z</time></trkpt><trkpt lat="44.78012134514001" lon="7.310406825733789"><ele>361.5</ele><time>2026-04-16T17:00:05.002Z</time></trkpt><trkpt lat="44.780063893669556" lon="7.310368371471544"><ele>361.0</ele><time>2026-04-16T17:00:06.002Z</time></trkpt><trkpt lat="44.78000649174818" lon="7.3103308068762045"><ele>360.5</ele><time>2026-04-16T17:00:07.002Z</time></trkpt><trkpt lat="44.77989009850889" lon="7.310263736802546"><ele>360.0</ele><time>2026-04-16T17:00:09.002Z</time></trkpt><trkpt lat="44.77983094123964" lon="7.31023177790078"><ele>360.0</ele><time>2026-04-16T17:00:10.002Z</time></trkpt><trkpt lat="44.77977179792085" lon="7.310199093155665"><ele>360.0</ele><time>2026-04-16T17:00:11.002Z</time></trkpt><trkpt lat="44.77965424908945" lon="7.310135798572863"><ele>360.0</ele><time>2026-04-16T17:00:13.002Z</time></trkpt><trkpt lat="44.77959423220267" lon="7.310104584129324"><ele>360.0</ele><time>2026-04-16T17:00:14.002Z</time></trkpt><trkpt lat="44.7794746517856" lon="7.3100506397279785"><ele>360.0</ele><time>2026-04-16T17:00:16.002Z</time></trkpt><trkpt lat="44.779354312396" lon="7.310007993136915"><ele>360.0</ele><time>2026-04-16T17:00:18Z</time></trkpt><trkpt lat="44.77923333170502" lon="7.309967690197574"><ele>360.0</ele><time>2026-04-16T17:00:20Z</time></trkpt><trkpt lat="44.779112170750714" lon="7.309924532417203"><ele>360.0</ele><time>2026-04-16T17:00:22Z</time></trkpt><trkpt lat="44.77905072565067" lon="7.3099041952826775"><ele>360.0</ele><time>2026-04-16T17:00:23Z</time></trkpt><trkpt lat="44.77898854019378" lon="7.309885894741325"><ele>360.0</ele><time>2026-04-16T17:00:24Z</time></trkpt><trkpt lat="44.77892634933037" lon="7.309869028054886"><ele>360.0</ele><time>2026-04-16T17:00:25Z</time></trkpt><trkpt lat="44.77886378074797" lon="7.309852479292289"><ele>360.0</ele><time>2026-04-16T17:00:26Z</time></trkpt><trkpt lat="44.778800783650155" lon="7.309843159604683"><ele>360.0</ele><time>2026-04-16T17:00:27Z</time></trkpt><trkpt lat="44.77867645859572" lon="7.309824950710088"><ele>360.0</ele><time>2026-04-16T17:00:29Z</time></trkpt><trkpt lat="44.77861327864416" lon="7.309816544024884"><ele>360.0</ele><time>2026-04-16T17:00:30Z</time></trkpt><trkpt lat="44.778488515856154" lon="7.309804047105239"><ele>360.0</ele><time>2026-04-16T17:00:32Z</time></trkpt><trkpt lat="44.77836359187096" lon="7.309789637584008"><ele>359.85714285714283</ele><time>2026-04-16T17:00:34Z</time></trkpt><trkpt lat="44.77824015627631" lon="7.309787039047076"><ele>359.7142857142857</ele><time>2026-04-16T17:00:36Z</time></trkpt><trkpt lat="44.778175855588046" lon="7.309788996967545"><ele>359.57142857142856</ele><time>2026-04-16T17:00:37Z</time></trkpt><trkpt lat="44.778112437752746" lon="7.309788059569841"><ele>359.42857142857144</ele><time>2026-04-16T17:00:38Z</time></trkpt><trkpt lat="44.7780484064128" lon="7.309790657374646"><ele>359.28571428571433</ele><time>2026-04-16T17:00:39Z</time></trkpt><trkpt lat="44.777985105627685" lon="7.309792792080602"><ele>359.14285714285717</ele><time>2026-04-16T17:00:40Z</time></trkpt><trkpt lat="44.77792209240519" lon="7.309795487892595"><ele>359.0</ele><time>2026-04-16T17:00:41Z</time></trkpt><trkpt lat="44.77785721264134" lon="7.309800037607392"><ele>359.0</ele><time>2026-04-16T17:00:42Z</time></trkpt><trkpt lat="44.777793194345286" lon="7.309805681943215"><ele>359.0</ele><time>2026-04-16T17:00:43Z</time></trkpt><trkpt lat="44.77772852338281" lon="7.309814103659343"><ele>359.0</ele><time>2026-04-16T17:00:44Z</time></trkpt><trkpt lat="44.777664276091414" lon="7.309823793465688"><ele>359.0</ele><time>2026-04-16T17:00:45Z</time></trkpt><trkpt lat="44.77759961832606" lon="7.309832893292864"><ele>359.0</ele><time>2026-04-16T17:00:46Z</time></trkpt><trkpt lat="44.7775349004653" lon="7.309840978151555"><ele>359.0</ele><time>2026-04-16T17:00:47Z</time></trkpt><trkpt lat="44.77746960993399" lon="7.309850190614906"><ele>359.0</ele><time>2026-04-16T17:00:48Z</time></trkpt><trkpt lat="44.77740424261864" lon="7.309858718656128"><ele>359.0</ele><time>2026-04-16T17:00:49Z</time></trkpt><trkpt lat="44.77734056521227" lon="7.309867613786807"><ele>359.0</ele><time>2026-04-16T17:00:50Z</time></trkpt><trkpt lat="44.77727589309119" lon="7.309877782001746"><ele>359.0</ele><time>2026-04-16T17:00:51Z</time></trkpt><trkpt lat="44.777212265093986" lon="7.309885870852274"><ele>359.0</ele><time>2026-04-16T17:00:52Z</time></trkpt><trkpt lat="44.77714785752315" lon="7.309892313463184"><ele>359.0</ele><time>2026-04-16T17:00:53Z</time></trkpt><trkpt lat="44.777083763652556" lon="7.309902084413791"><ele>359.0</ele><time>2026-04-16T17:00:54Z</time></trkpt><trkpt lat="44.77701962814437" lon="7.309911142039269"><ele>359.0</ele><time>2026-04-16T17:00:55Z</time></trkpt><trkpt lat="44.77695542029928" lon="7.3099191511822195"><ele>359.0</ele><time>2026-04-16T17:00:56Z</time></trkpt><trkpt lat="44.77689157934241" lon="7.309927689915661"><ele>359.0</ele><time>2026-04-16T17:00:57Z</time></trkpt><trkpt lat="44.776828022277996" lon="7.309937388835813"><ele>359.0</ele><time>2026-04-16T17:00:58Z</time></trkpt><trkpt lat="44.77670522951783" lon="7.3099541807725705"><ele>359.0</ele><time>2026-04-16T17:01:00Z</time></trkpt><trkpt lat="44.776580709692794" lon="7.309971666743144"><ele>359.0</ele><time>2026-04-16T17:01:02Z</time></trkpt><trkpt lat="44.77651600070464" lon="7.309979848224138"><ele>359.0</ele><time>2026-04-16T17:01:03Z</time></trkpt><trkpt lat="44.77638857472639" lon="7.309996104440253"><ele>359.125</ele><time>2026-04-16T17:01:05Z</time></trkpt><trkpt lat="44.776325124070944" lon="7.310004291407967"><ele>359.25</ele><time>2026-04-16T17:01:06Z</time></trkpt><trkpt lat="44.77626102008674" lon="7.310015515356912"><ele>359.375</ele><time>2026-04-16T17:01:07Z</time></trkpt><trkpt lat="44.77619783453127" lon="7.310027340847287"><ele>359.5</ele><time>2026-04-16T17:01:08Z</time></trkpt><trkpt lat="44.77613390110793" lon="7.3100364220283485"><ele>359.625</ele><time>2026-04-16T17:01:09Z</time></trkpt><trkpt lat="44.7760692815473" lon="7.310043917051545"><ele>359.75</ele><time>2026-04-16T17:01:10Z</time></trkpt><trkpt lat="44.77600606615409" lon="7.3100530612816055"><ele>359.875</ele><time>2026-04-16T17:01:11Z</time></trkpt><trkpt lat="44.77594200467448" lon="7.310061937540306"><ele>360.0</ele><time>2026-04-16T17:01:12Z</time></trkpt><trkpt lat="44.775877315324465" lon="7.310068146615531"><ele>360.0</ele><time>2026-04-16T17:01:13Z</time></trkpt><trkpt lat="44.775813617861104" lon="7.310075329070193"><ele>360.0</ele><time>2026-04-16T17:01:14Z</time></trkpt><trkpt lat="44.7757498190434" lon="7.310083382991762"><ele>360.0</ele><time>2026-04-16T17:01:15Z</time></trkpt><trkpt lat="44.77568498541279" lon="7.31009184193196"><ele>360.0</ele><time>2026-04-16T17:01:16Z</time></trkpt><trkpt lat="44.7756215520185" lon="7.310098134000027"><ele>360.0</ele><time>2026-04-16T17:01:17Z</time></trkpt><trkpt lat="44.77555821784773" lon="7.310105154578942"><ele>360.0</ele><time>2026-04-16T17:01:18Z</time></trkpt><trkpt lat="44.77549492841947" lon="7.310113891576479"><ele>360.0</ele><time>2026-04-16T17:01:19Z</time></trkpt><trkpt lat="44.77543179010679" lon="7.310122419836326"><ele>360.0</ele><time>2026-04-16T17:01:20Z</time></trkpt><trkpt lat="44.77530726482342" lon="7.310138044440188"><ele>359.8333333333333</ele><time>2026-04-16T17:01:22Z</time></trkpt><trkpt lat="44.775182208204924" lon="7.310154974102329"><ele>359.6666666666667</ele><time>2026-04-16T17:01:24Z</time></trkpt><trkpt lat="44.77511881037933" lon="7.310165086052363"><ele>359.5</ele><time>2026-04-16T17:01:25Z</time></trkpt><trkpt lat="44.774994030326475" lon="7.310182090915734"><ele>359.33333333333337</ele><time>2026-04-16T17:01:27Z</time></trkpt><trkpt lat="44.77493106566732" lon="7.3101927646659925"><ele>359.1666666666667</ele><time>2026-04-16T17:01:28Z</time></trkpt><trkpt lat="44.774868543199666" lon="7.3102031971055235"><ele>359.0</ele><time>2026-04-16T17:01:29Z</time></trkpt><trkpt lat="44.77474311441535" lon="7.310218674272502"><ele>359.0</ele><time>2026-04-16T17:01:31Z</time></trkpt><trkpt lat="44.77467963328281" lon="7.310224756090109"><ele>359.0</ele><time>2026-04-16T17:01:32Z</time></trkpt><trkpt lat="44.77461674377214" lon="7.310232488120018"><ele>359.0</ele><time>2026-04-16T17:01:33Z</time></trkpt><trkpt lat="44.774553637696705" lon="7.3102417494427705"><ele>359.0</ele><time>2026-04-16T17:01:34Z</time></trkpt><trkpt lat="44.774427713053186" lon="7.3102615616292335"><ele>359.0</ele><time>2026-04-16T17:01:36Z</time></trkpt><trkpt lat="44.77430267681581" lon="7.310276258069536"><ele>359.0</ele><time>2026-04-16T17:01:38Z</time></trkpt><trkpt lat="44.774179794636645" lon="7.31029695911458"><ele>358.75</ele><time>2026-04-16T17:01:40Z</time></trkpt><trkpt lat="44.774057527361364" lon="7.310313220793587"><ele>358.5</ele><time>2026-04-16T17:01:42Z</time></trkpt><trkpt lat="44.773935661873075" lon="7.310326091748772"><ele>358.25</ele><time>2026-04-16T17:01:44Z</time></trkpt><trkpt lat="44.773816073174835" lon="7.310343306779822"><ele>358.0</ele><time>2026-04-16T17:01:46Z</time></trkpt><trkpt lat="44.77369531953267" lon="7.310359579165575"><ele>358.0</ele><time>2026-04-16T17:01:48Z</time></trkpt><trkpt lat="44.773588437328925" lon="7.310373268654098"><ele>358.0</ele><time>2026-04-16T17:01:50Z</time></trkpt><trkpt lat="44.773493937237056" lon="7.310385782321448"><ele>358.0</ele><time>2026-04-16T17:01:52Z</time></trkpt><trkpt lat="44.773411044867444" lon="7.310397371902315"><ele>358.0</ele><time>2026-04-16T17:01:54Z</time></trkpt><trkpt lat="44.77332301468895" lon="7.310408653698302"><ele>358.0</ele><time>2026-04-16T17:01:56Z</time></trkpt><trkpt lat="44.77321176377077" lon="7.310425600515256"><ele>358.3333333333333</ele><time>2026-04-16T17:01:58Z</time></trkpt><trkpt lat="44.77307824445309" lon="7.310439120198401"><ele>358.66666666666663</ele><time>2026-04-16T17:02:00Z</time></trkpt><trkpt lat="44.773002398578285" lon="7.310449239863595"><ele>359.0</ele><time>2026-04-16T17:02:01Z</time></trkpt><trkpt lat="44.77293186467578" lon="7.310461418821334"><ele>359.3333333333333</ele><time>2026-04-16T17:02:02Z</time></trkpt><trkpt lat="44.772863323211865" lon="7.3104727811890635"><ele>359.6666666666667</ele><time>2026-04-16T17:02:03Z</time></trkpt><trkpt lat="44.7727961918316" lon="7.310479790974926"><ele>360.0</ele><time>2026-04-16T17:02:04.001Z</time></trkpt><trkpt lat="44.77273167610717" lon="7.31048716356758"><ele>359.8</ele><time>2026-04-16T17:02:05.001Z</time></trkpt><trkpt lat="44.772664968175214" lon="7.31049748112022"><ele>359.6</ele><time>2026-04-16T17:02:06.001Z</time></trkpt><trkpt lat="44.77254144729409" lon="7.310512128294597"><ele>359.4</ele><time>2026-04-16T17:02:08.001Z</time></trkpt><trkpt lat="44.77242068660227" lon="7.310531637967552"><ele>359.2</ele><time>2026-04-16T17:02:10.001Z</time></trkpt><trkpt lat="44.77230158239989" lon="7.310548408205955"><ele>359.0</ele><time>2026-04-16T17:02:12.001Z</time></trkpt><trkpt lat="44.77218608172077" lon="7.310563384982672"><ele>359.0</ele><time>2026-04-16T17:02:14.001Z</time></trkpt><trkpt lat="44.77207020468124" lon="7.310578849419294"><ele>359.0</ele><time>2026-04-16T17:02:16.001Z</time></trkpt><trkpt lat="44.771955312872194" lon="7.310593103725074"><ele>359.0</ele><time>2026-04-16T17:02:18.001Z</time></trkpt><trkpt lat="44.7718413531944" lon="7.310608154705428"><ele>359.0</ele><time>2026-04-16T17:02:20.001Z</time></trkpt><trkpt lat="44.77172638905607" lon="7.3106229369446245"><ele>359.0</ele><time>2026-04-16T17:02:22.001Z</time></trkpt><trkpt lat="44.771612598050105" lon="7.310638078089755"><ele>359.0</ele><time>2026-04-16T17:02:23.999Z</time></trkpt><trkpt lat="44.77149722938248" lon="7.310655455753699"><ele>359.0</ele><time>2026-04-16T17:02:25.999Z</time></trkpt><trkpt lat="44.771385681170045" lon="7.3106710055099855"><ele>359.0</ele><time>2026-04-16T17:02:27.999Z</time></trkpt><trkpt lat="44.7712750911657" lon="7.310684919642542"><ele>359.0</ele><time>2026-04-16T17:02:29.999Z</time></trkpt><trkpt lat="44.77116296129102" lon="7.310703414719155"><ele>359.0</ele><time>2026-04-16T17:02:31.999Z</time></trkpt><trkpt lat="44.77105225751885" lon="7.3107134770001085"><ele>359.0</ele><time>2026-04-16T17:02:34Z</time></trkpt><trkpt lat="44.77094206431207" lon="7.3107288987065395"><ele>359.0</ele><time>2026-04-16T17:02:36Z</time></trkpt><trkpt lat="44.77083017374057" lon="7.310745496991959"><ele>359.0</ele><time>2026-04-16T17:02:38Z</time></trkpt><trkpt lat="44.77071663466685" lon="7.31075871755019"><ele>359.6</ele><time>2026-04-16T17:02:40Z</time></trkpt><trkpt lat="44.77060355865761" lon="7.310777343784783"><ele>360.2</ele><time>2026-04-16T17:02:42Z</time></trkpt><trkpt lat="44.770489711280085" lon="7.310791958468474"><ele>360.8</ele><time>2026-04-16T17:02:44Z</time></trkpt><trkpt lat="44.77037889311746" lon="7.310808851555917"><ele>361.40000000000003</ele><time>2026-04-16T17:02:46Z</time></trkpt><trkpt lat="44.77027557823598" lon="7.310821627755734"><ele>362.0</ele><time>2026-04-16T17:02:48Z</time></trkpt><trkpt lat="44.770185410390276" lon="7.310828044175851"><ele>362.20000000000005</ele><time>2026-04-16T17:02:50Z</time></trkpt><trkpt lat="44.7700878064888" lon="7.310844672117742"><ele>362.4</ele><time>2026-04-16T17:02:52Z</time></trkpt><trkpt lat="44.76997877864012" lon="7.310863664861978"><ele>362.6</ele><time>2026-04-16T17:02:54Z</time></trkpt><trkpt lat="44.76986487101494" lon="7.3108768361705785"><ele>362.79999999999995</ele><time>2026-04-16T17:02:56Z</time></trkpt><trkpt lat="44.76974646677567" lon="7.310887357000218"><ele>363.0</ele><time>2026-04-16T17:02:58Z</time></trkpt><trkpt lat="44.769628805106755" lon="7.310902186007393"><ele>363.0</ele><time>2026-04-16T17:03:00Z</time></trkpt><trkpt lat="44.76951067736875" lon="7.310917491498275"><ele>363.0</ele><time>2026-04-16T17:03:02Z</time></trkpt><trkpt lat="44.76939566027932" lon="7.3109330254287315"><ele>363.0</ele><time>2026-04-16T17:03:04Z</time></trkpt><trkpt lat="44.76928046937873" lon="7.310948296243341"><ele>363.0</ele><time>2026-04-16T17:03:06Z</time></trkpt><trkpt lat="44.76916704690057" lon="7.310963704107372"><ele>362.2</ele><time>2026-04-16T17:03:08Z</time></trkpt><trkpt lat="44.7690549929232" lon="7.310981484456358"><ele>361.4</ele><time>2026-04-16T17:03:10Z</time></trkpt><trkpt lat="44.768941447505334" lon="7.310995608664383"><ele>360.59999999999997</ele><time>2026-04-16T17:03:12Z</time></trkpt><trkpt lat="44.76883127041866" lon="7.311008913453274"><ele>359.79999999999995</ele><time>2026-04-16T17:03:14Z</time></trkpt><trkpt lat="44.76872610255797" lon="7.311026022133625"><ele>359.0</ele><time>2026-04-16T17:03:16.001Z</time></trkpt><trkpt lat="44.76862809593475" lon="7.311051455830388"><ele>359.0</ele><time>2026-04-16T17:03:18.001Z</time></trkpt><trkpt lat="44.76853966916154" lon="7.311066281252056"><ele>359.0</ele><time>2026-04-16T17:03:20.001Z</time></trkpt><trkpt lat="44.76845192683619" lon="7.311059191071834"><ele>359.0</ele><time>2026-04-16T17:03:22.001Z</time></trkpt><trkpt lat="44.76835738529871" lon="7.311065613125173"><ele>359.0</ele><time>2026-04-16T17:03:24.001Z</time></trkpt><trkpt lat="44.768251462332834" lon="7.311084291520372"><ele>359.0</ele><time>2026-04-16T17:03:26.001Z</time></trkpt><trkpt lat="44.76814012805837" lon="7.311097700999655"><ele>359.0</ele><time>2026-04-16T17:03:28.001Z</time></trkpt><trkpt lat="44.76802467358282" lon="7.31111634766487"><ele>359.0</ele><time>2026-04-16T17:03:30.001Z</time></trkpt><trkpt lat="44.76791076710253" lon="7.311127448684655"><ele>359.0</ele><time>2026-04-16T17:03:32.001Z</time></trkpt><trkpt lat="44.76778531699203" lon="7.311144013210898"><ele>359.0</ele><time>2026-04-16T17:03:34.001Z</time></trkpt><trkpt lat="44.767663628368894" lon="7.311161220406447"><ele>358.25</ele><time>2026-04-16T17:03:36.001Z</time></trkpt><trkpt lat="44.76754309258629" lon="7.311176436166791"><ele>357.5</ele><time>2026-04-16T17:03:38.001Z</time></trkpt><trkpt lat="44.76741954087264" lon="7.3111956780038225"><ele>356.75</ele><time>2026-04-16T17:03:40.001Z</time></trkpt><trkpt lat="44.76729726025457" lon="7.311214974580353"><ele>356.0</ele><time>2026-04-16T17:03:42.001Z</time></trkpt><trkpt lat="44.76717474479075" lon="7.311233170012715"><ele>356.0</ele><time>2026-04-16T17:03:44.001Z</time></trkpt><trkpt lat="44.76705440280774" lon="7.311258348330337"><ele>356.0</ele><time>2026-04-16T17:03:46.001Z</time></trkpt><trkpt lat="44.76693261148219" lon="7.311284363069114"><ele>356.0</ele><time>2026-04-16T17:03:48.001Z</time></trkpt><trkpt lat="44.76681098137754" lon="7.311317846574775"><ele>356.0</ele><time>2026-04-16T17:03:50.001Z</time></trkpt><trkpt lat="44.76669143437954" lon="7.311356855396229"><ele>356.0</ele><time>2026-04-16T17:03:52.001Z</time></trkpt><trkpt lat="44.766573695984434" lon="7.31140224443583"><ele>356.0</ele><time>2026-04-16T17:03:54.001Z</time></trkpt><trkpt lat="44.76645536917544" lon="7.31145493826405"><ele>356.0</ele><time>2026-04-16T17:03:56.001Z</time></trkpt><trkpt lat="44.766339408428315" lon="7.311511054683946"><ele>356.0</ele><time>2026-04-16T17:03:58.001Z</time></trkpt><trkpt lat="44.766226245978096" lon="7.31157017833879"><ele>356.0</ele><time>2026-04-16T17:04:00.001Z</time></trkpt><trkpt lat="44.76611696056797" lon="7.311639437556769"><ele>356.0</ele><time>2026-04-16T17:04:02.001Z</time></trkpt><trkpt lat="44.766009679655305" lon="7.311713075055325"><ele>356.0</ele><time>2026-04-16T17:04:04.001Z</time></trkpt><trkpt lat="44.76590390102717" lon="7.311783953878474"><ele>356.0</ele><time>2026-04-16T17:04:06.001Z</time></trkpt><trkpt lat="44.7658011224762" lon="7.311859581898589"><ele>356.5</ele><time>2026-04-16T17:04:08.001Z</time></trkpt><trkpt lat="44.7657041022873" lon="7.311944080414894"><ele>357.0</ele><time>2026-04-16T17:04:10.001Z</time></trkpt><trkpt lat="44.76560626604398" lon="7.312031826529506"><ele>357.5</ele><time>2026-04-16T17:04:12.001Z</time></trkpt><trkpt lat="44.76550971874192" lon="7.312124018523018"><ele>358.0</ele><time>2026-04-16T17:04:14.001Z</time></trkpt><trkpt lat="44.76541737107048" lon="7.312221854882469"><ele>358.0</ele><time>2026-04-16T17:04:16.001Z</time></trkpt><trkpt lat="44.76532615607148" lon="7.312318143666675"><ele>358.0</ele><time>2026-04-16T17:04:18.001Z</time></trkpt><trkpt lat="44.76524097526511" lon="7.312422869423548"><ele>358.0</ele><time>2026-04-16T17:04:20.001Z</time></trkpt><trkpt lat="44.76515401541356" lon="7.312526294988829"><ele>358.0</ele><time>2026-04-16T17:04:22.002Z</time></trkpt><trkpt lat="44.765069649322186" lon="7.312636087557892"><ele>358.0</ele><time>2026-04-16T17:04:24.002Z</time></trkpt><trkpt lat="44.76498365357348" lon="7.31274561397319"><ele>358.0</ele><time>2026-04-16T17:04:26.002Z</time></trkpt><trkpt lat="44.764898185034795" lon="7.312856544198367"><ele>358.0</ele><time>2026-04-16T17:04:28.002Z</time></trkpt><trkpt lat="44.764810360215506" lon="7.312960945756773"><ele>358.0</ele><time>2026-04-16T17:04:30Z</time></trkpt><trkpt lat="44.76472162942586" lon="7.313068837799346"><ele>357.5</ele><time>2026-04-16T17:04:32Z</time></trkpt><trkpt lat="44.764631010289236" lon="7.31317585795052"><ele>357.0</ele><time>2026-04-16T17:04:34Z</time></trkpt><trkpt lat="44.764542218398994" lon="7.313282981551528"><ele>356.5</ele><time>2026-04-16T17:04:36Z</time></trkpt><trkpt lat="44.76445543106411" lon="7.313389043827523"><ele>356.0</ele><time>2026-04-16T17:04:38Z</time></trkpt><trkpt lat="44.764365760844896" lon="7.3134945033757655"><ele>356.75</ele><time>2026-04-16T17:04:40Z</time></trkpt><trkpt lat="44.76427684874213" lon="7.313600253890858"><ele>357.5</ele><time>2026-04-16T17:04:42Z</time></trkpt><trkpt lat="44.764188392696425" lon="7.313705326009886"><ele>358.25</ele><time>2026-04-16T17:04:44Z</time></trkpt><trkpt lat="44.764102466533046" lon="7.313813458513646"><ele>359.0</ele><time>2026-04-16T17:04:46Z</time></trkpt><trkpt lat="44.764017798988675" lon="7.313919047360717"><ele>359.0</ele><time>2026-04-16T17:04:48Z</time></trkpt><trkpt lat="44.76394583465558" lon="7.314025540338682"><ele>359.0</ele><time>2026-04-16T17:04:50Z</time></trkpt><trkpt lat="44.76386499874085" lon="7.314064623792262"><ele>359.0</ele><time>2026-04-16T17:04:52Z</time></trkpt><trkpt lat="44.76380341519183" lon="7.314011895870568"><ele>359.0</ele><time>2026-04-16T17:04:54Z</time></trkpt><trkpt lat="44.76378483434199" lon="7.313908919556972"><ele>359.0</ele><time>2026-04-16T17:04:56Z</time></trkpt><trkpt lat="44.763733527721925" lon="7.3138051786447065"><ele>359.0</ele><time>2026-04-16T17:04:59Z</time></trkpt><trkpt lat="44.7636611075657" lon="7.313857148127501"><ele>359.0</ele><time>2026-04-16T17:05:01Z</time></trkpt><trkpt lat="44.763604469076526" lon="7.313966196014014"><ele>359.0</ele><time>2026-04-16T17:05:03Z</time></trkpt><trkpt lat="44.76353064393303" lon="7.314051616682997"><ele>359.0</ele><time>2026-04-16T17:05:05Z</time></trkpt><trkpt lat="44.76345883148964" lon="7.314141122951264"><ele>359.0</ele><time>2026-04-16T17:05:07Z</time></trkpt><trkpt lat="44.76338607069743" lon="7.314235272472235"><ele>359.0</ele><time>2026-04-16T17:05:09Z</time></trkpt><trkpt lat="44.76331445157546" lon="7.314326065193595"><ele>359.4</ele><time>2026-04-16T17:05:11Z</time></trkpt><trkpt lat="44.76324227103545" lon="7.314416033176125"><ele>359.79999999999995</ele><time>2026-04-16T17:05:13Z</time></trkpt><trkpt lat="44.76316859509708" lon="7.3145194554901956"><ele>360.20000000000005</ele><time>2026-04-16T17:05:15Z</time></trkpt><trkpt lat="44.76310613941689" lon="7.314634231903427"><ele>360.6</ele><time>2026-04-16T17:05:17Z</time></trkpt><trkpt lat="44.76303326406537" lon="7.314739774317767"><ele>361.0</ele><time>2026-04-16T17:05:19Z</time></trkpt><trkpt lat="44.762978411167275" lon="7.31485462032765"><ele>361.0</ele><time>2026-04-16T17:05:21Z</time></trkpt><trkpt lat="44.76293793362618" lon="7.314969614891983"><ele>361.0</ele><time>2026-04-16T17:05:23Z</time></trkpt><trkpt lat="44.76289705348483" lon="7.315073126311312"><ele>361.0</ele><time>2026-04-16T17:05:25Z</time></trkpt><trkpt lat="44.76288245100671" lon="7.315191653284785"><ele>361.0</ele><time>2026-04-16T17:05:28Z</time></trkpt><trkpt lat="44.76279249210781" lon="7.3151805541014525"><ele>361.0</ele><time>2026-04-16T17:05:32.001Z</time></trkpt><trkpt lat="44.7627252263359" lon="7.315200597008798"><ele>361.0</ele><time>2026-04-16T17:05:34.001Z</time></trkpt><trkpt lat="44.76266495946061" lon="7.315303059399534"><ele>361.16666666666663</ele><time>2026-04-16T17:05:36.001Z</time></trkpt><trkpt lat="44.762595940882285" lon="7.3153905544335505"><ele>361.3333333333333</ele><time>2026-04-16T17:05:38.001Z</time></trkpt><trkpt lat="44.76251878371997" lon="7.315462993026203"><ele>361.5</ele><time>2026-04-16T17:05:40.001Z</time></trkpt><trkpt lat="44.76244529413066" lon="7.315542082244464"><ele>361.6666666666667</ele><time>2026-04-16T17:05:42.001Z</time></trkpt><trkpt lat="44.76237756579972" lon="7.315619847195081"><ele>361.83333333333337</ele><time>2026-04-16T17:05:44.001Z</time></trkpt><trkpt lat="44.762326013044124" lon="7.315676858223054"><ele>362.0</ele><time>2026-04-16T17:05:46.001Z</time></trkpt><trkpt lat="44.7622972517479" lon="7.315757931859744"><ele>362.0</ele><time>2026-04-16T17:06:16.001Z</time></trkpt><trkpt lat="44.76232757788161" lon="7.3158503996134385"><ele>362.0</ele><time>2026-04-16T17:06:20.001Z</time></trkpt><trkpt lat="44.762385690668516" lon="7.315895695128661"><ele>362.0</ele><time>2026-04-16T17:06:24.001Z</time></trkpt><trkpt lat="44.762380154773666" lon="7.315992780272057"><ele>362.0</ele><time>2026-04-16T17:06:27.001Z</time></trkpt><trkpt lat="44.76230264198558" lon="7.316068577432895"><ele>362.0</ele><time>2026-04-16T17:06:29.001Z</time></trkpt><trkpt lat="44.76221467873946" lon="7.3161551052605915"><ele>362.0</ele><time>2026-04-16T17:06:31.001Z</time></trkpt><trkpt lat="44.76212536542789" lon="7.316249590341042"><ele>362.0</ele><time>2026-04-16T17:06:33.001Z</time></trkpt><trkpt lat="44.76203725937158" lon="7.31634507012772"><ele>362.0</ele><time>2026-04-16T17:06:35Z</time></trkpt><trkpt lat="44.76194909151246" lon="7.316447796430682"><ele>362.0</ele><time>2026-04-16T17:06:37Z</time></trkpt><trkpt lat="44.76185844926536" lon="7.316551486452509"><ele>362.0</ele><time>2026-04-16T17:06:39Z</time></trkpt><trkpt lat="44.76176678982588" lon="7.316652829489013"><ele>362.25</ele><time>2026-04-16T17:06:41Z</time></trkpt><trkpt lat="44.76167797375408" lon="7.316763234542318"><ele>362.5</ele><time>2026-04-16T17:06:43Z</time></trkpt><trkpt lat="44.761588902954" lon="7.316869568902866"><ele>362.75</ele><time>2026-04-16T17:06:45Z</time></trkpt><trkpt lat="44.76150681412347" lon="7.3169881375406565"><ele>363.0</ele><time>2026-04-16T17:06:47Z</time></trkpt><trkpt lat="44.761422048026866" lon="7.317098954167806"><ele>363.0</ele><time>2026-04-16T17:06:49Z</time></trkpt><trkpt lat="44.76133494804851" lon="7.3172094552672196"><ele>363.0</ele><time>2026-04-16T17:06:51Z</time></trkpt><trkpt lat="44.761245930801735" lon="7.317321913339636"><ele>363.0</ele><time>2026-04-16T17:06:53Z</time></trkpt><trkpt lat="44.7611577612581" lon="7.317434296430205"><ele>363.0</ele><time>2026-04-16T17:06:55Z</time></trkpt><trkpt lat="44.76106478477394" lon="7.317541762938116"><ele>363.0</ele><time>2026-04-16T17:06:57Z</time></trkpt><trkpt lat="44.760973629058206" lon="7.31765710316385"><ele>363.0</ele><time>2026-04-16T17:06:59Z</time></trkpt><trkpt lat="44.760885659284114" lon="7.317772953234693"><ele>363.0</ele><time>2026-04-16T17:07:01Z</time></trkpt><trkpt lat="44.76079259711055" lon="7.317882471240163"><ele>363.0</ele><time>2026-04-16T17:07:03Z</time></trkpt><trkpt lat="44.7606998204221" lon="7.317990244425233"><ele>362.5</ele><time>2026-04-16T17:07:05Z</time></trkpt><trkpt lat="44.760607326017016" lon="7.318100641203026"><ele>362.0</ele><time>2026-04-16T17:07:07Z</time></trkpt><trkpt lat="44.76051417403825" lon="7.31820686015337"><ele>361.5</ele><time>2026-04-16T17:07:09Z</time></trkpt><trkpt lat="44.76042357178325" lon="7.318317871572595"><ele>361.0</ele><time>2026-04-16T17:07:11Z</time></trkpt><trkpt lat="44.7603364886291" lon="7.318431796097645"><ele>361.0</ele><time>2026-04-16T17:07:13Z</time></trkpt><trkpt lat="44.76024785661465" lon="7.318542908519926"><ele>361.0</ele><time>2026-04-16T17:07:15Z</time></trkpt><trkpt lat="44.76016105161077" lon="7.318657501115886"><ele>361.0</ele><time>2026-04-16T17:07:17Z</time></trkpt><trkpt lat="44.76007426371831" lon="7.318773626567394"><ele>361.0</ele><time>2026-04-16T17:07:19Z</time></trkpt><trkpt lat="44.75998625435568" lon="7.318887665548292"><ele>361.0</ele><time>2026-04-16T17:07:21Z</time></trkpt><trkpt lat="44.7598943156" lon="7.3189945383146675"><ele>361.0</ele><time>2026-04-16T17:07:23Z</time></trkpt><trkpt lat="44.759801321025925" lon="7.319101692628656"><ele>361.0</ele><time>2026-04-16T17:07:25Z</time></trkpt><trkpt lat="44.75970948386507" lon="7.3192067291666785"><ele>361.0</ele><time>2026-04-16T17:07:27Z</time></trkpt><trkpt lat="44.75961588408129" lon="7.319316586597629"><ele>361.0</ele><time>2026-04-16T17:07:29Z</time></trkpt><trkpt lat="44.75951981486375" lon="7.319422624289084"><ele>361.0</ele><time>2026-04-16T17:07:31Z</time></trkpt><trkpt lat="44.75942597483524" lon="7.319532493341093"><ele>361.0</ele><time>2026-04-16T17:07:33Z</time></trkpt><trkpt lat="44.75933311496588" lon="7.319643406378037"><ele>361.0</ele><time>2026-04-16T17:07:35.001Z</time></trkpt><trkpt lat="44.759241256929684" lon="7.319757002847799"><ele>360.6</ele><time>2026-04-16T17:07:37.001Z</time></trkpt><trkpt lat="44.759143672380105" lon="7.31985930726335"><ele>360.20000000000005</ele><time>2026-04-16T17:07:39.001Z</time></trkpt><trkpt lat="44.75904945510364" lon="7.319957897286422"><ele>359.79999999999995</ele><time>2026-04-16T17:07:41.001Z</time></trkpt><trkpt lat="44.75898136105155" lon="7.320041562038166"><ele>359.4</ele><time>2026-04-16T17:07:43.001Z</time></trkpt><trkpt lat="44.75891189745485" lon="7.320105159038417"><ele>359.0</ele><time>2026-04-16T17:07:48.001Z</time></trkpt><trkpt lat="44.758838956890315" lon="7.320134396905189"><ele>359.0</ele><time>2026-04-16T17:07:50.001Z</time></trkpt><trkpt lat="44.75876067470719" lon="7.320213472730456"><ele>359.0</ele><time>2026-04-16T17:07:52.001Z</time></trkpt><trkpt lat="44.75866441911803" lon="7.320293866043801"><ele>359.0</ele><time>2026-04-16T17:07:54.001Z</time></trkpt><trkpt lat="44.758566958200085" lon="7.320371923653765"><ele>359.0</ele><time>2026-04-16T17:07:56.001Z</time></trkpt><trkpt lat="44.75846477534403" lon="7.320439195452933"><ele>359.0</ele><time>2026-04-16T17:07:58.001Z</time></trkpt><trkpt lat="44.758359343642404" lon="7.320505023577489"><ele>359.5</ele><time>2026-04-16T17:08:00.001Z</time></trkpt><trkpt lat="44.75825281624447" lon="7.320580125659652"><ele>360.0</ele><time>2026-04-16T17:08:02.001Z</time></trkpt><trkpt lat="44.75814599347189" lon="7.320647791168082"><ele>360.5</ele><time>2026-04-16T17:08:04.001Z</time></trkpt><trkpt lat="44.758039229450866" lon="7.320712446561725"><ele>361.0</ele><time>2026-04-16T17:08:06.001Z</time></trkpt><trkpt lat="44.7579304100554" lon="7.320779314720372"><ele>361.0</ele><time>2026-04-16T17:08:08.001Z</time></trkpt><trkpt lat="44.75782009856132" lon="7.320839029762727"><ele>361.0</ele><time>2026-04-16T17:08:10.001Z</time></trkpt><trkpt lat="44.757712629709346" lon="7.320900697695026"><ele>361.0</ele><time>2026-04-16T17:08:12.001Z</time></trkpt><trkpt lat="44.757604134189144" lon="7.320967031195501"><ele>361.0</ele><time>2026-04-16T17:08:14.001Z</time></trkpt><trkpt lat="44.757494386861616" lon="7.321029658960094"><ele>360.25</ele><time>2026-04-16T17:08:16.001Z</time></trkpt><trkpt lat="44.75738332737276" lon="7.321091084456718"><ele>359.5</ele><time>2026-04-16T17:08:18.001Z</time></trkpt><trkpt lat="44.75727521862339" lon="7.321152959788429"><ele>358.75</ele><time>2026-04-16T17:08:20.001Z</time></trkpt><trkpt lat="44.75716901257309" lon="7.321218767575003"><ele>358.0</ele><time>2026-04-16T17:08:22.001Z</time></trkpt><trkpt lat="44.7570607576064" lon="7.321278718294559"><ele>358.0</ele><time>2026-04-16T17:08:24.001Z</time></trkpt><trkpt lat="44.75695736875691" lon="7.321347060638879"><ele>358.0</ele><time>2026-04-16T17:08:26.001Z</time></trkpt><trkpt lat="44.756855186368924" lon="7.321415580004803"><ele>358.0</ele><time>2026-04-16T17:08:28.001Z</time></trkpt><trkpt lat="44.75675435869095" lon="7.3214850743733555"><ele>358.0</ele><time>2026-04-16T17:08:30.001Z</time></trkpt><trkpt lat="44.75665491007917" lon="7.321563501473376"><ele>358.59999999999997</ele><time>2026-04-16T17:08:32.001Z</time></trkpt><trkpt lat="44.756560853600156" lon="7.321650739226337"><ele>359.2</ele><time>2026-04-16T17:08:34.001Z</time></trkpt><trkpt lat="44.75646948597471" lon="7.3217334252797945"><ele>359.8</ele><time>2026-04-16T17:08:36.001Z</time></trkpt><trkpt lat="44.75637615850345" lon="7.321824737589491"><ele>360.4</ele><time>2026-04-16T17:08:38.001Z</time></trkpt><trkpt lat="44.75628467834141" lon="7.321918773104301"><ele>361.0</ele><time>2026-04-16T17:08:40Z</time></trkpt><trkpt lat="44.75619607153522" lon="7.322012966175682"><ele>361.0</ele><time>2026-04-16T17:08:42Z</time></trkpt><trkpt lat="44.75611819458895" lon="7.32212106985629"><ele>361.0</ele><time>2026-04-16T17:08:44Z</time></trkpt><trkpt lat="44.75603902200301" lon="7.322227965651657"><ele>361.0</ele><time>2026-04-16T17:08:46Z</time></trkpt><trkpt lat="44.75595349783145" lon="7.322326898262334"><ele>361.0</ele><time>2026-04-16T17:08:48Z</time></trkpt><trkpt lat="44.75586933560466" lon="7.322425252093684"><ele>361.0</ele><time>2026-04-16T17:08:50Z</time></trkpt><trkpt lat="44.75578592161274" lon="7.32252923609444"><ele>361.0</ele><time>2026-04-16T17:08:52Z</time></trkpt><trkpt lat="44.7557020648476" lon="7.322636995268935"><ele>361.0</ele><time>2026-04-16T17:08:53.999Z</time></trkpt><trkpt lat="44.7556294455479" lon="7.322758913529448"><ele>361.0</ele><time>2026-04-16T17:08:56Z</time></trkpt><trkpt lat="44.75555555487526" lon="7.322880413099515"><ele>361.0</ele><time>2026-04-16T17:08:58Z</time></trkpt><trkpt lat="44.75547858320539" lon="7.3229988310569825"><ele>361.0</ele><time>2026-04-16T17:09:00Z</time></trkpt><trkpt lat="44.755402740671926" lon="7.323121859683401"><ele>361.0</ele><time>2026-04-16T17:09:02Z</time></trkpt><trkpt lat="44.75532947460125" lon="7.3232450175426065"><ele>361.0</ele><time>2026-04-16T17:09:04Z</time></trkpt><trkpt lat="44.755255169470686" lon="7.323372240320394"><ele>361.0</ele><time>2026-04-16T17:09:06Z</time></trkpt><trkpt lat="44.755183074121696" lon="7.323497170444742"><ele>361.0</ele><time>2026-04-16T17:09:08Z</time></trkpt><trkpt lat="44.755109618474414" lon="7.3236239047916385"><ele>361.0</ele><time>2026-04-16T17:09:10Z</time></trkpt><trkpt lat="44.75503515645195" lon="7.323746154108767"><ele>361.0</ele><time>2026-04-16T17:09:12Z</time></trkpt><trkpt lat="44.75496076187942" lon="7.323867168955578"><ele>361.0</ele><time>2026-04-16T17:09:14Z</time></trkpt><trkpt lat="44.75488757494195" lon="7.323990478292264"><ele>360.5</ele><time>2026-04-16T17:09:16Z</time></trkpt><trkpt lat="44.75481663490216" lon="7.324114700492881"><ele>360.0</ele><time>2026-04-16T17:09:18Z</time></trkpt><trkpt lat="44.754736170028536" lon="7.324230136184158"><ele>359.5</ele><time>2026-04-16T17:09:20Z</time></trkpt><trkpt lat="44.754651474735844" lon="7.324343361422313"><ele>359.0</ele><time>2026-04-16T17:09:22Z</time></trkpt><trkpt lat="44.75456287643625" lon="7.324455070713023"><ele>359.0</ele><time>2026-04-16T17:09:24Z</time></trkpt><trkpt lat="44.75447554065694" lon="7.324569904891407"><ele>359.0</ele><time>2026-04-16T17:09:26Z</time></trkpt><trkpt lat="44.75438331964791" lon="7.324683740180691"><ele>359.0</ele><time>2026-04-16T17:09:28Z</time></trkpt><trkpt lat="44.75428569986879" lon="7.324789050351469"><ele>359.0</ele><time>2026-04-16T17:09:30.001Z</time></trkpt><trkpt lat="44.754188229753304" lon="7.3248917496934425"><ele>359.0</ele><time>2026-04-16T17:09:32.001Z</time></trkpt><trkpt lat="44.75408870610319" lon="7.32498826172171"><ele>359.0</ele><time>2026-04-16T17:09:34.001Z</time></trkpt><trkpt lat="44.75398861392551" lon="7.325085533157362"><ele>359.0</ele><time>2026-04-16T17:09:36.001Z</time></trkpt><trkpt lat="44.75388535068551" lon="7.325174600229779"><ele>359.0</ele><time>2026-04-16T17:09:38.001Z</time></trkpt><trkpt lat="44.753781700578976" lon="7.325262252049008"><ele>359.0</ele><time>2026-04-16T17:09:40.001Z</time></trkpt><trkpt lat="44.753676215667035" lon="7.325345817863772"><ele>359.0</ele><time>2026-04-16T17:09:42.001Z</time></trkpt><trkpt lat="44.75356931934048" lon="7.3254252593154545"><ele>359.0</ele><time>2026-04-16T17:09:44.001Z</time></trkpt><trkpt lat="44.75346265822446" lon="7.325498865587255"><ele>359.0</ele><time>2026-04-16T17:09:46.001Z</time></trkpt><trkpt lat="44.75335548592725" lon="7.325567027477941"><ele>359.0</ele><time>2026-04-16T17:09:48.001Z</time></trkpt><trkpt lat="44.753249545796116" lon="7.325629568344137"><ele>359.0</ele><time>2026-04-16T17:09:50.001Z</time></trkpt><trkpt lat="44.75314302136256" lon="7.325682935662932"><ele>359.0</ele><time>2026-04-16T17:09:52.001Z</time></trkpt><trkpt lat="44.75303420182787" lon="7.325742985091589"><ele>359.0</ele><time>2026-04-16T17:09:54.001Z</time></trkpt><trkpt lat="44.752920739276334" lon="7.32579705221449"><ele>359.0</ele><time>2026-04-16T17:09:56.001Z</time></trkpt><trkpt lat="44.752809943056526" lon="7.325853848978371"><ele>359.0</ele><time>2026-04-16T17:09:58.001Z</time></trkpt><trkpt lat="44.75270044803719" lon="7.325911686838766"><ele>359.0</ele><time>2026-04-16T17:10:00.001Z</time></trkpt><trkpt lat="44.75259123196372" lon="7.325965527282364"><ele>359.0</ele><time>2026-04-16T17:10:02.001Z</time></trkpt><trkpt lat="44.75248217182548" lon="7.326019941173304"><ele>359.5</ele><time>2026-04-16T17:10:04.001Z</time></trkpt><trkpt lat="44.7523773360828" lon="7.326077709578358"><ele>360.0</ele><time>2026-04-16T17:10:06.001Z</time></trkpt><trkpt lat="44.752272262165135" lon="7.326133538565491"><ele>360.5</ele><time>2026-04-16T17:10:08.001Z</time></trkpt><trkpt lat="44.75216690512647" lon="7.326192413953236"><ele>361.0</ele><time>2026-04-16T17:10:10.001Z</time></trkpt><trkpt lat="44.75206027745792" lon="7.326247023472367"><ele>361.0</ele><time>2026-04-16T17:10:12.001Z</time></trkpt><trkpt lat="44.751955602459276" lon="7.3263037689580575"><ele>361.0</ele><time>2026-04-16T17:10:14.001Z</time></trkpt><trkpt lat="44.75185308651417" lon="7.326365865069266"><ele>361.0</ele><time>2026-04-16T17:10:16.001Z</time></trkpt><trkpt lat="44.751755839866085" lon="7.326440377949536"><ele>361.0</ele><time>2026-04-16T17:10:18.001Z</time></trkpt><trkpt lat="44.751653653299286" lon="7.326508326352502"><ele>361.0</ele><time>2026-04-16T17:10:20.001Z</time></trkpt><trkpt lat="44.751554608382556" lon="7.326584385913891"><ele>360.25</ele><time>2026-04-16T17:10:22.001Z</time></trkpt><trkpt lat="44.751459299478036" lon="7.32667023572719"><ele>359.5</ele><time>2026-04-16T17:10:24.001Z</time></trkpt><trkpt lat="44.75136211204524" lon="7.326755218458269"><ele>358.75</ele><time>2026-04-16T17:10:26.001Z</time></trkpt><trkpt lat="44.75126542223022" lon="7.326849754407919"><ele>358.0</ele><time>2026-04-16T17:10:28.001Z</time></trkpt><trkpt lat="44.751172739634605" lon="7.32695356830823"><ele>358.0</ele><time>2026-04-16T17:10:30.001Z</time></trkpt><trkpt lat="44.75108009437602" lon="7.327054530514031"><ele>358.0</ele><time>2026-04-16T17:10:32.001Z</time></trkpt><trkpt lat="44.750991395329535" lon="7.327164611204133"><ele>358.0</ele><time>2026-04-16T17:10:34.002Z</time></trkpt><trkpt lat="44.75090640534036" lon="7.327275438009736"><ele>358.0</ele><time>2026-04-16T17:10:36.002Z</time></trkpt><trkpt lat="44.750827463273616" lon="7.32739614706885"><ele>358.0</ele><time>2026-04-16T17:10:38.002Z</time></trkpt><trkpt lat="44.750751518574184" lon="7.327514168089895"><ele>358.0</ele><time>2026-04-16T17:10:40.002Z</time></trkpt><trkpt lat="44.75067469581384" lon="7.327631713299484"><ele>358.0</ele><time>2026-04-16T17:10:42.002Z</time></trkpt><trkpt lat="44.75059963354024" lon="7.3277523402622755"><ele>358.0</ele><time>2026-04-16T17:10:44.002Z</time></trkpt><trkpt lat="44.75052075655419" lon="7.32787236558072"><ele>358.0</ele><time>2026-04-16T17:10:46Z</time></trkpt><trkpt lat="44.750442295676734" lon="7.327990202295416"><ele>358.0</ele><time>2026-04-16T17:10:48Z</time></trkpt><trkpt lat="44.750365435555885" lon="7.328110798607539"><ele>358.0</ele><time>2026-04-16T17:10:50Z</time></trkpt><trkpt lat="44.75028661651179" lon="7.328233934727581"><ele>358.0</ele><time>2026-04-16T17:10:52Z</time></trkpt><trkpt lat="44.75020471581935" lon="7.328358250561241"><ele>358.0</ele><time>2026-04-16T17:10:54Z</time></trkpt><trkpt lat="44.75012168308411" lon="7.328483270875519"><ele>358.0</ele><time>2026-04-16T17:10:56Z</time></trkpt><trkpt lat="44.75004080923638" lon="7.328608094238437"><ele>358.0</ele><time>2026-04-16T17:10:58Z</time></trkpt><trkpt lat="44.74995955812062" lon="7.328729719847789"><ele>358.0</ele><time>2026-04-16T17:11:00Z</time></trkpt><trkpt lat="44.74987910397781" lon="7.328847060967824"><ele>357.25</ele><time>2026-04-16T17:11:02Z</time></trkpt><trkpt lat="44.749801062033484" lon="7.3289633251627135"><ele>356.5</ele><time>2026-04-16T17:11:04Z</time></trkpt><trkpt lat="44.749722889785296" lon="7.329080355817928"><ele>355.75</ele><time>2026-04-16T17:11:06Z</time></trkpt><trkpt lat="44.74964034303091" lon="7.329194853158772"><ele>355.0</ele><time>2026-04-16T17:11:08Z</time></trkpt><trkpt lat="44.74955264414759" lon="7.329308648279401"><ele>355.0</ele><time>2026-04-16T17:11:10Z</time></trkpt><trkpt lat="44.749466382602606" lon="7.329426072182287"><ele>355.0</ele><time>2026-04-16T17:11:12Z</time></trkpt><trkpt lat="44.74938072411839" lon="7.329541915218897"><ele>355.0</ele><time>2026-04-16T17:11:14Z</time></trkpt><trkpt lat="44.749295292084895" lon="7.329654591870714"><ele>355.0</ele><time>2026-04-16T17:11:16Z</time></trkpt><trkpt lat="44.74920573868858" lon="7.3297643454562875"><ele>355.25</ele><time>2026-04-16T17:11:18Z</time></trkpt><trkpt lat="44.74911357385401" lon="7.329871267721884"><ele>355.5</ele><time>2026-04-16T17:11:20Z</time></trkpt><trkpt lat="44.749022759555835" lon="7.329977767009665"><ele>355.75</ele><time>2026-04-16T17:11:22Z</time></trkpt><trkpt lat="44.748934421939126" lon="7.3300855826307005"><ele>356.0</ele><time>2026-04-16T17:11:24Z</time></trkpt><trkpt lat="44.74884187571376" lon="7.3301858840744"><ele>356.0</ele><time>2026-04-16T17:11:26Z</time></trkpt><trkpt lat="44.74875001057894" lon="7.330282347583866"><ele>356.0</ele><time>2026-04-16T17:11:28Z</time></trkpt><trkpt lat="44.74866008778989" lon="7.330379435723621"><ele>356.0</ele><time>2026-04-16T17:11:30Z</time></trkpt><trkpt lat="44.748566768209145" lon="7.330474715713346"><ele>356.0</ele><time>2026-04-16T17:11:32Z</time></trkpt><trkpt lat="44.74847662013267" lon="7.330565253485127"><ele>355.5</ele><time>2026-04-16T17:11:34Z</time></trkpt><trkpt lat="44.74838217813861" lon="7.3306525460867915"><ele>355.0</ele><time>2026-04-16T17:11:36Z</time></trkpt><trkpt lat="44.748287221007054" lon="7.330744549019363"><ele>354.5</ele><time>2026-04-16T17:11:38.001Z</time></trkpt><trkpt lat="44.74819057492278" lon="7.330836030275466"><ele>354.0</ele><time>2026-04-16T17:11:40.001Z</time></trkpt><trkpt lat="44.74809388554061" lon="7.330923272800105"><ele>354.0</ele><time>2026-04-16T17:11:42.001Z</time></trkpt><trkpt lat="44.74799371766884" lon="7.331007660668732"><ele>354.0</ele><time>2026-04-16T17:11:44.001Z</time></trkpt><trkpt lat="44.747894412544" lon="7.331090956901354"><ele>354.0</ele><time>2026-04-16T17:11:46.001Z</time></trkpt><trkpt lat="44.747793346991635" lon="7.331175537782274"><ele>354.0</ele><time>2026-04-16T17:11:48.001Z</time></trkpt><trkpt lat="44.747692735139424" lon="7.331253569435817"><ele>354.75</ele><time>2026-04-16T17:11:50.001Z</time></trkpt><trkpt lat="44.74759224030779" lon="7.331327662098393"><ele>355.5</ele><time>2026-04-16T17:11:52.001Z</time></trkpt><trkpt lat="44.74749288943979" lon="7.331402933655499"><ele>356.25</ele><time>2026-04-16T17:11:54.001Z</time></trkpt><trkpt lat="44.74739094355415" lon="7.331474515803697"><ele>357.0</ele><time>2026-04-16T17:11:56.001Z</time></trkpt><trkpt lat="44.74728957073771" lon="7.331547799823339"><ele>357.0</ele><time>2026-04-16T17:11:58.001Z</time></trkpt><trkpt lat="44.747187226236036" lon="7.3316171769643015"><ele>357.0</ele><time>2026-04-16T17:12:00.001Z</time></trkpt><trkpt lat="44.74708619447926" lon="7.331688056037985"><ele>357.0</ele><time>2026-04-16T17:12:02.001Z</time></trkpt><trkpt lat="44.746982389875875" lon="7.331754311785916"><ele>357.0</ele><time>2026-04-16T17:12:04.001Z</time></trkpt><trkpt lat="44.746877312656686" lon="7.331818369444675"><ele>357.0</ele><time>2026-04-16T17:12:06.001Z</time></trkpt><trkpt lat="44.746771426037114" lon="7.331882239819053"><ele>357.0</ele><time>2026-04-16T17:12:08.001Z</time></trkpt><trkpt lat="44.74666463464983" lon="7.331944121800164"><ele>357.0</ele><time>2026-04-16T17:12:10.001Z</time></trkpt><trkpt lat="44.74655957655109" lon="7.331998909867932"><ele>357.0</ele><time>2026-04-16T17:12:12.001Z</time></trkpt><trkpt lat="44.74645358116715" lon="7.332055053087173"><ele>357.0</ele><time>2026-04-16T17:12:14.001Z</time></trkpt><trkpt lat="44.7463477166979" lon="7.332111936525052"><ele>357.0</ele><time>2026-04-16T17:12:16.001Z</time></trkpt><trkpt lat="44.746245391688355" lon="7.332166533960428"><ele>357.0</ele><time>2026-04-16T17:12:18.001Z</time></trkpt><trkpt lat="44.74613726201563" lon="7.332218574980668"><ele>357.0</ele><time>2026-04-16T17:12:20.001Z</time></trkpt><trkpt lat="44.74602873558595" lon="7.3322686460082025"><ele>356.75</ele><time>2026-04-16T17:12:22.001Z</time></trkpt><trkpt lat="44.74591959469618" lon="7.332313432505507"><ele>356.5</ele><time>2026-04-16T17:12:24.001Z</time></trkpt><trkpt lat="44.74581005401007" lon="7.332359628417284"><ele>356.25</ele><time>2026-04-16T17:12:26.001Z</time></trkpt><trkpt lat="44.74569885383392" lon="7.332403942146969"><ele>356.0</ele><time>2026-04-16T17:12:28.001Z</time></trkpt><trkpt lat="44.74558777729853" lon="7.332441458118586"><ele>356.0</ele><time>2026-04-16T17:12:30.001Z</time></trkpt><trkpt lat="44.74547740154667" lon="7.332482793119957"><ele>356.0</ele><time>2026-04-16T17:12:32.001Z</time></trkpt><trkpt lat="44.74536647631518" lon="7.332521656440977"><ele>356.0</ele><time>2026-04-16T17:12:34.001Z</time></trkpt><trkpt lat="44.74525552694702" lon="7.332557284306009"><ele>356.0</ele><time>2026-04-16T17:12:36.001Z</time></trkpt><trkpt lat="44.745143609776534" lon="7.332592128425461"><ele>356.6</ele><time>2026-04-16T17:12:38.001Z</time></trkpt><trkpt lat="44.74503316164521" lon="7.332624785962475"><ele>357.20000000000005</ele><time>2026-04-16T17:12:40.001Z</time></trkpt><trkpt lat="44.74492274639257" lon="7.332652448420152"><ele>357.79999999999995</ele><time>2026-04-16T17:12:42.001Z</time></trkpt><trkpt lat="44.74481389292307" lon="7.33268233151263"><ele>358.4</ele><time>2026-04-16T17:12:44.001Z</time></trkpt><trkpt lat="44.74470245121602" lon="7.332710446307022"><ele>359.0</ele><time>2026-04-16T17:12:46.001Z</time></trkpt><trkpt lat="44.7445918897457" lon="7.332734582216083"><ele>359.0</ele><time>2026-04-16T17:12:48.002Z</time></trkpt><trkpt lat="44.74448073117914" lon="7.33275223461905"><ele>359.0</ele><time>2026-04-16T17:12:50.002Z</time></trkpt><trkpt lat="44.744368599023005" lon="7.332766869912378"><ele>359.0</ele><time>2026-04-16T17:12:52Z</time></trkpt><trkpt lat="44.74425580895572" lon="7.332786413031367"><ele>359.0</ele><time>2026-04-16T17:12:54Z</time></trkpt><trkpt lat="44.744143249388216" lon="7.332803736273557"><ele>359.25</ele><time>2026-04-16T17:12:56Z</time></trkpt><trkpt lat="44.74403026261314" lon="7.332816642884056"><ele>359.5</ele><time>2026-04-16T17:12:58Z</time></trkpt><trkpt lat="44.74391932599592" lon="7.332824746471958"><ele>359.75</ele><time>2026-04-16T17:13:00Z</time></trkpt><trkpt lat="44.74380774718789" lon="7.332840738474602"><ele>360.0</ele><time>2026-04-16T17:13:02Z</time></trkpt><trkpt lat="44.74369484013126" lon="7.33285075775627"><ele>360.0</ele><time>2026-04-16T17:13:04Z</time></trkpt><trkpt lat="44.743580409113974" lon="7.3328572711103375"><ele>360.0</ele><time>2026-04-16T17:13:06Z</time></trkpt><trkpt lat="44.74346673167999" lon="7.332869597568999"><ele>360.0</ele><time>2026-04-16T17:13:08Z</time></trkpt><trkpt lat="44.743352374616826" lon="7.332877227681994"><ele>360.0</ele><time>2026-04-16T17:13:10Z</time></trkpt><trkpt lat="44.74323698013601" lon="7.332891715125037"><ele>359.75</ele><time>2026-04-16T17:13:12Z</time></trkpt><trkpt lat="44.74311989091337" lon="7.332896064647951"><ele>359.5</ele><time>2026-04-16T17:13:14Z</time></trkpt><trkpt lat="44.743003569437036" lon="7.332908686423447"><ele>359.25</ele><time>2026-04-16T17:13:16Z</time></trkpt><trkpt lat="44.742887540749955" lon="7.332915892171922"><ele>359.0</ele><time>2026-04-16T17:13:18Z</time></trkpt><trkpt lat="44.74277128259228" lon="7.332928114721683"><ele>359.0</ele><time>2026-04-16T17:13:20Z</time></trkpt><trkpt lat="44.742653242692626" lon="7.332938795017956"><ele>359.0</ele><time>2026-04-16T17:13:22Z</time></trkpt><trkpt lat="44.74253352717229" lon="7.332945599503537"><ele>359.0</ele><time>2026-04-16T17:13:24Z</time></trkpt><trkpt lat="44.742413814802745" lon="7.332952852178159"><ele>359.0</ele><time>2026-04-16T17:13:26Z</time></trkpt><trkpt lat="44.74229343169073" lon="7.332964857759839"><ele>359.0</ele><time>2026-04-16T17:13:28Z</time></trkpt><trkpt lat="44.742173902800005" lon="7.332972958166346"><ele>359.0</ele><time>2026-04-16T17:13:30Z</time></trkpt><trkpt lat="44.7420551497914" lon="7.332985172400987"><ele>359.0</ele><time>2026-04-16T17:13:32Z</time></trkpt><trkpt lat="44.74193888360913" lon="7.332996787814176"><ele>359.0</ele><time>2026-04-16T17:13:34Z</time></trkpt><trkpt lat="44.7418206804258" lon="7.333003645729744"><ele>359.75</ele><time>2026-04-16T17:13:36Z</time></trkpt><trkpt lat="44.741700685030146" lon="7.333011421966045"><ele>360.5</ele><time>2026-04-16T17:13:38Z</time></trkpt><trkpt lat="44.74158082997771" lon="7.333022113870422"><ele>361.25</ele><time>2026-04-16T17:13:40Z</time></trkpt><trkpt lat="44.741459892168734" lon="7.333034478796773"><ele>362.0</ele><time>2026-04-16T17:13:42Z</time></trkpt><trkpt lat="44.741338700605574" lon="7.333042828035934"><ele>362.0</ele><time>2026-04-16T17:13:44Z</time></trkpt><trkpt lat="44.74121603449459" lon="7.333050590141658"><ele>362.0</ele><time>2026-04-16T17:13:46Z</time></trkpt><trkpt lat="44.74109451461097" lon="7.333060082018031"><ele>362.0</ele><time>2026-04-16T17:13:48.001Z</time></trkpt><trkpt lat="44.740975243779026" lon="7.3330677224278284"><ele>362.0</ele><time>2026-04-16T17:13:50.001Z</time></trkpt><trkpt lat="44.7408568821028" lon="7.333077082091261"><ele>361.0</ele><time>2026-04-16T17:13:52.001Z</time></trkpt><trkpt lat="44.74074059973316" lon="7.333086521748861"><ele>360.0</ele><time>2026-04-16T17:13:54.001Z</time></trkpt><trkpt lat="44.74062434508569" lon="7.333100257334336"><ele>359.0</ele><time>2026-04-16T17:13:56.001Z</time></trkpt><trkpt lat="44.74050522213504" lon="7.333110473173473"><ele>358.0</ele><time>2026-04-16T17:13:58.001Z</time></trkpt><trkpt lat="44.74038642852132" lon="7.333117301270725"><ele>358.0</ele><time>2026-04-16T17:14:00.001Z</time></trkpt><trkpt lat="44.740267293200354" lon="7.333125714455647"><ele>358.0</ele><time>2026-04-16T17:14:02.001Z</time></trkpt><trkpt lat="44.740148039590736" lon="7.333133566360668"><ele>358.0</ele><time>2026-04-16T17:14:04.001Z</time></trkpt><trkpt lat="44.74002606038057" lon="7.333144264915443"><ele>358.0</ele><time>2026-04-16T17:14:06.001Z</time></trkpt><trkpt lat="44.73990562769001" lon="7.333154037964176"><ele>357.75</ele><time>2026-04-16T17:14:08.001Z</time></trkpt><trkpt lat="44.739783190135434" lon="7.3331614864542445"><ele>357.5</ele><time>2026-04-16T17:14:10.001Z</time></trkpt><trkpt lat="44.73965988879923" lon="7.333170472538999"><ele>357.25</ele><time>2026-04-16T17:14:12.001Z</time></trkpt><trkpt lat="44.73953744003051" lon="7.333179225051919"><ele>357.0</ele><time>2026-04-16T17:14:14.001Z</time></trkpt><trkpt lat="44.73941557691546" lon="7.333189125668921"><ele>356.75</ele><time>2026-04-16T17:14:16.001Z</time></trkpt><trkpt lat="44.73929425923926" lon="7.333199031565722"><ele>356.5</ele><time>2026-04-16T17:14:18.001Z</time></trkpt><trkpt lat="44.73917349191213" lon="7.333210512313334"><ele>356.25</ele><time>2026-04-16T17:14:20.001Z</time></trkpt><trkpt lat="44.739053759678626" lon="7.333218461494903"><ele>356.0</ele><time>2026-04-16T17:14:22.001Z</time></trkpt><trkpt lat="44.7389339905967" lon="7.333228401652568"><ele>356.0</ele><time>2026-04-16T17:14:24.001Z</time></trkpt><trkpt lat="44.73881752127439" lon="7.333239374991824"><ele>356.0</ele><time>2026-04-16T17:14:26.001Z</time></trkpt><trkpt lat="44.73869795221076" lon="7.333246951052067"><ele>356.0</ele><time>2026-04-16T17:14:28.001Z</time></trkpt><trkpt lat="44.738582018089" lon="7.333256792185929"><ele>356.0</ele><time>2026-04-16T17:14:30.001Z</time></trkpt><trkpt lat="44.738463570045944" lon="7.333265262341079"><ele>356.5</ele><time>2026-04-16T17:14:32.001Z</time></trkpt><trkpt lat="44.73834881873365" lon="7.333275581667204"><ele>357.0</ele><time>2026-04-16T17:14:34.001Z</time></trkpt><trkpt lat="44.7382348239796" lon="7.333284796889064"><ele>357.5</ele><time>2026-04-16T17:14:36.001Z</time></trkpt><trkpt lat="44.738121056867335" lon="7.333294213719845"><ele>358.0</ele><time>2026-04-16T17:14:38.001Z</time></trkpt><trkpt lat="44.73800520970851" lon="7.333303628961933"><ele>358.0</ele><time>2026-04-16T17:14:40.001Z</time></trkpt><trkpt lat="44.73789215882136" lon="7.3333122726067845"><ele>358.0</ele><time>2026-04-16T17:14:42.001Z</time></trkpt><trkpt lat="44.737780302395805" lon="7.333321932942697"><ele>358.0</ele><time>2026-04-16T17:14:44.001Z</time></trkpt><trkpt lat="44.737666680490854" lon="7.33332857504338"><ele>358.0</ele><time>2026-04-16T17:14:46.001Z</time></trkpt><trkpt lat="44.737554083426076" lon="7.3333379665735805"><ele>358.4</ele><time>2026-04-16T17:14:48.001Z</time></trkpt><trkpt lat="44.73744358964911" lon="7.333348405110353"><ele>358.79999999999995</ele><time>2026-04-16T17:14:50.001Z</time></trkpt><trkpt lat="44.7373338363687" lon="7.333359130272054"><ele>359.2</ele><time>2026-04-16T17:14:52.001Z</time></trkpt><trkpt lat="44.737223747589645" lon="7.333364537013714"><ele>359.6</ele><time>2026-04-16T17:14:54.001Z</time></trkpt><trkpt lat="44.73711395893027" lon="7.333376630450367"><ele>360.0</ele><time>2026-04-16T17:14:56.001Z</time></trkpt><trkpt lat="44.737004898999615" lon="7.333387484122593"><ele>360.0</ele><time>2026-04-16T17:14:58Z</time></trkpt><trkpt lat="44.736895072180594" lon="7.333391872998789"><ele>360.0</ele><time>2026-04-16T17:15:00Z</time></trkpt><trkpt lat="44.73678703234549" lon="7.333401338035867"><ele>360.0</ele><time>2026-04-16T17:15:02Z</time></trkpt><trkpt lat="44.736677085319144" lon="7.333410428511148"><ele>360.0</ele><time>2026-04-16T17:15:04Z</time></trkpt><trkpt lat="44.73656921569516" lon="7.333419438787538"><ele>360.0</ele><time>2026-04-16T17:15:06Z</time></trkpt><trkpt lat="44.736461863655464" lon="7.333426569832833"><ele>360.0</ele><time>2026-04-16T17:15:08Z</time></trkpt><trkpt lat="44.73635538569045" lon="7.33343410463341"><ele>360.0</ele><time>2026-04-16T17:15:10Z</time></trkpt><trkpt lat="44.73624662551485" lon="7.333446269772885"><ele>360.0</ele><time>2026-04-16T17:15:12Z</time></trkpt><trkpt lat="44.73613766728021" lon="7.333453425317566"><ele>360.0</ele><time>2026-04-16T17:15:14Z</time></trkpt><trkpt lat="44.73602846976994" lon="7.3334538279699215"><ele>360.0</ele><time>2026-04-16T17:15:16Z</time></trkpt><trkpt lat="44.735918909485996" lon="7.33345009438447"><ele>359.8</ele><time>2026-04-16T17:15:18Z</time></trkpt><trkpt lat="44.73580889392027" lon="7.333438830691339"><ele>359.6</ele><time>2026-04-16T17:15:20Z</time></trkpt><trkpt lat="44.735700119635375" lon="7.333423158112056"><ele>359.4</ele><time>2026-04-16T17:15:22Z</time></trkpt><trkpt lat="44.73559382355106" lon="7.333403573023655"><ele>359.2</ele><time>2026-04-16T17:15:24Z</time></trkpt><trkpt lat="44.73548736508821" lon="7.333382689501533"><ele>359.0</ele><time>2026-04-16T17:15:26Z</time></trkpt><trkpt lat="44.73537351272367" lon="7.3333521721612245"><ele>359.0</ele><time>2026-04-16T17:15:28Z</time></trkpt><trkpt lat="44.73526490023281" lon="7.333310345242926"><ele>359.0</ele><time>2026-04-16T17:15:30Z</time></trkpt><trkpt lat="44.735167575894465" lon="7.333277504864996"><ele>359.0</ele><time>2026-04-16T17:15:32Z</time></trkpt><trkpt lat="44.73506693017777" lon="7.333237727186822"><ele>359.0</ele><time>2026-04-16T17:15:34Z</time></trkpt><trkpt lat="44.734973572311794" lon="7.33319686911703"><ele>359.0</ele><time>2026-04-16T17:15:36Z</time></trkpt><trkpt lat="44.7348850093597" lon="7.3331517940328075"><ele>359.2</ele><time>2026-04-16T17:15:38Z</time></trkpt><trkpt lat="44.73479522520554" lon="7.333105344493504"><ele>359.4</ele><time>2026-04-16T17:15:40Z</time></trkpt><trkpt lat="44.734703661516576" lon="7.333054868723064"><ele>359.6</ele><time>2026-04-16T17:15:42Z</time></trkpt><trkpt lat="44.73461246335595" lon="7.333000102173413"><ele>359.8</ele><time>2026-04-16T17:15:44Z</time></trkpt><trkpt lat="44.73452435160723" lon="7.3329397192959265"><ele>360.0</ele><time>2026-04-16T17:15:46Z</time></trkpt><trkpt lat="44.73443698580981" lon="7.332877030118381"><ele>360.6</ele><time>2026-04-16T17:15:48Z</time></trkpt><trkpt lat="44.73434800393446" lon="7.332816794058251"><ele>361.2</ele><time>2026-04-16T17:15:50Z</time></trkpt><trkpt lat="44.734264996349175" lon="7.332748934138043"><ele>361.79999999999995</ele><time>2026-04-16T17:15:52Z</time></trkpt><trkpt lat="44.73418279089888" lon="7.332675473183728"><ele>362.4</ele><time>2026-04-16T17:15:54Z</time></trkpt><trkpt lat="44.73409728819888" lon="7.332608989985854"><ele>363.0</ele><time>2026-04-16T17:15:56Z</time></trkpt><trkpt lat="44.73401103784684" lon="7.332540557274834"><ele>363.0</ele><time>2026-04-16T17:15:58.001Z</time></trkpt><trkpt lat="44.73392754529373" lon="7.332467630660541"><ele>363.0</ele><time>2026-04-16T17:16:00.001Z</time></trkpt><trkpt lat="44.73384147118039" lon="7.3323965615878555"><ele>363.0</ele><time>2026-04-16T17:16:02.001Z</time></trkpt><trkpt lat="44.733753477401216" lon="7.332331274702806"><ele>363.0</ele><time>2026-04-16T17:16:04.001Z</time></trkpt><trkpt lat="44.73367055136315" lon="7.332260428008834"><ele>363.0</ele><time>2026-04-16T17:16:06.001Z</time></trkpt><trkpt lat="44.73358956285216" lon="7.332193252767406"><ele>363.4</ele><time>2026-04-16T17:16:08.001Z</time></trkpt><trkpt lat="44.73350980107572" lon="7.332128439504022"><ele>363.79999999999995</ele><time>2026-04-16T17:16:10.001Z</time></trkpt><trkpt lat="44.733421494497264" lon="7.332068693131348"><ele>364.2</ele><time>2026-04-16T17:16:12.001Z</time></trkpt><trkpt lat="44.73332892473356" lon="7.332011697229479"><ele>364.6</ele><time>2026-04-16T17:16:14.001Z</time></trkpt><trkpt lat="44.733232583663046" lon="7.3319559195783"><ele>365.0</ele><time>2026-04-16T17:16:16.001Z</time></trkpt><trkpt lat="44.73313346880115" lon="7.33190337910681"><ele>365.0</ele><time>2026-04-16T17:16:18.001Z</time></trkpt><trkpt lat="44.7330333546986" lon="7.331846001608555"><ele>365.0</ele><time>2026-04-16T17:16:20.001Z</time></trkpt><trkpt lat="44.732926651243886" lon="7.3317932602940985"><ele>365.0</ele><time>2026-04-16T17:16:22.001Z</time></trkpt><trkpt lat="44.73282542721759" lon="7.331731883516359"><ele>365.0</ele><time>2026-04-16T17:16:24.001Z</time></trkpt><trkpt lat="44.73272110448613" lon="7.331674761392772"><ele>365.0</ele><time>2026-04-16T17:16:26.001Z</time></trkpt><trkpt lat="44.73261558286158" lon="7.331618334945333"><ele>364.0</ele><time>2026-04-16T17:16:28.001Z</time></trkpt><trkpt lat="44.73250680373735" lon="7.33156314451349"><ele>363.0</ele><time>2026-04-16T17:16:30.001Z</time></trkpt><trkpt lat="44.73240050663697" lon="7.331510724083993"><ele>362.0</ele><time>2026-04-16T17:16:32.001Z</time></trkpt><trkpt lat="44.73229385785553" lon="7.3314493981099025"><ele>361.0</ele><time>2026-04-16T17:16:34.001Z</time></trkpt><trkpt lat="44.732186574339345" lon="7.331396331723462"><ele>361.5</ele><time>2026-04-16T17:16:36.001Z</time></trkpt><trkpt lat="44.73207974905693" lon="7.331337943595802"><ele>362.0</ele><time>2026-04-16T17:16:38.001Z</time></trkpt><trkpt lat="44.73197247849783" lon="7.3312777034950685"><ele>362.5</ele><time>2026-04-16T17:16:40.001Z</time></trkpt><trkpt lat="44.731863917189585" lon="7.3312196417280395"><ele>363.0</ele><time>2026-04-16T17:16:42.001Z</time></trkpt><trkpt lat="44.731754145909505" lon="7.331162074508015"><ele>363.0</ele><time>2026-04-16T17:16:44.001Z</time></trkpt><trkpt lat="44.73164648403608" lon="7.3311035822221635"><ele>363.0</ele><time>2026-04-16T17:16:46.001Z</time></trkpt><trkpt lat="44.731539020499646" lon="7.331045646279969"><ele>363.0</ele><time>2026-04-16T17:16:48.001Z</time></trkpt><trkpt lat="44.7314310477417" lon="7.330988561412796"><ele>363.0</ele><time>2026-04-16T17:16:50.001Z</time></trkpt><trkpt lat="44.731325716748266" lon="7.3309313549915744"><ele>363.0</ele><time>2026-04-16T17:16:52.001Z</time></trkpt><trkpt lat="44.73121996716542" lon="7.330879373906078"><ele>363.0</ele><time>2026-04-16T17:16:54.001Z</time></trkpt><trkpt lat="44.73111660920128" lon="7.33082818142326"><ele>363.0</ele><time>2026-04-16T17:16:56.001Z</time></trkpt><trkpt lat="44.731017169004474" lon="7.330785306600603"><ele>363.0</ele><time>2026-04-16T17:16:58.001Z</time></trkpt><trkpt lat="44.7309277861629" lon="7.33074280123681"><ele>363.0</ele><time>2026-04-16T17:17:00.001Z</time></trkpt><trkpt lat="44.73085928618017" lon="7.330701090370514"><ele>362.0</ele><time>2026-04-16T17:17:02.001Z</time></trkpt><trkpt lat="44.73077113627201" lon="7.33065609586661"><ele>361.0</ele><time>2026-04-16T17:17:04Z</time></trkpt><trkpt lat="44.73067125189985" lon="7.330638831130275"><ele>360.0</ele><time>2026-04-16T17:17:06Z</time></trkpt><trkpt lat="44.73056950544359" lon="7.330624441363666"><ele>359.0</ele><time>2026-04-16T17:17:08Z</time></trkpt><trkpt lat="44.73046434621308" lon="7.330602974095294"><ele>358.0</ele><time>2026-04-16T17:17:10Z</time></trkpt><trkpt lat="44.730358874347836" lon="7.3305834284212255"><ele>358.0</ele><time>2026-04-16T17:17:12Z</time></trkpt><trkpt lat="44.730247193090854" lon="7.330566371760286"><ele>358.0</ele><time>2026-04-16T17:17:14Z</time></trkpt><trkpt lat="44.73014069728943" lon="7.3305452863666245"><ele>358.0</ele><time>2026-04-16T17:17:16Z</time></trkpt><trkpt lat="44.7300355723839" lon="7.330535548255213"><ele>358.0</ele><time>2026-04-16T17:17:18Z</time></trkpt><trkpt lat="44.729931427170555" lon="7.330520367436194"><ele>358.0</ele><time>2026-04-16T17:17:20Z</time></trkpt><trkpt lat="44.72982869330243" lon="7.33050537271781"><ele>359.0</ele><time>2026-04-16T17:17:22Z</time></trkpt><trkpt lat="44.72972382000276" lon="7.330490227038032"><ele>360.0</ele><time>2026-04-16T17:17:24Z</time></trkpt><trkpt lat="44.72961867352578" lon="7.330476060399504"><ele>361.0</ele><time>2026-04-16T17:17:26Z</time></trkpt><trkpt lat="44.72951474288557" lon="7.3304586629553095"><ele>362.0</ele><time>2026-04-16T17:17:28Z</time></trkpt><trkpt lat="44.72941419721227" lon="7.3304544599934065"><ele>363.0</ele><time>2026-04-16T17:17:30Z</time></trkpt><trkpt lat="44.72932900213295" lon="7.3304808561692525"><ele>362.99999999999994</ele><time>2026-04-16T17:17:32Z</time></trkpt><trkpt lat="44.72925809201285" lon="7.330506914148717"><ele>363.0</ele><time>2026-04-16T17:17:34Z</time></trkpt><trkpt lat="44.72924864833525" lon="7.330600362356278"><ele>363.0</ele><time>2026-04-16T17:17:36Z</time></trkpt><trkpt lat="44.72931286972001" lon="7.330642045878346"><ele>363.0</ele><time>2026-04-16T17:17:38Z</time></trkpt><trkpt lat="44.72936613557822" lon="7.330562540471218"><ele>363.0</ele><time>2026-04-16T17:17:40Z</time></trkpt><trkpt lat="44.729370909590436" lon="7.33044943109318"><ele>362.99999999999994</ele><time>2026-04-16T17:17:42Z</time></trkpt><trkpt lat="44.7294481917332" lon="7.330425000382102"><ele>363.0</ele><time>2026-04-16T17:17:44Z</time></trkpt><trkpt lat="44.72953715967565" lon="7.330456251744465"><ele>363.2</ele><time>2026-04-16T17:17:46Z</time></trkpt><trkpt lat="44.72962949455626" lon="7.3304664609496415"><ele>363.4</ele><time>2026-04-16T17:17:48Z</time></trkpt><trkpt lat="44.72972891782289" lon="7.330477891286783"><ele>363.59999999999997</ele><time>2026-04-16T17:17:50Z</time></trkpt><trkpt lat="44.72982637916134" lon="7.33049323370039"><ele>363.79999999999995</ele><time>2026-04-16T17:17:52Z</time></trkpt><trkpt lat="44.72992446030942" lon="7.330515289310195"><ele>364.0</ele><time>2026-04-16T17:17:54Z</time></trkpt><trkpt lat="44.73001907332561" lon="7.330541734422857"><ele>363.6</ele><time>2026-04-16T17:17:56Z</time></trkpt><trkpt lat="44.730110682870816" lon="7.330565928714779"><ele>363.2</ele><time>2026-04-16T17:17:58Z</time></trkpt><trkpt lat="44.730207596906375" lon="7.3305797574994775"><ele>362.8</ele><time>2026-04-16T17:18:00Z</time></trkpt><trkpt lat="44.73030888598808" lon="7.330593997906612"><ele>362.40000000000003</ele><time>2026-04-16T17:18:02.001Z</time></trkpt><trkpt lat="44.730410812384044" lon="7.330604088279322"><ele>362.0</ele><time>2026-04-16T17:18:04.001Z</time></trkpt><trkpt lat="44.730507383661006" lon="7.330617223206477"><ele>361.33333333333337</ele><time>2026-04-16T17:18:06.001Z</time></trkpt><trkpt lat="44.73060204748659" lon="7.3306289408846395"><ele>360.6666666666667</ele><time>2026-04-16T17:18:08.001Z</time></trkpt><trkpt lat="44.73069297065311" lon="7.33063843471878"><ele>360.0</ele><time>2026-04-16T17:18:10.001Z</time></trkpt><trkpt lat="44.73077905291942" lon="7.330657100504657"><ele>359.3333333333333</ele><time>2026-04-16T17:18:12.001Z</time></trkpt><trkpt lat="44.730848041403654" lon="7.330701998946392"><ele>358.66666666666663</ele><time>2026-04-16T17:18:15.001Z</time></trkpt><trkpt lat="44.73091392604083" lon="7.330718798096662"><ele>358.0</ele><time>2026-04-16T17:18:17.001Z</time></trkpt><trkpt lat="44.73098789128777" lon="7.330767984701101"><ele>359.0</ele><time>2026-04-16T17:18:19.001Z</time></trkpt><trkpt lat="44.731088932048195" lon="7.3308111464345185"><ele>360.0</ele><time>2026-04-16T17:18:21.001Z</time></trkpt><trkpt lat="44.731188527465825" lon="7.330860154033914"><ele>361.0</ele><time>2026-04-16T17:18:23.001Z</time></trkpt><trkpt lat="44.7312858522243" lon="7.330917148768592"><ele>362.0</ele><time>2026-04-16T17:18:25.001Z</time></trkpt><trkpt lat="44.73138680116675" lon="7.330969434574767"><ele>363.0</ele><time>2026-04-16T17:18:27.001Z</time></trkpt><trkpt lat="44.73148648390861" lon="7.331022321516846"><ele>363.0</ele><time>2026-04-16T17:18:29.001Z</time></trkpt><trkpt lat="44.73158439269773" lon="7.331080749839608"><ele>363.0</ele><time>2026-04-16T17:18:31.001Z</time></trkpt><trkpt lat="44.731685322762395" lon="7.33113493817812"><ele>363.0</ele><time>2026-04-16T17:18:33.001Z</time></trkpt><trkpt lat="44.73178618791515" lon="7.331188668884848"><ele>363.0</ele><time>2026-04-16T17:18:35.001Z</time></trkpt><trkpt lat="44.731888545855774" lon="7.33123947152068"><ele>363.0</ele><time>2026-04-16T17:18:37.001Z</time></trkpt><trkpt lat="44.73199116541815" lon="7.33129329475202"><ele>363.2</ele><time>2026-04-16T17:18:39.001Z</time></trkpt><trkpt lat="44.73209384246669" lon="7.33134441399127"><ele>363.4</ele><time>2026-04-16T17:18:41.001Z</time></trkpt><trkpt lat="44.73219516892355" lon="7.331398864813713"><ele>363.59999999999997</ele><time>2026-04-16T17:18:43.001Z</time></trkpt><trkpt lat="44.732294405822856" lon="7.3314558737860684"><ele>363.79999999999995</ele><time>2026-04-16T17:18:45.001Z</time></trkpt><trkpt lat="44.732393444006895" lon="7.3315095914323924"><ele>364.0</ele><time>2026-04-16T17:18:47.001Z</time></trkpt><trkpt lat="44.732492906035695" lon="7.331563925807336"><ele>364.2</ele><time>2026-04-16T17:18:49.001Z</time></trkpt><trkpt lat="44.73259145577782" lon="7.331615835076215"><ele>364.4</ele><time>2026-04-16T17:18:51.001Z</time></trkpt><trkpt lat="44.73269437058304" lon="7.331668519024979"><ele>364.6</ele><time>2026-04-16T17:18:53.001Z</time></trkpt><trkpt lat="44.73279189809421" lon="7.331720231557916"><ele>364.8</ele><time>2026-04-16T17:18:55.001Z</time></trkpt><trkpt lat="44.732889074332036" lon="7.331769866294087"><ele>365.0</ele><time>2026-04-16T17:18:57.001Z</time></trkpt><trkpt lat="44.73298697556643" lon="7.331820709903963"><ele>365.0</ele><time>2026-04-16T17:18:59.001Z</time></trkpt><trkpt lat="44.733078713569526" lon="7.331868730328205"><ele>365.0</ele><time>2026-04-16T17:19:01.001Z</time></trkpt><trkpt lat="44.733170076698116" lon="7.331921054557344"><ele>365.0</ele><time>2026-04-16T17:19:03.001Z</time></trkpt><trkpt lat="44.733262343209184" lon="7.331978171451633"><ele>365.0</ele><time>2026-04-16T17:19:05.001Z</time></trkpt><trkpt lat="44.733352750912914" lon="7.332026610450176"><ele>365.0</ele><time>2026-04-16T17:19:07.001Z</time></trkpt><trkpt lat="44.73343212568254" lon="7.332076007733118"><ele>365.0</ele><time>2026-04-16T17:19:09.001Z</time></trkpt><trkpt lat="44.733519470687305" lon="7.332148527896776"><ele>365.0</ele><time>2026-04-16T17:19:11Z</time></trkpt><trkpt lat="44.733608803122095" lon="7.332215633093246"><ele>365.0</ele><time>2026-04-16T17:19:13Z</time></trkpt><trkpt lat="44.73370262498624" lon="7.332297352297974"><ele>365.0</ele><time>2026-04-16T17:19:15Z</time></trkpt><trkpt lat="44.73380106628617" lon="7.3323754962634125"><ele>365.0</ele><time>2026-04-16T17:19:17Z</time></trkpt><trkpt lat="44.733899830259276" lon="7.332459002503492"><ele>364.5</ele><time>2026-04-16T17:19:19Z</time></trkpt><trkpt lat="44.73399724060691" lon="7.332541342916582"><ele>364.0</ele><time>2026-04-16T17:19:21Z</time></trkpt><trkpt lat="44.73409880651137" lon="7.332618888347657"><ele>363.5</ele><time>2026-04-16T17:19:23Z</time></trkpt><trkpt lat="44.734198369575815" lon="7.332702206958125"><ele>363.0</ele><time>2026-04-16T17:19:25Z</time></trkpt><trkpt lat="44.7342969437893" lon="7.332787097539914"><ele>363.0</ele><time>2026-04-16T17:19:27Z</time></trkpt><trkpt lat="44.73439830586361" lon="7.332865490996786"><ele>363.0</ele><time>2026-04-16T17:19:29Z</time></trkpt><trkpt lat="44.734500133498386" lon="7.33294383567195"><ele>363.0</ele><time>2026-04-16T17:19:31Z</time></trkpt><trkpt lat="44.73460605745379" lon="7.333011354911161"><ele>363.0</ele><time>2026-04-16T17:19:33Z</time></trkpt><trkpt lat="44.73471534679314" lon="7.333074133479032"><ele>362.4</ele><time>2026-04-16T17:19:35Z</time></trkpt><trkpt lat="44.734824852257226" lon="7.333133443910542"><ele>361.79999999999995</ele><time>2026-04-16T17:19:37Z</time></trkpt><trkpt lat="44.73493344477345" lon="7.33318514929101"><ele>361.2</ele><time>2026-04-16T17:19:39Z</time></trkpt><trkpt lat="44.73504094059303" lon="7.333233987358997"><ele>360.6</ele><time>2026-04-16T17:19:41Z</time></trkpt><trkpt lat="44.73510198785715" lon="7.33325785236232"><ele>360.0</ele><time>2026-04-16T17:19:42Z</time></trkpt><trkpt lat="44.73519574490417" lon="7.33329192799431"><ele>359.8333333333333</ele><time>2026-04-16T17:19:44Z</time></trkpt><trkpt lat="44.735264295992124" lon="7.333320641602194"><ele>359.6666666666667</ele><time>2026-04-16T17:19:46Z</time></trkpt><trkpt lat="44.73535156530586" lon="7.333343746036596"><ele>359.5</ele><time>2026-04-16T17:19:48Z</time></trkpt><trkpt lat="44.73543565461228" lon="7.333368350256726"><ele>359.33333333333337</ele><time>2026-04-16T17:19:50Z</time></trkpt><trkpt lat="44.73552153493965" lon="7.333393328520823"><ele>359.1666666666667</ele><time>2026-04-16T17:19:52Z</time></trkpt><trkpt lat="44.73560499739516" lon="7.333417820048464"><ele>359.0</ele><time>2026-04-16T17:19:54Z</time></trkpt><trkpt lat="44.73570318856703" lon="7.33343753880104"><ele>359.0</ele><time>2026-04-16T17:19:56Z</time></trkpt><trkpt lat="44.735802854129126" lon="7.333445297178043"><ele>359.0</ele><time>2026-04-16T17:19:58Z</time></trkpt><trkpt lat="44.735905099106446" lon="7.33345029346753"><ele>359.0</ele><time>2026-04-16T17:20:00Z</time></trkpt><trkpt lat="44.73600382943363" lon="7.333460023857719"><ele>359.0</ele><time>2026-04-16T17:20:02Z</time></trkpt><trkpt lat="44.736107797523324" lon="7.333458889319876"><ele>359.0</ele><time>2026-04-16T17:20:04Z</time></trkpt><trkpt lat="44.736211136551084" lon="7.333453796668808"><ele>359.2</ele><time>2026-04-16T17:20:06Z</time></trkpt><trkpt lat="44.736311482656255" lon="7.333451421974966"><ele>359.4</ele><time>2026-04-16T17:20:08.001Z</time></trkpt><trkpt lat="44.736411525315454" lon="7.3334492604346355"><ele>359.6</ele><time>2026-04-16T17:20:10.001Z</time></trkpt><trkpt lat="44.736513373927195" lon="7.333438433421319"><ele>359.8</ele><time>2026-04-16T17:20:12.001Z</time></trkpt><trkpt lat="44.736617924875326" lon="7.333430479063682"><ele>360.0</ele><time>2026-04-16T17:20:14.001Z</time></trkpt><trkpt lat="44.73672398550105" lon="7.333421438374787"><ele>360.0</ele><time>2026-04-16T17:20:16.001Z</time></trkpt><trkpt lat="44.73683003724068" lon="7.3334120679463615"><ele>360.0</ele><time>2026-04-16T17:20:18.001Z</time></trkpt><trkpt lat="44.73693759377861" lon="7.333402303447942"><ele>360.0</ele><time>2026-04-16T17:20:20.001Z</time></trkpt><trkpt lat="44.737046753557806" lon="7.333391845789925"><ele>360.0</ele><time>2026-04-16T17:20:22.001Z</time></trkpt><trkpt lat="44.73715762909768" lon="7.333384367144186"><ele>360.0</ele><time>2026-04-16T17:20:24.001Z</time></trkpt><trkpt lat="44.73726851578226" lon="7.333371898787421"><ele>360.0</ele><time>2026-04-16T17:20:26.001Z</time></trkpt><trkpt lat="44.73738086491958" lon="7.333362690014256"><ele>360.0</ele><time>2026-04-16T17:20:28.001Z</time></trkpt><trkpt lat="44.7374931361357" lon="7.333352943737243"><ele>360.0</ele><time>2026-04-16T17:20:30.001Z</time></trkpt><trkpt lat="44.73760654791453" lon="7.333347083539553"><ele>360.0</ele><time>2026-04-16T17:20:32.001Z</time></trkpt><trkpt lat="44.73771917588127" lon="7.333335616585236"><ele>359.5</ele><time>2026-04-16T17:20:34.001Z</time></trkpt><trkpt lat="44.737832851098304" lon="7.3333222854870925"><ele>359.0</ele><time>2026-04-16T17:20:36.001Z</time></trkpt><trkpt lat="44.7379439925924" lon="7.333311323950706"><ele>358.5</ele><time>2026-04-16T17:20:38.001Z</time></trkpt><trkpt lat="44.73805758594284" lon="7.333309977878874"><ele>358.0</ele><time>2026-04-16T17:20:40.001Z</time></trkpt><trkpt lat="44.73817282719227" lon="7.333303232406732"><ele>358.0</ele><time>2026-04-16T17:20:42.001Z</time></trkpt><trkpt lat="44.73828977712192" lon="7.333287114620842"><ele>358.0</ele><time>2026-04-16T17:20:44.001Z</time></trkpt><trkpt lat="44.738405712826825" lon="7.333271053238495"><ele>358.0</ele><time>2026-04-16T17:20:46.001Z</time></trkpt><trkpt lat="44.73852047996605" lon="7.3332638351819135"><ele>358.0</ele><time>2026-04-16T17:20:48.001Z</time></trkpt><trkpt lat="44.73863467854129" lon="7.33325993871781"><ele>357.5</ele><time>2026-04-16T17:20:50.001Z</time></trkpt><trkpt lat="44.73874803840472" lon="7.3332501041496245"><ele>357.0</ele><time>2026-04-16T17:20:52.001Z</time></trkpt><trkpt lat="44.73886201301528" lon="7.3332342206050045"><ele>356.5</ele><time>2026-04-16T17:20:54.001Z</time></trkpt><trkpt lat="44.73897562345083" lon="7.33322329185791"><ele>356.0</ele><time>2026-04-16T17:20:56.001Z</time></trkpt><trkpt lat="44.73908948409702" lon="7.333216477385341"><ele>356.0</ele><time>2026-04-16T17:20:58.001Z</time></trkpt><trkpt lat="44.73919973342043" lon="7.333209319403901"><ele>356.0</ele><time>2026-04-16T17:21:00.001Z</time></trkpt><trkpt lat="44.73930979822573" lon="7.333201205495894"><ele>356.0</ele><time>2026-04-16T17:21:02.001Z</time></trkpt><trkpt lat="44.739420692168956" lon="7.333196142224396"><ele>356.0</ele><time>2026-04-16T17:21:04.001Z</time></trkpt><trkpt lat="44.73953059148985" lon="7.33318674354882"><ele>356.0</ele><time>2026-04-16T17:21:06.001Z</time></trkpt><trkpt lat="44.739639106840855" lon="7.333182784993084"><ele>356.20000000000005</ele><time>2026-04-16T17:21:08.001Z</time></trkpt><trkpt lat="44.73974908169875" lon="7.33317644097068"><ele>356.40000000000003</ele><time>2026-04-16T17:21:10.001Z</time></trkpt><trkpt lat="44.73985680278923" lon="7.333164508687704"><ele>356.6</ele><time>2026-04-16T17:21:12.001Z</time></trkpt><trkpt lat="44.739967431648765" lon="7.333157102993098"><ele>356.8</ele><time>2026-04-16T17:21:14.001Z</time></trkpt><trkpt lat="44.7400765638435" lon="7.333148549961746"><ele>357.0</ele><time>2026-04-16T17:21:16Z</time></trkpt><trkpt lat="44.74018853042249" lon="7.333136983573655"><ele>357.25</ele><time>2026-04-16T17:21:18Z</time></trkpt><trkpt lat="44.74029871655051" lon="7.333130897680802"><ele>357.5</ele><time>2026-04-16T17:21:20Z</time></trkpt><trkpt lat="44.740411754998654" lon="7.3331229991692215"><ele>357.75</ele><time>2026-04-16T17:21:22Z</time></trkpt><trkpt lat="44.740525259947084" lon="7.333112716790739"><ele>358.0</ele><time>2026-04-16T17:21:24Z</time></trkpt><trkpt lat="44.74063740135246" lon="7.333103232211493"><ele>358.0</ele><time>2026-04-16T17:21:26Z</time></trkpt><trkpt lat="44.74074829207593" lon="7.333097173211383"><ele>358.0</ele><time>2026-04-16T17:21:28Z</time></trkpt><trkpt lat="44.74085844428458" lon="7.333087767765951"><ele>358.0</ele><time>2026-04-16T17:21:30Z</time></trkpt><trkpt lat="44.74096678631442" lon="7.333080116140543"><ele>358.0</ele><time>2026-04-16T17:21:32Z</time></trkpt><trkpt lat="44.74107298231402" lon="7.333071327143721"><ele>358.0</ele><time>2026-04-16T17:21:34Z</time></trkpt><trkpt lat="44.74116662893079" lon="7.3330616652695255"><ele>358.5</ele><time>2026-04-16T17:21:36Z</time></trkpt><trkpt lat="44.74124842915745" lon="7.333059242126874"><ele>359.0</ele><time>2026-04-16T17:21:38Z</time></trkpt><trkpt lat="44.74132390364227" lon="7.333053345013846"><ele>359.5</ele><time>2026-04-16T17:21:40Z</time></trkpt><trkpt lat="44.741393660431726" lon="7.333047324823708"><ele>360.0</ele><time>2026-04-16T17:21:42Z</time></trkpt><trkpt lat="44.74146588256666" lon="7.333044206930074"><ele>360.5</ele><time>2026-04-16T17:21:44Z</time></trkpt><trkpt lat="44.74155187069928" lon="7.333033138144959"><ele>361.0</ele><time>2026-04-16T17:21:46Z</time></trkpt><trkpt lat="44.7416510233337" lon="7.3330061544083875"><ele>361.20000000000005</ele><time>2026-04-16T17:21:48Z</time></trkpt><trkpt lat="44.741756435465994" lon="7.332999440240296"><ele>361.40000000000003</ele><time>2026-04-16T17:21:50Z</time></trkpt><trkpt lat="44.741867915013884" lon="7.332990941596608"><ele>361.6</ele><time>2026-04-16T17:21:52Z</time></trkpt><trkpt lat="44.74198105909584" lon="7.332985885405858"><ele>361.8</ele><time>2026-04-16T17:21:54Z</time></trkpt><trkpt lat="44.742095772940196" lon="7.332992478705387"><ele>362.0</ele><time>2026-04-16T17:21:56Z</time></trkpt><trkpt lat="44.74221063146288" lon="7.332982697016939"><ele>361.25</ele><time>2026-04-16T17:21:58Z</time></trkpt><trkpt lat="44.74232547865838" lon="7.332973888402878"><ele>360.5</ele><time>2026-04-16T17:22:00Z</time></trkpt><trkpt lat="44.74244060808558" lon="7.3329638830772454"><ele>359.75</ele><time>2026-04-16T17:22:02Z</time></trkpt><trkpt lat="44.74255603368688" lon="7.332951082461687"><ele>359.0</ele><time>2026-04-16T17:22:04Z</time></trkpt><trkpt lat="44.74266991333302" lon="7.332940060475718"><ele>359.0</ele><time>2026-04-16T17:22:06Z</time></trkpt><trkpt lat="44.74278262453972" lon="7.332936582429403"><ele>359.0</ele><time>2026-04-16T17:22:08Z</time></trkpt><trkpt lat="44.74289364158666" lon="7.332930179065942"><ele>359.0</ele><time>2026-04-16T17:22:10Z</time></trkpt><trkpt lat="44.74300373822205" lon="7.332917647460644"><ele>359.0</ele><time>2026-04-16T17:22:12Z</time></trkpt><trkpt lat="44.743115249328156" lon="7.33290653589522"><ele>359.0</ele><time>2026-04-16T17:22:14.001Z</time></trkpt><trkpt lat="44.743225561434265" lon="7.332900606563551"><ele>359.0</ele><time>2026-04-16T17:22:16.001Z</time></trkpt><trkpt lat="44.74334046647545" lon="7.332892708316445"><ele>359.0</ele><time>2026-04-16T17:22:18.001Z</time></trkpt><trkpt lat="44.743453440157474" lon="7.332883582536865"><ele>359.0</ele><time>2026-04-16T17:22:20.001Z</time></trkpt><trkpt lat="44.743566268852085" lon="7.332873416640679"><ele>359.0</ele><time>2026-04-16T17:22:22.001Z</time></trkpt><trkpt lat="44.74368047866635" lon="7.332863533135065"><ele>359.25</ele><time>2026-04-16T17:22:24.001Z</time></trkpt><trkpt lat="44.74379350387034" lon="7.332853954921293"><ele>359.5</ele><time>2026-04-16T17:22:26.001Z</time></trkpt><trkpt lat="44.743907351552856" lon="7.332842451118466"><ele>359.75</ele><time>2026-04-16T17:22:28.001Z</time></trkpt><trkpt lat="44.744021120693084" lon="7.332831052339955"><ele>360.0</ele><time>2026-04-16T17:22:30.001Z</time></trkpt><trkpt lat="44.74413618827594" lon="7.33281508218908"><ele>360.0</ele><time>2026-04-16T17:22:32.001Z</time></trkpt><trkpt lat="44.744249592175485" lon="7.332798901084868"><ele>360.0</ele><time>2026-04-16T17:22:34.001Z</time></trkpt><trkpt lat="44.74436627412626" lon="7.332783969050829"><ele>360.0</ele><time>2026-04-16T17:22:36.001Z</time></trkpt><trkpt lat="44.744484193730564" lon="7.3327644126927405"><ele>360.0</ele><time>2026-04-16T17:22:38.001Z</time></trkpt><trkpt lat="44.7446005371013" lon="7.332747008085435"><ele>359.75</ele><time>2026-04-16T17:22:40.001Z</time></trkpt><trkpt lat="44.74471434615695" lon="7.3327193582735815"><ele>359.5</ele><time>2026-04-16T17:22:42.001Z</time></trkpt><trkpt lat="44.74483138208547" lon="7.332690965470224"><ele>359.25</ele><time>2026-04-16T17:22:44.001Z</time></trkpt><trkpt lat="44.74494899437976" lon="7.332664469800578"><ele>359.0</ele><time>2026-04-16T17:22:46.001Z</time></trkpt><trkpt lat="44.74506454680239" lon="7.332633353398719"><ele>359.0</ele><time>2026-04-16T17:22:48.001Z</time></trkpt><trkpt lat="44.74518160733336" lon="7.33259550692195"><ele>359.0</ele><time>2026-04-16T17:22:50.001Z</time></trkpt><trkpt lat="44.74529825774304" lon="7.33255776825247"><ele>359.0</ele><time>2026-04-16T17:22:52.001Z</time></trkpt><trkpt lat="44.74541420490094" lon="7.332521115807961"><ele>359.0</ele><time>2026-04-16T17:22:54.001Z</time></trkpt><trkpt lat="44.74553098993072" lon="7.332480243276018"><ele>358.25</ele><time>2026-04-16T17:22:56.001Z</time></trkpt><trkpt lat="44.74564730449239" lon="7.332445490141414"><ele>357.5</ele><time>2026-04-16T17:22:58.001Z</time></trkpt><trkpt lat="44.745765467077234" lon="7.332400644489285"><ele>356.75</ele><time>2026-04-16T17:23:00.001Z</time></trkpt><trkpt lat="44.74588378261846" lon="7.332351562965228"><ele>356.0</ele><time>2026-04-16T17:23:02.001Z</time></trkpt><trkpt lat="44.74599912476321" lon="7.332301134262252"><ele>355.75</ele><time>2026-04-16T17:23:04.001Z</time></trkpt><trkpt lat="44.74611551356766" lon="7.3322505411904775"><ele>355.5</ele><time>2026-04-16T17:23:06.001Z</time></trkpt><trkpt lat="44.7462300113537" lon="7.332197068350843"><ele>355.25</ele><time>2026-04-16T17:23:08.001Z</time></trkpt><trkpt lat="44.74634279129725" lon="7.332139094481965"><ele>355.0</ele><time>2026-04-16T17:23:10.001Z</time></trkpt><trkpt lat="44.746456620254314" lon="7.332074627765188"><ele>355.5</ele><time>2026-04-16T17:23:12.001Z</time></trkpt><trkpt lat="44.74656671387377" lon="7.3320121879744375"><ele>356.0</ele><time>2026-04-16T17:23:14.001Z</time></trkpt><trkpt lat="44.74667885167065" lon="7.331948500997705"><ele>356.5</ele><time>2026-04-16T17:23:16.001Z</time></trkpt><trkpt lat="44.74678958093603" lon="7.331885299065"><ele>357.0</ele><time>2026-04-16T17:23:18.001Z</time></trkpt><trkpt lat="44.74689829854334" lon="7.331820933911817"><ele>357.0</ele><time>2026-04-16T17:23:20.001Z</time></trkpt><trkpt lat="44.74700750397316" lon="7.331758160009366"><ele>357.0</ele><time>2026-04-16T17:23:22Z</time></trkpt><trkpt lat="44.74711494467811" lon="7.331692682346387"><ele>357.0</ele><time>2026-04-16T17:23:24Z</time></trkpt><trkpt lat="44.74721989426951" lon="7.331621738925294"><ele>357.0</ele><time>2026-04-16T17:23:26Z</time></trkpt><trkpt lat="44.74732419157073" lon="7.331545338450072"><ele>357.0</ele><time>2026-04-16T17:23:28Z</time></trkpt><trkpt lat="44.74742763604423" lon="7.331468916411751"><ele>357.0</ele><time>2026-04-16T17:23:30Z</time></trkpt><trkpt lat="44.7475302703472" lon="7.33139150281403"><ele>357.0</ele><time>2026-04-16T17:23:32Z</time></trkpt><trkpt lat="44.74763514287506" lon="7.331315555331612"><ele>357.0</ele><time>2026-04-16T17:23:34Z</time></trkpt><trkpt lat="44.747739095252726" lon="7.331234664512956"><ele>356.25</ele><time>2026-04-16T17:23:36.001Z</time></trkpt><trkpt lat="44.7478398360656" lon="7.33115238344854"><ele>355.5</ele><time>2026-04-16T17:23:38Z</time></trkpt><trkpt lat="44.74793959833796" lon="7.331069733885268"><ele>354.75</ele><time>2026-04-16T17:23:40Z</time></trkpt><trkpt lat="44.74803760700153" lon="7.330986476022643"><ele>354.0</ele><time>2026-04-16T17:23:42Z</time></trkpt><trkpt lat="44.748131297076114" lon="7.330899652113617"><ele>354.0</ele><time>2026-04-16T17:23:44Z</time></trkpt><trkpt lat="44.7482243286439" lon="7.330817855817472"><ele>354.0</ele><time>2026-04-16T17:23:46Z</time></trkpt><trkpt lat="44.748314988025164" lon="7.330729196977629"><ele>354.0</ele><time>2026-04-16T17:23:48Z</time></trkpt><trkpt lat="44.74840483344759" lon="7.330649509129902"><ele>354.0</ele><time>2026-04-16T17:23:50Z</time></trkpt><trkpt lat="44.7484886491422" lon="7.330559981787316"><ele>354.0</ele><time>2026-04-16T17:23:52Z</time></trkpt><trkpt lat="44.74857639526109" lon="7.330475459355969"><ele>354.4</ele><time>2026-04-16T17:23:54Z</time></trkpt><trkpt lat="44.74866327611175" lon="7.330392815855419"><ele>354.79999999999995</ele><time>2026-04-16T17:23:56Z</time></trkpt><trkpt lat="44.748747971331895" lon="7.330301315069975"><ele>355.20000000000005</ele><time>2026-04-16T17:23:58Z</time></trkpt><trkpt lat="44.7488299075493" lon="7.33020950978143"><ele>355.6</ele><time>2026-04-16T17:24:00Z</time></trkpt><trkpt lat="44.74891534868168" lon="7.330118645782023"><ele>356.0</ele><time>2026-04-16T17:24:02Z</time></trkpt><trkpt lat="44.749004539145005" lon="7.330023170991865"><ele>356.0</ele><time>2026-04-16T17:24:04Z</time></trkpt><trkpt lat="44.74909014013418" lon="7.329922666004962"><ele>356.0</ele><time>2026-04-16T17:24:06Z</time></trkpt><trkpt lat="44.749173849736636" lon="7.329820972895673"><ele>356.0</ele><time>2026-04-16T17:24:08Z</time></trkpt><trkpt lat="44.74925802778664" lon="7.329717791309792"><ele>356.0</ele><time>2026-04-16T17:24:10Z</time></trkpt><trkpt lat="44.74933948475325" lon="7.329611173130444"><ele>356.0</ele><time>2026-04-16T17:24:12Z</time></trkpt><trkpt lat="44.749421193918884" lon="7.329504235515335"><ele>355.8</ele><time>2026-04-16T17:24:14Z</time></trkpt><trkpt lat="44.7494972722578" lon="7.3293918959394935"><ele>355.6</ele><time>2026-04-16T17:24:16Z</time></trkpt><trkpt lat="44.749581453323465" lon="7.329293865478072"><ele>355.4</ele><time>2026-04-16T17:24:18Z</time></trkpt><trkpt lat="44.74965840493382" lon="7.329189530650729"><ele>355.2</ele><time>2026-04-16T17:24:20Z</time></trkpt><trkpt lat="44.749736164298724" lon="7.3290835367621066"><ele>355.0</ele><time>2026-04-16T17:24:22.001Z</time></trkpt><trkpt lat="44.74981437262434" lon="7.328969191766463"><ele>355.6</ele><time>2026-04-16T17:24:24.001Z</time></trkpt><trkpt lat="44.74988993374864" lon="7.328860060464847"><ele>356.2</ele><time>2026-04-16T17:24:26.001Z</time></trkpt><trkpt lat="44.7499644748902" lon="7.328747601320694"><ele>356.79999999999995</ele><time>2026-04-16T17:24:28.001Z</time></trkpt><trkpt lat="44.7500387467092" lon="7.328636932986572"><ele>357.4</ele><time>2026-04-16T17:24:30.001Z</time></trkpt><trkpt lat="44.75011445479357" lon="7.3285258996062055"><ele>358.0</ele><time>2026-04-16T17:24:32.001Z</time></trkpt><trkpt lat="44.75018763582823" lon="7.328412610585506"><ele>358.0</ele><time>2026-04-16T17:24:34.001Z</time></trkpt><trkpt lat="44.75026029434896" lon="7.3283021810986115"><ele>358.0</ele><time>2026-04-16T17:24:36.001Z</time></trkpt><trkpt lat="44.75033046193235" lon="7.328195395597244"><ele>358.0</ele><time>2026-04-16T17:24:38.001Z</time></trkpt><trkpt lat="44.75040252260555" lon="7.32809079524157"><ele>358.0</ele><time>2026-04-16T17:24:40.001Z</time></trkpt><trkpt lat="44.75046978178103" lon="7.327982259264001"><ele>358.0</ele><time>2026-04-16T17:24:42.001Z</time></trkpt><trkpt lat="44.75053883653025" lon="7.327877128266938"><ele>358.0</ele><time>2026-04-16T17:24:44.001Z</time></trkpt><trkpt lat="44.75061068707188" lon="7.327763991390866"><ele>358.0</ele><time>2026-04-16T17:24:46.001Z</time></trkpt><trkpt lat="44.75068167795556" lon="7.327650152242244"><ele>358.0</ele><time>2026-04-16T17:24:48.001Z</time></trkpt><trkpt lat="44.75075447160966" lon="7.3275359642538715"><ele>358.0</ele><time>2026-04-16T17:24:50.001Z</time></trkpt><trkpt lat="44.75083384767311" lon="7.32742617936717"><ele>358.0</ele><time>2026-04-16T17:24:52.001Z</time></trkpt><trkpt lat="44.75090967721314" lon="7.327306586027239"><ele>358.0</ele><time>2026-04-16T17:24:54.001Z</time></trkpt><trkpt lat="44.750989849341885" lon="7.327194882794194"><ele>358.0</ele><time>2026-04-16T17:24:56.001Z</time></trkpt><trkpt lat="44.751075761195345" lon="7.3270864057024845"><ele>358.0</ele><time>2026-04-16T17:24:58.001Z</time></trkpt><trkpt lat="44.75116388519063" lon="7.326985396669747"><ele>358.0</ele><time>2026-04-16T17:25:00.001Z</time></trkpt><trkpt lat="44.7512520473455" lon="7.326890281116243"><ele>358.0</ele><time>2026-04-16T17:25:02.001Z</time></trkpt><trkpt lat="44.751341755442084" lon="7.326798938766418"><ele>358.0</ele><time>2026-04-16T17:25:04.001Z</time></trkpt><trkpt lat="44.75143681033939" lon="7.326714301036791"><ele>358.0</ele><time>2026-04-16T17:25:06.001Z</time></trkpt><trkpt lat="44.75153037466278" lon="7.326633959857518"><ele>358.0</ele><time>2026-04-16T17:25:08.001Z</time></trkpt><trkpt lat="44.751624736158064" lon="7.326554385883033"><ele>358.0</ele><time>2026-04-16T17:25:10.001Z</time></trkpt><trkpt lat="44.751725200249986" lon="7.326480790180408"><ele>358.0</ele><time>2026-04-16T17:25:12.001Z</time></trkpt><trkpt lat="44.75182325523889" lon="7.326408030920382"><ele>358.0</ele><time>2026-04-16T17:25:14.001Z</time></trkpt><trkpt lat="44.75192353512965" lon="7.326344356904428"><ele>358.0</ele><time>2026-04-16T17:25:16.001Z</time></trkpt><trkpt lat="44.752024180515605" lon="7.326277802905039"><ele>358.0</ele><time>2026-04-16T17:25:18.001Z</time></trkpt><trkpt lat="44.752133058492504" lon="7.326225213051294"><ele>358.0</ele><time>2026-04-16T17:25:20.001Z</time></trkpt><trkpt lat="44.75224306229052" lon="7.326167436559927"><ele>358.75</ele><time>2026-04-16T17:25:22.001Z</time></trkpt><trkpt lat="44.752355542131305" lon="7.326108772458457"><ele>359.5</ele><time>2026-04-16T17:25:24.001Z</time></trkpt><trkpt lat="44.75246703903736" lon="7.326046552606577"><ele>360.25</ele><time>2026-04-16T17:25:26.001Z</time></trkpt><trkpt lat="44.75257518096921" lon="7.325987188277456"><ele>361.0</ele><time>2026-04-16T17:25:28Z</time></trkpt><trkpt lat="44.75268490882928" lon="7.325933315054086"><ele>360.5</ele><time>2026-04-16T17:25:30Z</time></trkpt><trkpt lat="44.75279491745574" lon="7.325879692472069"><ele>360.0</ele><time>2026-04-16T17:25:32Z</time></trkpt><trkpt lat="44.752903106435085" lon="7.325823987312413"><ele>359.5</ele><time>2026-04-16T17:25:34Z</time></trkpt><trkpt lat="44.75300923272165" lon="7.325768495116936"><ele>359.0</ele><time>2026-04-16T17:25:36Z</time></trkpt><trkpt lat="44.75311315929153" lon="7.325713903565068"><ele>359.0</ele><time>2026-04-16T17:25:38Z</time></trkpt><trkpt lat="44.75321463167302" lon="7.325664488058834"><ele>359.0</ele><time>2026-04-16T17:25:40Z</time></trkpt><trkpt lat="44.753314048873534" lon="7.325594412351103"><ele>359.0</ele><time>2026-04-16T17:25:42Z</time></trkpt><trkpt lat="44.75341579130794" lon="7.325526116191386"><ele>359.0</ele><time>2026-04-16T17:25:44Z</time></trkpt><trkpt lat="44.75352203206323" lon="7.325465549905167"><ele>359.0</ele><time>2026-04-16T17:25:46Z</time></trkpt><trkpt lat="44.75362123413233" lon="7.325393782606263"><ele>359.0</ele><time>2026-04-16T17:25:48Z</time></trkpt><trkpt lat="44.753718978247775" lon="7.325323389325346"><ele>359.0</ele><time>2026-04-16T17:25:50Z</time></trkpt><trkpt lat="44.75381466844438" lon="7.325248324254478"><ele>359.0</ele><time>2026-04-16T17:25:52Z</time></trkpt><trkpt lat="44.75390510197296" lon="7.325168762800715"><ele>359.0</ele><time>2026-04-16T17:25:54Z</time></trkpt><trkpt lat="44.75399488347536" lon="7.325089835269683"><ele>359.0</ele><time>2026-04-16T17:25:56Z</time></trkpt><trkpt lat="44.75408361001903" lon="7.325004658143582"><ele>359.0</ele><time>2026-04-16T17:25:58Z</time></trkpt><trkpt lat="44.75417235510981" lon="7.324919228580947"><ele>359.0</ele><time>2026-04-16T17:26:00Z</time></trkpt><trkpt lat="44.754260083390506" lon="7.324832091430556"><ele>359.0</ele><time>2026-04-16T17:26:02Z</time></trkpt><trkpt lat="44.75434525998992" lon="7.324737006237704"><ele>359.0</ele><time>2026-04-16T17:26:04Z</time></trkpt><trkpt lat="44.75443097937505" lon="7.324641566121008"><ele>359.0</ele><time>2026-04-16T17:26:06Z</time></trkpt><trkpt lat="44.754514075115644" lon="7.324542288503398"><ele>359.0</ele><time>2026-04-16T17:26:08Z</time></trkpt><trkpt lat="44.75459263848581" lon="7.324438987335917"><ele>359.0</ele><time>2026-04-16T17:26:10Z</time></trkpt><trkpt lat="44.75466958866686" lon="7.3243379515877"><ele>359.0</ele><time>2026-04-16T17:26:12Z</time></trkpt><trkpt lat="44.754743794001904" lon="7.324235130683204"><ele>359.0</ele><time>2026-04-16T17:26:14Z</time></trkpt><trkpt lat="44.75481542793939" lon="7.324131790037485"><ele>359.0</ele><time>2026-04-16T17:26:16Z</time></trkpt><trkpt lat="44.7548826311648" lon="7.324021363085253"><ele>359.0</ele><time>2026-04-16T17:26:18Z</time></trkpt><trkpt lat="44.75495220866135" lon="7.323909140649867"><ele>359.0</ele><time>2026-04-16T17:26:20Z</time></trkpt><trkpt lat="44.75502175893971" lon="7.323795019271632"><ele>359.0</ele><time>2026-04-16T17:26:22Z</time></trkpt><trkpt lat="44.75509223900296" lon="7.32367928774229"><ele>359.0</ele><time>2026-04-16T17:26:24Z</time></trkpt><trkpt lat="44.755163438009994" lon="7.323560111485001"><ele>359.0</ele><time>2026-04-16T17:26:26Z</time></trkpt><trkpt lat="44.75523237564851" lon="7.323440250005059"><ele>358.6</ele><time>2026-04-16T17:26:28.001Z</time></trkpt><trkpt lat="44.75530452047937" lon="7.323321395276952"><ele>358.2</ele><time>2026-04-16T17:26:30.001Z</time></trkpt><trkpt lat="44.7553763967065" lon="7.323198630142066"><ele>357.8</ele><time>2026-04-16T17:26:32.001Z</time></trkpt><trkpt lat="44.75544944119413" lon="7.323078083222907"><ele>357.40000000000003</ele><time>2026-04-16T17:26:34.001Z</time></trkpt><trkpt lat="44.75552084129209" lon="7.322956252435203"><ele>357.0</ele><time>2026-04-16T17:26:36.001Z</time></trkpt><trkpt lat="44.75558926437489" lon="7.322835862119736"><ele>357.8</ele><time>2026-04-16T17:26:38.001Z</time></trkpt><trkpt lat="44.75566080692974" lon="7.322719910501672"><ele>358.6</ele><time>2026-04-16T17:26:40.001Z</time></trkpt><trkpt lat="44.75573625729249" lon="7.322608829373487"><ele>359.40000000000003</ele><time>2026-04-16T17:26:42.001Z</time></trkpt><trkpt lat="44.75580897713341" lon="7.322497660606758"><ele>360.20000000000005</ele><time>2026-04-16T17:26:44.001Z</time></trkpt><trkpt lat="44.75588793358419" lon="7.322399734682525"><ele>361.0</ele><time>2026-04-16T17:26:46.001Z</time></trkpt><trkpt lat="44.7559680305562" lon="7.322299020904514"><ele>361.0</ele><time>2026-04-16T17:26:48.001Z</time></trkpt><trkpt lat="44.75605259331521" lon="7.322198953592311"><ele>361.0</ele><time>2026-04-16T17:26:50.001Z</time></trkpt><trkpt lat="44.75613642625767" lon="7.322099338427167"><ele>361.0</ele><time>2026-04-16T17:26:52.001Z</time></trkpt><trkpt lat="44.756222770098915" lon="7.322000604277223"><ele>361.0</ele><time>2026-04-16T17:26:54.001Z</time></trkpt><trkpt lat="44.75631132532178" lon="7.321908058782755"><ele>361.0</ele><time>2026-04-16T17:26:56.001Z</time></trkpt><trkpt lat="44.75640338926944" lon="7.321818945208878"><ele>361.0</ele><time>2026-04-16T17:26:58.001Z</time></trkpt><trkpt lat="44.75649213747371" lon="7.32172673468874"><ele>361.0</ele><time>2026-04-16T17:27:00.001Z</time></trkpt><trkpt lat="44.75658169867268" lon="7.321641073239249"><ele>361.0</ele><time>2026-04-16T17:27:02.001Z</time></trkpt><trkpt lat="44.756672635263506" lon="7.321560625548336"><ele>361.0</ele><time>2026-04-16T17:27:04.001Z</time></trkpt><trkpt lat="44.75676929776316" lon="7.321489421843734"><ele>361.0</ele><time>2026-04-16T17:27:06.001Z</time></trkpt><trkpt lat="44.75687107174693" lon="7.321413953084749"><ele>360.25</ele><time>2026-04-16T17:27:08.001Z</time></trkpt><trkpt lat="44.756976841387065" lon="7.32135019026576"><ele>359.5</ele><time>2026-04-16T17:27:10.001Z</time></trkpt><trkpt lat="44.75708359845849" lon="7.321282310693582"><ele>358.75</ele><time>2026-04-16T17:27:12.001Z</time></trkpt><trkpt lat="44.75719259597453" lon="7.321221651568291"><ele>358.0</ele><time>2026-04-16T17:27:14.001Z</time></trkpt><trkpt lat="44.75729994424548" lon="7.3211557969366705"><ele>358.0</ele><time>2026-04-16T17:27:16.001Z</time></trkpt><trkpt lat="44.75740678671233" lon="7.321093373942188"><ele>358.0</ele><time>2026-04-16T17:27:18.001Z</time></trkpt><trkpt lat="44.7575138503496" lon="7.321029616373345"><ele>358.0</ele><time>2026-04-16T17:27:20.001Z</time></trkpt><trkpt lat="44.75762003001081" lon="7.3209654623545335"><ele>358.0</ele><time>2026-04-16T17:27:22.001Z</time></trkpt><trkpt lat="44.75772635195485" lon="7.320898802976887"><ele>358.75</ele><time>2026-04-16T17:27:24.001Z</time></trkpt><trkpt lat="44.75783174447865" lon="7.320841413307604"><ele>359.5</ele><time>2026-04-16T17:27:26.001Z</time></trkpt><trkpt lat="44.757936197953335" lon="7.320782689647203"><ele>360.25</ele><time>2026-04-16T17:27:28.001Z</time></trkpt><trkpt lat="44.75804122483225" lon="7.320720408509775"><ele>361.0</ele><time>2026-04-16T17:27:30.001Z</time></trkpt><trkpt lat="44.75814428661424" lon="7.320658126687711"><ele>361.0</ele><time>2026-04-16T17:27:32.001Z</time></trkpt><trkpt lat="44.75824548456407" lon="7.320592990663132"><ele>361.0</ele><time>2026-04-16T17:27:34Z</time></trkpt><trkpt lat="44.758347671342634" lon="7.320524347642892"><ele>361.0</ele><time>2026-04-16T17:27:36Z</time></trkpt><trkpt lat="44.758446451541985" lon="7.320461132488772"><ele>361.0</ele><time>2026-04-16T17:27:38Z</time></trkpt><trkpt lat="44.758542894128105" lon="7.320400658354952"><ele>361.0</ele><time>2026-04-16T17:27:40Z</time></trkpt><trkpt lat="44.7586370545089" lon="7.320330503219273"><ele>360.6</ele><time>2026-04-16T17:27:42Z</time></trkpt><trkpt lat="44.75872322692861" lon="7.320256203488686"><ele>360.20000000000005</ele><time>2026-04-16T17:27:44Z</time></trkpt><trkpt lat="44.758802037808906" lon="7.320182574882476"><ele>359.79999999999995</ele><time>2026-04-16T17:27:46Z</time></trkpt><trkpt lat="44.75888665116279" lon="7.320111917431145"><ele>359.4</ele><time>2026-04-16T17:27:48Z</time></trkpt><trkpt lat="44.758973764546624" lon="7.320026160047321"><ele>359.0</ele><time>2026-04-16T17:27:50Z</time></trkpt><trkpt lat="44.75906022228696" lon="7.319927817339831"><ele>359.0</ele><time>2026-04-16T17:27:52Z</time></trkpt><trkpt lat="44.75915058445372" lon="7.319833693010259"><ele>359.0</ele><time>2026-04-16T17:27:54Z</time></trkpt><trkpt lat="44.75924007480579" lon="7.3197463187071525"><ele>359.0</ele><time>2026-04-16T17:27:56Z</time></trkpt><trkpt lat="44.75932863368326" lon="7.319655487292315"><ele>359.0</ele><time>2026-04-16T17:27:58Z</time></trkpt><trkpt lat="44.75941303974773" lon="7.319560433919149"><ele>359.0</ele><time>2026-04-16T17:28:00Z</time></trkpt><trkpt lat="44.75949286413738" lon="7.319459570124068"><ele>359.4</ele><time>2026-04-16T17:28:02Z</time></trkpt><trkpt lat="44.759575913341266" lon="7.319362745542728"><ele>359.79999999999995</ele><time>2026-04-16T17:28:04Z</time></trkpt><trkpt lat="44.75965986535899" lon="7.3192689976836025"><ele>360.20000000000005</ele><time>2026-04-16T17:28:06Z</time></trkpt><trkpt lat="44.75974079531" lon="7.319174673019687"><ele>360.6</ele><time>2026-04-16T17:28:08Z</time></trkpt><trkpt lat="44.75982046554316" lon="7.319074498330698"><ele>361.0</ele><time>2026-04-16T17:28:10Z</time></trkpt><trkpt lat="44.75990251075636" lon="7.318975494699918"><ele>361.0</ele><time>2026-04-16T17:28:12Z</time></trkpt><trkpt lat="44.759983289343005" lon="7.3188750622965175"><ele>361.0</ele><time>2026-04-16T17:28:14Z</time></trkpt><trkpt lat="44.7600675397645" lon="7.318780588199164"><ele>361.0</ele><time>2026-04-16T17:28:16Z</time></trkpt><trkpt lat="44.7601483943133" lon="7.318680751810222"><ele>361.0</ele><time>2026-04-16T17:28:18Z</time></trkpt><trkpt lat="44.760226998882416" lon="7.318578213578204"><ele>361.0</ele><time>2026-04-16T17:28:20Z</time></trkpt><trkpt lat="44.76031230688036" lon="7.318482908725313"><ele>361.0</ele><time>2026-04-16T17:28:22Z</time></trkpt><trkpt lat="44.76039331342273" lon="7.318382173275246"><ele>361.0</ele><time>2026-04-16T17:28:24Z</time></trkpt><trkpt lat="44.76047316027164" lon="7.318282419222083"><ele>361.0</ele><time>2026-04-16T17:28:26Z</time></trkpt><trkpt lat="44.76055110652733" lon="7.318179640450922"><ele>361.0</ele><time>2026-04-16T17:28:28Z</time></trkpt><trkpt lat="44.7606366409656" lon="7.3180893826249305"><ele>361.0</ele><time>2026-04-16T17:28:30Z</time></trkpt><trkpt lat="44.76071469266102" lon="7.317984312488481"><ele>361.0</ele><time>2026-04-16T17:28:32.001Z</time></trkpt><trkpt lat="44.76079562009242" lon="7.317885740975095"><ele>361.0</ele><time>2026-04-16T17:28:34.001Z</time></trkpt><trkpt lat="44.760875936264746" lon="7.317786681892618"><ele>361.0</ele><time>2026-04-16T17:28:36.001Z</time></trkpt><trkpt lat="44.76095343084666" lon="7.317683872494357"><ele>361.0</ele><time>2026-04-16T17:28:38.001Z</time></trkpt><trkpt lat="44.761032446808386" lon="7.317580915274343"><ele>361.0</ele><time>2026-04-16T17:28:40.001Z</time></trkpt><trkpt lat="44.761113582362235" lon="7.317482843890418"><ele>361.0</ele><time>2026-04-16T17:28:42.001Z</time></trkpt><trkpt lat="44.76119395850571" lon="7.317381470463437"><ele>361.0</ele><time>2026-04-16T17:28:44.001Z</time></trkpt><trkpt lat="44.76127484646625" lon="7.317276490955307"><ele>361.0</ele><time>2026-04-16T17:28:46.001Z</time></trkpt><trkpt lat="44.76136163706431" lon="7.317178784020094"><ele>361.0</ele><time>2026-04-16T17:28:48.001Z</time></trkpt><trkpt lat="44.761443261538744" lon="7.317075950827716"><ele>361.0</ele><time>2026-04-16T17:28:50.001Z</time></trkpt><trkpt lat="44.7615255514372" lon="7.316972887424829"><ele>360.8</ele><time>2026-04-16T17:28:52.001Z</time></trkpt><trkpt lat="44.761606995950814" lon="7.3168704859089475"><ele>360.6</ele><time>2026-04-16T17:28:54.001Z</time></trkpt><trkpt lat="44.76169182614953" lon="7.316768553034766"><ele>360.4</ele><time>2026-04-16T17:28:56.001Z</time></trkpt><trkpt lat="44.761778151028764" lon="7.316670158189117"><ele>360.2</ele><time>2026-04-16T17:28:58.001Z</time></trkpt><trkpt lat="44.76186470313633" lon="7.316574392124665"><ele>360.0</ele><time>2026-04-16T17:29:00.001Z</time></trkpt><trkpt lat="44.761949875932636" lon="7.316475876971119"><ele>360.4</ele><time>2026-04-16T17:29:02.001Z</time></trkpt><trkpt lat="44.76202752558926" lon="7.3163736106659005"><ele>360.8</ele><time>2026-04-16T17:29:04.001Z</time></trkpt><trkpt lat="44.76209517959411" lon="7.316269723866664"><ele>361.20000000000005</ele><time>2026-04-16T17:29:06.001Z</time></trkpt><trkpt lat="44.76216601470614" lon="7.31618204361733"><ele>361.6</ele><time>2026-04-16T17:29:08.001Z</time></trkpt><trkpt lat="44.76223161311885" lon="7.316120442564559"><ele>362.0</ele><time>2026-04-16T17:29:10.001Z</time></trkpt><trkpt lat="44.76229903449659" lon="7.316070081576473"><ele>362.0</ele><time>2026-04-16T17:29:12.001Z</time></trkpt><trkpt lat="44.76230350711752" lon="7.3159554766130706"><ele>362.0</ele><time>2026-04-16T17:29:15.001Z</time></trkpt><trkpt lat="44.762288560525725" lon="7.315864162014299"><ele>362.0</ele><time>2026-04-16T17:29:17.001Z</time></trkpt><trkpt lat="44.76229161306819" lon="7.315740774094506"><ele>362.0</ele><time>2026-04-16T17:29:19.001Z</time></trkpt><trkpt lat="44.762349930378875" lon="7.315633053583705"><ele>362.0</ele><time>2026-04-16T17:29:21.001Z</time></trkpt><trkpt lat="44.762433454053564" lon="7.315555416187402"><ele>362.0</ele><time>2026-04-16T17:29:23.001Z</time></trkpt><trkpt lat="44.762518750816064" lon="7.315469526929674"><ele>361.8</ele><time>2026-04-16T17:29:25.001Z</time></trkpt><trkpt lat="44.76260666818644" lon="7.315382696729854"><ele>361.6</ele><time>2026-04-16T17:29:27.001Z</time></trkpt><trkpt lat="44.76268260631249" lon="7.315296090900804"><ele>361.40000000000003</ele><time>2026-04-16T17:29:29.001Z</time></trkpt><trkpt lat="44.76276417497419" lon="7.315207788342439"><ele>361.20000000000005</ele><time>2026-04-16T17:29:31.001Z</time></trkpt><trkpt lat="44.76284290315467" lon="7.3151209383455305"><ele>361.0</ele><time>2026-04-16T17:29:33.001Z</time></trkpt><trkpt lat="44.762915980716585" lon="7.315017207277767"><ele>361.0</ele><time>2026-04-16T17:29:35.001Z</time></trkpt><trkpt lat="44.76297570914678" lon="7.314893181598178"><ele>361.0</ele><time>2026-04-16T17:29:37.001Z</time></trkpt><trkpt lat="44.76301554265376" lon="7.314756575723807"><ele>361.0</ele><time>2026-04-16T17:29:39.001Z</time></trkpt><trkpt lat="44.76307720629237" lon="7.314631758642582"><ele>361.0</ele><time>2026-04-16T17:29:41Z</time></trkpt><trkpt lat="44.763159714295014" lon="7.314538252397236"><ele>361.0</ele><time>2026-04-16T17:29:43Z</time></trkpt><trkpt lat="44.76324500135129" lon="7.314448927047256"><ele>361.20000000000005</ele><time>2026-04-16T17:29:45Z</time></trkpt><trkpt lat="44.763324548191704" lon="7.314359497723298"><ele>361.40000000000003</ele><time>2026-04-16T17:29:47Z</time></trkpt><trkpt lat="44.76340257423006" lon="7.314264219928327"><ele>361.6</ele><time>2026-04-16T17:29:49Z</time></trkpt><trkpt lat="44.763481830385466" lon="7.314171500668295"><ele>361.8</ele><time>2026-04-16T17:29:51Z</time></trkpt><trkpt lat="44.76355603400208" lon="7.3140725756297975"><ele>362.0</ele><time>2026-04-16T17:29:53Z</time></trkpt><trkpt lat="44.76362537379591" lon="7.313971036508936"><ele>361.6666666666667</ele><time>2026-04-16T17:29:55Z</time></trkpt><trkpt lat="44.76368748933188" lon="7.313875154836038"><ele>361.33333333333337</ele><time>2026-04-16T17:29:57Z</time></trkpt><trkpt lat="44.76375357195333" lon="7.313834274596729"><ele>361.0</ele><time>2026-04-16T17:29:59Z</time></trkpt><trkpt lat="44.76380983828642" lon="7.313885381051802"><ele>360.6666666666667</ele><time>2026-04-16T17:30:01Z</time></trkpt><trkpt lat="44.76383218956071" lon="7.313986526417643"><ele>360.3333333333333</ele><time>2026-04-16T17:30:03Z</time></trkpt><trkpt lat="44.76389217360615" lon="7.31403458307949"><ele>360.0</ele><time>2026-04-16T17:30:05Z</time></trkpt><trkpt lat="44.76398024155646" lon="7.314006549262337"><ele>360.0</ele><time>2026-04-16T17:30:07Z</time></trkpt><trkpt lat="44.764046217870074" lon="7.3139023342077385"><ele>360.0</ele><time>2026-04-16T17:30:09Z</time></trkpt><trkpt lat="44.764118520426564" lon="7.313804566957079"><ele>360.0</ele><time>2026-04-16T17:30:11Z</time></trkpt><trkpt lat="44.76420068945656" lon="7.313714564353289"><ele>360.0</ele><time>2026-04-16T17:30:13Z</time></trkpt><trkpt lat="44.76427911406047" lon="7.313620424762643"><ele>360.0</ele><time>2026-04-16T17:30:15Z</time></trkpt><trkpt lat="44.76435572162077" lon="7.313523271300761"><ele>359.6</ele><time>2026-04-16T17:30:17Z</time></trkpt><trkpt lat="44.76443723497134" lon="7.313428967740025"><ele>359.2</ele><time>2026-04-16T17:30:19Z</time></trkpt><trkpt lat="44.76451986508969" lon="7.313333400271614"><ele>358.79999999999995</ele><time>2026-04-16T17:30:21Z</time></trkpt><trkpt lat="44.764600766999216" lon="7.3132362334954"><ele>358.4</ele><time>2026-04-16T17:30:23Z</time></trkpt><trkpt lat="44.76468312776986" lon="7.313136784263489"><ele>358.0</ele><time>2026-04-16T17:30:25Z</time></trkpt><trkpt lat="44.76476262994831" lon="7.313039054356046"><ele>358.0</ele><time>2026-04-16T17:30:27Z</time></trkpt><trkpt lat="44.764842064835136" lon="7.3129400577749"><ele>358.0</ele><time>2026-04-16T17:30:29Z</time></trkpt><trkpt lat="44.764919723940615" lon="7.312836966739591"><ele>358.0</ele><time>2026-04-16T17:30:31Z</time></trkpt><trkpt lat="44.76499822053038" lon="7.31273419633676"><ele>358.0</ele><time>2026-04-16T17:30:33Z</time></trkpt><trkpt lat="44.76507649496222" lon="7.312628493384222"><ele>358.0</ele><time>2026-04-16T17:30:35Z</time></trkpt><trkpt lat="44.76515203909682" lon="7.312529055583819"><ele>358.0</ele><time>2026-04-16T17:30:37.001Z</time></trkpt><trkpt lat="44.76522676900323" lon="7.312429143930838"><ele>358.0</ele><time>2026-04-16T17:30:39.001Z</time></trkpt><trkpt lat="44.76530937456005" lon="7.312339182433298"><ele>358.0</ele><time>2026-04-16T17:30:41.001Z</time></trkpt><trkpt lat="44.765400141466586" lon="7.312256750200914"><ele>358.0</ele><time>2026-04-16T17:30:43.001Z</time></trkpt><trkpt lat="44.76548830848403" lon="7.312166458963071"><ele>358.0</ele><time>2026-04-16T17:30:45.001Z</time></trkpt><trkpt lat="44.76557758996751" lon="7.312075521869828"><ele>358.0</ele><time>2026-04-16T17:30:47.001Z</time></trkpt><trkpt lat="44.765670499659514" lon="7.311989632184903"><ele>358.0</ele><time>2026-04-16T17:30:49.001Z</time></trkpt><trkpt lat="44.76576466406115" lon="7.311907083092377"><ele>358.0</ele><time>2026-04-16T17:30:51.001Z</time></trkpt><trkpt lat="44.76585965803306" lon="7.311827226007001"><ele>358.0</ele><time>2026-04-16T17:30:53.001Z</time></trkpt><trkpt lat="44.76596086570373" lon="7.311752819926235"><ele>358.0</ele><time>2026-04-16T17:30:55.001Z</time></trkpt><trkpt lat="44.76606522684828" lon="7.311682423928123"><ele>357.5</ele><time>2026-04-16T17:30:57.001Z</time></trkpt><trkpt lat="44.766171832398086" lon="7.311613697907202"><ele>357.0</ele><time>2026-04-16T17:30:59.001Z</time></trkpt><trkpt lat="44.766278216384244" lon="7.31154807979649"><ele>356.5</ele><time>2026-04-16T17:31:01.001Z</time></trkpt><trkpt lat="44.76638723866051" lon="7.311489834372401"><ele>356.0</ele><time>2026-04-16T17:31:03.001Z</time></trkpt><trkpt lat="44.76649776488969" lon="7.311433291313485"><ele>356.0</ele><time>2026-04-16T17:31:05.001Z</time></trkpt><trkpt lat="44.76660871123903" lon="7.311386017886832"><ele>356.0</ele><time>2026-04-16T17:31:07.001Z</time></trkpt><trkpt lat="44.766722932197204" lon="7.311344698231039"><ele>356.0</ele><time>2026-04-16T17:31:09.001Z</time></trkpt><trkpt lat="44.76683614395148" lon="7.31131070215074"><ele>356.0</ele><time>2026-04-16T17:31:11.001Z</time></trkpt><trkpt lat="44.76695009035723" lon="7.311277783730514"><ele>356.0</ele><time>2026-04-16T17:31:13.001Z</time></trkpt><trkpt lat="44.767062291601604" lon="7.311251892538174"><ele>356.0</ele><time>2026-04-16T17:31:15.001Z</time></trkpt><trkpt lat="44.76717491892694" lon="7.311234499186907"><ele>356.0</ele><time>2026-04-16T17:31:17.001Z</time></trkpt><trkpt lat="44.7672869480786" lon="7.311219233759774"><ele>356.0</ele><time>2026-04-16T17:31:19.001Z</time></trkpt><trkpt lat="44.76739990567878" lon="7.311204545843443"><ele>356.0</ele><time>2026-04-16T17:31:21.001Z</time></trkpt><trkpt lat="44.767511306974576" lon="7.311190965432508"><ele>356.0</ele><time>2026-04-16T17:31:23.001Z</time></trkpt><trkpt lat="44.76762195064157" lon="7.311179524919808"><ele>356.0</ele><time>2026-04-16T17:31:25.001Z</time></trkpt><trkpt lat="44.7677301449006" lon="7.311162721386741"><ele>356.0</ele><time>2026-04-16T17:31:27.001Z</time></trkpt><trkpt lat="44.76783389286547" lon="7.311151041944895"><ele>356.0</ele><time>2026-04-16T17:31:29.001Z</time></trkpt><trkpt lat="44.767943401606566" lon="7.311135941339136"><ele>356.6</ele><time>2026-04-16T17:31:31.001Z</time></trkpt><trkpt lat="44.76805023854802" lon="7.311123208734246"><ele>357.20000000000005</ele><time>2026-04-16T17:31:33.001Z</time></trkpt><trkpt lat="44.76815513834489" lon="7.311113219300364"><ele>357.79999999999995</ele><time>2026-04-16T17:31:35.001Z</time></trkpt><trkpt lat="44.76826132886566" lon="7.311093986585081"><ele>358.4</ele><time>2026-04-16T17:31:37.001Z</time></trkpt><trkpt lat="44.76836915686279" lon="7.311076368790912"><ele>359.0</ele><time>2026-04-16T17:31:39.001Z</time></trkpt><trkpt lat="44.768475949616956" lon="7.311060972289906"><ele>359.0</ele><time>2026-04-16T17:31:41.001Z</time></trkpt><trkpt lat="44.76858268080861" lon="7.311048816723368"><ele>359.0</ele><time>2026-04-16T17:31:43.001Z</time></trkpt><trkpt lat="44.76868882117743" lon="7.311034525046038"><ele>359.0</ele><time>2026-04-16T17:31:45.001Z</time></trkpt><trkpt lat="44.768794373580654" lon="7.311021917889065"><ele>359.0</ele><time>2026-04-16T17:31:47Z</time></trkpt><trkpt lat="44.76889723119185" lon="7.311007217325819"><ele>359.0</ele><time>2026-04-16T17:31:49Z</time></trkpt><trkpt lat="44.76900208358952" lon="7.310992592879424"><ele>359.0</ele><time>2026-04-16T17:31:51Z</time></trkpt><trkpt lat="44.769106794754364" lon="7.310981291299912"><ele>359.0</ele><time>2026-04-16T17:31:53Z</time></trkpt><trkpt lat="44.76920974274131" lon="7.310965643980287"><ele>359.0</ele><time>2026-04-16T17:31:55Z</time></trkpt><trkpt lat="44.76931668312832" lon="7.310949282918002"><ele>359.0</ele><time>2026-04-16T17:31:57Z</time></trkpt><trkpt lat="44.76942371386692" lon="7.310935601519694"><ele>359.0</ele><time>2026-04-16T17:31:59Z</time></trkpt><trkpt lat="44.769528900097114" lon="7.310922605436486"><ele>359.79999999999995</ele><time>2026-04-16T17:32:01Z</time></trkpt><trkpt lat="44.769634581245995" lon="7.310908386336581"><ele>360.59999999999997</ele><time>2026-04-16T17:32:03Z</time></trkpt><trkpt lat="44.76974012684425" lon="7.310894711201665"><ele>361.4</ele><time>2026-04-16T17:32:05Z</time></trkpt><trkpt lat="44.76984572982207" lon="7.31088088622429"><ele>362.2</ele><time>2026-04-16T17:32:07Z</time></trkpt><trkpt lat="44.7699487486193" lon="7.310866281011305"><ele>363.0</ele><time>2026-04-16T17:32:09Z</time></trkpt><trkpt lat="44.77004893030165" lon="7.310855473594325"><ele>363.0</ele><time>2026-04-16T17:32:11Z</time></trkpt><trkpt lat="44.7701424820812" lon="7.310842664346709"><ele>363.0</ele><time>2026-04-16T17:32:13Z</time></trkpt><trkpt lat="44.77022116952883" lon="7.310829001218593"><ele>363.0</ele><time>2026-04-16T17:32:15Z</time></trkpt><trkpt lat="44.77030939682084" lon="7.310817464498969"><ele>363.0</ele><time>2026-04-16T17:32:17Z</time></trkpt><trkpt lat="44.77041089757842" lon="7.310799388984101"><ele>363.0</ele><time>2026-04-16T17:32:19Z</time></trkpt><trkpt lat="44.770517399283655" lon="7.310787461660207"><ele>362.79999999999995</ele><time>2026-04-16T17:32:21Z</time></trkpt><trkpt lat="44.77062505039011" lon="7.310775818589228"><ele>362.6</ele><time>2026-04-16T17:32:23Z</time></trkpt><trkpt lat="44.77073657192532" lon="7.31076333175049"><ele>362.4</ele><time>2026-04-16T17:32:25Z</time></trkpt><trkpt lat="44.770847306300006" lon="7.310752392767246"><ele>362.20000000000005</ele><time>2026-04-16T17:32:27Z</time></trkpt><trkpt lat="44.77095741459071" lon="7.310732334777079"><ele>362.0</ele><time>2026-04-16T17:32:29Z</time></trkpt><trkpt lat="44.771067741393225" lon="7.31072085723576"><ele>361.40000000000003</ele><time>2026-04-16T17:32:31Z</time></trkpt><trkpt lat="44.77117509635257" lon="7.310700016581762"><ele>360.8</ele><time>2026-04-16T17:32:33Z</time></trkpt><trkpt lat="44.771283160086874" lon="7.310681909823659"><ele>360.2</ele><time>2026-04-16T17:32:35Z</time></trkpt><trkpt lat="44.771392441708464" lon="7.310666397935562"><ele>359.6</ele><time>2026-04-16T17:32:37Z</time></trkpt><trkpt lat="44.77150229182711" lon="7.310658965527036"><ele>359.0</ele><time>2026-04-16T17:32:39Z</time></trkpt><trkpt lat="44.77161504980953" lon="7.310641854576485"><ele>359.0</ele><time>2026-04-16T17:32:41Z</time></trkpt><trkpt lat="44.77172576100853" lon="7.310625715642473"><ele>359.0</ele><time>2026-04-16T17:32:43.001Z</time></trkpt><trkpt lat="44.77183774278888" lon="7.310610215377293"><ele>359.0</ele><time>2026-04-16T17:32:45.001Z</time></trkpt><trkpt lat="44.77194944426884" lon="7.310597869385686"><ele>359.0</ele><time>2026-04-16T17:32:47.001Z</time></trkpt><trkpt lat="44.77206334964212" lon="7.31057996862813"><ele>359.0</ele><time>2026-04-16T17:32:49.001Z</time></trkpt><trkpt lat="44.772176519423475" lon="7.310567054078974"><ele>359.0</ele><time>2026-04-16T17:32:51.001Z</time></trkpt><trkpt lat="44.772289797390044" lon="7.310552333205481"><ele>359.0</ele><time>2026-04-16T17:32:53.001Z</time></trkpt><trkpt lat="44.772403361222715" lon="7.310535417039637"><ele>359.0</ele><time>2026-04-16T17:32:55.001Z</time></trkpt><trkpt lat="44.77251632415937" lon="7.310517388673461"><ele>359.0</ele><time>2026-04-16T17:32:57.001Z</time></trkpt><trkpt lat="44.772628824150004" lon="7.3105032294724825"><ele>359.0</ele><time>2026-04-16T17:32:59.001Z</time></trkpt><trkpt lat="44.77274133430941" lon="7.310492410675497"><ele>359.0</ele><time>2026-04-16T17:33:01.001Z</time></trkpt><trkpt lat="44.77285875605216" lon="7.310475092442138"><ele>359.0</ele><time>2026-04-16T17:33:03.001Z</time></trkpt><trkpt lat="44.77297275618616" lon="7.310459723748373"><ele>359.2</ele><time>2026-04-16T17:33:05.001Z</time></trkpt><trkpt lat="44.77308604955452" lon="7.310444669986023"><ele>359.4</ele><time>2026-04-16T17:33:07.001Z</time></trkpt><trkpt lat="44.77319011256803" lon="7.310427936908601"><ele>359.6</ele><time>2026-04-16T17:33:09.001Z</time></trkpt><trkpt lat="44.77328416421496" lon="7.3104143422812955"><ele>359.8</ele><time>2026-04-16T17:33:11.001Z</time></trkpt><trkpt lat="44.773369596750506" lon="7.310404753987311"><ele>360.0</ele><time>2026-04-16T17:33:13.001Z</time></trkpt><trkpt lat="44.77344761488769" lon="7.310400849956674"><ele>359.6666666666667</ele><time>2026-04-16T17:33:15.001Z</time></trkpt><trkpt lat="44.773527737174156" lon="7.310388796832187"><ele>359.3333333333333</ele><time>2026-04-16T17:33:17.001Z</time></trkpt><trkpt lat="44.7736464944318" lon="7.310371044513056"><ele>359.0</ele><time>2026-04-16T17:33:19.001Z</time></trkpt><trkpt lat="44.77371590324827" lon="7.310361831234651"><ele>358.66666666666663</ele><time>2026-04-16T17:33:20.001Z</time></trkpt><trkpt lat="44.77378950052298" lon="7.310353414562535"><ele>358.3333333333333</ele><time>2026-04-16T17:33:21.001Z</time></trkpt><trkpt lat="44.773859960385046" lon="7.310344789821186"><ele>358.0</ele><time>2026-04-16T17:33:22.001Z</time></trkpt><trkpt lat="44.77392378480381" lon="7.310333990499576"><ele>358.0</ele><time>2026-04-16T17:33:23.001Z</time></trkpt><trkpt lat="44.773989787285316" lon="7.310327328034432"><ele>358.0</ele><time>2026-04-16T17:33:24.001Z</time></trkpt><trkpt lat="44.77405484195874" lon="7.310319324446446"><ele>358.0</ele><time>2026-04-16T17:33:25.001Z</time></trkpt><trkpt lat="44.77411904038787" lon="7.310310637653476"><ele>358.0</ele><time>2026-04-16T17:33:26.001Z</time></trkpt><trkpt lat="44.77424126962847" lon="7.310293809620769"><ele>358.0</ele><time>2026-04-16T17:33:28.001Z</time></trkpt><trkpt lat="44.77436297728649" lon="7.310276057335139"><ele>358.0</ele><time>2026-04-16T17:33:30.001Z</time></trkpt><trkpt lat="44.77448161378168" lon="7.310259977377447"><ele>358.25</ele><time>2026-04-16T17:33:32.001Z</time></trkpt><trkpt lat="44.77459843423747" lon="7.310242634976555"><ele>358.5</ele><time>2026-04-16T17:33:34.001Z</time></trkpt><trkpt lat="44.774714590376824" lon="7.310229347159729"><ele>358.75</ele><time>2026-04-16T17:33:36.001Z</time></trkpt><trkpt lat="44.774829352810556" lon="7.310213795776192"><ele>359.0</ele><time>2026-04-16T17:33:38.001Z</time></trkpt><trkpt lat="44.77494131918124" lon="7.310198218769361"><ele>359.0</ele><time>2026-04-16T17:33:40.001Z</time></trkpt><trkpt lat="44.775052971773675" lon="7.31018194307746"><ele>359.0</ele><time>2026-04-16T17:33:42.001Z</time></trkpt><trkpt lat="44.77516622382266" lon="7.31016913507035"><ele>359.0</ele><time>2026-04-16T17:33:44.001Z</time></trkpt><trkpt lat="44.77527990344018" lon="7.310152606076168"><ele>359.0</ele><time>2026-04-16T17:33:46.001Z</time></trkpt><trkpt lat="44.7753887355169" lon="7.3101394864419476"><ele>359.0</ele><time>2026-04-16T17:33:48.001Z</time></trkpt><trkpt lat="44.77549659298269" lon="7.310127241167511"><ele>359.2</ele><time>2026-04-16T17:33:50.001Z</time></trkpt><trkpt lat="44.77560604892321" lon="7.310112659516926"><ele>359.4</ele><time>2026-04-16T17:33:52Z</time></trkpt><trkpt lat="44.77571339966678" lon="7.310096980449398"><ele>359.6</ele><time>2026-04-16T17:33:54Z</time></trkpt><trkpt lat="44.77582079245128" lon="7.31007687296524"><ele>359.8</ele><time>2026-04-16T17:33:56Z</time></trkpt><trkpt lat="44.775927514966824" lon="7.310057484447544"><ele>360.0</ele><time>2026-04-16T17:33:58Z</time></trkpt><trkpt lat="44.776033639622334" lon="7.31003647345397"><ele>360.2</ele><time>2026-04-16T17:34:00Z</time></trkpt><trkpt lat="44.77613875123223" lon="7.310020013348929"><ele>360.4</ele><time>2026-04-16T17:34:02Z</time></trkpt><trkpt lat="44.77624406217119" lon="7.310007648353246"><ele>360.6</ele><time>2026-04-16T17:34:04Z</time></trkpt><trkpt lat="44.77634933450053" lon="7.310000711397501"><ele>360.8</ele><time>2026-04-16T17:34:06Z</time></trkpt><trkpt lat="44.77645545747498" lon="7.309992137184558"><ele>361.0</ele><time>2026-04-16T17:34:08Z</time></trkpt><trkpt lat="44.77655639402633" lon="7.309977267930944"><ele>361.0</ele><time>2026-04-16T17:34:10Z</time></trkpt><trkpt lat="44.77665644133913" lon="7.309963338454558"><ele>361.0</ele><time>2026-04-16T17:34:12Z</time></trkpt><trkpt lat="44.77675728204461" lon="7.309951909016204"><ele>361.0</ele><time>2026-04-16T17:34:14Z</time></trkpt><trkpt lat="44.77686095626748" lon="7.309935894446593"><ele>361.0</ele><time>2026-04-16T17:34:16Z</time></trkpt><trkpt lat="44.776967088326124" lon="7.3099237325201605"><ele>361.0</ele><time>2026-04-16T17:34:18Z</time></trkpt><trkpt lat="44.77707108345664" lon="7.309910141441214"><ele>360.6</ele><time>2026-04-16T17:34:20Z</time></trkpt><trkpt lat="44.77717393741943" lon="7.309896034763187"><ele>360.20000000000005</ele><time>2026-04-16T17:34:22Z</time></trkpt><trkpt lat="44.777275935276926" lon="7.309882155118324"><ele>359.79999999999995</ele><time>2026-04-16T17:34:24Z</time></trkpt><trkpt lat="44.777378469241754" lon="7.309872681577754"><ele>359.4</ele><time>2026-04-16T17:34:26Z</time></trkpt><trkpt lat="44.77748416005554" lon="7.309858606577465"><ele>359.0</ele><time>2026-04-16T17:34:28Z</time></trkpt><trkpt lat="44.77758831481289" lon="7.30983821227708"><ele>359.0</ele><time>2026-04-16T17:34:30Z</time></trkpt><trkpt lat="44.7776907671558" lon="7.309820249212503"><ele>359.0</ele><time>2026-04-16T17:34:32Z</time></trkpt><trkpt lat="44.77778967717525" lon="7.309811047359073"><ele>359.0</ele><time>2026-04-16T17:34:34Z</time></trkpt><trkpt lat="44.777892555415654" lon="7.3098052174959225"><ele>359.0</ele><time>2026-04-16T17:34:36Z</time></trkpt><trkpt lat="44.777993851593784" lon="7.309798691105681"><ele>359.0</ele><time>2026-04-16T17:34:38Z</time></trkpt><trkpt lat="44.77809858336439" lon="7.309791717466891"><ele>359.0</ele><time>2026-04-16T17:34:40Z</time></trkpt><trkpt lat="44.778200930265626" lon="7.309789212549607"><ele>359.0</ele><time>2026-04-16T17:34:42Z</time></trkpt><trkpt lat="44.778301305955985" lon="7.309791977304072"><ele>359.0</ele><time>2026-04-16T17:34:44Z</time></trkpt><trkpt lat="44.7783968968425" lon="7.309800812498257"><ele>359.0</ele><time>2026-04-16T17:34:46Z</time></trkpt><trkpt lat="44.77849819926304" lon="7.309808234602693"><ele>359.0</ele><time>2026-04-16T17:34:48.001Z</time></trkpt><trkpt lat="44.778600981985775" lon="7.309819244996502"><ele>359.2</ele><time>2026-04-16T17:34:50.001Z</time></trkpt><trkpt lat="44.77870232326578" lon="7.309827240427155"><ele>359.4</ele><time>2026-04-16T17:34:52.001Z</time></trkpt><trkpt lat="44.77880470425649" lon="7.309842340285169"><ele>359.6</ele><time>2026-04-16T17:34:54.001Z</time></trkpt><trkpt lat="44.77890644757209" lon="7.30986717993208"><ele>359.8</ele><time>2026-04-16T17:34:56.001Z</time></trkpt><trkpt lat="44.77900614237602" lon="7.309893663035146"><ele>360.0</ele><time>2026-04-16T17:34:58.001Z</time></trkpt><trkpt lat="44.779108463737536" lon="7.309924484909207"><ele>360.0</ele><time>2026-04-16T17:35:00.001Z</time></trkpt><trkpt lat="44.7792086321362" lon="7.309957611416849"><ele>360.0</ele><time>2026-04-16T17:35:02.001Z</time></trkpt><trkpt lat="44.77930792871045" lon="7.309991043301846"><ele>360.0</ele><time>2026-04-16T17:35:04.001Z</time></trkpt><trkpt lat="44.779405582578896" lon="7.310029047931686"><ele>360.0</ele><time>2026-04-16T17:35:06.001Z</time></trkpt><trkpt lat="44.77950290453658" lon="7.310072778347452"><ele>360.0</ele><time>2026-04-16T17:35:08.001Z</time></trkpt><trkpt lat="44.779601397390806" lon="7.31011410448584"><ele>360.0</ele><time>2026-04-16T17:35:10.001Z</time></trkpt><trkpt lat="44.77969842484913" lon="7.310165434688695"><ele>360.0</ele><time>2026-04-16T17:35:12.001Z</time></trkpt><trkpt lat="44.779793254488794" lon="7.310215495494227"><ele>360.0</ele><time>2026-04-16T17:35:14.001Z</time></trkpt><trkpt lat="44.77988728227519" lon="7.310268505052495"><ele>360.0</ele><time>2026-04-16T17:35:16.001Z</time></trkpt><trkpt lat="44.779980097540424" lon="7.310320264575778"><ele>360.0</ele><time>2026-04-16T17:35:18.001Z</time></trkpt><trkpt lat="44.78007028880749" lon="7.310376112711725"><ele>360.0</ele><time>2026-04-16T17:35:20.001Z</time></trkpt><trkpt lat="44.780161494783464" lon="7.310438961728052"><ele>360.0</ele><time>2026-04-16T17:35:22.001Z</time></trkpt><trkpt lat="44.78025162943568" lon="7.310498758696663"><ele>360.0</ele><time>2026-04-16T17:35:24.001Z</time></trkpt><trkpt lat="44.78034278299146" lon="7.3105612035411935"><ele>360.0</ele><time>2026-04-16T17:35:26.001Z</time></trkpt><trkpt lat="44.780435556194234" lon="7.310625641037339"><ele>360.0</ele><time>2026-04-16T17:35:28.001Z</time></trkpt><trkpt lat="44.780528481905456" lon="7.310687512885581"><ele>360.6</ele><time>2026-04-16T17:35:30.001Z</time></trkpt><trkpt lat="44.78062092850427" lon="7.310749647773299"><ele>361.2</ele><time>2026-04-16T17:35:32.001Z</time></trkpt><trkpt lat="44.78071448879118" lon="7.310811202640954"><ele>361.79999999999995</ele><time>2026-04-16T17:35:34.001Z</time></trkpt><trkpt lat="44.780805544575045" lon="7.310875104079644"><ele>362.4</ele><time>2026-04-16T17:35:36.001Z</time></trkpt><trkpt lat="44.78089797035091" lon="7.310939707323285"><ele>363.0</ele><time>2026-04-16T17:35:38.001Z</time></trkpt><trkpt lat="44.78099018846552" lon="7.310999155425675"><ele>363.2</ele><time>2026-04-16T17:35:40.001Z</time></trkpt><trkpt lat="44.78108279406578" lon="7.311058785030871"><ele>363.4</ele><time>2026-04-16T17:35:42.001Z</time></trkpt><trkpt lat="44.78117350303045" lon="7.311120681277298"><ele>363.59999999999997</ele><time>2026-04-16T17:35:44.001Z</time></trkpt><trkpt lat="44.781264368853115" lon="7.311178877169852"><ele>363.79999999999995</ele><time>2026-04-16T17:35:46.001Z</time></trkpt><trkpt lat="44.781354608844254" lon="7.311237794058879"><ele>364.0</ele><time>2026-04-16T17:35:48.001Z</time></trkpt><trkpt lat="44.78144466335048" lon="7.311296101224792"><ele>364.0</ele><time>2026-04-16T17:35:50.001Z</time></trkpt><trkpt lat="44.78153094028799" lon="7.3113610022199715"><ele>364.0</ele><time>2026-04-16T17:35:52.001Z</time></trkpt><trkpt lat="44.781618822120514" lon="7.311415483240021"><ele>364.0</ele><time>2026-04-16T17:35:54.001Z</time></trkpt><trkpt lat="44.781704952232204" lon="7.3114728111173655"><ele>364.0</ele><time>2026-04-16T17:35:56.001Z</time></trkpt><trkpt lat="44.781793048489256" lon="7.311531841727732"><ele>364.0</ele><time>2026-04-16T17:35:58Z</time></trkpt><trkpt lat="44.781879951734766" lon="7.3115876812567615"><ele>364.0</ele><time>2026-04-16T17:36:00Z</time></trkpt><trkpt lat="44.78196312878266" lon="7.311646885329845"><ele>364.0</ele><time>2026-04-16T17:36:02Z</time></trkpt><trkpt lat="44.78205289195374" lon="7.311701355957129"><ele>364.0</ele><time>2026-04-16T17:36:04Z</time></trkpt><trkpt lat="44.78214340132718" lon="7.31176147702424"><ele>364.0</ele><time>2026-04-16T17:36:06Z</time></trkpt><trkpt lat="44.782236389847746" lon="7.311821866814747"><ele>364.0</ele><time>2026-04-16T17:36:08Z</time></trkpt><trkpt lat="44.78232890995981" lon="7.311882186761733"><ele>364.0</ele><time>2026-04-16T17:36:10Z</time></trkpt><trkpt lat="44.7824230732551" lon="7.311946028489801"><ele>364.0</ele><time>2026-04-16T17:36:12Z</time></trkpt><trkpt lat="44.782518482345104" lon="7.312007174390066"><ele>364.0</ele><time>2026-04-16T17:36:14Z</time></trkpt><trkpt lat="44.78261290607263" lon="7.312066414229683"><ele>364.0</ele><time>2026-04-16T17:36:16Z</time></trkpt><trkpt lat="44.78270700887437" lon="7.31213102547038"><ele>364.0</ele><time>2026-04-16T17:36:18Z</time></trkpt><trkpt lat="44.78280114975042" lon="7.312190964187092"><ele>364.0</ele><time>2026-04-16T17:36:20Z</time></trkpt><trkpt lat="44.78289477324454" lon="7.312257305274146"><ele>364.0</ele><time>2026-04-16T17:36:22Z</time></trkpt><trkpt lat="44.78298941017731" lon="7.312322886860983"><ele>364.0</ele><time>2026-04-16T17:36:24Z</time></trkpt><trkpt lat="44.78308602691066" lon="7.312384716030554"><ele>364.0</ele><time>2026-04-16T17:36:26Z</time></trkpt><trkpt lat="44.783183646519525" lon="7.312446364506041"><ele>364.0</ele><time>2026-04-16T17:36:28Z</time></trkpt><trkpt lat="44.78327962236799" lon="7.312510279824491"><ele>364.0</ele><time>2026-04-16T17:36:30Z</time></trkpt><trkpt lat="44.78337514291638" lon="7.312575955323114"><ele>364.0</ele><time>2026-04-16T17:36:32Z</time></trkpt><trkpt lat="44.7834708547586" lon="7.312640292665032"><ele>364.0</ele><time>2026-04-16T17:36:34Z</time></trkpt><trkpt lat="44.78356542793937" lon="7.312700479731787"><ele>364.0</ele><time>2026-04-16T17:36:36Z</time></trkpt><trkpt lat="44.78365950337948" lon="7.312763558677147"><ele>364.0</ele><time>2026-04-16T17:36:38Z</time></trkpt><trkpt lat="44.78375490408515" lon="7.312828954015835"><ele>364.0</ele><time>2026-04-16T17:36:40Z</time></trkpt><trkpt lat="44.78384936785506" lon="7.312889647828963"><ele>364.0</ele><time>2026-04-16T17:36:42Z</time></trkpt><trkpt lat="44.78394327218494" lon="7.312951338850476"><ele>364.0</ele><time>2026-04-16T17:36:44Z</time></trkpt><trkpt lat="44.78403800546158" lon="7.31301665872765"><ele>364.0</ele><time>2026-04-16T17:36:46Z</time></trkpt><trkpt lat="44.78413602723542" lon="7.313078724518876"><ele>364.0</ele><time>2026-04-16T17:36:48Z</time></trkpt><trkpt lat="44.78423225693684" lon="7.31313868212291"><ele>364.0</ele><time>2026-04-16T17:36:50Z</time></trkpt><trkpt lat="44.784326532865755" lon="7.31320541997515"><ele>364.0</ele><time>2026-04-16T17:36:52Z</time></trkpt><trkpt lat="44.78442156696133" lon="7.313272727481913"><ele>364.0</ele><time>2026-04-16T17:36:54Z</time></trkpt><trkpt lat="44.784517745980665" lon="7.313331956463066"><ele>364.0</ele><time>2026-04-16T17:36:56Z</time></trkpt><trkpt lat="44.7846130437251" lon="7.313394080407038"><ele>364.0</ele><time>2026-04-16T17:36:58.001Z</time></trkpt><trkpt lat="44.784709260737124" lon="7.313459952175864"><ele>364.2</ele><time>2026-04-16T17:37:00.001Z</time></trkpt><trkpt lat="44.78480333999364" lon="7.3135214360215395"><ele>364.4</ele><time>2026-04-16T17:37:02.001Z</time></trkpt><trkpt lat="44.78489785351518" lon="7.3135839414503065"><ele>364.6</ele><time>2026-04-16T17:37:04.001Z</time></trkpt><trkpt lat="44.78499248309641" lon="7.3136487374385455"><ele>364.8</ele><time>2026-04-16T17:37:06.001Z</time></trkpt><trkpt lat="44.7850860021255" lon="7.313713229911769"><ele>365.0</ele><time>2026-04-16T17:37:08.001Z</time></trkpt><trkpt lat="44.78517956289636" lon="7.313776223689897"><ele>365.0</ele><time>2026-04-16T17:37:10.001Z</time></trkpt><trkpt lat="44.785272091190144" lon="7.313837847459272"><ele>365.0</ele><time>2026-04-16T17:37:12.001Z</time></trkpt><trkpt lat="44.785365131395956" lon="7.313898461948811"><ele>365.0</ele><time>2026-04-16T17:37:14.001Z</time></trkpt><trkpt lat="44.78545796313761" lon="7.313959310405387"><ele>365.0</ele><time>2026-04-16T17:37:16.001Z</time></trkpt><trkpt lat="44.78555075721944" lon="7.314017812467461"><ele>365.0</ele><time>2026-04-16T17:37:18.001Z</time></trkpt><trkpt lat="44.785640835125754" lon="7.314079388869481"><ele>364.8</ele><time>2026-04-16T17:37:20.001Z</time></trkpt><trkpt lat="44.785732870451" lon="7.314136354164228"><ele>364.6</ele><time>2026-04-16T17:37:22.001Z</time></trkpt><trkpt lat="44.78582315166908" lon="7.314202694637358"><ele>364.4</ele><time>2026-04-16T17:37:24.001Z</time></trkpt><trkpt lat="44.78591739620531" lon="7.314262088279291"><ele>364.2</ele><time>2026-04-16T17:37:26.001Z</time></trkpt><trkpt lat="44.786010693434115" lon="7.314321911969163"><ele>364.0</ele><time>2026-04-16T17:37:28.001Z</time></trkpt><trkpt lat="44.78609816042047" lon="7.314381912714739"><ele>364.4</ele><time>2026-04-16T17:37:30.001Z</time></trkpt><trkpt lat="44.786188675464686" lon="7.314447721019876"><ele>364.79999999999995</ele><time>2026-04-16T17:37:32.001Z</time></trkpt><trkpt lat="44.786279889404604" lon="7.314508301080437"><ele>365.20000000000005</ele><time>2026-04-16T17:37:34.001Z</time></trkpt><trkpt lat="44.786372543437295" lon="7.314570838611889"><ele>365.6</ele><time>2026-04-16T17:37:36.001Z</time></trkpt><trkpt lat="44.786467581627335" lon="7.314634147973172"><ele>366.0</ele><time>2026-04-16T17:37:38.001Z</time></trkpt><trkpt lat="44.78656155470827" lon="7.314697964680901"><ele>366.0</ele><time>2026-04-16T17:37:40.001Z</time></trkpt><trkpt lat="44.7866564566256" lon="7.314761563712229"><ele>366.0</ele><time>2026-04-16T17:37:42.001Z</time></trkpt><trkpt lat="44.78674979590943" lon="7.314824721557054"><ele>366.0</ele><time>2026-04-16T17:37:44.001Z</time></trkpt><trkpt lat="44.7868419044468" lon="7.314888783344532"><ele>366.0</ele><time>2026-04-16T17:37:46.001Z</time></trkpt><trkpt lat="44.786934938460156" lon="7.314951495813446"><ele>366.0</ele><time>2026-04-16T17:37:48.001Z</time></trkpt><trkpt lat="44.78702888726125" lon="7.3150115564173035"><ele>366.4</ele><time>2026-04-16T17:37:50.001Z</time></trkpt><trkpt lat="44.78712167955805" lon="7.315074385466637"><ele>366.8</ele><time>2026-04-16T17:37:52.001Z</time></trkpt><trkpt lat="44.78721600816941" lon="7.315134697471891"><ele>367.2</ele><time>2026-04-16T17:37:54.001Z</time></trkpt><trkpt lat="44.78730821889544" lon="7.315194481593466"><ele>367.59999999999997</ele><time>2026-04-16T17:37:56.001Z</time></trkpt><trkpt lat="44.78739983201508" lon="7.315252934121887"><ele>368.0</ele><time>2026-04-16T17:37:58.001Z</time></trkpt><trkpt lat="44.787494036252646" lon="7.315306488972873"><ele>368.0</ele><time>2026-04-16T17:38:00.001Z</time></trkpt><trkpt lat="44.78758878485545" lon="7.315356514260013"><ele>368.0</ele><time>2026-04-16T17:38:02.001Z</time></trkpt><trkpt lat="44.78768292387872" lon="7.315404372635295"><ele>368.0</ele><time>2026-04-16T17:38:04Z</time></trkpt><trkpt lat="44.78777515835873" lon="7.315457013464408"><ele>368.0</ele><time>2026-04-16T17:38:06Z</time></trkpt><trkpt lat="44.78786921549864" lon="7.315506849616447"><ele>368.0</ele><time>2026-04-16T17:38:08Z</time></trkpt><trkpt lat="44.78796741936637" lon="7.315547805450709"><ele>367.79999999999995</ele><time>2026-04-16T17:38:10Z</time></trkpt><trkpt lat="44.78806480922333" lon="7.315586054724984"><ele>367.6</ele><time>2026-04-16T17:38:12Z</time></trkpt><trkpt lat="44.78816153904056" lon="7.315620519438527"><ele>367.4</ele><time>2026-04-16T17:38:14Z</time></trkpt><trkpt lat="44.788258717718776" lon="7.315648051160014"><ele>367.20000000000005</ele><time>2026-04-16T17:38:16Z</time></trkpt><trkpt lat="44.78835485290191" lon="7.315674325063748"><ele>367.0</ele><time>2026-04-16T17:38:18Z</time></trkpt><trkpt lat="44.78844927828546" lon="7.315703014562363"><ele>367.0</ele><time>2026-04-16T17:38:20Z</time></trkpt><trkpt lat="44.78854516101073" lon="7.315726574068717"><ele>367.0</ele><time>2026-04-16T17:38:22Z</time></trkpt><trkpt lat="44.788640729386145" lon="7.315744208395774"><ele>367.0</ele><time>2026-04-16T17:38:24Z</time></trkpt><trkpt lat="44.78873691696706" lon="7.315757143454908"><ele>367.0</ele><time>2026-04-16T17:38:26Z</time></trkpt><trkpt lat="44.78883338745157" lon="7.315774301489292"><ele>367.0</ele><time>2026-04-16T17:38:28Z</time></trkpt><trkpt lat="44.78893154571542" lon="7.315785960454922"><ele>367.0</ele><time>2026-04-16T17:38:30Z</time></trkpt><trkpt lat="44.78902960857486" lon="7.315793646206253"><ele>367.0</ele><time>2026-04-16T17:38:32Z</time></trkpt><trkpt lat="44.78912801501709" lon="7.315796284194488"><ele>367.0</ele><time>2026-04-16T17:38:34Z</time></trkpt><trkpt lat="44.78922625219934" lon="7.315805907381447"><ele>367.0</ele><time>2026-04-16T17:38:36Z</time></trkpt><trkpt lat="44.78932625742998" lon="7.315814075980872"><ele>367.0</ele><time>2026-04-16T17:38:38Z</time></trkpt><trkpt lat="44.789427714828626" lon="7.315821141759315"><ele>366.8</ele><time>2026-04-16T17:38:40Z</time></trkpt><trkpt lat="44.78952949018624" lon="7.315826981026465"><ele>366.6</ele><time>2026-04-16T17:38:42Z</time></trkpt><trkpt lat="44.789632742304896" lon="7.31583608295155"><ele>366.40000000000003</ele><time>2026-04-16T17:38:44Z</time></trkpt><trkpt lat="44.78973655022782" lon="7.315843375641799"><ele>366.20000000000005</ele><time>2026-04-16T17:38:46Z</time></trkpt><trkpt lat="44.789838958189215" lon="7.3158462264796045"><ele>366.0</ele><time>2026-04-16T17:38:48Z</time></trkpt><trkpt lat="44.78993918640931" lon="7.315850425254237"><ele>366.0</ele><time>2026-04-16T17:38:50Z</time></trkpt><trkpt lat="44.790030128432676" lon="7.315855642188821"><ele>366.0</ele><time>2026-04-16T17:38:52Z</time></trkpt><trkpt lat="44.790121823059664" lon="7.315862081241383"><ele>366.0</ele><time>2026-04-16T17:38:54Z</time></trkpt><trkpt lat="44.79022636829552" lon="7.315865354505855"><ele>366.0</ele><time>2026-04-16T17:38:56Z</time></trkpt><trkpt lat="44.790333028561065" lon="7.315877251423989"><ele>366.0</ele><time>2026-04-16T17:38:58Z</time></trkpt><trkpt lat="44.790441449368146" lon="7.315885502821608"><ele>365.8</ele><time>2026-04-16T17:39:00Z</time></trkpt><trkpt lat="44.79054670236562" lon="7.315891173299551"><ele>365.6</ele><time>2026-04-16T17:39:02.001Z</time></trkpt><trkpt lat="44.790651886069725" lon="7.315896371875389"><ele>365.4</ele><time>2026-04-16T17:39:04.001Z</time></trkpt><trkpt lat="44.79075732096755" lon="7.315901304187568"><ele>365.2</ele><time>2026-04-16T17:39:06.001Z</time></trkpt><trkpt lat="44.790863788142836" lon="7.3159085221054125"><ele>365.0</ele><time>2026-04-16T17:39:08.001Z</time></trkpt><trkpt lat="44.79096933103917" lon="7.315912676743145"><ele>365.2</ele><time>2026-04-16T17:39:10.001Z</time></trkpt><trkpt lat="44.79107215032536" lon="7.31592342054668"><ele>365.4</ele><time>2026-04-16T17:39:12.001Z</time></trkpt><trkpt lat="44.79116798242445" lon="7.3159281231141104"><ele>365.6</ele><time>2026-04-16T17:39:14.001Z</time></trkpt><trkpt lat="44.79126636688845" lon="7.31593774162157"><ele>365.8</ele><time>2026-04-16T17:39:16.001Z</time></trkpt><trkpt lat="44.791365919893316" lon="7.315947879420141"><ele>366.0</ele><time>2026-04-16T17:39:18.001Z</time></trkpt><trkpt lat="44.79146683246581" lon="7.315954734869144"><ele>366.0</ele><time>2026-04-16T17:39:20.001Z</time></trkpt><trkpt lat="44.79156759775704" lon="7.315963834585583"><ele>366.0</ele><time>2026-04-16T17:39:22.001Z</time></trkpt><trkpt lat="44.79167009865965" lon="7.315968227557965"><ele>366.0</ele><time>2026-04-16T17:39:24.001Z</time></trkpt><trkpt lat="44.79177368524065" lon="7.3159775159730005"><ele>366.0</ele><time>2026-04-16T17:39:26.001Z</time></trkpt><trkpt lat="44.79187701010649" lon="7.315983947604551"><ele>366.0</ele><time>2026-04-16T17:39:28.001Z</time></trkpt><trkpt lat="44.79198100104244" lon="7.315988261193293"><ele>365.8</ele><time>2026-04-16T17:39:30.001Z</time></trkpt><trkpt lat="44.79208468747263" lon="7.315994941712994"><ele>365.6</ele><time>2026-04-16T17:39:32.001Z</time></trkpt><trkpt lat="44.79218655110668" lon="7.316000150564254"><ele>365.4</ele><time>2026-04-16T17:39:34.001Z</time></trkpt><trkpt lat="44.79228997360566" lon="7.316009110437539"><ele>365.2</ele><time>2026-04-16T17:39:36.001Z</time></trkpt><trkpt lat="44.79239336865036" lon="7.316016478002659"><ele>365.0</ele><time>2026-04-16T17:39:38.001Z</time></trkpt><trkpt lat="44.79249680958607" lon="7.316018168347077"><ele>365.0</ele><time>2026-04-16T17:39:40.001Z</time></trkpt><trkpt lat="44.792601487066214" lon="7.31602474385873"><ele>365.0</ele><time>2026-04-16T17:39:42.001Z</time></trkpt><trkpt lat="44.79270228823783" lon="7.3160320383278465"><ele>365.0</ele><time>2026-04-16T17:39:44.001Z</time></trkpt><trkpt lat="44.792802844268614" lon="7.316038307193581"><ele>365.0</ele><time>2026-04-16T17:39:46.001Z</time></trkpt><trkpt lat="44.79290085276285" lon="7.316046900121575"><ele>365.0</ele><time>2026-04-16T17:39:48.001Z</time></trkpt><trkpt lat="44.79299987364366" lon="7.316055417024125"><ele>365.6</ele><time>2026-04-16T17:39:50.001Z</time></trkpt><trkpt lat="44.79309979969453" lon="7.316062376589759"><ele>366.2</ele><time>2026-04-16T17:39:52.001Z</time></trkpt><trkpt lat="44.793202393464135" lon="7.316070059500116"><ele>366.79999999999995</ele><time>2026-04-16T17:39:54.001Z</time></trkpt><trkpt lat="44.793304369195816" lon="7.31607710821909"><ele>367.4</ele><time>2026-04-16T17:39:56.001Z</time></trkpt><trkpt lat="44.793404704327735" lon="7.316084962043659"><ele>368.0</ele><time>2026-04-16T17:39:58.001Z</time></trkpt><trkpt lat="44.7935010259774" lon="7.316091624091066"><ele>368.4</ele><time>2026-04-16T17:40:00.001Z</time></trkpt><trkpt lat="44.793600339472555" lon="7.316091659691347"><ele>368.79999999999995</ele><time>2026-04-16T17:40:02.001Z</time></trkpt><trkpt lat="44.793698761509155" lon="7.316100810684017"><ele>369.2</ele><time>2026-04-16T17:40:04.001Z</time></trkpt><trkpt lat="44.79379526375272" lon="7.316106068458008"><ele>369.6</ele><time>2026-04-16T17:40:06.001Z</time></trkpt><trkpt lat="44.79389380269034" lon="7.316113489443763"><ele>370.0</ele><time>2026-04-16T17:40:08.001Z</time></trkpt><trkpt lat="44.79399282212078" lon="7.316118645037959"><ele>370.0</ele><time>2026-04-16T17:40:10Z</time></trkpt><trkpt lat="44.79409337353549" lon="7.316123648981644"><ele>370.0</ele><time>2026-04-16T17:40:12Z</time></trkpt><trkpt lat="44.79419197586592" lon="7.316128005190818"><ele>370.0</ele><time>2026-04-16T17:40:14Z</time></trkpt><trkpt lat="44.79428940126945" lon="7.316139434028111"><ele>370.0</ele><time>2026-04-16T17:40:16Z</time></trkpt><trkpt lat="44.794387407151" lon="7.316144780257997"><ele>370.0</ele><time>2026-04-16T17:40:18Z</time></trkpt><trkpt lat="44.7944804899405" lon="7.316148639506424"><ele>370.2</ele><time>2026-04-16T17:40:20Z</time></trkpt><trkpt lat="44.794575423479294" lon="7.316155987751056"><ele>370.4</ele><time>2026-04-16T17:40:22Z</time></trkpt><trkpt lat="44.794671541277886" lon="7.3161628419212965"><ele>370.6</ele><time>2026-04-16T17:40:24Z</time></trkpt><trkpt lat="44.79476793486545" lon="7.316159249653366"><ele>370.8</ele><time>2026-04-16T17:40:26Z</time></trkpt><trkpt lat="44.79486462673633" lon="7.316169651584291"><ele>371.0</ele><time>2026-04-16T17:40:28Z</time></trkpt><trkpt lat="44.79496012472014" lon="7.316179970911754"><ele>371.0</ele><time>2026-04-16T17:40:30Z</time></trkpt><trkpt lat="44.79505693229263" lon="7.316185665201548"><ele>371.0</ele><time>2026-04-16T17:40:32Z</time></trkpt><trkpt lat="44.7951518337245" lon="7.316193268225839"><ele>371.0</ele><time>2026-04-16T17:40:34Z</time></trkpt><trkpt lat="44.79524832017403" lon="7.316198172347676"><ele>371.0</ele><time>2026-04-16T17:40:36Z</time></trkpt><trkpt lat="44.795346276870866" lon="7.316199376996676"><ele>371.0</ele><time>2026-04-16T17:40:38Z</time></trkpt><trkpt lat="44.79544301393151" lon="7.3162046650096"><ele>371.0</ele><time>2026-04-16T17:40:40Z</time></trkpt><trkpt lat="44.79553969825661" lon="7.316214912492236"><ele>371.0</ele><time>2026-04-16T17:40:42Z</time></trkpt><trkpt lat="44.795635653303684" lon="7.316221633725698"><ele>371.0</ele><time>2026-04-16T17:40:44Z</time></trkpt><trkpt lat="44.79573215561569" lon="7.31623101935394"><ele>371.0</ele><time>2026-04-16T17:40:46Z</time></trkpt><trkpt lat="44.79582999405691" lon="7.316243465172122"><ele>371.0</ele><time>2026-04-16T17:40:48Z</time></trkpt><trkpt lat="44.7959283869482" lon="7.316251701198353"><ele>371.6</ele><time>2026-04-16T17:40:50Z</time></trkpt><trkpt lat="44.796024810675455" lon="7.31625309543544"><ele>372.20000000000005</ele><time>2026-04-16T17:40:52Z</time></trkpt><trkpt lat="44.79611121010565" lon="7.316251243843645"><ele>372.79999999999995</ele><time>2026-04-16T17:40:54Z</time></trkpt><trkpt lat="44.7962038994211" lon="7.316258902503554"><ele>373.4</ele><time>2026-04-16T17:40:56Z</time></trkpt><trkpt lat="44.796298937244956" lon="7.316259046106924"><ele>374.0</ele><time>2026-04-16T17:40:58Z</time></trkpt><trkpt lat="44.79639398601644" lon="7.316263464409129"><ele>374.0</ele><time>2026-04-16T17:41:00Z</time></trkpt><trkpt lat="44.79648930888717" lon="7.316273498379828"><ele>374.0</ele><time>2026-04-16T17:41:02Z</time></trkpt><trkpt lat="44.79658455872254" lon="7.316282350424476"><ele>374.0</ele><time>2026-04-16T17:41:04Z</time></trkpt><trkpt lat="44.79668348512037" lon="7.3162896322079645"><ele>374.0</ele><time>2026-04-16T17:41:06.001Z</time></trkpt><trkpt lat="44.79677919081114" lon="7.31629796071663"><ele>374.0</ele><time>2026-04-16T17:41:08.001Z</time></trkpt><trkpt lat="44.79687505518171" lon="7.316303416105265"><ele>373.2</ele><time>2026-04-16T17:41:10.001Z</time></trkpt><trkpt lat="44.796970220419624" lon="7.316312678911092"><ele>372.4</ele><time>2026-04-16T17:41:12.001Z</time></trkpt><trkpt lat="44.79706404716086" lon="7.316311686047328"><ele>371.6</ele><time>2026-04-16T17:41:14.001Z</time></trkpt><trkpt lat="44.79715703325078" lon="7.3163045959653825"><ele>370.8</ele><time>2026-04-16T17:41:16.001Z</time></trkpt><trkpt lat="44.797251837240395" lon="7.316328602349458"><ele>370.0</ele><time>2026-04-16T17:41:18.001Z</time></trkpt><trkpt lat="44.797346425157066" lon="7.316338025565353"><ele>370.0</ele><time>2026-04-16T17:41:20.001Z</time></trkpt><trkpt lat="44.79744313246891" lon="7.316342799144764"><ele>370.0</ele><time>2026-04-16T17:41:22.001Z</time></trkpt><trkpt lat="44.79753704041384" lon="7.316352717482684"><ele>370.0</ele><time>2026-04-16T17:41:24.001Z</time></trkpt><trkpt lat="44.79763064043292" lon="7.316359386525118"><ele>370.0</ele><time>2026-04-16T17:41:26.001Z</time></trkpt><trkpt lat="44.79772134445192" lon="7.316361862488456"><ele>370.0</ele><time>2026-04-16T17:41:28.001Z</time></trkpt><trkpt lat="44.79781498576186" lon="7.316368177666497"><ele>370.0</ele><time>2026-04-16T17:41:30.001Z</time></trkpt><trkpt lat="44.79790850910276" lon="7.316375121723593"><ele>370.0</ele><time>2026-04-16T17:41:32.001Z</time></trkpt><trkpt lat="44.79800106397427" lon="7.316383293185508"><ele>370.0</ele><time>2026-04-16T17:41:34.001Z</time></trkpt><trkpt lat="44.79809378356418" lon="7.316391430222"><ele>370.0</ele><time>2026-04-16T17:41:36.001Z</time></trkpt><trkpt lat="44.79818804303928" lon="7.316393483109505"><ele>370.0</ele><time>2026-04-16T17:41:38.001Z</time></trkpt><trkpt lat="44.79828492851452" lon="7.316399118042334"><ele>370.2</ele><time>2026-04-16T17:41:40.001Z</time></trkpt><trkpt lat="44.79838023640169" lon="7.316406065998737"><ele>370.4</ele><time>2026-04-16T17:41:42.001Z</time></trkpt><trkpt lat="44.79847229084161" lon="7.316408936701351"><ele>370.6</ele><time>2026-04-16T17:41:44.001Z</time></trkpt><trkpt lat="44.79856695940109" lon="7.316417375078421"><ele>370.8</ele><time>2026-04-16T17:41:46.001Z</time></trkpt><trkpt lat="44.79866361778943" lon="7.3164209745795485"><ele>371.0</ele><time>2026-04-16T17:41:48.001Z</time></trkpt><trkpt lat="44.79875801841078" lon="7.316425018013233"><ele>371.20000000000005</ele><time>2026-04-16T17:41:50.001Z</time></trkpt><trkpt lat="44.79885346450578" lon="7.316432850628076"><ele>371.40000000000003</ele><time>2026-04-16T17:41:52.001Z</time></trkpt><trkpt lat="44.798948724455094" lon="7.316438726686316"><ele>371.6</ele><time>2026-04-16T17:41:54.001Z</time></trkpt><trkpt lat="44.799044378976625" lon="7.316446146135668"><ele>371.8</ele><time>2026-04-16T17:41:56.001Z</time></trkpt><trkpt lat="44.79913904974435" lon="7.3164549931853475"><ele>372.0</ele><time>2026-04-16T17:41:58.001Z</time></trkpt><trkpt lat="44.79923366169578" lon="7.316460605114749"><ele>372.0</ele><time>2026-04-16T17:42:00.001Z</time></trkpt><trkpt lat="44.799329653839635" lon="7.316466395685887"><ele>372.0</ele><time>2026-04-16T17:42:02.001Z</time></trkpt><trkpt lat="44.79942582912181" lon="7.316472459079879"><ele>372.0</ele><time>2026-04-16T17:42:04.001Z</time></trkpt><trkpt lat="44.7995204387565" lon="7.316476572161036"><ele>372.0</ele><time>2026-04-16T17:42:06.001Z</time></trkpt><trkpt lat="44.799616401559625" lon="7.316483702187362"><ele>372.0</ele><time>2026-04-16T17:42:08.001Z</time></trkpt><trkpt lat="44.79971278144645" lon="7.316494043559885"><ele>372.20000000000005</ele><time>2026-04-16T17:42:10.001Z</time></trkpt><trkpt lat="44.799808790098794" lon="7.316500137818737"><ele>372.4</ele><time>2026-04-16T17:42:12.001Z</time></trkpt><trkpt lat="44.7999055254351" lon="7.31650659251651"><ele>372.6</ele><time>2026-04-16T17:42:14.001Z</time></trkpt><trkpt lat="44.799999224067534" lon="7.316511392888924"><ele>372.79999999999995</ele><time>2026-04-16T17:42:16Z</time></trkpt><trkpt lat="44.80009180117236" lon="7.31651574128037"><ele>373.0</ele><time>2026-04-16T17:42:18Z</time></trkpt><trkpt lat="44.80018469449448" lon="7.316526142651009"><ele>373.0</ele><time>2026-04-16T17:42:20Z</time></trkpt><trkpt lat="44.80027736085467" lon="7.316527216542812"><ele>373.0</ele><time>2026-04-16T17:42:22Z</time></trkpt><trkpt lat="44.80036864666843" lon="7.316532405147539"><ele>373.0</ele><time>2026-04-16T17:42:24Z</time></trkpt><trkpt lat="44.80045861733315" lon="7.316538455823704"><ele>373.0</ele><time>2026-04-16T17:42:26Z</time></trkpt><trkpt lat="44.80055265444054" lon="7.3165417313261605"><ele>373.0</ele><time>2026-04-16T17:42:28Z</time></trkpt><trkpt lat="44.80064966447545" lon="7.316546698996337"><ele>373.0</ele><time>2026-04-16T17:42:30Z</time></trkpt><trkpt lat="44.80074844070386" lon="7.316545066041292"><ele>373.0</ele><time>2026-04-16T17:42:32Z</time></trkpt><trkpt lat="44.80084655823177" lon="7.31654729113263"><ele>373.0</ele><time>2026-04-16T17:42:34Z</time></trkpt><trkpt lat="44.80094335798727" lon="7.3165497684903285"><ele>373.0</ele><time>2026-04-16T17:42:36Z</time></trkpt><trkpt lat="44.80104035667332" lon="7.31655143032192"><ele>373.0</ele><time>2026-04-16T17:42:38Z</time></trkpt><trkpt lat="44.80113747137829" lon="7.316554543114081"><ele>373.59999999999997</ele><time>2026-04-16T17:42:40Z</time></trkpt><trkpt lat="44.801232793438786" lon="7.316558472105508"><ele>374.2</ele><time>2026-04-16T17:42:42Z</time></trkpt><trkpt lat="44.8013281751352" lon="7.316561629755938"><ele>374.8</ele><time>2026-04-16T17:42:44Z</time></trkpt><trkpt lat="44.80142373200278" lon="7.316565612906306"><ele>375.4</ele><time>2026-04-16T17:42:46Z</time></trkpt><trkpt lat="44.801521463861" lon="7.316570163035576"><ele>376.0</ele><time>2026-04-16T17:42:48Z</time></trkpt><trkpt lat="44.80162092827262" lon="7.316571645681749"><ele>376.0</ele><time>2026-04-16T17:42:50Z</time></trkpt><trkpt lat="44.8017194386199" lon="7.316578848985358"><ele>376.0</ele><time>2026-04-16T17:42:52Z</time></trkpt><trkpt lat="44.8018192110596" lon="7.316587973462602"><ele>376.0</ele><time>2026-04-16T17:42:54Z</time></trkpt><trkpt lat="44.801919602183894" lon="7.316594000353239"><ele>376.0</ele><time>2026-04-16T17:42:56Z</time></trkpt><trkpt lat="44.8020175269865" lon="7.316601855256256"><ele>376.0</ele><time>2026-04-16T17:42:58Z</time></trkpt><trkpt lat="44.80211691823629" lon="7.3166033906270425"><ele>376.0</ele><time>2026-04-16T17:43:00Z</time></trkpt><trkpt lat="44.80221368028026" lon="7.316611923907368"><ele>376.0</ele><time>2026-04-16T17:43:02Z</time></trkpt><trkpt lat="44.80230883110596" lon="7.316622342635244"><ele>376.0</ele><time>2026-04-16T17:43:04Z</time></trkpt><trkpt lat="44.802400952046206" lon="7.316630559491466"><ele>376.0</ele><time>2026-04-16T17:43:06Z</time></trkpt><trkpt lat="44.80248665223114" lon="7.316633597976105"><ele>376.0</ele><time>2026-04-16T17:43:08Z</time></trkpt><trkpt lat="44.80257123194681" lon="7.31659662501065"><ele>376.0</ele><time>2026-04-16T17:43:10Z</time></trkpt><trkpt lat="44.80265717916746" lon="7.316563972413892"><ele>376.0</ele><time>2026-04-16T17:43:12.001Z</time></trkpt><trkpt lat="44.802744184763874" lon="7.316599585475996"><ele>376.0</ele><time>2026-04-16T17:43:14.001Z</time></trkpt><trkpt lat="44.80280648499843" lon="7.31669212518816"><ele>376.0</ele><time>2026-04-16T17:43:16.001Z</time></trkpt><trkpt lat="44.80286012413882" lon="7.3167861902497755"><ele>376.0</ele><time>2026-04-16T17:43:18.001Z</time></trkpt><trkpt lat="44.80294275657966" lon="7.316746287741032"><ele>376.0</ele><time>2026-04-16T17:43:20.001Z</time></trkpt><trkpt lat="44.803027116144996" lon="7.316697592683905"><ele>376.0</ele><time>2026-04-16T17:43:22.001Z</time></trkpt><trkpt lat="44.80311793373548" lon="7.316704531894931"><ele>376.0</ele><time>2026-04-16T17:43:24.001Z</time></trkpt><trkpt lat="44.803205612866705" lon="7.31672091114271"><ele>376.0</ele><time>2026-04-16T17:43:26.001Z</time></trkpt><trkpt lat="44.80330364907503" lon="7.316726987075506"><ele>376.0</ele><time>2026-04-16T17:43:28.001Z</time></trkpt><trkpt lat="44.80340824900585" lon="7.316731862508998"><ele>376.0</ele><time>2026-04-16T17:43:30.001Z</time></trkpt><trkpt lat="44.80350928138872" lon="7.316729387849428"><ele>376.0</ele><time>2026-04-16T17:43:32.001Z</time></trkpt><trkpt lat="44.80361278839829" lon="7.3167234475136125"><ele>376.0</ele><time>2026-04-16T17:43:34.001Z</time></trkpt><trkpt lat="44.803714781310354" lon="7.316709240454304"><ele>376.0</ele><time>2026-04-16T17:43:36.001Z</time></trkpt><trkpt lat="44.80381676475249" lon="7.316701734430431"><ele>376.0</ele><time>2026-04-16T17:43:38.001Z</time></trkpt><trkpt lat="44.80391642297203" lon="7.316686064984615"><ele>376.0</ele><time>2026-04-16T17:43:40.001Z</time></trkpt><trkpt lat="44.80401369217834" lon="7.316666359826905"><ele>376.0</ele><time>2026-04-16T17:43:42.001Z</time></trkpt><trkpt lat="44.804109626163374" lon="7.31664923264598"><ele>376.0</ele><time>2026-04-16T17:43:44.001Z</time></trkpt><trkpt lat="44.8042030418124" lon="7.316619155402725"><ele>376.0</ele><time>2026-04-16T17:43:46.001Z</time></trkpt><trkpt lat="44.80429702541444" lon="7.3165929481173775"><ele>376.0</ele><time>2026-04-16T17:43:48.001Z</time></trkpt><trkpt lat="44.804390639073354" lon="7.316561510601521"><ele>376.0</ele><time>2026-04-16T17:43:50.001Z</time></trkpt><trkpt lat="44.80448402336494" lon="7.316529956043968"><ele>375.8</ele><time>2026-04-16T17:43:52.001Z</time></trkpt><trkpt lat="44.80457731796824" lon="7.316504599336344"><ele>375.6</ele><time>2026-04-16T17:43:54.001Z</time></trkpt><trkpt lat="44.80466974495526" lon="7.316475113919505"><ele>375.4</ele><time>2026-04-16T17:43:56.001Z</time></trkpt><trkpt lat="44.80476211791736" lon="7.3164444646039355"><ele>375.2</ele><time>2026-04-16T17:43:58.001Z</time></trkpt><trkpt lat="44.80485507197655" lon="7.316413350967155"><ele>375.0</ele><time>2026-04-16T17:44:00.001Z</time></trkpt><trkpt lat="44.804946801686874" lon="7.316384308459768"><ele>375.6</ele><time>2026-04-16T17:44:02.001Z</time></trkpt><trkpt lat="44.80503819169064" lon="7.316355548870565"><ele>376.2</ele><time>2026-04-16T17:44:04.001Z</time></trkpt><trkpt lat="44.80512928384542" lon="7.316328522262332"><ele>376.79999999999995</ele><time>2026-04-16T17:44:06.001Z</time></trkpt><trkpt lat="44.80522179036773" lon="7.316298446785575"><ele>377.4</ele><time>2026-04-16T17:44:08.001Z</time></trkpt><trkpt lat="44.80531404137604" lon="7.31627204997886"><ele>378.0</ele><time>2026-04-16T17:44:10.001Z</time></trkpt><trkpt lat="44.80540780878902" lon="7.316245222159124"><ele>378.2</ele><time>2026-04-16T17:44:12.001Z</time></trkpt><trkpt lat="44.80550403270556" lon="7.3162108081282025"><ele>378.4</ele><time>2026-04-16T17:44:14.001Z</time></trkpt><trkpt lat="44.80560116085501" lon="7.316184708573796"><ele>378.59999999999997</ele><time>2026-04-16T17:44:16.001Z</time></trkpt><trkpt lat="44.80569926447241" lon="7.316151863967558"><ele>378.79999999999995</ele><time>2026-04-16T17:44:18.001Z</time></trkpt><trkpt lat="44.805799112389415" lon="7.316123935224353"><ele>379.0</ele><time>2026-04-16T17:44:20.001Z</time></trkpt><trkpt lat="44.80589656514542" lon="7.316092123385031"><ele>379.0</ele><time>2026-04-16T17:44:22Z</time></trkpt><trkpt lat="44.80599433051175" lon="7.316062094356562"><ele>379.0</ele><time>2026-04-16T17:44:24Z</time></trkpt><trkpt lat="44.80609140411654" lon="7.316032740370961"><ele>379.0</ele><time>2026-04-16T17:44:26Z</time></trkpt><trkpt lat="44.80618908475585" lon="7.316004168395511"><ele>379.0</ele><time>2026-04-16T17:44:28Z</time></trkpt><trkpt lat="44.806284561335616" lon="7.315971098746952"><ele>379.0</ele><time>2026-04-16T17:44:30Z</time></trkpt><trkpt lat="44.80638307497345" lon="7.315941165183054"><ele>379.2</ele><time>2026-04-16T17:44:32Z</time></trkpt><trkpt lat="44.80648048971063" lon="7.3159133874103475"><ele>379.4</ele><time>2026-04-16T17:44:34Z</time></trkpt><trkpt lat="44.80658004891928" lon="7.315883544538973"><ele>379.6</ele><time>2026-04-16T17:44:36Z</time></trkpt><trkpt lat="44.80667942606205" lon="7.315852766233687"><ele>379.8</ele><time>2026-04-16T17:44:38Z</time></trkpt><trkpt lat="44.8067797432496" lon="7.315822554281458"><ele>380.0</ele><time>2026-04-16T17:44:40Z</time></trkpt><trkpt lat="44.806876724992804" lon="7.315788646350624"><ele>379.6</ele><time>2026-04-16T17:44:42Z</time></trkpt><trkpt lat="44.8069741169486" lon="7.31575716577957"><ele>379.2</ele><time>2026-04-16T17:44:44Z</time></trkpt><trkpt lat="44.80707468002228" lon="7.315727685888221"><ele>378.79999999999995</ele><time>2026-04-16T17:44:46Z</time></trkpt><trkpt lat="44.80717644639693" lon="7.315698563063301"><ele>378.4</ele><time>2026-04-16T17:44:48Z</time></trkpt><trkpt lat="44.807276221266775" lon="7.315669215868563"><ele>378.0</ele><time>2026-04-16T17:44:50Z</time></trkpt><trkpt lat="44.80737494572222" lon="7.315637191990866"><ele>378.0</ele><time>2026-04-16T17:44:52Z</time></trkpt><trkpt lat="44.8074721102761" lon="7.315607173244502"><ele>378.0</ele><time>2026-04-16T17:44:54Z</time></trkpt><trkpt lat="44.807569090927785" lon="7.315578477148621"><ele>378.0</ele><time>2026-04-16T17:44:56Z</time></trkpt><trkpt lat="44.80766947858985" lon="7.315549184574633"><ele>378.0</ele><time>2026-04-16T17:44:58Z</time></trkpt><trkpt lat="44.80777195473606" lon="7.315515247139799"><ele>378.0</ele><time>2026-04-16T17:45:00Z</time></trkpt><trkpt lat="44.80787614752137" lon="7.315486069941437"><ele>378.2</ele><time>2026-04-16T17:45:02Z</time></trkpt><trkpt lat="44.80797867787601" lon="7.315455173035399"><ele>378.4</ele><time>2026-04-16T17:45:04Z</time></trkpt><trkpt lat="44.808080073934484" lon="7.31542618680022"><ele>378.59999999999997</ele><time>2026-04-16T17:45:06Z</time></trkpt><trkpt lat="44.808181080691554" lon="7.315401023632162"><ele>378.79999999999995</ele><time>2026-04-16T17:45:08Z</time></trkpt><trkpt lat="44.808282659376374" lon="7.315369536504968"><ele>379.0</ele><time>2026-04-16T17:45:10Z</time></trkpt><trkpt lat="44.80838337424136" lon="7.315340284515464"><ele>379.0</ele><time>2026-04-16T17:45:12Z</time></trkpt><trkpt lat="44.80848185171582" lon="7.315306590058614"><ele>379.0</ele><time>2026-04-16T17:45:14Z</time></trkpt><trkpt lat="44.80858464072499" lon="7.3152762290533735"><ele>379.0</ele><time>2026-04-16T17:45:16.001Z</time></trkpt><trkpt lat="44.808687618547594" lon="7.31524584228184"><ele>379.0</ele><time>2026-04-16T17:45:18.001Z</time></trkpt><trkpt lat="44.808791736972815" lon="7.315215576575226"><ele>379.0</ele><time>2026-04-16T17:45:20.001Z</time></trkpt><trkpt lat="44.80889575585482" lon="7.315183702210833"><ele>379.0</ele><time>2026-04-16T17:45:22.001Z</time></trkpt><trkpt lat="44.8089970560228" lon="7.315151246984549"><ele>379.0</ele><time>2026-04-16T17:45:24.001Z</time></trkpt><trkpt lat="44.80909995814121" lon="7.315120928809124"><ele>379.0</ele><time>2026-04-16T17:45:26.001Z</time></trkpt><trkpt lat="44.80920289580981" lon="7.31509181046289"><ele>379.0</ele><time>2026-04-16T17:45:28.001Z</time></trkpt><trkpt lat="44.80930342929348" lon="7.315059944198949"><ele>379.0</ele><time>2026-04-16T17:45:30.001Z</time></trkpt><trkpt lat="44.809404100060085" lon="7.315030698699503"><ele>379.6</ele><time>2026-04-16T17:45:32.001Z</time></trkpt><trkpt lat="44.80950357389676" lon="7.3149972054826735"><ele>380.2</ele><time>2026-04-16T17:45:34.001Z</time></trkpt><trkpt lat="44.809604399198854" lon="7.314966373588594"><ele>380.8</ele><time>2026-04-16T17:45:36.001Z</time></trkpt><trkpt lat="44.80970425567459" lon="7.314936733069709"><ele>381.40000000000003</ele><time>2026-04-16T17:45:38.001Z</time></trkpt><trkpt lat="44.809804308678956" lon="7.314908681021854"><ele>382.0</ele><time>2026-04-16T17:45:40.001Z</time></trkpt><trkpt lat="44.809903195044555" lon="7.314877528786843"><ele>382.0</ele><time>2026-04-16T17:45:42.001Z</time></trkpt><trkpt lat="44.81000317748675" lon="7.314848431394149"><ele>382.0</ele><time>2026-04-16T17:45:44.001Z</time></trkpt><trkpt lat="44.81010148584894" lon="7.314818139466487"><ele>382.0</ele><time>2026-04-16T17:45:46.001Z</time></trkpt><trkpt lat="44.81020175163571" lon="7.314787326888778"><ele>382.0</ele><time>2026-04-16T17:45:48.001Z</time></trkpt><trkpt lat="44.810299913810745" lon="7.314755437489019"><ele>382.0</ele><time>2026-04-16T17:45:50.001Z</time></trkpt><trkpt lat="44.81039936259818" lon="7.314723226626094"><ele>380.8</ele><time>2026-04-16T17:45:52.001Z</time></trkpt><trkpt lat="44.81050031443061" lon="7.314697109932385"><ele>379.6</ele><time>2026-04-16T17:45:54.001Z</time></trkpt><trkpt lat="44.81059742510355" lon="7.3146693100547875"><ele>378.40000000000003</ele><time>2026-04-16T17:45:56.001Z</time></trkpt><trkpt lat="44.81069201055756" lon="7.314637179090856"><ele>377.20000000000005</ele><time>2026-04-16T17:45:58.001Z</time></trkpt><trkpt lat="44.81078277454091" lon="7.314608360227545"><ele>376.0</ele><time>2026-04-16T17:46:00.001Z</time></trkpt><trkpt lat="44.8108740102897" lon="7.314583725913292"><ele>376.0</ele><time>2026-04-16T17:46:02.001Z</time></trkpt><trkpt lat="44.81097056110265" lon="7.314554103255981"><ele>376.0</ele><time>2026-04-16T17:46:04.001Z</time></trkpt><trkpt lat="44.811067807797784" lon="7.3145220380620755"><ele>376.0</ele><time>2026-04-16T17:46:06.001Z</time></trkpt><trkpt lat="44.81116621668049" lon="7.314491927288411"><ele>376.0</ele><time>2026-04-16T17:46:08.001Z</time></trkpt><trkpt lat="44.81126409545525" lon="7.314461189734677"><ele>376.0</ele><time>2026-04-16T17:46:10.001Z</time></trkpt><trkpt lat="44.8113595338766" lon="7.31443583338427"><ele>376.0</ele><time>2026-04-16T17:46:12.001Z</time></trkpt><trkpt lat="44.81145850883038" lon="7.31440280523598"><ele>376.0</ele><time>2026-04-16T17:46:14.001Z</time></trkpt><trkpt lat="44.81155361588698" lon="7.314370965105234"><ele>376.0</ele><time>2026-04-16T17:46:16.001Z</time></trkpt><trkpt lat="44.81164440356349" lon="7.314345389938436"><ele>376.0</ele><time>2026-04-16T17:46:18.001Z</time></trkpt><trkpt lat="44.811740339270145" lon="7.314314791833343"><ele>376.0</ele><time>2026-04-16T17:46:20.001Z</time></trkpt><trkpt lat="44.81183591468177" lon="7.314288990857728"><ele>375.8</ele><time>2026-04-16T17:46:22.001Z</time></trkpt><trkpt lat="44.81193044679074" lon="7.314264583184365"><ele>375.6</ele><time>2026-04-16T17:46:24.001Z</time></trkpt><trkpt lat="44.81202398051055" lon="7.314233384485926"><ele>375.4</ele><time>2026-04-16T17:46:26.001Z</time></trkpt><trkpt lat="44.812118813192455" lon="7.314207874421411"><ele>375.2</ele><time>2026-04-16T17:46:28Z</time></trkpt><trkpt lat="44.81221538877062" lon="7.314180619729278"><ele>375.0</ele><time>2026-04-16T17:46:30Z</time></trkpt><trkpt lat="44.81231103397733" lon="7.314150647779967"><ele>375.0</ele><time>2026-04-16T17:46:32Z</time></trkpt><trkpt lat="44.81240789897533" lon="7.314121164517425"><ele>375.0</ele><time>2026-04-16T17:46:34Z</time></trkpt><trkpt lat="44.81250505822883" lon="7.314091042911614"><ele>375.0</ele><time>2026-04-16T17:46:36Z</time></trkpt><trkpt lat="44.8126005871929" lon="7.314055272811213"><ele>375.0</ele><time>2026-04-16T17:46:38Z</time></trkpt><trkpt lat="44.812695039704764" lon="7.3140306428729085"><ele>375.0</ele><time>2026-04-16T17:46:40Z</time></trkpt><trkpt lat="44.81279579949631" lon="7.313996325311232"><ele>374.8</ele><time>2026-04-16T17:46:42Z</time></trkpt><trkpt lat="44.812905454874716" lon="7.313966548964215"><ele>374.6</ele><time>2026-04-16T17:46:44Z</time></trkpt><trkpt lat="44.81301746771294" lon="7.313934830716028"><ele>374.4</ele><time>2026-04-16T17:46:46Z</time></trkpt><trkpt lat="44.813128889091885" lon="7.313900400313091"><ele>374.2</ele><time>2026-04-16T17:46:48Z</time></trkpt><trkpt lat="44.81323473799805" lon="7.313865062654419"><ele>374.0</ele><time>2026-04-16T17:46:50Z</time></trkpt><trkpt lat="44.813335698468926" lon="7.313836321960367"><ele>374.0</ele><time>2026-04-16T17:46:52Z</time></trkpt><trkpt lat="44.8134306916888" lon="7.31380559384919"><ele>374.0</ele><time>2026-04-16T17:46:54Z</time></trkpt><trkpt lat="44.813523428166846" lon="7.313781546084048"><ele>374.0</ele><time>2026-04-16T17:46:56Z</time></trkpt><trkpt lat="44.81360826275605" lon="7.3137546960800135"><ele>374.0</ele><time>2026-04-16T17:46:58Z</time></trkpt><trkpt lat="44.81369279372009" lon="7.313722413902349"><ele>374.0</ele><time>2026-04-16T17:47:00Z</time></trkpt><trkpt lat="44.813776041512305" lon="7.313688830584379"><ele>374.33333333333337</ele><time>2026-04-16T17:47:02Z</time></trkpt><trkpt lat="44.81385823752195" lon="7.313657417276549"><ele>374.6666666666667</ele><time>2026-04-16T17:47:04Z</time></trkpt><trkpt lat="44.81393931989971" lon="7.313623485532381"><ele>375.0</ele><time>2026-04-16T17:47:06Z</time></trkpt><trkpt lat="44.814016104981356" lon="7.313590430052332"><ele>375.3333333333333</ele><time>2026-04-16T17:47:08Z</time></trkpt><trkpt lat="44.8140938382165" lon="7.313553113418218"><ele>375.66666666666663</ele><time>2026-04-16T17:47:10Z</time></trkpt><trkpt lat="44.81417306931765" lon="7.313511688803288"><ele>376.0</ele><time>2026-04-16T17:47:12Z</time></trkpt><trkpt lat="44.81425074327212" lon="7.313474318635804"><ele>376.0</ele><time>2026-04-16T17:47:14Z</time></trkpt><trkpt lat="44.814328603934534" lon="7.313426538912411"><ele>376.0</ele><time>2026-04-16T17:47:16Z</time></trkpt><trkpt lat="44.81440121376424" lon="7.313375314836258"><ele>376.0</ele><time>2026-04-16T17:47:18Z</time></trkpt><trkpt lat="44.81447980724076" lon="7.313320132445403"><ele>376.0</ele><time>2026-04-16T17:47:20Z</time></trkpt><trkpt lat="44.81455420686413" lon="7.3132683314093585"><ele>376.0</ele><time>2026-04-16T17:47:22Z</time></trkpt><trkpt lat="44.814633104501084" lon="7.313216601224649"><ele>376.0</ele><time>2026-04-16T17:47:24Z</time></trkpt><trkpt lat="44.81470925301305" lon="7.313162995420657"><ele>376.0</ele><time>2026-04-16T17:47:26.001Z</time></trkpt><trkpt lat="44.814786804369305" lon="7.31311177329566"><ele>376.0</ele><time>2026-04-16T17:47:28.001Z</time></trkpt><trkpt lat="44.81485438537888" lon="7.313065052482603"><ele>376.0</ele><time>2026-04-16T17:47:30.001Z</time></trkpt><trkpt lat="44.81492845352217" lon="7.3130032839047105"><ele>376.0</ele><time>2026-04-16T17:47:32.001Z</time></trkpt><trkpt lat="44.815011724406624" lon="7.312942811818785"><ele>376.0</ele><time>2026-04-16T17:47:34.001Z</time></trkpt><trkpt lat="44.81509907380693" lon="7.31288248254169"><ele>376.0</ele><time>2026-04-16T17:47:36.001Z</time></trkpt><trkpt lat="44.81518384290092" lon="7.312819212483053"><ele>376.20000000000005</ele><time>2026-04-16T17:47:38.001Z</time></trkpt><trkpt lat="44.81526553750708" lon="7.312757252993087"><ele>376.40000000000003</ele><time>2026-04-16T17:47:40.001Z</time></trkpt><trkpt lat="44.81534725782217" lon="7.3126953087340665"><ele>376.6</ele><time>2026-04-16T17:47:42.001Z</time></trkpt><trkpt lat="44.81542564134921" lon="7.312635529954761"><ele>376.8</ele><time>2026-04-16T17:47:44.001Z</time></trkpt><trkpt lat="44.81550501214649" lon="7.31257153393194"><ele>377.0</ele><time>2026-04-16T17:47:46.001Z</time></trkpt><trkpt lat="44.815582605219944" lon="7.3125109883862445"><ele>377.0</ele><time>2026-04-16T17:47:48.001Z</time></trkpt><trkpt lat="44.81565839226768" lon="7.3124496078884755"><ele>377.0</ele><time>2026-04-16T17:47:50.001Z</time></trkpt><trkpt lat="44.815736309921114" lon="7.312391195665863"><ele>377.0</ele><time>2026-04-16T17:47:52.001Z</time></trkpt><trkpt lat="44.81581575198452" lon="7.312330835596759"><ele>377.0</ele><time>2026-04-16T17:47:54.001Z</time></trkpt><trkpt lat="44.81589692144635" lon="7.31226798181721"><ele>377.0</ele><time>2026-04-16T17:47:56.001Z</time></trkpt><trkpt lat="44.81597709920516" lon="7.312210495037257"><ele>377.0</ele><time>2026-04-16T17:47:58.001Z</time></trkpt><trkpt lat="44.816055285741506" lon="7.3121549763294045"><ele>376.6666666666667</ele><time>2026-04-16T17:48:00.001Z</time></trkpt><trkpt lat="44.816132676081814" lon="7.312094530171133"><ele>376.33333333333337</ele><time>2026-04-16T17:48:02.001Z</time></trkpt><trkpt lat="44.81620485795146" lon="7.312036181312847"><ele>376.0</ele><time>2026-04-16T17:48:04.001Z</time></trkpt><trkpt lat="44.81626693728124" lon="7.31198434612983"><ele>375.6666666666667</ele><time>2026-04-16T17:48:06.001Z</time></trkpt><trkpt lat="44.81633610451179" lon="7.311926157245904"><ele>375.3333333333333</ele><time>2026-04-16T17:48:08.001Z</time></trkpt><trkpt lat="44.81641991736663" lon="7.311865503108683"><ele>375.0</ele><time>2026-04-16T17:48:10.001Z</time></trkpt><trkpt lat="44.816502570291746" lon="7.311807734095741"><ele>375.0</ele><time>2026-04-16T17:48:12.001Z</time></trkpt><trkpt lat="44.816583971487034" lon="7.311743470940245"><ele>375.0</ele><time>2026-04-16T17:48:14.001Z</time></trkpt><trkpt lat="44.816665735902475" lon="7.31168237975829"><ele>375.0</ele><time>2026-04-16T17:48:16.001Z</time></trkpt><trkpt lat="44.81675206144134" lon="7.311620023774074"><ele>375.0</ele><time>2026-04-16T17:48:18.001Z</time></trkpt><trkpt lat="44.8168395172923" lon="7.311558340969416"><ele>375.0</ele><time>2026-04-16T17:48:20.001Z</time></trkpt><trkpt lat="44.816926088552904" lon="7.3114932998589985"><ele>375.2</ele><time>2026-04-16T17:48:22.001Z</time></trkpt><trkpt lat="44.81701233342777" lon="7.311427586434373"><ele>375.4</ele><time>2026-04-16T17:48:24.001Z</time></trkpt><trkpt lat="44.81710060312249" lon="7.311358991568643"><ele>375.6</ele><time>2026-04-16T17:48:26.001Z</time></trkpt><trkpt lat="44.81718939702572" lon="7.311296366284949"><ele>375.8</ele><time>2026-04-16T17:48:28.001Z</time></trkpt><trkpt lat="44.8172768848613" lon="7.311227910142068"><ele>376.0</ele><time>2026-04-16T17:48:30.001Z</time></trkpt><trkpt lat="44.81736520642493" lon="7.311165435626508"><ele>375.8</ele><time>2026-04-16T17:48:32.001Z</time></trkpt><trkpt lat="44.81745223247696" lon="7.3110998650359"><ele>375.6</ele><time>2026-04-16T17:48:34Z</time></trkpt><trkpt lat="44.81753902566136" lon="7.311033414394369"><ele>375.4</ele><time>2026-04-16T17:48:36Z</time></trkpt><trkpt lat="44.81762396471397" lon="7.310964100434422"><ele>375.2</ele><time>2026-04-16T17:48:38Z</time></trkpt><trkpt lat="44.81770763151844" lon="7.3109012837353005"><ele>375.0</ele><time>2026-04-16T17:48:40Z</time></trkpt><trkpt lat="44.817791546793586" lon="7.310839952809454"><ele>375.0</ele><time>2026-04-16T17:48:42Z</time></trkpt><trkpt lat="44.817877256851965" lon="7.31077603235989"><ele>375.0</ele><time>2026-04-16T17:48:44Z</time></trkpt><trkpt lat="44.81796225380348" lon="7.310710176630343"><ele>375.0</ele><time>2026-04-16T17:48:46Z</time></trkpt><trkpt lat="44.81805148161118" lon="7.3106457578834085"><ele>375.0</ele><time>2026-04-16T17:48:48Z</time></trkpt><trkpt lat="44.81813679611249" lon="7.310578794663944"><ele>375.0</ele><time>2026-04-16T17:48:50Z</time></trkpt><trkpt lat="44.818221121268536" lon="7.31051158058407"><ele>375.4</ele><time>2026-04-16T17:48:52Z</time></trkpt><trkpt lat="44.81830627391398" lon="7.310446332552017"><ele>375.8</ele><time>2026-04-16T17:48:54Z</time></trkpt><trkpt lat="44.818391837315914" lon="7.310381088621562"><ele>376.20000000000005</ele><time>2026-04-16T17:48:56Z</time></trkpt><trkpt lat="44.81847690610888" lon="7.310320387707853"><ele>376.6</ele><time>2026-04-16T17:48:58Z</time></trkpt><trkpt lat="44.8185614866495" lon="7.31025092098626"><ele>377.0</ele><time>2026-04-16T17:49:00Z</time></trkpt><trkpt lat="44.81864814010571" lon="7.31018774422871"><ele>377.0</ele><time>2026-04-16T17:49:02Z</time></trkpt><trkpt lat="44.81873417974506" lon="7.310123563626158"><ele>377.0</ele><time>2026-04-16T17:49:04Z</time></trkpt><trkpt lat="44.8188196485159" lon="7.310058024852951"><ele>377.0</ele><time>2026-04-16T17:49:06Z</time></trkpt><trkpt lat="44.81890744501303" lon="7.309993063724477"><ele>377.0</ele><time>2026-04-16T17:49:08Z</time></trkpt><trkpt lat="44.81899136076933" lon="7.309929559298455"><ele>377.0</ele><time>2026-04-16T17:49:10Z</time></trkpt><trkpt lat="44.81907491805071" lon="7.3098626450065565"><ele>377.0</ele><time>2026-04-16T17:49:12Z</time></trkpt><trkpt lat="44.819159792703495" lon="7.309797904477826"><ele>377.0</ele><time>2026-04-16T17:49:14Z</time></trkpt><trkpt lat="44.81924518303393" lon="7.309736645172579"><ele>377.0</ele><time>2026-04-16T17:49:16Z</time></trkpt><trkpt lat="44.819327803178545" lon="7.309672325164729"><ele>377.0</ele><time>2026-04-16T17:49:18Z</time></trkpt><trkpt lat="44.81941322876884" lon="7.309608330862041"><ele>377.0</ele><time>2026-04-16T17:49:20Z</time></trkpt><trkpt lat="44.81949410789079" lon="7.309543851830515"><ele>377.6</ele><time>2026-04-16T17:49:22Z</time></trkpt><trkpt lat="44.819574812606625" lon="7.309475795629121"><ele>378.20000000000005</ele><time>2026-04-16T17:49:24Z</time></trkpt><trkpt lat="44.81966339694617" lon="7.3094151127449525"><ele>378.8</ele><time>2026-04-16T17:49:26Z</time></trkpt><trkpt lat="44.81975127094697" lon="7.30934942224799"><ele>379.4</ele><time>2026-04-16T17:49:28Z</time></trkpt><trkpt lat="44.81983635197895" lon="7.309287428660676"><ele>380.0</ele><time>2026-04-16T17:49:30Z</time></trkpt><trkpt lat="44.819920925975026" lon="7.309225260143377"><ele>380.0</ele><time>2026-04-16T17:49:32Z</time></trkpt><trkpt lat="44.82000462124383" lon="7.309160398205555"><ele>380.0</ele><time>2026-04-16T17:49:34.001Z</time></trkpt><trkpt lat="44.8200897590972" lon="7.309100820314585"><ele>380.0</ele><time>2026-04-16T17:49:36.001Z</time></trkpt><trkpt lat="44.820172024704135" lon="7.309038084699267"><ele>380.0</ele><time>2026-04-16T17:49:38.001Z</time></trkpt><trkpt lat="44.820255395381075" lon="7.308977590937624"><ele>380.0</ele><time>2026-04-16T17:49:40.001Z</time></trkpt><trkpt lat="44.82033695419713" lon="7.308915621420408"><ele>380.6</ele><time>2026-04-16T17:49:42.001Z</time></trkpt><trkpt lat="44.820419551174915" lon="7.308851181268009"><ele>381.2</ele><time>2026-04-16T17:49:44.001Z</time></trkpt><trkpt lat="44.82050139287644" lon="7.308783717640105"><ele>381.79999999999995</ele><time>2026-04-16T17:49:46.001Z</time></trkpt><trkpt lat="44.82058515972506" lon="7.308721105010592"><ele>382.4</ele><time>2026-04-16T17:49:48.001Z</time></trkpt><trkpt lat="44.820670145808776" lon="7.30865933182273"><ele>383.0</ele><time>2026-04-16T17:49:50.001Z</time></trkpt><trkpt lat="44.82075296528259" lon="7.308602708537578"><ele>383.0</ele><time>2026-04-16T17:49:52.001Z</time></trkpt><trkpt lat="44.820830886508496" lon="7.308540154836655"><ele>383.0</ele><time>2026-04-16T17:49:54.001Z</time></trkpt><trkpt lat="44.82090897240158" lon="7.308478109807443"><ele>383.0</ele><time>2026-04-16T17:49:56.001Z</time></trkpt><trkpt lat="44.820988569597816" lon="7.308418922032504"><ele>383.0</ele><time>2026-04-16T17:49:58.001Z</time></trkpt><trkpt lat="44.82106493691019" lon="7.3083618220182025"><ele>383.0</ele><time>2026-04-16T17:50:00.001Z</time></trkpt><trkpt lat="44.82113235135669" lon="7.308308786760041"><ele>383.0</ele><time>2026-04-16T17:50:02.001Z</time></trkpt><trkpt lat="44.82119229983275" lon="7.308269209590103"><ele>383.1666666666667</ele><time>2026-04-16T17:50:04.001Z</time></trkpt><trkpt lat="44.82126233411313" lon="7.3081995115303"><ele>383.33333333333337</ele><time>2026-04-16T17:50:07.001Z</time></trkpt><trkpt lat="44.82132950981776" lon="7.3081563826458265"><ele>383.5</ele><time>2026-04-16T17:50:09.001Z</time></trkpt><trkpt lat="44.82141361182148" lon="7.308104508763258"><ele>383.6666666666667</ele><time>2026-04-16T17:50:11.001Z</time></trkpt><trkpt lat="44.82149801140092" lon="7.3080396869992805"><ele>383.8333333333333</ele><time>2026-04-16T17:50:13.001Z</time></trkpt><trkpt lat="44.82158787063825" lon="7.307980684550208"><ele>384.0</ele><time>2026-04-16T17:50:15.001Z</time></trkpt><trkpt lat="44.821673608718754" lon="7.30792260246501"><ele>384.2</ele><time>2026-04-16T17:50:17.001Z</time></trkpt><trkpt lat="44.821756148231756" lon="7.307861318150145"><ele>384.4</ele><time>2026-04-16T17:50:19.001Z</time></trkpt><trkpt lat="44.82184082563655" lon="7.307795625123195"><ele>384.6</ele><time>2026-04-16T17:50:21.001Z</time></trkpt><trkpt lat="44.821924666357795" lon="7.307729561693775"><ele>384.8</ele><time>2026-04-16T17:50:23.001Z</time></trkpt><trkpt lat="44.82200793172986" lon="7.307663615316695"><ele>385.0</ele><time>2026-04-16T17:50:25.001Z</time></trkpt><trkpt lat="44.82208887255719" lon="7.307598132175842"><ele>384.6</ele><time>2026-04-16T17:50:27.001Z</time></trkpt><trkpt lat="44.822171917178615" lon="7.307535915212485"><ele>384.2</ele><time>2026-04-16T17:50:29.001Z</time></trkpt><trkpt lat="44.8222566150135" lon="7.307471965781343"><ele>383.79999999999995</ele><time>2026-04-16T17:50:31.001Z</time></trkpt><trkpt lat="44.82234604981438" lon="7.307418278726448"><ele>383.4</ele><time>2026-04-16T17:50:33.001Z</time></trkpt><trkpt lat="44.822438721459314" lon="7.307373606132593"><ele>383.0</ele><time>2026-04-16T17:50:35.001Z</time></trkpt><trkpt lat="44.82252954907878" lon="7.307328775352084"><ele>382.79999999999995</ele><time>2026-04-16T17:50:37.001Z</time></trkpt><trkpt lat="44.82266088056269" lon="7.307274168645608"><ele>382.6</ele><time>2026-04-16T17:50:40Z</time></trkpt><trkpt lat="44.82274278446744" lon="7.307246733090547"><ele>382.4</ele><time>2026-04-16T17:50:42Z</time></trkpt><trkpt lat="44.822810302255384" lon="7.307186318829522"><ele>382.20000000000005</ele><time>2026-04-16T17:50:44Z</time></trkpt><trkpt lat="44.82281040979404" lon="7.30705542204204"><ele>382.0</ele><time>2026-04-16T17:50:46Z</time></trkpt><trkpt lat="44.822795005271345" lon="7.3069435822939734"><ele>381.8333333333333</ele><time>2026-04-16T17:50:48Z</time></trkpt><trkpt lat="44.822865446856326" lon="7.306864447173951"><ele>381.66666666666663</ele><time>2026-04-16T17:50:50Z</time></trkpt><trkpt lat="44.822925880694335" lon="7.306780669509375"><ele>381.5</ele><time>2026-04-16T17:50:52Z</time></trkpt><trkpt lat="44.8229870634007" lon="7.306692980229808"><ele>381.3333333333333</ele><time>2026-04-16T17:50:54Z</time></trkpt><trkpt lat="44.82304809073695" lon="7.3066011667439295"><ele>381.1666666666667</ele><time>2026-04-16T17:50:56Z</time></trkpt><trkpt lat="44.82310557100797" lon="7.306506452797606"><ele>381.0</ele><time>2026-04-16T17:50:58Z</time></trkpt><trkpt lat="44.82315898709334" lon="7.306414148125267"><ele>381.3333333333333</ele><time>2026-04-16T17:51:00Z</time></trkpt><trkpt lat="44.82324175037146" lon="7.306352441380293"><ele>381.6666666666667</ele><time>2026-04-16T17:51:02Z</time></trkpt><trkpt lat="44.823302758146376" lon="7.306265346540984"><ele>382.0</ele><time>2026-04-16T17:51:04Z</time></trkpt><trkpt lat="44.82336657549635" lon="7.306166354779595"><ele>382.33333333333337</ele><time>2026-04-16T17:51:06Z</time></trkpt><trkpt lat="44.823423790689894" lon="7.306077655695574"><ele>382.6666666666667</ele><time>2026-04-16T17:51:08Z</time></trkpt><trkpt lat="44.823482479348804" lon="7.305994147994456"><ele>383.0</ele><time>2026-04-16T17:51:10Z</time></trkpt><trkpt lat="44.82353927121275" lon="7.305914107213248"><ele>383.0</ele><time>2026-04-16T17:51:12Z</time></trkpt><trkpt lat="44.823593017074195" lon="7.305832865921862"><ele>383.0</ele><time>2026-04-16T17:51:14Z</time></trkpt><trkpt lat="44.823642842030736" lon="7.305760140938783"><ele>383.0</ele><time>2026-04-16T17:51:16Z</time></trkpt><trkpt lat="44.823690074882016" lon="7.305696629961147"><ele>383.0</ele><time>2026-04-16T17:51:18Z</time></trkpt><trkpt lat="44.82373884659722" lon="7.305623319097396"><ele>383.0</ele><time>2026-04-16T17:51:20Z</time></trkpt><trkpt lat="44.823787369837284" lon="7.305545313946939"><ele>383.0</ele><time>2026-04-16T17:51:22Z</time></trkpt><trkpt lat="44.82383717271026" lon="7.305471864893328"><ele>383.0</ele><time>2026-04-16T17:51:24Z</time></trkpt><trkpt lat="44.8238836839896" lon="7.305404097845774"><ele>383.2857142857143</ele><time>2026-04-16T17:51:26Z</time></trkpt><trkpt lat="44.82393421803896" lon="7.3053343691560455"><ele>383.57142857142856</ele><time>2026-04-16T17:51:28Z</time></trkpt><trkpt lat="44.82398105833734" lon="7.3052587693343165"><ele>383.8571428571429</ele><time>2026-04-16T17:51:30Z</time></trkpt><trkpt lat="44.82401147545421" lon="7.305161668709245"><ele>384.1428571428571</ele><time>2026-04-16T17:51:32Z</time></trkpt><trkpt lat="44.82404678752453" lon="7.305062958859264"><ele>384.42857142857144</ele><time>2026-04-16T17:51:34Z</time></trkpt><trkpt lat="44.82408493322488" lon="7.3049756511405635"><ele>384.7142857142857</ele><time>2026-04-16T17:51:36Z</time></trkpt><trkpt lat="44.82412084257261" lon="7.304889322726649"><ele>385.0</ele><time>2026-04-16T17:51:38Z</time></trkpt><trkpt lat="44.82416971613055" lon="7.304812377283908"><ele>385.00000000000006</ele><time>2026-04-16T17:51:40.001Z</time></trkpt><trkpt lat="44.8242265027526" lon="7.304751368878287"><ele>385.0</ele><time>2026-04-16T17:51:42.001Z</time></trkpt><trkpt lat="44.82430408513214" lon="7.304723814439886"><ele>385.0</ele><time>2026-04-16T17:51:44.001Z</time></trkpt><trkpt lat="44.824382015353365" lon="7.304730417553717"><ele>385.0</ele><time>2026-04-16T17:51:46.001Z</time></trkpt><trkpt lat="44.824458704412116" lon="7.304749544229041"><ele>385.00000000000006</ele><time>2026-04-16T17:51:48.001Z</time></trkpt><trkpt lat="44.82453858093652" lon="7.304692745582764"><ele>385.0</ele><time>2026-04-16T17:51:51.001Z</time></trkpt><trkpt lat="44.824562066873945" lon="7.30459475810251"><ele>385.14285714285717</ele><time>2026-04-16T17:51:53.001Z</time></trkpt><trkpt lat="44.82456122228379" lon="7.304492335179421"><ele>385.2857142857143</ele><time>2026-04-16T17:51:55.001Z</time></trkpt><trkpt lat="44.824561890823276" lon="7.304393045741883"><ele>385.42857142857144</ele><time>2026-04-16T17:51:57.001Z</time></trkpt><trkpt lat="44.82456697011269" lon="7.304295462957082"><ele>385.57142857142856</ele><time>2026-04-16T17:51:59.001Z</time></trkpt><trkpt lat="44.82457383014102" lon="7.304197997678421"><ele>385.7142857142857</ele><time>2026-04-16T17:52:01.001Z</time></trkpt><trkpt lat="44.82457697438254" lon="7.304098028675226"><ele>385.8571428571429</ele><time>2026-04-16T17:52:03.001Z</time></trkpt><trkpt lat="44.8245807643497" lon="7.3039959519650175"><ele>386.0</ele><time>2026-04-16T17:52:05.001Z</time></trkpt><trkpt lat="44.824580877705515" lon="7.303897107272027"><ele>386.49999999999994</ele><time>2026-04-16T17:52:07.001Z</time></trkpt><trkpt lat="44.82458208710298" lon="7.303800896527931"><ele>387.0</ele><time>2026-04-16T17:52:09.001Z</time></trkpt><trkpt lat="44.8245847230305" lon="7.303662519036385"><ele>387.5</ele><time>2026-04-16T17:52:12.001Z</time></trkpt><trkpt lat="44.824589603228524" lon="7.303537991105376"><ele>388.0</ele><time>2026-04-16T17:52:15.001Z</time></trkpt><trkpt lat="44.82462893895601" lon="7.303468418433739"><ele>388.49999999999994</ele><time>2026-04-16T17:52:20.001Z</time></trkpt><trkpt lat="44.82471549820175" lon="7.303482382535227"><ele>389.0</ele><time>2026-04-16T17:52:23.001Z</time></trkpt><trkpt lat="44.824806894557405" lon="7.303513500017939"><ele>388.99999999999994</ele><time>2026-04-16T17:52:25.001Z</time></trkpt><trkpt lat="44.82488461552883" lon="7.303534625014964"><ele>389.0</ele><time>2026-04-16T17:52:27.001Z</time></trkpt><trkpt lat="44.82496619410643" lon="7.303561823193719"><ele>389.0</ele><time>2026-04-16T17:52:29.001Z</time></trkpt><trkpt lat="44.82504999658841" lon="7.303587505336182"><ele>389.0</ele><time>2026-04-16T17:52:31.001Z</time></trkpt><trkpt lat="44.825137062620804" lon="7.30361040927811"><ele>388.99999999999994</ele><time>2026-04-16T17:52:33.001Z</time></trkpt><trkpt lat="44.82522451978339" lon="7.303622518021254"><ele>389.0</ele><time>2026-04-16T17:52:35.001Z</time></trkpt><trkpt lat="44.825312462330416" lon="7.303638136068746"><ele>389.42857142857144</ele><time>2026-04-16T17:52:37.001Z</time></trkpt><trkpt lat="44.82539044981475" lon="7.303645817073409"><ele>389.85714285714283</ele><time>2026-04-16T17:52:39.001Z</time></trkpt><trkpt lat="44.82546282731619" lon="7.303653400621938"><ele>390.2857142857143</ele><time>2026-04-16T17:52:41.001Z</time></trkpt><trkpt lat="44.82553107134091" lon="7.303654310202188"><ele>390.7142857142857</ele><time>2026-04-16T17:52:43.001Z</time></trkpt><trkpt lat="44.825603354060114" lon="7.3036417440633965"><ele>391.1428571428571</ele><time>2026-04-16T17:52:45Z</time></trkpt><trkpt lat="44.82566324495941" lon="7.303613617041464"><ele>391.57142857142856</ele><time>2026-04-16T17:52:47Z</time></trkpt><trkpt lat="44.825714811778646" lon="7.303538763847383"><ele>392.0</ele><time>2026-04-16T17:52:50Z</time></trkpt><trkpt lat="44.82570624167772" lon="7.303447330360834"><ele>392.0</ele><time>2026-04-16T17:52:52Z</time></trkpt><trkpt lat="44.825709306407866" lon="7.30335306633744"><ele>392.0</ele><time>2026-04-16T17:52:54Z</time></trkpt><trkpt lat="44.82571748841245" lon="7.3032522059671745"><ele>392.0</ele><time>2026-04-16T17:52:56Z</time></trkpt><trkpt lat="44.8257380785264" lon="7.303154917476229"><ele>392.0</ele><time>2026-04-16T17:52:58Z</time></trkpt><trkpt lat="44.82575511164597" lon="7.303053604228069"><ele>392.0</ele><time>2026-04-16T17:53:00Z</time></trkpt><trkpt lat="44.825771293554176" lon="7.302954206197537"><ele>392.0</ele><time>2026-04-16T17:53:02Z</time></trkpt><trkpt lat="44.82579232602441" lon="7.302856421576953"><ele>392.0</ele><time>2026-04-16T17:53:04Z</time></trkpt><trkpt lat="44.82580790113879" lon="7.302756475434827"><ele>391.57142857142856</ele><time>2026-04-16T17:53:06Z</time></trkpt><trkpt lat="44.82584404715215" lon="7.302673366086337"><ele>391.1428571428571</ele><time>2026-04-16T17:53:08Z</time></trkpt><trkpt lat="44.82588520459837" lon="7.302600352421883"><ele>390.7142857142857</ele><time>2026-04-16T17:53:10Z</time></trkpt><trkpt lat="44.82592501871162" lon="7.302525999166827"><ele>390.2857142857143</ele><time>2026-04-16T17:53:12Z</time></trkpt><trkpt lat="44.82596773655919" lon="7.302455701409951"><ele>389.85714285714283</ele><time>2026-04-16T17:53:14Z</time></trkpt><trkpt lat="44.826052280968526" lon="7.302487896671637"><ele>389.42857142857144</ele><time>2026-04-16T17:53:17Z</time></trkpt><trkpt lat="44.82603668420805" lon="7.302584658838436"><ele>389.0</ele><time>2026-04-16T17:53:19Z</time></trkpt><trkpt lat="44.82605733281288" lon="7.302676910880628"><ele>398.0</ele><time>2026-04-16T17:53:22Z</time></trkpt></trkseg></trk></gpx>